<?xml version="1.0" encoding="UTF-8" standalone="no" ?>
<gpx xmlns="http://www.topografix.com/GPX/1/1" xmlns:xsi="http://www.w3.org/2001/XMLSchema-instance" xsi:schemaLocation="http://www.topografix.com/GPX/1/1 http://www.topografix.com/GPX/1/1/gpx.xsd" version="1.1" creator="VisuGPX - https://www.visugpx.com">
  <metadata>
    <name>Les Launes Valberg 080617</name>
  </metadata>
  <trk>
    <name><![CDATA[Les Launes Valberg 080617_1]]></name>
    <trkseg>
      <trkpt lat="44.09031" lon="6.96933">
        <ele>1540</ele>
        <time>2017-06-08T08:14:31Z</time>
      </trkpt>
      <trkpt lat="44.09033" lon="6.96931">
        <ele>1540</ele>
        <time>2017-06-08T08:14:31Z</time>
      </trkpt>
      <trkpt lat="44.09034" lon="6.96924">
        <ele>1539</ele>
        <time>2017-06-08T08:14:31Z</time>
      </trkpt>
      <trkpt lat="44.09032" lon="6.96918">
        <ele>1539</ele>
        <time>2017-06-08T08:14:31Z</time>
      </trkpt>
      <trkpt lat="44.09028" lon="6.96914">
        <ele>1539</ele>
        <time>2017-06-08T08:14:31Z</time>
      </trkpt>
      <trkpt lat="44.09017" lon="6.9691">
        <ele>1539</ele>
        <time>2017-06-08T08:15:47Z</time>
      </trkpt>
      <trkpt lat="44.09013" lon="6.96913">
        <ele>1536</ele>
        <time>2017-06-08T08:15:47Z</time>
      </trkpt>
      <trkpt lat="44.0901" lon="6.96915">
        <ele>1536</ele>
        <time>2017-06-08T08:15:47Z</time>
      </trkpt>
      <trkpt lat="44.09006" lon="6.96914">
        <ele>1536</ele>
        <time>2017-06-08T08:15:47Z</time>
      </trkpt>
      <trkpt lat="44.09006" lon="6.96911">
        <ele>1536</ele>
        <time>2017-06-08T08:15:47Z</time>
      </trkpt>
      <trkpt lat="44.09006" lon="6.96907">
        <ele>1536</ele>
        <time>2017-06-08T08:16:00Z</time>
      </trkpt>
      <trkpt lat="44.09004" lon="6.96901">
        <ele>1536</ele>
        <time>2017-06-08T08:16:01Z</time>
      </trkpt>
      <trkpt lat="44.09004" lon="6.96898">
        <ele>1536</ele>
        <time>2017-06-08T08:16:01Z</time>
      </trkpt>
      <trkpt lat="44.09001" lon="6.96892">
        <ele>1536</ele>
        <time>2017-06-08T08:16:01Z</time>
      </trkpt>
      <trkpt lat="44.08999" lon="6.9688">
        <ele>1536</ele>
        <time>2017-06-08T08:16:18Z</time>
      </trkpt>
      <trkpt lat="44.08999" lon="6.96877">
        <ele>1536</ele>
        <time>2017-06-08T08:16:18Z</time>
      </trkpt>
      <trkpt lat="44.08995" lon="6.96872">
        <ele>1538</ele>
        <time>2017-06-08T08:16:18Z</time>
      </trkpt>
      <trkpt lat="44.08992" lon="6.96868">
        <ele>1538</ele>
        <time>2017-06-08T08:16:18Z</time>
      </trkpt>
      <trkpt lat="44.08989" lon="6.96865">
        <ele>1538</ele>
        <time>2017-06-08T08:16:32Z</time>
      </trkpt>
      <trkpt lat="44.08986" lon="6.96858">
        <ele>1537</ele>
        <time>2017-06-08T08:16:33Z</time>
      </trkpt>
      <trkpt lat="44.0898" lon="6.96854">
        <ele>1537</ele>
        <time>2017-06-08T08:16:33Z</time>
      </trkpt>
      <trkpt lat="44.0898" lon="6.96853">
        <ele>1537</ele>
        <time>2017-06-08T08:16:33Z</time>
      </trkpt>
      <trkpt lat="44.08979" lon="6.96848">
        <ele>1537</ele>
        <time>2017-06-08T08:16:48Z</time>
      </trkpt>
      <trkpt lat="44.08978" lon="6.96846">
        <ele>1538</ele>
        <time>2017-06-08T08:16:49Z</time>
      </trkpt>
      <trkpt lat="44.08976" lon="6.9684">
        <ele>1538</ele>
        <time>2017-06-08T08:16:49Z</time>
      </trkpt>
      <trkpt lat="44.08972" lon="6.96834">
        <ele>1538</ele>
        <time>2017-06-08T08:16:49Z</time>
      </trkpt>
      <trkpt lat="44.0897" lon="6.9683">
        <ele>1538</ele>
        <time>2017-06-08T08:17:04Z</time>
      </trkpt>
      <trkpt lat="44.08966" lon="6.96826">
        <ele>1538</ele>
        <time>2017-06-08T08:17:04Z</time>
      </trkpt>
      <trkpt lat="44.08962" lon="6.96826">
        <ele>1538</ele>
        <time>2017-06-08T08:17:05Z</time>
      </trkpt>
      <trkpt lat="44.08957" lon="6.96828">
        <ele>1536</ele>
        <time>2017-06-08T08:17:05Z</time>
      </trkpt>
      <trkpt lat="44.08952" lon="6.9683">
        <ele>1536</ele>
        <time>2017-06-08T08:17:22Z</time>
      </trkpt>
      <trkpt lat="44.08944" lon="6.96836">
        <ele>1536</ele>
        <time>2017-06-08T08:17:22Z</time>
      </trkpt>
      <trkpt lat="44.08944" lon="6.96836">
        <ele>1536</ele>
        <time>2017-06-08T08:17:22Z</time>
      </trkpt>
      <trkpt lat="44.08937" lon="6.9684">
        <ele>1536</ele>
        <time>2017-06-08T08:17:22Z</time>
      </trkpt>
      <trkpt lat="44.08934" lon="6.96844">
        <ele>1536</ele>
        <time>2017-06-08T08:17:37Z</time>
      </trkpt>
      <trkpt lat="44.08932" lon="6.96846">
        <ele>1536</ele>
        <time>2017-06-08T08:17:37Z</time>
      </trkpt>
      <trkpt lat="44.08928" lon="6.96851">
        <ele>1535</ele>
        <time>2017-06-08T08:17:37Z</time>
      </trkpt>
      <trkpt lat="44.08926" lon="6.96854">
        <ele>1535</ele>
        <time>2017-06-08T08:17:37Z</time>
      </trkpt>
      <trkpt lat="44.08922" lon="6.96858">
        <ele>1535</ele>
        <time>2017-06-08T08:17:52Z</time>
      </trkpt>
      <trkpt lat="44.08918" lon="6.96863">
        <ele>1535</ele>
        <time>2017-06-08T08:17:53Z</time>
      </trkpt>
      <trkpt lat="44.08916" lon="6.96867">
        <ele>1535</ele>
        <time>2017-06-08T08:17:53Z</time>
      </trkpt>
      <trkpt lat="44.08912" lon="6.9687">
        <ele>1535</ele>
        <time>2017-06-08T08:17:53Z</time>
      </trkpt>
      <trkpt lat="44.08908" lon="6.96872">
        <ele>1535</ele>
        <time>2017-06-08T08:18:15Z</time>
      </trkpt>
      <trkpt lat="44.08905" lon="6.96873">
        <ele>1535</ele>
        <time>2017-06-08T08:18:15Z</time>
      </trkpt>
      <trkpt lat="44.08901" lon="6.96873">
        <ele>1537</ele>
        <time>2017-06-08T08:18:15Z</time>
      </trkpt>
      <trkpt lat="44.089" lon="6.96873">
        <ele>1537</ele>
        <time>2017-06-08T08:18:15Z</time>
      </trkpt>
      <trkpt lat="44.08896" lon="6.96871">
        <ele>1537</ele>
        <time>2017-06-08T08:18:15Z</time>
      </trkpt>
      <trkpt lat="44.08895" lon="6.96871">
        <ele>1537</ele>
        <time>2017-06-08T08:18:30Z</time>
      </trkpt>
      <trkpt lat="44.08891" lon="6.9687">
        <ele>1537</ele>
        <time>2017-06-08T08:18:30Z</time>
      </trkpt>
      <trkpt lat="44.08887" lon="6.96872">
        <ele>1537</ele>
        <time>2017-06-08T08:18:30Z</time>
      </trkpt>
      <trkpt lat="44.08884" lon="6.96874">
        <ele>1537</ele>
        <time>2017-06-08T08:18:30Z</time>
      </trkpt>
      <trkpt lat="44.08879" lon="6.96878">
        <ele>1539</ele>
        <time>2017-06-08T08:18:50Z</time>
      </trkpt>
      <trkpt lat="44.08876" lon="6.9688">
        <ele>1539</ele>
        <time>2017-06-08T08:18:50Z</time>
      </trkpt>
      <trkpt lat="44.08874" lon="6.96881">
        <ele>1539</ele>
        <time>2017-06-08T08:18:50Z</time>
      </trkpt>
      <trkpt lat="44.08872" lon="6.96882">
        <ele>1539</ele>
        <time>2017-06-08T08:18:50Z</time>
      </trkpt>
      <trkpt lat="44.08868" lon="6.96883">
        <ele>1539</ele>
        <time>2017-06-08T08:18:50Z</time>
      </trkpt>
      <trkpt lat="44.08863" lon="6.96884">
        <ele>1539</ele>
        <time>2017-06-08T08:19:04Z</time>
      </trkpt>
      <trkpt lat="44.0886" lon="6.96885">
        <ele>1539</ele>
        <time>2017-06-08T08:19:05Z</time>
      </trkpt>
      <trkpt lat="44.08856" lon="6.96883">
        <ele>1539</ele>
        <time>2017-06-08T08:19:05Z</time>
      </trkpt>
      <trkpt lat="44.08851" lon="6.96884">
        <ele>1539</ele>
        <time>2017-06-08T08:19:05Z</time>
      </trkpt>
      <trkpt lat="44.08846" lon="6.96882">
        <ele>1541</ele>
        <time>2017-06-08T08:19:20Z</time>
      </trkpt>
      <trkpt lat="44.08844" lon="6.9688">
        <ele>1541</ele>
        <time>2017-06-08T08:19:21Z</time>
      </trkpt>
      <trkpt lat="44.08837" lon="6.96874">
        <ele>1537</ele>
        <time>2017-06-08T08:19:21Z</time>
      </trkpt>
      <trkpt lat="44.08836" lon="6.96874">
        <ele>1537</ele>
        <time>2017-06-08T08:19:21Z</time>
      </trkpt>
      <trkpt lat="44.08827" lon="6.96874">
        <ele>1537</ele>
        <time>2017-06-08T08:19:37Z</time>
      </trkpt>
      <trkpt lat="44.08824" lon="6.96874">
        <ele>1537</ele>
        <time>2017-06-08T08:19:37Z</time>
      </trkpt>
      <trkpt lat="44.08816" lon="6.96873">
        <ele>1538</ele>
        <time>2017-06-08T08:19:37Z</time>
      </trkpt>
      <trkpt lat="44.08815" lon="6.96874">
        <ele>1538</ele>
        <time>2017-06-08T08:19:37Z</time>
      </trkpt>
      <trkpt lat="44.08813" lon="6.96874">
        <ele>1538</ele>
        <time>2017-06-08T08:19:52Z</time>
      </trkpt>
      <trkpt lat="44.08808" lon="6.96873">
        <ele>1538</ele>
        <time>2017-06-08T08:19:53Z</time>
      </trkpt>
      <trkpt lat="44.08804" lon="6.96873">
        <ele>1538</ele>
        <time>2017-06-08T08:19:53Z</time>
      </trkpt>
      <trkpt lat="44.088" lon="6.96872">
        <ele>1538</ele>
        <time>2017-06-08T08:19:53Z</time>
      </trkpt>
      <trkpt lat="44.08796" lon="6.96872">
        <ele>1538</ele>
        <time>2017-06-08T08:20:15Z</time>
      </trkpt>
      <trkpt lat="44.08793" lon="6.96872">
        <ele>1538</ele>
        <time>2017-06-08T08:20:15Z</time>
      </trkpt>
      <trkpt lat="44.08791" lon="6.96873">
        <ele>1540</ele>
        <time>2017-06-08T08:20:15Z</time>
      </trkpt>
      <trkpt lat="44.08789" lon="6.96874">
        <ele>1540</ele>
        <time>2017-06-08T08:20:15Z</time>
      </trkpt>
      <trkpt lat="44.08786" lon="6.96873">
        <ele>1540</ele>
        <time>2017-06-08T08:20:15Z</time>
      </trkpt>
      <trkpt lat="44.08782" lon="6.96876">
        <ele>1543</ele>
        <time>2017-06-08T08:20:55Z</time>
      </trkpt>
      <trkpt lat="44.08781" lon="6.96877">
        <ele>1543</ele>
        <time>2017-06-08T08:20:55Z</time>
      </trkpt>
      <trkpt lat="44.0878" lon="6.96878">
        <ele>1543</ele>
        <time>2017-06-08T08:20:55Z</time>
      </trkpt>
      <trkpt lat="44.08778" lon="6.9688">
        <ele>1543</ele>
        <time>2017-06-08T08:20:55Z</time>
      </trkpt>
      <trkpt lat="44.08777" lon="6.96886">
        <ele>1543</ele>
        <time>2017-06-08T08:20:55Z</time>
      </trkpt>
      <trkpt lat="44.08763" lon="6.96902">
        <ele>1543</ele>
        <time>2017-06-08T08:22:26Z</time>
      </trkpt>
      <trkpt lat="44.0876" lon="6.96908">
        <ele>1548</ele>
        <time>2017-06-08T08:22:26Z</time>
      </trkpt>
      <trkpt lat="44.08759" lon="6.96908">
        <ele>1548</ele>
        <time>2017-06-08T08:22:26Z</time>
      </trkpt>
      <trkpt lat="44.08755" lon="6.96907">
        <ele>1548</ele>
        <time>2017-06-08T08:22:26Z</time>
      </trkpt>
      <trkpt lat="44.08751" lon="6.9691">
        <ele>1548</ele>
        <time>2017-06-08T08:22:27Z</time>
      </trkpt>
      <trkpt lat="44.08745" lon="6.96916">
        <ele>1548</ele>
        <time>2017-06-08T08:22:41Z</time>
      </trkpt>
      <trkpt lat="44.08739" lon="6.96919">
        <ele>1548</ele>
        <time>2017-06-08T08:22:41Z</time>
      </trkpt>
      <trkpt lat="44.08736" lon="6.9692">
        <ele>1546</ele>
        <time>2017-06-08T08:22:41Z</time>
      </trkpt>
      <trkpt lat="44.08731" lon="6.96922">
        <ele>1546</ele>
        <time>2017-06-08T08:22:42Z</time>
      </trkpt>
      <trkpt lat="44.08726" lon="6.96924">
        <ele>1546</ele>
        <time>2017-06-08T08:22:59Z</time>
      </trkpt>
      <trkpt lat="44.08722" lon="6.96926">
        <ele>1546</ele>
        <time>2017-06-08T08:22:59Z</time>
      </trkpt>
      <trkpt lat="44.0872" lon="6.96929">
        <ele>1546</ele>
        <time>2017-06-08T08:22:59Z</time>
      </trkpt>
      <trkpt lat="44.08719" lon="6.96938">
        <ele>1549</ele>
        <time>2017-06-08T08:22:59Z</time>
      </trkpt>
      <trkpt lat="44.08718" lon="6.9694">
        <ele>1549</ele>
        <time>2017-06-08T08:23:15Z</time>
      </trkpt>
      <trkpt lat="44.08717" lon="6.96946">
        <ele>1549</ele>
        <time>2017-06-08T08:23:15Z</time>
      </trkpt>
      <trkpt lat="44.08716" lon="6.96951">
        <ele>1549</ele>
        <time>2017-06-08T08:23:15Z</time>
      </trkpt>
      <trkpt lat="44.08715" lon="6.96958">
        <ele>1549</ele>
        <time>2017-06-08T08:23:15Z</time>
      </trkpt>
      <trkpt lat="44.08712" lon="6.96961">
        <ele>1550</ele>
        <time>2017-06-08T08:23:29Z</time>
      </trkpt>
      <trkpt lat="44.08708" lon="6.96964">
        <ele>1548</ele>
        <time>2017-06-08T08:23:29Z</time>
      </trkpt>
      <trkpt lat="44.08705" lon="6.96968">
        <ele>1548</ele>
        <time>2017-06-08T08:23:29Z</time>
      </trkpt>
      <trkpt lat="44.08704" lon="6.96971">
        <ele>1548</ele>
        <time>2017-06-08T08:23:29Z</time>
      </trkpt>
      <trkpt lat="44.08704" lon="6.96975">
        <ele>1548</ele>
        <time>2017-06-08T08:23:44Z</time>
      </trkpt>
      <trkpt lat="44.08702" lon="6.96979">
        <ele>1548</ele>
        <time>2017-06-08T08:23:45Z</time>
      </trkpt>
      <trkpt lat="44.08699" lon="6.96982">
        <ele>1548</ele>
        <time>2017-06-08T08:23:45Z</time>
      </trkpt>
      <trkpt lat="44.08697" lon="6.96987">
        <ele>1549</ele>
        <time>2017-06-08T08:23:45Z</time>
      </trkpt>
      <trkpt lat="44.08697" lon="6.96992">
        <ele>1549</ele>
        <time>2017-06-08T08:24:02Z</time>
      </trkpt>
      <trkpt lat="44.08695" lon="6.97001">
        <ele>1549</ele>
        <time>2017-06-08T08:24:02Z</time>
      </trkpt>
      <trkpt lat="44.08695" lon="6.97006">
        <ele>1549</ele>
        <time>2017-06-08T08:24:02Z</time>
      </trkpt>
      <trkpt lat="44.08695" lon="6.97015">
        <ele>1550</ele>
        <time>2017-06-08T08:24:02Z</time>
      </trkpt>
      <trkpt lat="44.08695" lon="6.97021">
        <ele>1550</ele>
        <time>2017-06-08T08:24:16Z</time>
      </trkpt>
      <trkpt lat="44.08695" lon="6.97025">
        <ele>1550</ele>
        <time>2017-06-08T08:24:17Z</time>
      </trkpt>
      <trkpt lat="44.08696" lon="6.97034">
        <ele>1550</ele>
        <time>2017-06-08T08:24:17Z</time>
      </trkpt>
      <trkpt lat="44.08695" lon="6.97036">
        <ele>1550</ele>
        <time>2017-06-08T08:24:17Z</time>
      </trkpt>
      <trkpt lat="44.08695" lon="6.9703">
        <ele>1550</ele>
        <time>2017-06-08T08:24:55Z</time>
      </trkpt>
      <trkpt lat="44.08694" lon="6.97039">
        <ele>1550</ele>
        <time>2017-06-08T08:24:56Z</time>
      </trkpt>
      <trkpt lat="44.08694" lon="6.97044">
        <ele>1555</ele>
        <time>2017-06-08T08:24:56Z</time>
      </trkpt>
      <trkpt lat="44.08695" lon="6.9705">
        <ele>1555</ele>
        <time>2017-06-08T08:24:56Z</time>
      </trkpt>
      <trkpt lat="44.087" lon="6.9706">
        <ele>1555</ele>
        <time>2017-06-08T08:24:56Z</time>
      </trkpt>
      <trkpt lat="44.08702" lon="6.97068">
        <ele>1555</ele>
        <time>2017-06-08T08:25:21Z</time>
      </trkpt>
      <trkpt lat="44.08703" lon="6.97079">
        <ele>1559</ele>
        <time>2017-06-08T08:25:21Z</time>
      </trkpt>
      <trkpt lat="44.08703" lon="6.97081">
        <ele>1559</ele>
        <time>2017-06-08T08:25:21Z</time>
      </trkpt>
      <trkpt lat="44.08703" lon="6.97093">
        <ele>1559</ele>
        <time>2017-06-08T08:25:21Z</time>
      </trkpt>
      <trkpt lat="44.08703" lon="6.97094">
        <ele>1559</ele>
        <time>2017-06-08T08:25:21Z</time>
      </trkpt>
      <trkpt lat="44.08704" lon="6.97096">
        <ele>1559</ele>
        <time>2017-06-08T08:25:41Z</time>
      </trkpt>
      <trkpt lat="44.08704" lon="6.97097">
        <ele>1559</ele>
        <time>2017-06-08T08:25:42Z</time>
      </trkpt>
      <trkpt lat="44.08705" lon="6.97104">
        <ele>1560</ele>
        <time>2017-06-08T08:25:42Z</time>
      </trkpt>
      <trkpt lat="44.08706" lon="6.97106">
        <ele>1560</ele>
        <time>2017-06-08T08:25:42Z</time>
      </trkpt>
      <trkpt lat="44.08708" lon="6.97114">
        <ele>1560</ele>
        <time>2017-06-08T08:25:42Z</time>
      </trkpt>
      <trkpt lat="44.0871" lon="6.97123">
        <ele>1561</ele>
        <time>2017-06-08T08:26:00Z</time>
      </trkpt>
      <trkpt lat="44.08711" lon="6.97125">
        <ele>1562</ele>
        <time>2017-06-08T08:26:01Z</time>
      </trkpt>
      <trkpt lat="44.08714" lon="6.9713">
        <ele>1562</ele>
        <time>2017-06-08T08:26:01Z</time>
      </trkpt>
      <trkpt lat="44.08715" lon="6.97133">
        <ele>1562</ele>
        <time>2017-06-08T08:26:01Z</time>
      </trkpt>
      <trkpt lat="44.08716" lon="6.97138">
        <ele>1562</ele>
        <time>2017-06-08T08:26:01Z</time>
      </trkpt>
      <trkpt lat="44.08721" lon="6.97148">
        <ele>1562</ele>
        <time>2017-06-08T08:26:24Z</time>
      </trkpt>
      <trkpt lat="44.08722" lon="6.97148">
        <ele>1562</ele>
        <time>2017-06-08T08:26:24Z</time>
      </trkpt>
      <trkpt lat="44.08725" lon="6.97155">
        <ele>1563</ele>
        <time>2017-06-08T08:26:25Z</time>
      </trkpt>
      <trkpt lat="44.08726" lon="6.97156">
        <ele>1563</ele>
        <time>2017-06-08T08:26:25Z</time>
      </trkpt>
      <trkpt lat="44.08726" lon="6.97165">
        <ele>1563</ele>
        <time>2017-06-08T08:26:25Z</time>
      </trkpt>
      <trkpt lat="44.08727" lon="6.97166">
        <ele>1563</ele>
        <time>2017-06-08T08:26:39Z</time>
      </trkpt>
      <trkpt lat="44.08729" lon="6.97176">
        <ele>1563</ele>
        <time>2017-06-08T08:26:39Z</time>
      </trkpt>
      <trkpt lat="44.08729" lon="6.97178">
        <ele>1563</ele>
        <time>2017-06-08T08:26:39Z</time>
      </trkpt>
      <trkpt lat="44.08733" lon="6.97186">
        <ele>1564</ele>
        <time>2017-06-08T08:26:39Z</time>
      </trkpt>
      <trkpt lat="44.08734" lon="6.97188">
        <ele>1564</ele>
        <time>2017-06-08T08:26:55Z</time>
      </trkpt>
      <trkpt lat="44.08736" lon="6.97198">
        <ele>1567</ele>
        <time>2017-06-08T08:26:55Z</time>
      </trkpt>
      <trkpt lat="44.08737" lon="6.97201">
        <ele>1567</ele>
        <time>2017-06-08T08:26:55Z</time>
      </trkpt>
      <trkpt lat="44.08741" lon="6.97207">
        <ele>1567</ele>
        <time>2017-06-08T08:26:55Z</time>
      </trkpt>
      <trkpt lat="44.08743" lon="6.97207">
        <ele>1567</ele>
        <time>2017-06-08T08:27:10Z</time>
      </trkpt>
      <trkpt lat="44.08743" lon="6.97213">
        <ele>1567</ele>
        <time>2017-06-08T08:27:11Z</time>
      </trkpt>
      <trkpt lat="44.08743" lon="6.97217">
        <ele>1567</ele>
        <time>2017-06-08T08:27:11Z</time>
      </trkpt>
      <trkpt lat="44.08745" lon="6.97221">
        <ele>1567</ele>
        <time>2017-06-08T08:27:11Z</time>
      </trkpt>
      <trkpt lat="44.08748" lon="6.97224">
        <ele>1567</ele>
        <time>2017-06-08T08:27:26Z</time>
      </trkpt>
      <trkpt lat="44.08749" lon="6.97232">
        <ele>1567</ele>
        <time>2017-06-08T08:27:26Z</time>
      </trkpt>
      <trkpt lat="44.0875" lon="6.97235">
        <ele>1567</ele>
        <time>2017-06-08T08:27:27Z</time>
      </trkpt>
      <trkpt lat="44.08752" lon="6.9724">
        <ele>1569</ele>
        <time>2017-06-08T08:27:27Z</time>
      </trkpt>
      <trkpt lat="44.08755" lon="6.97242">
        <ele>1569</ele>
        <time>2017-06-08T08:27:43Z</time>
      </trkpt>
      <trkpt lat="44.08756" lon="6.97245">
        <ele>1569</ele>
        <time>2017-06-08T08:27:43Z</time>
      </trkpt>
      <trkpt lat="44.08758" lon="6.97247">
        <ele>1569</ele>
        <time>2017-06-08T08:27:44Z</time>
      </trkpt>
      <trkpt lat="44.08762" lon="6.97254">
        <ele>1569</ele>
        <time>2017-06-08T08:27:44Z</time>
      </trkpt>
      <trkpt lat="44.08763" lon="6.97255">
        <ele>1569</ele>
        <time>2017-06-08T08:27:56Z</time>
      </trkpt>
      <trkpt lat="44.08766" lon="6.97261">
        <ele>1570</ele>
        <time>2017-06-08T08:27:56Z</time>
      </trkpt>
      <trkpt lat="44.08769" lon="6.97264">
        <ele>1571</ele>
        <time>2017-06-08T08:27:57Z</time>
      </trkpt>
      <trkpt lat="44.08771" lon="6.97265">
        <ele>1571</ele>
        <time>2017-06-08T08:27:57Z</time>
      </trkpt>
      <trkpt lat="44.08773" lon="6.97265">
        <ele>1571</ele>
        <time>2017-06-08T08:28:12Z</time>
      </trkpt>
      <trkpt lat="44.08777" lon="6.97267">
        <ele>1571</ele>
        <time>2017-06-08T08:28:12Z</time>
      </trkpt>
      <trkpt lat="44.08779" lon="6.97267">
        <ele>1571</ele>
        <time>2017-06-08T08:28:13Z</time>
      </trkpt>
      <trkpt lat="44.08782" lon="6.97271">
        <ele>1571</ele>
        <time>2017-06-08T08:28:13Z</time>
      </trkpt>
      <trkpt lat="44.08784" lon="6.97275">
        <ele>1571</ele>
        <time>2017-06-08T08:28:30Z</time>
      </trkpt>
      <trkpt lat="44.08789" lon="6.97283">
        <ele>1571</ele>
        <time>2017-06-08T08:28:31Z</time>
      </trkpt>
      <trkpt lat="44.08791" lon="6.97286">
        <ele>1571</ele>
        <time>2017-06-08T08:28:31Z</time>
      </trkpt>
      <trkpt lat="44.08796" lon="6.97291">
        <ele>1574</ele>
        <time>2017-06-08T08:28:31Z</time>
      </trkpt>
      <trkpt lat="44.08798" lon="6.97294">
        <ele>1573</ele>
        <time>2017-06-08T08:28:52Z</time>
      </trkpt>
      <trkpt lat="44.088" lon="6.973">
        <ele>1573</ele>
        <time>2017-06-08T08:28:53Z</time>
      </trkpt>
      <trkpt lat="44.08801" lon="6.97303">
        <ele>1573</ele>
        <time>2017-06-08T08:28:53Z</time>
      </trkpt>
      <trkpt lat="44.08802" lon="6.97304">
        <ele>1573</ele>
        <time>2017-06-08T08:28:53Z</time>
      </trkpt>
      <trkpt lat="44.08805" lon="6.9731">
        <ele>1573</ele>
        <time>2017-06-08T08:28:53Z</time>
      </trkpt>
      <trkpt lat="44.08806" lon="6.97311">
        <ele>1573</ele>
        <time>2017-06-08T08:29:08Z</time>
      </trkpt>
      <trkpt lat="44.08808" lon="6.97312">
        <ele>1573</ele>
        <time>2017-06-08T08:29:08Z</time>
      </trkpt>
      <trkpt lat="44.08809" lon="6.97315">
        <ele>1573</ele>
        <time>2017-06-08T08:29:09Z</time>
      </trkpt>
      <trkpt lat="44.08811" lon="6.97319">
        <ele>1573</ele>
        <time>2017-06-08T08:29:09Z</time>
      </trkpt>
      <trkpt lat="44.08814" lon="6.97322">
        <ele>1572</ele>
        <time>2017-06-08T08:29:09Z</time>
      </trkpt>
      <trkpt lat="44.08816" lon="6.97324">
        <ele>1572</ele>
        <time>2017-06-08T08:29:25Z</time>
      </trkpt>
      <trkpt lat="44.0882" lon="6.97331">
        <ele>1574</ele>
        <time>2017-06-08T08:29:25Z</time>
      </trkpt>
      <trkpt lat="44.08824" lon="6.97335">
        <ele>1574</ele>
        <time>2017-06-08T08:29:25Z</time>
      </trkpt>
      <trkpt lat="44.08826" lon="6.97337">
        <ele>1574</ele>
        <time>2017-06-08T08:29:25Z</time>
      </trkpt>
      <trkpt lat="44.08828" lon="6.97338">
        <ele>1574</ele>
        <time>2017-06-08T08:29:43Z</time>
      </trkpt>
      <trkpt lat="44.08833" lon="6.97343">
        <ele>1574</ele>
        <time>2017-06-08T08:29:43Z</time>
      </trkpt>
      <trkpt lat="44.08834" lon="6.97344">
        <ele>1574</ele>
        <time>2017-06-08T08:29:43Z</time>
      </trkpt>
      <trkpt lat="44.08837" lon="6.97348">
        <ele>1575</ele>
        <time>2017-06-08T08:29:43Z</time>
      </trkpt>
      <trkpt lat="44.08839" lon="6.9735">
        <ele>1575</ele>
        <time>2017-06-08T08:29:56Z</time>
      </trkpt>
      <trkpt lat="44.08843" lon="6.97356">
        <ele>1575</ele>
        <time>2017-06-08T08:29:57Z</time>
      </trkpt>
      <trkpt lat="44.08845" lon="6.97358">
        <ele>1575</ele>
        <time>2017-06-08T08:29:57Z</time>
      </trkpt>
      <trkpt lat="44.08848" lon="6.97361">
        <ele>1578</ele>
        <time>2017-06-08T08:29:57Z</time>
      </trkpt>
      <trkpt lat="44.0885" lon="6.97366">
        <ele>1578</ele>
        <time>2017-06-08T08:30:14Z</time>
      </trkpt>
      <trkpt lat="44.08852" lon="6.9737">
        <ele>1578</ele>
        <time>2017-06-08T08:30:14Z</time>
      </trkpt>
      <trkpt lat="44.08854" lon="6.97375">
        <ele>1580</ele>
        <time>2017-06-08T08:30:14Z</time>
      </trkpt>
      <trkpt lat="44.08855" lon="6.97378">
        <ele>1580</ele>
        <time>2017-06-08T08:30:14Z</time>
      </trkpt>
      <trkpt lat="44.08857" lon="6.97382">
        <ele>1580</ele>
        <time>2017-06-08T08:34:31Z</time>
      </trkpt>
      <trkpt lat="44.08857" lon="6.97383">
        <ele>1580</ele>
        <time>2017-06-08T08:34:31Z</time>
      </trkpt>
      <trkpt lat="44.08855" lon="6.97383">
        <ele>1580</ele>
        <time>2017-06-08T08:34:31Z</time>
      </trkpt>
      <trkpt lat="44.08855" lon="6.97385">
        <ele>1580</ele>
        <time>2017-06-08T08:34:31Z</time>
      </trkpt>
      <trkpt lat="44.08852" lon="6.97389">
        <ele>1580</ele>
        <time>2017-06-08T08:34:31Z</time>
      </trkpt>
      <trkpt lat="44.0885" lon="6.97391">
        <ele>1580</ele>
        <time>2017-06-08T08:34:48Z</time>
      </trkpt>
      <trkpt lat="44.08846" lon="6.97396">
        <ele>1577</ele>
        <time>2017-06-08T08:34:48Z</time>
      </trkpt>
      <trkpt lat="44.08845" lon="6.97397">
        <ele>1577</ele>
        <time>2017-06-08T08:34:48Z</time>
      </trkpt>
      <trkpt lat="44.08841" lon="6.97403">
        <ele>1577</ele>
        <time>2017-06-08T08:34:48Z</time>
      </trkpt>
      <trkpt lat="44.0884" lon="6.97403">
        <ele>1580</ele>
        <time>2017-06-08T08:35:00Z</time>
      </trkpt>
      <trkpt lat="44.08835" lon="6.97408">
        <ele>1580</ele>
        <time>2017-06-08T08:35:01Z</time>
      </trkpt>
      <trkpt lat="44.08835" lon="6.97409">
        <ele>1580</ele>
        <time>2017-06-08T08:35:01Z</time>
      </trkpt>
      <trkpt lat="44.08833" lon="6.97413">
        <ele>1580</ele>
        <time>2017-06-08T08:35:01Z</time>
      </trkpt>
      <trkpt lat="44.08831" lon="6.97417">
        <ele>1580</ele>
        <time>2017-06-08T08:35:20Z</time>
      </trkpt>
      <trkpt lat="44.08828" lon="6.97419">
        <ele>1580</ele>
        <time>2017-06-08T08:35:20Z</time>
      </trkpt>
      <trkpt lat="44.08826" lon="6.9742">
        <ele>1580</ele>
        <time>2017-06-08T08:35:20Z</time>
      </trkpt>
      <trkpt lat="44.08823" lon="6.97424">
        <ele>1580</ele>
        <time>2017-06-08T08:35:20Z</time>
      </trkpt>
      <trkpt lat="44.08823" lon="6.97425">
        <ele>1580</ele>
        <time>2017-06-08T08:35:32Z</time>
      </trkpt>
      <trkpt lat="44.08818" lon="6.97431">
        <ele>1583</ele>
        <time>2017-06-08T08:35:32Z</time>
      </trkpt>
      <trkpt lat="44.08817" lon="6.97432">
        <ele>1583</ele>
        <time>2017-06-08T08:35:33Z</time>
      </trkpt>
      <trkpt lat="44.08815" lon="6.97434">
        <ele>1583</ele>
        <time>2017-06-08T08:35:33Z</time>
      </trkpt>
      <trkpt lat="44.08813" lon="6.97437">
        <ele>1583</ele>
        <time>2017-06-08T08:35:50Z</time>
      </trkpt>
      <trkpt lat="44.0881" lon="6.9744">
        <ele>1583</ele>
        <time>2017-06-08T08:35:50Z</time>
      </trkpt>
      <trkpt lat="44.08807" lon="6.97445">
        <ele>1583</ele>
        <time>2017-06-08T08:35:50Z</time>
      </trkpt>
      <trkpt lat="44.08804" lon="6.97447">
        <ele>1583</ele>
        <time>2017-06-08T08:35:50Z</time>
      </trkpt>
      <trkpt lat="44.088" lon="6.97449">
        <ele>1583</ele>
        <time>2017-06-08T08:36:10Z</time>
      </trkpt>
      <trkpt lat="44.08798" lon="6.97451">
        <ele>1583</ele>
        <time>2017-06-08T08:36:10Z</time>
      </trkpt>
      <trkpt lat="44.08796" lon="6.97454">
        <ele>1583</ele>
        <time>2017-06-08T08:36:11Z</time>
      </trkpt>
      <trkpt lat="44.08794" lon="6.97455">
        <ele>1583</ele>
        <time>2017-06-08T08:36:12Z</time>
      </trkpt>
      <trkpt lat="44.08793" lon="6.97459">
        <ele>1590</ele>
        <time>2017-06-08T08:36:13Z</time>
      </trkpt>
      <trkpt lat="44.08793" lon="6.97458">
        <ele>1583</ele>
        <time>2017-06-08T08:36:26Z</time>
      </trkpt>
      <trkpt lat="44.08787" lon="6.97464">
        <ele>1590</ele>
        <time>2017-06-08T08:36:26Z</time>
      </trkpt>
      <trkpt lat="44.08784" lon="6.97469">
        <ele>1590</ele>
        <time>2017-06-08T08:36:26Z</time>
      </trkpt>
      <trkpt lat="44.08783" lon="6.97471">
        <ele>1590</ele>
        <time>2017-06-08T08:36:26Z</time>
      </trkpt>
      <trkpt lat="44.08774" lon="6.97482">
        <ele>1590</ele>
        <time>2017-06-08T08:37:20Z</time>
      </trkpt>
      <trkpt lat="44.08773" lon="6.97482">
        <ele>1590</ele>
        <time>2017-06-08T08:37:20Z</time>
      </trkpt>
      <trkpt lat="44.08772" lon="6.97489">
        <ele>1595</ele>
        <time>2017-06-08T08:37:20Z</time>
      </trkpt>
      <trkpt lat="44.08771" lon="6.9749">
        <ele>1595</ele>
        <time>2017-06-08T08:37:20Z</time>
      </trkpt>
      <trkpt lat="44.08766" lon="6.97495">
        <ele>1595</ele>
        <time>2017-06-08T08:37:20Z</time>
      </trkpt>
      <trkpt lat="44.08762" lon="6.97498">
        <ele>1595</ele>
        <time>2017-06-08T08:37:36Z</time>
      </trkpt>
      <trkpt lat="44.08756" lon="6.97505">
        <ele>1595</ele>
        <time>2017-06-08T08:37:36Z</time>
      </trkpt>
      <trkpt lat="44.08755" lon="6.97505">
        <ele>1595</ele>
        <time>2017-06-08T08:37:37Z</time>
      </trkpt>
      <trkpt lat="44.08751" lon="6.97512">
        <ele>1595</ele>
        <time>2017-06-08T08:37:37Z</time>
      </trkpt>
      <trkpt lat="44.08745" lon="6.97517">
        <ele>1599</ele>
        <time>2017-06-08T08:37:55Z</time>
      </trkpt>
      <trkpt lat="44.08744" lon="6.97519">
        <ele>1599</ele>
        <time>2017-06-08T08:37:55Z</time>
      </trkpt>
      <trkpt lat="44.0874" lon="6.97523">
        <ele>1599</ele>
        <time>2017-06-08T08:37:55Z</time>
      </trkpt>
      <trkpt lat="44.08734" lon="6.97527">
        <ele>1600</ele>
        <time>2017-06-08T08:37:55Z</time>
      </trkpt>
      <trkpt lat="44.08726" lon="6.97531">
        <ele>1600</ele>
        <time>2017-06-08T08:38:19Z</time>
      </trkpt>
      <trkpt lat="44.08725" lon="6.97532">
        <ele>1600</ele>
        <time>2017-06-08T08:38:19Z</time>
      </trkpt>
      <trkpt lat="44.0872" lon="6.97533">
        <ele>1600</ele>
        <time>2017-06-08T08:38:19Z</time>
      </trkpt>
      <trkpt lat="44.0872" lon="6.97532">
        <ele>1600</ele>
        <time>2017-06-08T08:38:19Z</time>
      </trkpt>
      <trkpt lat="44.08715" lon="6.97535">
        <ele>1600</ele>
        <time>2017-06-08T08:38:19Z</time>
      </trkpt>
      <trkpt lat="44.08712" lon="6.97536">
        <ele>1600</ele>
        <time>2017-06-08T08:38:36Z</time>
      </trkpt>
      <trkpt lat="44.0871" lon="6.97539">
        <ele>1600</ele>
        <time>2017-06-08T08:38:37Z</time>
      </trkpt>
      <trkpt lat="44.08709" lon="6.9754">
        <ele>1600</ele>
        <time>2017-06-08T08:38:37Z</time>
      </trkpt>
      <trkpt lat="44.08707" lon="6.9754">
        <ele>1603</ele>
        <time>2017-06-08T08:38:37Z</time>
      </trkpt>
      <trkpt lat="44.08702" lon="6.9754">
        <ele>1603</ele>
        <time>2017-06-08T08:38:37Z</time>
      </trkpt>
      <trkpt lat="44.08697" lon="6.97541">
        <ele>1603</ele>
        <time>2017-06-08T08:38:59Z</time>
      </trkpt>
      <trkpt lat="44.08695" lon="6.97542">
        <ele>1603</ele>
        <time>2017-06-08T08:38:59Z</time>
      </trkpt>
      <trkpt lat="44.08693" lon="6.97541">
        <ele>1603</ele>
        <time>2017-06-08T08:38:59Z</time>
      </trkpt>
      <trkpt lat="44.08689" lon="6.97542">
        <ele>1608</ele>
        <time>2017-06-08T08:38:59Z</time>
      </trkpt>
      <trkpt lat="44.08682" lon="6.97543">
        <ele>1608</ele>
        <time>2017-06-08T08:38:59Z</time>
      </trkpt>
      <trkpt lat="44.0868" lon="6.97541">
        <ele>1607</ele>
        <time>2017-06-08T08:39:13Z</time>
      </trkpt>
      <trkpt lat="44.08676" lon="6.97539">
        <ele>1607</ele>
        <time>2017-06-08T08:39:13Z</time>
      </trkpt>
      <trkpt lat="44.08671" lon="6.97539">
        <ele>1607</ele>
        <time>2017-06-08T08:39:13Z</time>
      </trkpt>
      <trkpt lat="44.0867" lon="6.9754">
        <ele>1607</ele>
        <time>2017-06-08T08:39:13Z</time>
      </trkpt>
      <trkpt lat="44.08665" lon="6.9754">
        <ele>1607</ele>
        <time>2017-06-08T08:39:33Z</time>
      </trkpt>
      <trkpt lat="44.08664" lon="6.9754">
        <ele>1607</ele>
        <time>2017-06-08T08:39:33Z</time>
      </trkpt>
      <trkpt lat="44.08658" lon="6.97539">
        <ele>1607</ele>
        <time>2017-06-08T08:39:33Z</time>
      </trkpt>
      <trkpt lat="44.08657" lon="6.9754">
        <ele>1607</ele>
        <time>2017-06-08T08:39:33Z</time>
      </trkpt>
      <trkpt lat="44.08654" lon="6.9754">
        <ele>1607</ele>
        <time>2017-06-08T08:39:33Z</time>
      </trkpt>
      <trkpt lat="44.08654" lon="6.97539">
        <ele>1607</ele>
        <time>2017-06-08T08:39:54Z</time>
      </trkpt>
      <trkpt lat="44.08652" lon="6.97539">
        <ele>1613</ele>
        <time>2017-06-08T08:39:54Z</time>
      </trkpt>
      <trkpt lat="44.0865" lon="6.97539">
        <ele>1613</ele>
        <time>2017-06-08T08:39:54Z</time>
      </trkpt>
      <trkpt lat="44.08647" lon="6.97543">
        <ele>1615</ele>
        <time>2017-06-08T08:39:54Z</time>
      </trkpt>
      <trkpt lat="44.08645" lon="6.97547">
        <ele>1615</ele>
        <time>2017-06-08T08:39:54Z</time>
      </trkpt>
      <trkpt lat="44.08643" lon="6.9755">
        <ele>1615</ele>
        <time>2017-06-08T08:40:11Z</time>
      </trkpt>
      <trkpt lat="44.08642" lon="6.97553">
        <ele>1615</ele>
        <time>2017-06-08T08:40:11Z</time>
      </trkpt>
      <trkpt lat="44.0864" lon="6.97557">
        <ele>1615</ele>
        <time>2017-06-08T08:40:11Z</time>
      </trkpt>
      <trkpt lat="44.08638" lon="6.97562">
        <ele>1615</ele>
        <time>2017-06-08T08:40:11Z</time>
      </trkpt>
      <trkpt lat="44.08636" lon="6.97564">
        <ele>1615</ele>
        <time>2017-06-08T08:40:26Z</time>
      </trkpt>
      <trkpt lat="44.08635" lon="6.97573">
        <ele>1615</ele>
        <time>2017-06-08T08:40:26Z</time>
      </trkpt>
      <trkpt lat="44.08634" lon="6.97575">
        <ele>1615</ele>
        <time>2017-06-08T08:40:27Z</time>
      </trkpt>
      <trkpt lat="44.0863" lon="6.9758">
        <ele>1615</ele>
        <time>2017-06-08T08:40:27Z</time>
      </trkpt>
      <trkpt lat="44.08629" lon="6.97584">
        <ele>1615</ele>
        <time>2017-06-08T08:40:40Z</time>
      </trkpt>
      <trkpt lat="44.08626" lon="6.97588">
        <ele>1615</ele>
        <time>2017-06-08T08:40:41Z</time>
      </trkpt>
      <trkpt lat="44.08623" lon="6.97593">
        <ele>1619</ele>
        <time>2017-06-08T08:40:41Z</time>
      </trkpt>
      <trkpt lat="44.08621" lon="6.97595">
        <ele>1619</ele>
        <time>2017-06-08T08:40:41Z</time>
      </trkpt>
      <trkpt lat="44.08617" lon="6.97598">
        <ele>1618</ele>
        <time>2017-06-08T08:40:58Z</time>
      </trkpt>
      <trkpt lat="44.08615" lon="6.97598">
        <ele>1618</ele>
        <time>2017-06-08T08:40:59Z</time>
      </trkpt>
      <trkpt lat="44.08612" lon="6.97598">
        <ele>1618</ele>
        <time>2017-06-08T08:40:59Z</time>
      </trkpt>
      <trkpt lat="44.08606" lon="6.97603">
        <ele>1618</ele>
        <time>2017-06-08T08:40:59Z</time>
      </trkpt>
      <trkpt lat="44.08604" lon="6.97603">
        <ele>1618</ele>
        <time>2017-06-08T08:41:13Z</time>
      </trkpt>
      <trkpt lat="44.08598" lon="6.97606">
        <ele>1618</ele>
        <time>2017-06-08T08:41:13Z</time>
      </trkpt>
      <trkpt lat="44.08598" lon="6.97605">
        <ele>1618</ele>
        <time>2017-06-08T08:41:13Z</time>
      </trkpt>
      <trkpt lat="44.08595" lon="6.97607">
        <ele>1621</ele>
        <time>2017-06-08T08:41:13Z</time>
      </trkpt>
      <trkpt lat="44.08589" lon="6.97608">
        <ele>1621</ele>
        <time>2017-06-08T08:41:30Z</time>
      </trkpt>
      <trkpt lat="44.08586" lon="6.97608">
        <ele>1621</ele>
        <time>2017-06-08T08:41:30Z</time>
      </trkpt>
      <trkpt lat="44.08581" lon="6.97609">
        <ele>1621</ele>
        <time>2017-06-08T08:41:30Z</time>
      </trkpt>
      <trkpt lat="44.08578" lon="6.97608">
        <ele>1621</ele>
        <time>2017-06-08T08:41:30Z</time>
      </trkpt>
      <trkpt lat="44.08574" lon="6.97609">
        <ele>1621</ele>
        <time>2017-06-08T08:41:44Z</time>
      </trkpt>
      <trkpt lat="44.08571" lon="6.97611">
        <ele>1621</ele>
        <time>2017-06-08T08:41:44Z</time>
      </trkpt>
      <trkpt lat="44.08566" lon="6.97612">
        <ele>1624</ele>
        <time>2017-06-08T08:41:45Z</time>
      </trkpt>
      <trkpt lat="44.08561" lon="6.97613">
        <ele>1624</ele>
        <time>2017-06-08T08:41:45Z</time>
      </trkpt>
      <trkpt lat="44.08558" lon="6.97613">
        <ele>1624</ele>
        <time>2017-06-08T08:42:01Z</time>
      </trkpt>
      <trkpt lat="44.08555" lon="6.97613">
        <ele>1624</ele>
        <time>2017-06-08T08:42:02Z</time>
      </trkpt>
      <trkpt lat="44.08552" lon="6.97613">
        <ele>1624</ele>
        <time>2017-06-08T08:42:02Z</time>
      </trkpt>
      <trkpt lat="44.08548" lon="6.97614">
        <ele>1624</ele>
        <time>2017-06-08T08:42:02Z</time>
      </trkpt>
      <trkpt lat="44.08543" lon="6.97616">
        <ele>1624</ele>
        <time>2017-06-08T08:42:18Z</time>
      </trkpt>
      <trkpt lat="44.08539" lon="6.97616">
        <ele>1626</ele>
        <time>2017-06-08T08:42:18Z</time>
      </trkpt>
      <trkpt lat="44.08536" lon="6.97619">
        <ele>1626</ele>
        <time>2017-06-08T08:42:18Z</time>
      </trkpt>
      <trkpt lat="44.08533" lon="6.9762">
        <ele>1626</ele>
        <time>2017-06-08T08:42:18Z</time>
      </trkpt>
      <trkpt lat="44.08529" lon="6.97621">
        <ele>1626</ele>
        <time>2017-06-08T08:42:33Z</time>
      </trkpt>
      <trkpt lat="44.08526" lon="6.97622">
        <ele>1626</ele>
        <time>2017-06-08T08:42:34Z</time>
      </trkpt>
      <trkpt lat="44.0852" lon="6.97624">
        <ele>1626</ele>
        <time>2017-06-08T08:42:34Z</time>
      </trkpt>
      <trkpt lat="44.08517" lon="6.97625">
        <ele>1618</ele>
        <time>2017-06-08T08:42:34Z</time>
      </trkpt>
      <trkpt lat="44.08517" lon="6.97625">
        <ele>1626</ele>
        <time>2017-06-08T08:42:52Z</time>
      </trkpt>
      <trkpt lat="44.08514" lon="6.97628">
        <ele>1618</ele>
        <time>2017-06-08T08:42:52Z</time>
      </trkpt>
      <trkpt lat="44.08512" lon="6.9763">
        <ele>1628</ele>
        <time>2017-06-08T08:42:53Z</time>
      </trkpt>
      <trkpt lat="44.08509" lon="6.97629">
        <ele>1628</ele>
        <time>2017-06-08T08:42:53Z</time>
      </trkpt>
      <trkpt lat="44.08506" lon="6.97631">
        <ele>1628</ele>
        <time>2017-06-08T08:42:53Z</time>
      </trkpt>
      <trkpt lat="44.08502" lon="6.97634">
        <ele>1628</ele>
        <time>2017-06-08T08:43:11Z</time>
      </trkpt>
      <trkpt lat="44.08498" lon="6.97634">
        <ele>1628</ele>
        <time>2017-06-08T08:43:11Z</time>
      </trkpt>
      <trkpt lat="44.08494" lon="6.97638">
        <ele>1628</ele>
        <time>2017-06-08T08:43:11Z</time>
      </trkpt>
      <trkpt lat="44.08491" lon="6.9764">
        <ele>1628</ele>
        <time>2017-06-08T08:43:11Z</time>
      </trkpt>
      <trkpt lat="44.0849" lon="6.97641">
        <ele>1628</ele>
        <time>2017-06-08T08:43:25Z</time>
      </trkpt>
      <trkpt lat="44.08486" lon="6.97642">
        <ele>1628</ele>
        <time>2017-06-08T08:43:25Z</time>
      </trkpt>
      <trkpt lat="44.08478" lon="6.97648">
        <ele>1634</ele>
        <time>2017-06-08T08:43:25Z</time>
      </trkpt>
      <trkpt lat="44.08477" lon="6.97649">
        <ele>1634</ele>
        <time>2017-06-08T08:43:25Z</time>
      </trkpt>
      <trkpt lat="44.08472" lon="6.97651">
        <ele>1634</ele>
        <time>2017-06-08T08:47:21Z</time>
      </trkpt>
      <trkpt lat="44.08471" lon="6.9765">
        <ele>1634</ele>
        <time>2017-06-08T08:47:21Z</time>
      </trkpt>
      <trkpt lat="44.0847" lon="6.97651">
        <ele>1634</ele>
        <time>2017-06-08T08:47:22Z</time>
      </trkpt>
      <trkpt lat="44.08467" lon="6.97653">
        <ele>1630</ele>
        <time>2017-06-08T08:47:23Z</time>
      </trkpt>
      <trkpt lat="44.08463" lon="6.97655">
        <ele>1630</ele>
        <time>2017-06-08T08:47:24Z</time>
      </trkpt>
      <trkpt lat="44.0846" lon="6.97657">
        <ele>1630</ele>
        <time>2017-06-08T08:47:39Z</time>
      </trkpt>
      <trkpt lat="44.08455" lon="6.9766">
        <ele>1634</ele>
        <time>2017-06-08T08:47:40Z</time>
      </trkpt>
      <trkpt lat="44.08455" lon="6.9766">
        <ele>1634</ele>
        <time>2017-06-08T08:47:40Z</time>
      </trkpt>
      <trkpt lat="44.08449" lon="6.97664">
        <ele>1634</ele>
        <time>2017-06-08T08:47:40Z</time>
      </trkpt>
      <trkpt lat="44.08448" lon="6.97665">
        <ele>1634</ele>
        <time>2017-06-08T08:47:56Z</time>
      </trkpt>
      <trkpt lat="44.08445" lon="6.97667">
        <ele>1634</ele>
        <time>2017-06-08T08:47:57Z</time>
      </trkpt>
      <trkpt lat="44.08443" lon="6.9767">
        <ele>1634</ele>
        <time>2017-06-08T08:47:57Z</time>
      </trkpt>
      <trkpt lat="44.0844" lon="6.97669">
        <ele>1634</ele>
        <time>2017-06-08T08:47:57Z</time>
      </trkpt>
      <trkpt lat="44.08436" lon="6.97671">
        <ele>1634</ele>
        <time>2017-06-08T08:47:57Z</time>
      </trkpt>
      <trkpt lat="44.08433" lon="6.97673">
        <ele>1634</ele>
        <time>2017-06-08T08:48:19Z</time>
      </trkpt>
      <trkpt lat="44.08431" lon="6.97672">
        <ele>1634</ele>
        <time>2017-06-08T08:48:20Z</time>
      </trkpt>
      <trkpt lat="44.08427" lon="6.97672">
        <ele>1636</ele>
        <time>2017-06-08T08:48:20Z</time>
      </trkpt>
      <trkpt lat="44.08426" lon="6.97672">
        <ele>1636</ele>
        <time>2017-06-08T08:48:20Z</time>
      </trkpt>
      <trkpt lat="44.08422" lon="6.97668">
        <ele>1636</ele>
        <time>2017-06-08T08:48:20Z</time>
      </trkpt>
      <trkpt lat="44.08423" lon="6.97667">
        <ele>1636</ele>
        <time>2017-06-08T08:48:38Z</time>
      </trkpt>
      <trkpt lat="44.08425" lon="6.97662">
        <ele>1636</ele>
        <time>2017-06-08T08:48:38Z</time>
      </trkpt>
      <trkpt lat="44.08425" lon="6.97661">
        <ele>1636</ele>
        <time>2017-06-08T08:48:38Z</time>
      </trkpt>
      <trkpt lat="44.08427" lon="6.97657">
        <ele>1636</ele>
        <time>2017-06-08T08:48:38Z</time>
      </trkpt>
      <trkpt lat="44.08428" lon="6.97654">
        <ele>1636</ele>
        <time>2017-06-08T08:48:38Z</time>
      </trkpt>
      <trkpt lat="44.08428" lon="6.97653">
        <ele>1637</ele>
        <time>2017-06-08T08:48:52Z</time>
      </trkpt>
      <trkpt lat="44.0843" lon="6.97646">
        <ele>1637</ele>
        <time>2017-06-08T08:48:53Z</time>
      </trkpt>
      <trkpt lat="44.08432" lon="6.97641">
        <ele>1637</ele>
        <time>2017-06-08T08:48:53Z</time>
      </trkpt>
      <trkpt lat="44.08434" lon="6.97636">
        <ele>1637</ele>
        <time>2017-06-08T08:48:53Z</time>
      </trkpt>
      <trkpt lat="44.08434" lon="6.97631">
        <ele>1637</ele>
        <time>2017-06-08T08:49:08Z</time>
      </trkpt>
      <trkpt lat="44.08436" lon="6.97625">
        <ele>1637</ele>
        <time>2017-06-08T08:49:08Z</time>
      </trkpt>
      <trkpt lat="44.08436" lon="6.97619">
        <ele>1642</ele>
        <time>2017-06-08T08:49:09Z</time>
      </trkpt>
      <trkpt lat="44.08437" lon="6.97613">
        <ele>1642</ele>
        <time>2017-06-08T08:49:09Z</time>
      </trkpt>
      <trkpt lat="44.08437" lon="6.97609">
        <ele>1642</ele>
        <time>2017-06-08T08:49:24Z</time>
      </trkpt>
      <trkpt lat="44.08436" lon="6.97605">
        <ele>1642</ele>
        <time>2017-06-08T08:49:25Z</time>
      </trkpt>
      <trkpt lat="44.08436" lon="6.97602">
        <ele>1642</ele>
        <time>2017-06-08T08:49:25Z</time>
      </trkpt>
      <trkpt lat="44.08435" lon="6.97597">
        <ele>1647</ele>
        <time>2017-06-08T08:49:25Z</time>
      </trkpt>
      <trkpt lat="44.08432" lon="6.97591">
        <ele>1647</ele>
        <time>2017-06-08T08:49:40Z</time>
      </trkpt>
      <trkpt lat="44.08432" lon="6.97586">
        <ele>1647</ele>
        <time>2017-06-08T08:49:41Z</time>
      </trkpt>
      <trkpt lat="44.08431" lon="6.9758">
        <ele>1647</ele>
        <time>2017-06-08T08:49:41Z</time>
      </trkpt>
      <trkpt lat="44.08429" lon="6.97576">
        <ele>1643</ele>
        <time>2017-06-08T08:49:41Z</time>
      </trkpt>
      <trkpt lat="44.08424" lon="6.97569">
        <ele>1646</ele>
        <time>2017-06-08T08:49:56Z</time>
      </trkpt>
      <trkpt lat="44.08421" lon="6.97562">
        <ele>1646</ele>
        <time>2017-06-08T08:49:57Z</time>
      </trkpt>
      <trkpt lat="44.08419" lon="6.97555">
        <ele>1646</ele>
        <time>2017-06-08T08:49:57Z</time>
      </trkpt>
      <trkpt lat="44.08417" lon="6.97551">
        <ele>1646</ele>
        <time>2017-06-08T08:49:57Z</time>
      </trkpt>
      <trkpt lat="44.08413" lon="6.97548">
        <ele>1646</ele>
        <time>2017-06-08T08:50:14Z</time>
      </trkpt>
      <trkpt lat="44.08412" lon="6.9754">
        <ele>1648</ele>
        <time>2017-06-08T08:50:14Z</time>
      </trkpt>
      <trkpt lat="44.08409" lon="6.97534">
        <ele>1648</ele>
        <time>2017-06-08T08:50:14Z</time>
      </trkpt>
      <trkpt lat="44.08406" lon="6.9753">
        <ele>1648</ele>
        <time>2017-06-08T08:50:14Z</time>
      </trkpt>
      <trkpt lat="44.08403" lon="6.97525">
        <ele>1644</ele>
        <time>2017-06-08T08:50:33Z</time>
      </trkpt>
      <trkpt lat="44.08402" lon="6.97523">
        <ele>1644</ele>
        <time>2017-06-08T08:50:34Z</time>
      </trkpt>
      <trkpt lat="44.08401" lon="6.9752">
        <ele>1644</ele>
        <time>2017-06-08T08:50:34Z</time>
      </trkpt>
      <trkpt lat="44.08401" lon="6.97514">
        <ele>1644</ele>
        <time>2017-06-08T08:50:34Z</time>
      </trkpt>
      <trkpt lat="44.08399" lon="6.97512">
        <ele>1647</ele>
        <time>2017-06-08T08:50:34Z</time>
      </trkpt>
      <trkpt lat="44.08397" lon="6.97506">
        <ele>1647</ele>
        <time>2017-06-08T08:50:48Z</time>
      </trkpt>
      <trkpt lat="44.08396" lon="6.97502">
        <ele>1647</ele>
        <time>2017-06-08T08:50:49Z</time>
      </trkpt>
      <trkpt lat="44.08393" lon="6.97495">
        <ele>1647</ele>
        <time>2017-06-08T08:50:49Z</time>
      </trkpt>
      <trkpt lat="44.08392" lon="6.97489">
        <ele>1647</ele>
        <time>2017-06-08T08:50:49Z</time>
      </trkpt>
      <trkpt lat="44.0839" lon="6.97483">
        <ele>1652</ele>
        <time>2017-06-08T08:51:06Z</time>
      </trkpt>
      <trkpt lat="44.08391" lon="6.9748">
        <ele>1652</ele>
        <time>2017-06-08T08:51:06Z</time>
      </trkpt>
      <trkpt lat="44.0839" lon="6.97474">
        <ele>1652</ele>
        <time>2017-06-08T08:51:06Z</time>
      </trkpt>
      <trkpt lat="44.08389" lon="6.97468">
        <ele>1652</ele>
        <time>2017-06-08T08:51:06Z</time>
      </trkpt>
      <trkpt lat="44.08387" lon="6.97464">
        <ele>1652</ele>
        <time>2017-06-08T08:51:23Z</time>
      </trkpt>
      <trkpt lat="44.08385" lon="6.97458">
        <ele>1655</ele>
        <time>2017-06-08T08:51:23Z</time>
      </trkpt>
      <trkpt lat="44.08383" lon="6.97452">
        <ele>1655</ele>
        <time>2017-06-08T08:51:23Z</time>
      </trkpt>
      <trkpt lat="44.08379" lon="6.97444">
        <ele>1655</ele>
        <time>2017-06-08T08:51:23Z</time>
      </trkpt>
      <trkpt lat="44.08377" lon="6.97439">
        <ele>1655</ele>
        <time>2017-06-08T08:51:37Z</time>
      </trkpt>
      <trkpt lat="44.08376" lon="6.97435">
        <ele>1655</ele>
        <time>2017-06-08T08:51:37Z</time>
      </trkpt>
      <trkpt lat="44.08375" lon="6.97432">
        <ele>1653</ele>
        <time>2017-06-08T08:51:37Z</time>
      </trkpt>
      <trkpt lat="44.0837" lon="6.97425">
        <ele>1656</ele>
        <time>2017-06-08T08:51:37Z</time>
      </trkpt>
      <trkpt lat="44.08368" lon="6.97417">
        <ele>1656</ele>
        <time>2017-06-08T08:51:52Z</time>
      </trkpt>
      <trkpt lat="44.08367" lon="6.97414">
        <ele>1656</ele>
        <time>2017-06-08T08:51:52Z</time>
      </trkpt>
      <trkpt lat="44.08365" lon="6.9741">
        <ele>1656</ele>
        <time>2017-06-08T08:51:53Z</time>
      </trkpt>
      <trkpt lat="44.08361" lon="6.97403">
        <ele>1656</ele>
        <time>2017-06-08T08:51:53Z</time>
      </trkpt>
      <trkpt lat="44.08359" lon="6.97399">
        <ele>1660</ele>
        <time>2017-06-08T08:52:10Z</time>
      </trkpt>
      <trkpt lat="44.08356" lon="6.97394">
        <ele>1660</ele>
        <time>2017-06-08T08:52:10Z</time>
      </trkpt>
      <trkpt lat="44.08355" lon="6.97388">
        <ele>1660</ele>
        <time>2017-06-08T08:52:11Z</time>
      </trkpt>
      <trkpt lat="44.08352" lon="6.97384">
        <ele>1660</ele>
        <time>2017-06-08T08:52:11Z</time>
      </trkpt>
      <trkpt lat="44.08351" lon="6.97382">
        <ele>1660</ele>
        <time>2017-06-08T08:52:26Z</time>
      </trkpt>
      <trkpt lat="44.08347" lon="6.97381">
        <ele>1655</ele>
        <time>2017-06-08T08:52:26Z</time>
      </trkpt>
      <trkpt lat="44.08343" lon="6.97378">
        <ele>1655</ele>
        <time>2017-06-08T08:52:26Z</time>
      </trkpt>
      <trkpt lat="44.08341" lon="6.97375">
        <ele>1660</ele>
        <time>2017-06-08T08:52:26Z</time>
      </trkpt>
      <trkpt lat="44.08337" lon="6.9737">
        <ele>1660</ele>
        <time>2017-06-08T08:52:42Z</time>
      </trkpt>
      <trkpt lat="44.08336" lon="6.97366">
        <ele>1660</ele>
        <time>2017-06-08T08:52:42Z</time>
      </trkpt>
      <trkpt lat="44.08332" lon="6.9736">
        <ele>1660</ele>
        <time>2017-06-08T08:52:42Z</time>
      </trkpt>
      <trkpt lat="44.0833" lon="6.97358">
        <ele>1660</ele>
        <time>2017-06-08T08:52:42Z</time>
      </trkpt>
      <trkpt lat="44.08326" lon="6.97354">
        <ele>1660</ele>
        <time>2017-06-08T08:52:56Z</time>
      </trkpt>
      <trkpt lat="44.08322" lon="6.9735">
        <ele>1660</ele>
        <time>2017-06-08T08:52:56Z</time>
      </trkpt>
      <trkpt lat="44.08318" lon="6.97347">
        <ele>1661</ele>
        <time>2017-06-08T08:52:57Z</time>
      </trkpt>
      <trkpt lat="44.08315" lon="6.97344">
        <ele>1661</ele>
        <time>2017-06-08T08:52:57Z</time>
      </trkpt>
      <trkpt lat="44.08314" lon="6.97342">
        <ele>1661</ele>
        <time>2017-06-08T08:53:12Z</time>
      </trkpt>
      <trkpt lat="44.0831" lon="6.97339">
        <ele>1661</ele>
        <time>2017-06-08T08:53:12Z</time>
      </trkpt>
      <trkpt lat="44.08307" lon="6.97337">
        <ele>1661</ele>
        <time>2017-06-08T08:53:13Z</time>
      </trkpt>
      <trkpt lat="44.08305" lon="6.97332">
        <ele>1661</ele>
        <time>2017-06-08T08:53:13Z</time>
      </trkpt>
      <trkpt lat="44.08291" lon="6.9732">
        <ele>1659</ele>
        <time>2017-06-08T08:53:44Z</time>
      </trkpt>
      <trkpt lat="44.08289" lon="6.97318">
        <ele>1661</ele>
        <time>2017-06-08T08:53:45Z</time>
      </trkpt>
      <trkpt lat="44.08286" lon="6.97316">
        <ele>1661</ele>
        <time>2017-06-08T08:53:45Z</time>
      </trkpt>
      <trkpt lat="44.08283" lon="6.97314">
        <ele>1661</ele>
        <time>2017-06-08T08:53:45Z</time>
      </trkpt>
      <trkpt lat="44.08279" lon="6.97309">
        <ele>1661</ele>
        <time>2017-06-08T08:53:45Z</time>
      </trkpt>
      <trkpt lat="44.08276" lon="6.97307">
        <ele>1661</ele>
        <time>2017-06-08T08:54:02Z</time>
      </trkpt>
      <trkpt lat="44.08273" lon="6.97301">
        <ele>1661</ele>
        <time>2017-06-08T08:54:02Z</time>
      </trkpt>
      <trkpt lat="44.0827" lon="6.97296">
        <ele>1661</ele>
        <time>2017-06-08T08:54:02Z</time>
      </trkpt>
      <trkpt lat="44.08266" lon="6.9729">
        <ele>1663</ele>
        <time>2017-06-08T08:54:03Z</time>
      </trkpt>
      <trkpt lat="44.08262" lon="6.97288">
        <ele>1662</ele>
        <time>2017-06-08T08:54:17Z</time>
      </trkpt>
      <trkpt lat="44.0826" lon="6.97285">
        <ele>1662</ele>
        <time>2017-06-08T08:54:18Z</time>
      </trkpt>
      <trkpt lat="44.08254" lon="6.97279">
        <ele>1662</ele>
        <time>2017-06-08T08:54:18Z</time>
      </trkpt>
      <trkpt lat="44.08253" lon="6.97276">
        <ele>1662</ele>
        <time>2017-06-08T08:54:18Z</time>
      </trkpt>
      <trkpt lat="44.0825" lon="6.97271">
        <ele>1662</ele>
        <time>2017-06-08T08:54:35Z</time>
      </trkpt>
      <trkpt lat="44.08249" lon="6.97264">
        <ele>1662</ele>
        <time>2017-06-08T08:54:35Z</time>
      </trkpt>
      <trkpt lat="44.08248" lon="6.97259">
        <ele>1663</ele>
        <time>2017-06-08T08:54:35Z</time>
      </trkpt>
      <trkpt lat="44.08248" lon="6.97254">
        <ele>1663</ele>
        <time>2017-06-08T08:54:35Z</time>
      </trkpt>
      <trkpt lat="44.08245" lon="6.9725">
        <ele>1663</ele>
        <time>2017-06-08T08:54:48Z</time>
      </trkpt>
      <trkpt lat="44.08243" lon="6.97248">
        <ele>1663</ele>
        <time>2017-06-08T08:54:48Z</time>
      </trkpt>
      <trkpt lat="44.08241" lon="6.97242">
        <ele>1663</ele>
        <time>2017-06-08T08:54:49Z</time>
      </trkpt>
      <trkpt lat="44.08239" lon="6.97238">
        <ele>1663</ele>
        <time>2017-06-08T08:54:49Z</time>
      </trkpt>
      <trkpt lat="44.08236" lon="6.97232">
        <ele>1659</ele>
        <time>2017-06-08T08:55:07Z</time>
      </trkpt>
      <trkpt lat="44.08234" lon="6.97231">
        <ele>1659</ele>
        <time>2017-06-08T08:55:07Z</time>
      </trkpt>
      <trkpt lat="44.08232" lon="6.97229">
        <ele>1659</ele>
        <time>2017-06-08T08:55:07Z</time>
      </trkpt>
      <trkpt lat="44.08229" lon="6.97224">
        <ele>1659</ele>
        <time>2017-06-08T08:55:08Z</time>
      </trkpt>
      <trkpt lat="44.08227" lon="6.97223">
        <ele>1659</ele>
        <time>2017-06-08T08:55:23Z</time>
      </trkpt>
      <trkpt lat="44.08219" lon="6.97216">
        <ele>1659</ele>
        <time>2017-06-08T08:55:23Z</time>
      </trkpt>
      <trkpt lat="44.08218" lon="6.97215">
        <ele>1659</ele>
        <time>2017-06-08T08:55:24Z</time>
      </trkpt>
      <trkpt lat="44.08211" lon="6.9721">
        <ele>1659</ele>
        <time>2017-06-08T08:55:24Z</time>
      </trkpt>
      <trkpt lat="44.08209" lon="6.9721">
        <ele>1659</ele>
        <time>2017-06-08T08:55:39Z</time>
      </trkpt>
      <trkpt lat="44.08205" lon="6.97204">
        <ele>1656</ele>
        <time>2017-06-08T08:55:39Z</time>
      </trkpt>
      <trkpt lat="44.08203" lon="6.97201">
        <ele>1656</ele>
        <time>2017-06-08T08:55:39Z</time>
      </trkpt>
      <trkpt lat="44.08198" lon="6.97196">
        <ele>1656</ele>
        <time>2017-06-08T08:55:39Z</time>
      </trkpt>
      <trkpt lat="44.08195" lon="6.97193">
        <ele>1656</ele>
        <time>2017-06-08T08:55:55Z</time>
      </trkpt>
      <trkpt lat="44.08191" lon="6.97191">
        <ele>1656</ele>
        <time>2017-06-08T08:55:55Z</time>
      </trkpt>
      <trkpt lat="44.08189" lon="6.97187">
        <ele>1656</ele>
        <time>2017-06-08T08:55:55Z</time>
      </trkpt>
      <trkpt lat="44.08185" lon="6.97182">
        <ele>1656</ele>
        <time>2017-06-08T08:55:55Z</time>
      </trkpt>
      <trkpt lat="44.08184" lon="6.9718">
        <ele>1656</ele>
        <time>2017-06-08T08:56:08Z</time>
      </trkpt>
      <trkpt lat="44.08181" lon="6.97176">
        <ele>1656</ele>
        <time>2017-06-08T08:56:08Z</time>
      </trkpt>
      <trkpt lat="44.08179" lon="6.97172">
        <ele>1654</ele>
        <time>2017-06-08T08:56:09Z</time>
      </trkpt>
      <trkpt lat="44.08176" lon="6.97165">
        <ele>1654</ele>
        <time>2017-06-08T08:56:09Z</time>
      </trkpt>
      <trkpt lat="44.08174" lon="6.97155">
        <ele>1654</ele>
        <time>2017-06-08T08:56:26Z</time>
      </trkpt>
      <trkpt lat="44.08173" lon="6.97151">
        <ele>1654</ele>
        <time>2017-06-08T08:56:26Z</time>
      </trkpt>
      <trkpt lat="44.08173" lon="6.97142">
        <ele>1654</ele>
        <time>2017-06-08T08:56:26Z</time>
      </trkpt>
      <trkpt lat="44.08172" lon="6.97137">
        <ele>1654</ele>
        <time>2017-06-08T08:56:26Z</time>
      </trkpt>
      <trkpt lat="44.08173" lon="6.97133">
        <ele>1654</ele>
        <time>2017-06-08T08:56:42Z</time>
      </trkpt>
      <trkpt lat="44.08171" lon="6.97119">
        <ele>1655</ele>
        <time>2017-06-08T08:56:42Z</time>
      </trkpt>
      <trkpt lat="44.08172" lon="6.97113">
        <ele>1655</ele>
        <time>2017-06-08T08:56:42Z</time>
      </trkpt>
      <trkpt lat="44.08174" lon="6.9711">
        <ele>1655</ele>
        <time>2017-06-08T08:56:42Z</time>
      </trkpt>
      <trkpt lat="44.08176" lon="6.97102">
        <ele>1655</ele>
        <time>2017-06-08T08:56:57Z</time>
      </trkpt>
      <trkpt lat="44.08177" lon="6.971">
        <ele>1655</ele>
        <time>2017-06-08T08:56:57Z</time>
      </trkpt>
      <trkpt lat="44.08179" lon="6.97093">
        <ele>1655</ele>
        <time>2017-06-08T08:56:58Z</time>
      </trkpt>
      <trkpt lat="44.08179" lon="6.97089">
        <ele>1655</ele>
        <time>2017-06-08T08:56:58Z</time>
      </trkpt>
      <trkpt lat="44.08179" lon="6.97082">
        <ele>1655</ele>
        <time>2017-06-08T08:57:13Z</time>
      </trkpt>
      <trkpt lat="44.08175" lon="6.97073">
        <ele>1655</ele>
        <time>2017-06-08T08:57:13Z</time>
      </trkpt>
      <trkpt lat="44.08167" lon="6.9707">
        <ele>1655</ele>
        <time>2017-06-08T08:57:13Z</time>
      </trkpt>
      <trkpt lat="44.08166" lon="6.9707">
        <ele>1655</ele>
        <time>2017-06-08T08:57:13Z</time>
      </trkpt>
      <trkpt lat="44.08156" lon="6.9707">
        <ele>1655</ele>
        <time>2017-06-08T08:57:28Z</time>
      </trkpt>
      <trkpt lat="44.08155" lon="6.9707">
        <ele>1655</ele>
        <time>2017-06-08T08:57:28Z</time>
      </trkpt>
      <trkpt lat="44.0815" lon="6.9707">
        <ele>1654</ele>
        <time>2017-06-08T08:57:29Z</time>
      </trkpt>
      <trkpt lat="44.08146" lon="6.97071">
        <ele>1654</ele>
        <time>2017-06-08T08:57:29Z</time>
      </trkpt>
      <trkpt lat="44.08142" lon="6.97068">
        <ele>1652</ele>
        <time>2017-06-08T08:57:44Z</time>
      </trkpt>
      <trkpt lat="44.08135" lon="6.97069">
        <ele>1652</ele>
        <time>2017-06-08T08:57:45Z</time>
      </trkpt>
      <trkpt lat="44.08133" lon="6.97068">
        <ele>1652</ele>
        <time>2017-06-08T08:57:45Z</time>
      </trkpt>
      <trkpt lat="44.08128" lon="6.97069">
        <ele>1652</ele>
        <time>2017-06-08T08:57:45Z</time>
      </trkpt>
      <trkpt lat="44.08123" lon="6.97069">
        <ele>1655</ele>
        <time>2017-06-08T08:58:00Z</time>
      </trkpt>
      <trkpt lat="44.08118" lon="6.97069">
        <ele>1655</ele>
        <time>2017-06-08T08:58:00Z</time>
      </trkpt>
      <trkpt lat="44.08114" lon="6.97069">
        <ele>1655</ele>
        <time>2017-06-08T08:58:01Z</time>
      </trkpt>
      <trkpt lat="44.0811" lon="6.97067">
        <ele>1655</ele>
        <time>2017-06-08T08:58:01Z</time>
      </trkpt>
      <trkpt lat="44.08107" lon="6.97065">
        <ele>1655</ele>
        <time>2017-06-08T08:58:16Z</time>
      </trkpt>
      <trkpt lat="44.08102" lon="6.97064">
        <ele>1655</ele>
        <time>2017-06-08T08:58:16Z</time>
      </trkpt>
      <trkpt lat="44.08096" lon="6.97063">
        <ele>1657</ele>
        <time>2017-06-08T08:58:17Z</time>
      </trkpt>
      <trkpt lat="44.08092" lon="6.97061">
        <ele>1657</ele>
        <time>2017-06-08T08:58:17Z</time>
      </trkpt>
      <trkpt lat="44.08086" lon="6.97059">
        <ele>1657</ele>
        <time>2017-06-08T08:58:34Z</time>
      </trkpt>
      <trkpt lat="44.08084" lon="6.97056">
        <ele>1657</ele>
        <time>2017-06-08T08:58:34Z</time>
      </trkpt>
      <trkpt lat="44.08078" lon="6.97052">
        <ele>1657</ele>
        <time>2017-06-08T08:58:35Z</time>
      </trkpt>
      <trkpt lat="44.08073" lon="6.97049">
        <ele>1657</ele>
        <time>2017-06-08T08:58:35Z</time>
      </trkpt>
      <trkpt lat="44.0807" lon="6.97046">
        <ele>1657</ele>
        <time>2017-06-08T08:58:49Z</time>
      </trkpt>
      <trkpt lat="44.08066" lon="6.97041">
        <ele>1654</ele>
        <time>2017-06-08T08:58:49Z</time>
      </trkpt>
      <trkpt lat="44.08062" lon="6.97039">
        <ele>1654</ele>
        <time>2017-06-08T08:58:49Z</time>
      </trkpt>
      <trkpt lat="44.08058" lon="6.97037">
        <ele>1654</ele>
        <time>2017-06-08T08:58:49Z</time>
      </trkpt>
      <trkpt lat="44.0805" lon="6.97031">
        <ele>1654</ele>
        <time>2017-06-08T09:00:50Z</time>
      </trkpt>
      <trkpt lat="44.0805" lon="6.97032">
        <ele>1654</ele>
        <time>2017-06-08T09:00:50Z</time>
      </trkpt>
      <trkpt lat="44.08048" lon="6.97032">
        <ele>1654</ele>
        <time>2017-06-08T09:00:50Z</time>
      </trkpt>
      <trkpt lat="44.08046" lon="6.97027">
        <ele>1654</ele>
        <time>2017-06-08T09:00:50Z</time>
      </trkpt>
      <trkpt lat="44.08042" lon="6.97027">
        <ele>1654</ele>
        <time>2017-06-08T09:00:50Z</time>
      </trkpt>
      <trkpt lat="44.08038" lon="6.97025">
        <ele>1652</ele>
        <time>2017-06-08T09:01:05Z</time>
      </trkpt>
      <trkpt lat="44.08034" lon="6.9702">
        <ele>1652</ele>
        <time>2017-06-08T09:01:06Z</time>
      </trkpt>
      <trkpt lat="44.0803" lon="6.97018">
        <ele>1652</ele>
        <time>2017-06-08T09:01:07Z</time>
      </trkpt>
      <trkpt lat="44.08026" lon="6.97014">
        <ele>1652</ele>
        <time>2017-06-08T09:01:07Z</time>
      </trkpt>
      <trkpt lat="44.08021" lon="6.97014">
        <ele>1650</ele>
        <time>2017-06-08T09:01:20Z</time>
      </trkpt>
      <trkpt lat="44.08015" lon="6.97011">
        <ele>1650</ele>
        <time>2017-06-08T09:01:20Z</time>
      </trkpt>
      <trkpt lat="44.08011" lon="6.97008">
        <ele>1650</ele>
        <time>2017-06-08T09:01:21Z</time>
      </trkpt>
      <trkpt lat="44.08009" lon="6.97005">
        <ele>1650</ele>
        <time>2017-06-08T09:01:21Z</time>
      </trkpt>
      <trkpt lat="44.08005" lon="6.97004">
        <ele>1650</ele>
        <time>2017-06-08T09:01:36Z</time>
      </trkpt>
      <trkpt lat="44.08002" lon="6.97003">
        <ele>1650</ele>
        <time>2017-06-08T09:01:37Z</time>
      </trkpt>
      <trkpt lat="44.07994" lon="6.97003">
        <ele>1650</ele>
        <time>2017-06-08T09:01:37Z</time>
      </trkpt>
      <trkpt lat="44.0799" lon="6.97001">
        <ele>1650</ele>
        <time>2017-06-08T09:01:37Z</time>
      </trkpt>
      <trkpt lat="44.07985" lon="6.96997">
        <ele>1651</ele>
        <time>2017-06-08T09:01:53Z</time>
      </trkpt>
      <trkpt lat="44.07981" lon="6.96996">
        <ele>1651</ele>
        <time>2017-06-08T09:01:53Z</time>
      </trkpt>
      <trkpt lat="44.07977" lon="6.96994">
        <ele>1651</ele>
        <time>2017-06-08T09:01:53Z</time>
      </trkpt>
      <trkpt lat="44.07973" lon="6.96991">
        <ele>1651</ele>
        <time>2017-06-08T09:01:53Z</time>
      </trkpt>
      <trkpt lat="44.0797" lon="6.96989">
        <ele>1651</ele>
        <time>2017-06-08T09:02:10Z</time>
      </trkpt>
      <trkpt lat="44.07967" lon="6.96986">
        <ele>1652</ele>
        <time>2017-06-08T09:02:10Z</time>
      </trkpt>
      <trkpt lat="44.07964" lon="6.96983">
        <ele>1652</ele>
        <time>2017-06-08T09:02:10Z</time>
      </trkpt>
      <trkpt lat="44.07961" lon="6.96977">
        <ele>1652</ele>
        <time>2017-06-08T09:02:10Z</time>
      </trkpt>
      <trkpt lat="44.07958" lon="6.96975">
        <ele>1653</ele>
        <time>2017-06-08T09:02:26Z</time>
      </trkpt>
      <trkpt lat="44.07955" lon="6.96973">
        <ele>1653</ele>
        <time>2017-06-08T09:02:26Z</time>
      </trkpt>
      <trkpt lat="44.07951" lon="6.96974">
        <ele>1653</ele>
        <time>2017-06-08T09:02:26Z</time>
      </trkpt>
      <trkpt lat="44.07948" lon="6.96971">
        <ele>1653</ele>
        <time>2017-06-08T09:02:26Z</time>
      </trkpt>
      <trkpt lat="44.07947" lon="6.96969">
        <ele>1653</ele>
        <time>2017-06-08T09:02:41Z</time>
      </trkpt>
      <trkpt lat="44.07943" lon="6.96967">
        <ele>1653</ele>
        <time>2017-06-08T09:02:41Z</time>
      </trkpt>
      <trkpt lat="44.07939" lon="6.96964">
        <ele>1653</ele>
        <time>2017-06-08T09:02:41Z</time>
      </trkpt>
      <trkpt lat="44.07936" lon="6.96962">
        <ele>1653</ele>
        <time>2017-06-08T09:02:41Z</time>
      </trkpt>
      <trkpt lat="44.07933" lon="6.96959">
        <ele>1653</ele>
        <time>2017-06-08T09:02:57Z</time>
      </trkpt>
      <trkpt lat="44.07931" lon="6.96957">
        <ele>1656</ele>
        <time>2017-06-08T09:02:57Z</time>
      </trkpt>
      <trkpt lat="44.07927" lon="6.96956">
        <ele>1658</ele>
        <time>2017-06-08T09:02:57Z</time>
      </trkpt>
      <trkpt lat="44.07923" lon="6.96954">
        <ele>1658</ele>
        <time>2017-06-08T09:02:57Z</time>
      </trkpt>
      <trkpt lat="44.0792" lon="6.96952">
        <ele>1658</ele>
        <time>2017-06-08T09:03:18Z</time>
      </trkpt>
      <trkpt lat="44.07917" lon="6.96948">
        <ele>1658</ele>
        <time>2017-06-08T09:03:18Z</time>
      </trkpt>
      <trkpt lat="44.07914" lon="6.96949">
        <ele>1658</ele>
        <time>2017-06-08T09:03:18Z</time>
      </trkpt>
      <trkpt lat="44.07912" lon="6.96949">
        <ele>1658</ele>
        <time>2017-06-08T09:03:18Z</time>
      </trkpt>
      <trkpt lat="44.07908" lon="6.96947">
        <ele>1658</ele>
        <time>2017-06-08T09:03:18Z</time>
      </trkpt>
      <trkpt lat="44.07906" lon="6.96947">
        <ele>1658</ele>
        <time>2017-06-08T09:03:33Z</time>
      </trkpt>
      <trkpt lat="44.07901" lon="6.96946">
        <ele>1662</ele>
        <time>2017-06-08T09:03:33Z</time>
      </trkpt>
      <trkpt lat="44.07898" lon="6.96944">
        <ele>1662</ele>
        <time>2017-06-08T09:03:33Z</time>
      </trkpt>
      <trkpt lat="44.07896" lon="6.96944">
        <ele>1662</ele>
        <time>2017-06-08T09:03:33Z</time>
      </trkpt>
      <trkpt lat="44.07892" lon="6.96943">
        <ele>1662</ele>
        <time>2017-06-08T09:03:48Z</time>
      </trkpt>
      <trkpt lat="44.07888" lon="6.96941">
        <ele>1662</ele>
        <time>2017-06-08T09:03:49Z</time>
      </trkpt>
      <trkpt lat="44.07885" lon="6.9694">
        <ele>1662</ele>
        <time>2017-06-08T09:03:49Z</time>
      </trkpt>
      <trkpt lat="44.07881" lon="6.96939">
        <ele>1662</ele>
        <time>2017-06-08T09:03:49Z</time>
      </trkpt>
      <trkpt lat="44.07879" lon="6.96938">
        <ele>1662</ele>
        <time>2017-06-08T09:04:06Z</time>
      </trkpt>
      <trkpt lat="44.07875" lon="6.96935">
        <ele>1662</ele>
        <time>2017-06-08T09:04:06Z</time>
      </trkpt>
      <trkpt lat="44.07873" lon="6.96934">
        <ele>1665</ele>
        <time>2017-06-08T09:04:06Z</time>
      </trkpt>
      <trkpt lat="44.07869" lon="6.96934">
        <ele>1665</ele>
        <time>2017-06-08T09:04:06Z</time>
      </trkpt>
      <trkpt lat="44.07866" lon="6.96934">
        <ele>1665</ele>
        <time>2017-06-08T09:04:22Z</time>
      </trkpt>
      <trkpt lat="44.07862" lon="6.96935">
        <ele>1665</ele>
        <time>2017-06-08T09:04:22Z</time>
      </trkpt>
      <trkpt lat="44.07857" lon="6.96936">
        <ele>1665</ele>
        <time>2017-06-08T09:04:22Z</time>
      </trkpt>
      <trkpt lat="44.07854" lon="6.96938">
        <ele>1665</ele>
        <time>2017-06-08T09:04:22Z</time>
      </trkpt>
      <trkpt lat="44.0785" lon="6.96941">
        <ele>1665</ele>
        <time>2017-06-08T09:04:38Z</time>
      </trkpt>
      <trkpt lat="44.07845" lon="6.96943">
        <ele>1672</ele>
        <time>2017-06-08T09:04:38Z</time>
      </trkpt>
      <trkpt lat="44.0784" lon="6.96944">
        <ele>1672</ele>
        <time>2017-06-08T09:04:38Z</time>
      </trkpt>
      <trkpt lat="44.07837" lon="6.96946">
        <ele>1672</ele>
        <time>2017-06-08T09:04:38Z</time>
      </trkpt>
      <trkpt lat="44.07835" lon="6.96947">
        <ele>1672</ele>
        <time>2017-06-08T09:04:52Z</time>
      </trkpt>
      <trkpt lat="44.07831" lon="6.96949">
        <ele>1672</ele>
        <time>2017-06-08T09:04:53Z</time>
      </trkpt>
      <trkpt lat="44.07827" lon="6.96952">
        <ele>1672</ele>
        <time>2017-06-08T09:04:53Z</time>
      </trkpt>
      <trkpt lat="44.07824" lon="6.96955">
        <ele>1672</ele>
        <time>2017-06-08T09:04:53Z</time>
      </trkpt>
      <trkpt lat="44.07821" lon="6.96955">
        <ele>1672</ele>
        <time>2017-06-08T09:05:10Z</time>
      </trkpt>
      <trkpt lat="44.0782" lon="6.96956">
        <ele>1672</ele>
        <time>2017-06-08T09:05:10Z</time>
      </trkpt>
      <trkpt lat="44.07817" lon="6.96961">
        <ele>1671</ele>
        <time>2017-06-08T09:05:10Z</time>
      </trkpt>
      <trkpt lat="44.07815" lon="6.96966">
        <ele>1671</ele>
        <time>2017-06-08T09:05:10Z</time>
      </trkpt>
      <trkpt lat="44.07813" lon="6.96968">
        <ele>1671</ele>
        <time>2017-06-08T09:05:26Z</time>
      </trkpt>
      <trkpt lat="44.0781" lon="6.9697">
        <ele>1671</ele>
        <time>2017-06-08T09:05:26Z</time>
      </trkpt>
      <trkpt lat="44.07806" lon="6.96971">
        <ele>1671</ele>
        <time>2017-06-08T09:05:26Z</time>
      </trkpt>
      <trkpt lat="44.07801" lon="6.96974">
        <ele>1671</ele>
        <time>2017-06-08T09:05:26Z</time>
      </trkpt>
      <trkpt lat="44.07797" lon="6.96975">
        <ele>1671</ele>
        <time>2017-06-08T09:05:42Z</time>
      </trkpt>
      <trkpt lat="44.07794" lon="6.96975">
        <ele>1671</ele>
        <time>2017-06-08T09:05:42Z</time>
      </trkpt>
      <trkpt lat="44.07791" lon="6.96977">
        <ele>1676</ele>
        <time>2017-06-08T09:05:42Z</time>
      </trkpt>
      <trkpt lat="44.07788" lon="6.96977">
        <ele>1676</ele>
        <time>2017-06-08T09:05:42Z</time>
      </trkpt>
      <trkpt lat="44.07785" lon="6.96978">
        <ele>1676</ele>
        <time>2017-06-08T09:05:56Z</time>
      </trkpt>
      <trkpt lat="44.07783" lon="6.96978">
        <ele>1676</ele>
        <time>2017-06-08T09:05:57Z</time>
      </trkpt>
      <trkpt lat="44.07779" lon="6.9698">
        <ele>1676</ele>
        <time>2017-06-08T09:05:57Z</time>
      </trkpt>
      <trkpt lat="44.07776" lon="6.96981">
        <ele>1676</ele>
        <time>2017-06-08T09:05:57Z</time>
      </trkpt>
      <trkpt lat="44.07773" lon="6.96982">
        <ele>1676</ele>
        <time>2017-06-08T09:06:14Z</time>
      </trkpt>
      <trkpt lat="44.07768" lon="6.96985">
        <ele>1676</ele>
        <time>2017-06-08T09:06:14Z</time>
      </trkpt>
      <trkpt lat="44.07763" lon="6.96985">
        <ele>1681</ele>
        <time>2017-06-08T09:06:14Z</time>
      </trkpt>
      <trkpt lat="44.0776" lon="6.96986">
        <ele>1681</ele>
        <time>2017-06-08T09:06:15Z</time>
      </trkpt>
      <trkpt lat="44.07757" lon="6.96986">
        <ele>1681</ele>
        <time>2017-06-08T09:06:30Z</time>
      </trkpt>
      <trkpt lat="44.07749" lon="6.96985">
        <ele>1681</ele>
        <time>2017-06-08T09:06:30Z</time>
      </trkpt>
      <trkpt lat="44.07744" lon="6.96985">
        <ele>1681</ele>
        <time>2017-06-08T09:06:30Z</time>
      </trkpt>
      <trkpt lat="44.07742" lon="6.96981">
        <ele>1681</ele>
        <time>2017-06-08T09:06:30Z</time>
      </trkpt>
      <trkpt lat="44.07738" lon="6.9698">
        <ele>1681</ele>
        <time>2017-06-08T09:06:44Z</time>
      </trkpt>
      <trkpt lat="44.07735" lon="6.9698">
        <ele>1684</ele>
        <time>2017-06-08T09:06:44Z</time>
      </trkpt>
      <trkpt lat="44.07729" lon="6.96979">
        <ele>1684</ele>
        <time>2017-06-08T09:06:45Z</time>
      </trkpt>
      <trkpt lat="44.07726" lon="6.96978">
        <ele>1684</ele>
        <time>2017-06-08T09:06:45Z</time>
      </trkpt>
      <trkpt lat="44.07721" lon="6.96977">
        <ele>1684</ele>
        <time>2017-06-08T09:07:01Z</time>
      </trkpt>
      <trkpt lat="44.07717" lon="6.96976">
        <ele>1684</ele>
        <time>2017-06-08T09:07:01Z</time>
      </trkpt>
      <trkpt lat="44.07711" lon="6.96975">
        <ele>1684</ele>
        <time>2017-06-08T09:07:01Z</time>
      </trkpt>
      <trkpt lat="44.07708" lon="6.96975">
        <ele>1686</ele>
        <time>2017-06-08T09:07:01Z</time>
      </trkpt>
      <trkpt lat="44.07703" lon="6.96974">
        <ele>1686</ele>
        <time>2017-06-08T09:07:18Z</time>
      </trkpt>
      <trkpt lat="44.07698" lon="6.96973">
        <ele>1686</ele>
        <time>2017-06-08T09:07:18Z</time>
      </trkpt>
      <trkpt lat="44.07693" lon="6.96973">
        <ele>1686</ele>
        <time>2017-06-08T09:07:18Z</time>
      </trkpt>
      <trkpt lat="44.07689" lon="6.96973">
        <ele>1686</ele>
        <time>2017-06-08T09:07:18Z</time>
      </trkpt>
      <trkpt lat="44.07685" lon="6.96973">
        <ele>1686</ele>
        <time>2017-06-08T09:07:38Z</time>
      </trkpt>
      <trkpt lat="44.07682" lon="6.96973">
        <ele>1686</ele>
        <time>2017-06-08T09:07:38Z</time>
      </trkpt>
      <trkpt lat="44.07679" lon="6.96972">
        <ele>1686</ele>
        <time>2017-06-08T09:07:39Z</time>
      </trkpt>
      <trkpt lat="44.07677" lon="6.96973">
        <ele>1686</ele>
        <time>2017-06-08T09:07:39Z</time>
      </trkpt>
      <trkpt lat="44.0767" lon="6.96972">
        <ele>1686</ele>
        <time>2017-06-08T09:07:39Z</time>
      </trkpt>
      <trkpt lat="44.07667" lon="6.96972">
        <ele>1686</ele>
        <time>2017-06-08T09:07:56Z</time>
      </trkpt>
      <trkpt lat="44.07665" lon="6.9697">
        <ele>1686</ele>
        <time>2017-06-08T09:07:56Z</time>
      </trkpt>
      <trkpt lat="44.07661" lon="6.96971">
        <ele>1686</ele>
        <time>2017-06-08T09:07:57Z</time>
      </trkpt>
      <trkpt lat="44.0766" lon="6.96971">
        <ele>1686</ele>
        <time>2017-06-08T09:07:57Z</time>
      </trkpt>
      <trkpt lat="44.07654" lon="6.96971">
        <ele>1686</ele>
        <time>2017-06-08T09:07:57Z</time>
      </trkpt>
      <trkpt lat="44.0765" lon="6.96972">
        <ele>1687</ele>
        <time>2017-06-08T09:08:14Z</time>
      </trkpt>
      <trkpt lat="44.07647" lon="6.96972">
        <ele>1687</ele>
        <time>2017-06-08T09:08:14Z</time>
      </trkpt>
      <trkpt lat="44.07643" lon="6.96972">
        <ele>1687</ele>
        <time>2017-06-08T09:08:14Z</time>
      </trkpt>
      <trkpt lat="44.07638" lon="6.96974">
        <ele>1687</ele>
        <time>2017-06-08T09:08:14Z</time>
      </trkpt>
      <trkpt lat="44.07635" lon="6.96975">
        <ele>1687</ele>
        <time>2017-06-08T09:08:30Z</time>
      </trkpt>
      <trkpt lat="44.07631" lon="6.96973">
        <ele>1687</ele>
        <time>2017-06-08T09:08:30Z</time>
      </trkpt>
      <trkpt lat="44.07626" lon="6.96973">
        <ele>1687</ele>
        <time>2017-06-08T09:08:30Z</time>
      </trkpt>
      <trkpt lat="44.07623" lon="6.96972">
        <ele>1692</ele>
        <time>2017-06-08T09:08:31Z</time>
      </trkpt>
      <trkpt lat="44.07619" lon="6.96972">
        <ele>1692</ele>
        <time>2017-06-08T09:08:45Z</time>
      </trkpt>
      <trkpt lat="44.07612" lon="6.9697">
        <ele>1692</ele>
        <time>2017-06-08T09:08:45Z</time>
      </trkpt>
      <trkpt lat="44.07607" lon="6.96971">
        <ele>1692</ele>
        <time>2017-06-08T09:08:45Z</time>
      </trkpt>
      <trkpt lat="44.07603" lon="6.96971">
        <ele>1692</ele>
        <time>2017-06-08T09:08:45Z</time>
      </trkpt>
      <trkpt lat="44.076" lon="6.96971">
        <ele>1692</ele>
        <time>2017-06-08T09:09:00Z</time>
      </trkpt>
      <trkpt lat="44.07596" lon="6.96974">
        <ele>1695</ele>
        <time>2017-06-08T09:09:00Z</time>
      </trkpt>
      <trkpt lat="44.07593" lon="6.96975">
        <ele>1695</ele>
        <time>2017-06-08T09:09:01Z</time>
      </trkpt>
      <trkpt lat="44.07589" lon="6.96976">
        <ele>1695</ele>
        <time>2017-06-08T09:09:01Z</time>
      </trkpt>
      <trkpt lat="44.07587" lon="6.96978">
        <ele>1695</ele>
        <time>2017-06-08T09:09:22Z</time>
      </trkpt>
      <trkpt lat="44.07585" lon="6.9698">
        <ele>1695</ele>
        <time>2017-06-08T09:09:22Z</time>
      </trkpt>
      <trkpt lat="44.07583" lon="6.96981">
        <ele>1695</ele>
        <time>2017-06-08T09:09:22Z</time>
      </trkpt>
      <trkpt lat="44.07579" lon="6.96984">
        <ele>1695</ele>
        <time>2017-06-08T09:09:22Z</time>
      </trkpt>
      <trkpt lat="44.07575" lon="6.96986">
        <ele>1695</ele>
        <time>2017-06-08T09:09:22Z</time>
      </trkpt>
      <trkpt lat="44.07574" lon="6.96987">
        <ele>1695</ele>
        <time>2017-06-08T09:09:38Z</time>
      </trkpt>
      <trkpt lat="44.07573" lon="6.96989">
        <ele>1695</ele>
        <time>2017-06-08T09:09:38Z</time>
      </trkpt>
      <trkpt lat="44.07568" lon="6.96993">
        <ele>1697</ele>
        <time>2017-06-08T09:09:38Z</time>
      </trkpt>
      <trkpt lat="44.07567" lon="6.96997">
        <ele>1697</ele>
        <time>2017-06-08T09:09:38Z</time>
      </trkpt>
      <trkpt lat="44.07566" lon="6.96998">
        <ele>1697</ele>
        <time>2017-06-08T09:09:52Z</time>
      </trkpt>
      <trkpt lat="44.07561" lon="6.97003">
        <ele>1697</ele>
        <time>2017-06-08T09:09:53Z</time>
      </trkpt>
      <trkpt lat="44.0756" lon="6.97004">
        <ele>1697</ele>
        <time>2017-06-08T09:09:53Z</time>
      </trkpt>
      <trkpt lat="44.07556" lon="6.97007">
        <ele>1697</ele>
        <time>2017-06-08T09:09:53Z</time>
      </trkpt>
      <trkpt lat="44.07551" lon="6.97012">
        <ele>1697</ele>
        <time>2017-06-08T09:10:09Z</time>
      </trkpt>
      <trkpt lat="44.07548" lon="6.97017">
        <ele>1699</ele>
        <time>2017-06-08T09:10:10Z</time>
      </trkpt>
      <trkpt lat="44.07545" lon="6.97022">
        <ele>1699</ele>
        <time>2017-06-08T09:10:10Z</time>
      </trkpt>
      <trkpt lat="44.07545" lon="6.97026">
        <ele>1699</ele>
        <time>2017-06-08T09:10:10Z</time>
      </trkpt>
      <trkpt lat="44.07542" lon="6.97028">
        <ele>1699</ele>
        <time>2017-06-08T09:10:30Z</time>
      </trkpt>
      <trkpt lat="44.07539" lon="6.97032">
        <ele>1700</ele>
        <time>2017-06-08T09:10:30Z</time>
      </trkpt>
      <trkpt lat="44.07539" lon="6.97033">
        <ele>1700</ele>
        <time>2017-06-08T09:10:30Z</time>
      </trkpt>
      <trkpt lat="44.07535" lon="6.97034">
        <ele>1700</ele>
        <time>2017-06-08T09:10:30Z</time>
      </trkpt>
      <trkpt lat="44.07532" lon="6.97037">
        <ele>1700</ele>
        <time>2017-06-08T09:10:30Z</time>
      </trkpt>
      <trkpt lat="44.07527" lon="6.97045">
        <ele>1702</ele>
        <time>2017-06-08T09:14:04Z</time>
      </trkpt>
      <trkpt lat="44.07529" lon="6.97047">
        <ele>1702</ele>
        <time>2017-06-08T09:14:04Z</time>
      </trkpt>
      <trkpt lat="44.07528" lon="6.97048">
        <ele>1702</ele>
        <time>2017-06-08T09:14:05Z</time>
      </trkpt>
      <trkpt lat="44.07528" lon="6.9705">
        <ele>1702</ele>
        <time>2017-06-08T09:14:05Z</time>
      </trkpt>
      <trkpt lat="44.07526" lon="6.97055">
        <ele>1702</ele>
        <time>2017-06-08T09:14:05Z</time>
      </trkpt>
      <trkpt lat="44.07522" lon="6.97063">
        <ele>1702</ele>
        <time>2017-06-08T09:14:24Z</time>
      </trkpt>
      <trkpt lat="44.07516" lon="6.97072">
        <ele>1704</ele>
        <time>2017-06-08T09:14:24Z</time>
      </trkpt>
      <trkpt lat="44.07514" lon="6.97074">
        <ele>1705</ele>
        <time>2017-06-08T09:14:25Z</time>
      </trkpt>
      <trkpt lat="44.0751" lon="6.97088">
        <ele>1705</ele>
        <time>2017-06-08T09:14:25Z</time>
      </trkpt>
      <trkpt lat="44.07509" lon="6.97092">
        <ele>1705</ele>
        <time>2017-06-08T09:14:40Z</time>
      </trkpt>
      <trkpt lat="44.07506" lon="6.971">
        <ele>1703</ele>
        <time>2017-06-08T09:14:40Z</time>
      </trkpt>
      <trkpt lat="44.07506" lon="6.97101">
        <ele>1703</ele>
        <time>2017-06-08T09:14:40Z</time>
      </trkpt>
      <trkpt lat="44.07502" lon="6.97105">
        <ele>1703</ele>
        <time>2017-06-08T09:14:40Z</time>
      </trkpt>
      <trkpt lat="44.07502" lon="6.97106">
        <ele>1703</ele>
        <time>2017-06-08T09:14:54Z</time>
      </trkpt>
      <trkpt lat="44.07499" lon="6.97111">
        <ele>1703</ele>
        <time>2017-06-08T09:14:54Z</time>
      </trkpt>
      <trkpt lat="44.07493" lon="6.97117">
        <ele>1703</ele>
        <time>2017-06-08T09:14:54Z</time>
      </trkpt>
      <trkpt lat="44.0749" lon="6.97121">
        <ele>1703</ele>
        <time>2017-06-08T09:14:54Z</time>
      </trkpt>
      <trkpt lat="44.07486" lon="6.97127">
        <ele>1700</ele>
        <time>2017-06-08T09:15:08Z</time>
      </trkpt>
      <trkpt lat="44.07482" lon="6.97131">
        <ele>1700</ele>
        <time>2017-06-08T09:15:08Z</time>
      </trkpt>
      <trkpt lat="44.0748" lon="6.97135">
        <ele>1700</ele>
        <time>2017-06-08T09:15:08Z</time>
      </trkpt>
      <trkpt lat="44.07479" lon="6.97139">
        <ele>1700</ele>
        <time>2017-06-08T09:15:09Z</time>
      </trkpt>
      <trkpt lat="44.07476" lon="6.97144">
        <ele>1700</ele>
        <time>2017-06-08T09:15:27Z</time>
      </trkpt>
      <trkpt lat="44.07469" lon="6.97152">
        <ele>1700</ele>
        <time>2017-06-08T09:15:27Z</time>
      </trkpt>
      <trkpt lat="44.07467" lon="6.97154">
        <ele>1700</ele>
        <time>2017-06-08T09:15:27Z</time>
      </trkpt>
      <trkpt lat="44.07463" lon="6.9716">
        <ele>1700</ele>
        <time>2017-06-08T09:15:27Z</time>
      </trkpt>
      <trkpt lat="44.07462" lon="6.97161">
        <ele>1700</ele>
        <time>2017-06-08T09:15:42Z</time>
      </trkpt>
      <trkpt lat="44.07461" lon="6.97163">
        <ele>1700</ele>
        <time>2017-06-08T09:15:42Z</time>
      </trkpt>
      <trkpt lat="44.07459" lon="6.97165">
        <ele>1700</ele>
        <time>2017-06-08T09:15:43Z</time>
      </trkpt>
      <trkpt lat="44.07454" lon="6.97171">
        <ele>1699</ele>
        <time>2017-06-08T09:15:43Z</time>
      </trkpt>
      <trkpt lat="44.07451" lon="6.97174">
        <ele>1699</ele>
        <time>2017-06-08T09:15:57Z</time>
      </trkpt>
      <trkpt lat="44.07449" lon="6.9718">
        <ele>1699</ele>
        <time>2017-06-08T09:15:58Z</time>
      </trkpt>
      <trkpt lat="44.07445" lon="6.97185">
        <ele>1702</ele>
        <time>2017-06-08T09:15:58Z</time>
      </trkpt>
      <trkpt lat="44.07443" lon="6.97189">
        <ele>1702</ele>
        <time>2017-06-08T09:15:58Z</time>
      </trkpt>
      <trkpt lat="44.0744" lon="6.97194">
        <ele>1702</ele>
        <time>2017-06-08T09:16:14Z</time>
      </trkpt>
      <trkpt lat="44.07437" lon="6.97201">
        <ele>1702</ele>
        <time>2017-06-08T09:16:14Z</time>
      </trkpt>
      <trkpt lat="44.07431" lon="6.97208">
        <ele>1702</ele>
        <time>2017-06-08T09:16:14Z</time>
      </trkpt>
      <trkpt lat="44.07428" lon="6.97212">
        <ele>1704</ele>
        <time>2017-06-08T09:16:14Z</time>
      </trkpt>
      <trkpt lat="44.0742" lon="6.97218">
        <ele>1704</ele>
        <time>2017-06-08T09:16:28Z</time>
      </trkpt>
      <trkpt lat="44.07419" lon="6.97222">
        <ele>1704</ele>
        <time>2017-06-08T09:16:28Z</time>
      </trkpt>
      <trkpt lat="44.07416" lon="6.97226">
        <ele>1704</ele>
        <time>2017-06-08T09:16:29Z</time>
      </trkpt>
      <trkpt lat="44.07411" lon="6.97233">
        <ele>1704</ele>
        <time>2017-06-08T09:16:29Z</time>
      </trkpt>
      <trkpt lat="44.07408" lon="6.97239">
        <ele>1705</ele>
        <time>2017-06-08T09:16:48Z</time>
      </trkpt>
      <trkpt lat="44.07404" lon="6.97243">
        <ele>1705</ele>
        <time>2017-06-08T09:16:48Z</time>
      </trkpt>
      <trkpt lat="44.07403" lon="6.97249">
        <ele>1701</ele>
        <time>2017-06-08T09:16:48Z</time>
      </trkpt>
      <trkpt lat="44.07395" lon="6.97256">
        <ele>1701</ele>
        <time>2017-06-08T09:16:48Z</time>
      </trkpt>
      <trkpt lat="44.07395" lon="6.97257">
        <ele>1701</ele>
        <time>2017-06-08T09:17:02Z</time>
      </trkpt>
      <trkpt lat="44.07389" lon="6.97264">
        <ele>1701</ele>
        <time>2017-06-08T09:17:02Z</time>
      </trkpt>
      <trkpt lat="44.07387" lon="6.97267">
        <ele>1704</ele>
        <time>2017-06-08T09:17:02Z</time>
      </trkpt>
      <trkpt lat="44.07383" lon="6.97271">
        <ele>1704</ele>
        <time>2017-06-08T09:17:02Z</time>
      </trkpt>
      <trkpt lat="44.07381" lon="6.97274">
        <ele>1704</ele>
        <time>2017-06-08T09:17:18Z</time>
      </trkpt>
      <trkpt lat="44.07375" lon="6.97281">
        <ele>1702</ele>
        <time>2017-06-08T09:17:18Z</time>
      </trkpt>
      <trkpt lat="44.07374" lon="6.97283">
        <ele>1702</ele>
        <time>2017-06-08T09:17:18Z</time>
      </trkpt>
      <trkpt lat="44.07371" lon="6.97292">
        <ele>1705</ele>
        <time>2017-06-08T09:17:18Z</time>
      </trkpt>
      <trkpt lat="44.07368" lon="6.97296">
        <ele>1705</ele>
        <time>2017-06-08T09:17:32Z</time>
      </trkpt>
      <trkpt lat="44.07366" lon="6.97299">
        <ele>1705</ele>
        <time>2017-06-08T09:17:32Z</time>
      </trkpt>
      <trkpt lat="44.07363" lon="6.97304">
        <ele>1705</ele>
        <time>2017-06-08T09:17:33Z</time>
      </trkpt>
      <trkpt lat="44.0736" lon="6.97311">
        <ele>1705</ele>
        <time>2017-06-08T09:17:33Z</time>
      </trkpt>
      <trkpt lat="44.07357" lon="6.97318">
        <ele>1705</ele>
        <time>2017-06-08T09:17:50Z</time>
      </trkpt>
      <trkpt lat="44.07354" lon="6.97322">
        <ele>1707</ele>
        <time>2017-06-08T09:17:50Z</time>
      </trkpt>
      <trkpt lat="44.07351" lon="6.97328">
        <ele>1707</ele>
        <time>2017-06-08T09:17:51Z</time>
      </trkpt>
      <trkpt lat="44.07347" lon="6.9733">
        <ele>1707</ele>
        <time>2017-06-08T09:17:51Z</time>
      </trkpt>
      <trkpt lat="44.07345" lon="6.97334">
        <ele>1707</ele>
        <time>2017-06-08T09:18:05Z</time>
      </trkpt>
      <trkpt lat="44.07344" lon="6.97338">
        <ele>1707</ele>
        <time>2017-06-08T09:18:05Z</time>
      </trkpt>
      <trkpt lat="44.07341" lon="6.97345">
        <ele>1707</ele>
        <time>2017-06-08T09:18:05Z</time>
      </trkpt>
      <trkpt lat="44.07338" lon="6.97347">
        <ele>1708</ele>
        <time>2017-06-08T09:18:05Z</time>
      </trkpt>
      <trkpt lat="44.07332" lon="6.97352">
        <ele>1708</ele>
        <time>2017-06-08T09:18:21Z</time>
      </trkpt>
      <trkpt lat="44.07329" lon="6.97355">
        <ele>1708</ele>
        <time>2017-06-08T09:18:21Z</time>
      </trkpt>
      <trkpt lat="44.07325" lon="6.97358">
        <ele>1708</ele>
        <time>2017-06-08T09:18:21Z</time>
      </trkpt>
      <trkpt lat="44.07324" lon="6.97358">
        <ele>1708</ele>
        <time>2017-06-08T09:18:21Z</time>
      </trkpt>
      <trkpt lat="44.07316" lon="6.97363">
        <ele>1713</ele>
        <time>2017-06-08T09:18:51Z</time>
      </trkpt>
      <trkpt lat="44.07314" lon="6.97363">
        <ele>1713</ele>
        <time>2017-06-08T09:18:51Z</time>
      </trkpt>
      <trkpt lat="44.07313" lon="6.97363">
        <ele>1713</ele>
        <time>2017-06-08T09:18:52Z</time>
      </trkpt>
      <trkpt lat="44.07313" lon="6.97365">
        <ele>1713</ele>
        <time>2017-06-08T09:18:52Z</time>
      </trkpt>
      <trkpt lat="44.07309" lon="6.97369">
        <ele>1713</ele>
        <time>2017-06-08T09:18:52Z</time>
      </trkpt>
      <trkpt lat="44.07306" lon="6.97372">
        <ele>1713</ele>
        <time>2017-06-08T09:19:10Z</time>
      </trkpt>
      <trkpt lat="44.07303" lon="6.97373">
        <ele>1713</ele>
        <time>2017-06-08T09:19:11Z</time>
      </trkpt>
      <trkpt lat="44.07302" lon="6.97373">
        <ele>1713</ele>
        <time>2017-06-08T09:19:11Z</time>
      </trkpt>
      <trkpt lat="44.07299" lon="6.97376">
        <ele>1717</ele>
        <time>2017-06-08T09:19:11Z</time>
      </trkpt>
      <trkpt lat="44.07294" lon="6.97382">
        <ele>1717</ele>
        <time>2017-06-08T09:19:11Z</time>
      </trkpt>
      <trkpt lat="44.0729" lon="6.97381">
        <ele>1722</ele>
        <time>2017-06-08T09:19:25Z</time>
      </trkpt>
      <trkpt lat="44.07285" lon="6.97377">
        <ele>1722</ele>
        <time>2017-06-08T09:19:25Z</time>
      </trkpt>
      <trkpt lat="44.07284" lon="6.97378">
        <ele>1722</ele>
        <time>2017-06-08T09:19:25Z</time>
      </trkpt>
      <trkpt lat="44.07281" lon="6.97376">
        <ele>1722</ele>
        <time>2017-06-08T09:19:25Z</time>
      </trkpt>
      <trkpt lat="44.07281" lon="6.97377">
        <ele>1722</ele>
        <time>2017-06-08T09:19:50Z</time>
      </trkpt>
      <trkpt lat="44.07278" lon="6.97377">
        <ele>1722</ele>
        <time>2017-06-08T09:19:50Z</time>
      </trkpt>
      <trkpt lat="44.07276" lon="6.97378">
        <ele>1722</ele>
        <time>2017-06-08T09:19:50Z</time>
      </trkpt>
      <trkpt lat="44.07273" lon="6.97377">
        <ele>1722</ele>
        <time>2017-06-08T09:19:50Z</time>
      </trkpt>
      <trkpt lat="44.0727" lon="6.9738">
        <ele>1722</ele>
        <time>2017-06-08T09:19:50Z</time>
      </trkpt>
      <trkpt lat="44.07268" lon="6.97381">
        <ele>1722</ele>
        <time>2017-06-08T09:20:06Z</time>
      </trkpt>
      <trkpt lat="44.07263" lon="6.97383">
        <ele>1723</ele>
        <time>2017-06-08T09:20:06Z</time>
      </trkpt>
      <trkpt lat="44.07261" lon="6.97383">
        <ele>1723</ele>
        <time>2017-06-08T09:20:06Z</time>
      </trkpt>
      <trkpt lat="44.07256" lon="6.97385">
        <ele>1723</ele>
        <time>2017-06-08T09:20:06Z</time>
      </trkpt>
      <trkpt lat="44.0725" lon="6.97393">
        <ele>1723</ele>
        <time>2017-06-08T09:20:33Z</time>
      </trkpt>
      <trkpt lat="44.0725" lon="6.97394">
        <ele>1723</ele>
        <time>2017-06-08T09:20:34Z</time>
      </trkpt>
      <trkpt lat="44.0725" lon="6.97395">
        <ele>1723</ele>
        <time>2017-06-08T09:20:35Z</time>
      </trkpt>
      <trkpt lat="44.07249" lon="6.974">
        <ele>1723</ele>
        <time>2017-06-08T09:20:35Z</time>
      </trkpt>
      <trkpt lat="44.07251" lon="6.97404">
        <ele>1728</ele>
        <time>2017-06-08T09:20:36Z</time>
      </trkpt>
      <trkpt lat="44.07252" lon="6.97419">
        <ele>1728</ele>
        <time>2017-06-08T09:21:14Z</time>
      </trkpt>
      <trkpt lat="44.07252" lon="6.97419">
        <ele>1728</ele>
        <time>2017-06-08T09:21:14Z</time>
      </trkpt>
      <trkpt lat="44.07253" lon="6.97423">
        <ele>1728</ele>
        <time>2017-06-08T09:21:14Z</time>
      </trkpt>
      <trkpt lat="44.07252" lon="6.97427">
        <ele>1728</ele>
        <time>2017-06-08T09:21:14Z</time>
      </trkpt>
      <trkpt lat="44.07252" lon="6.97428">
        <ele>1728</ele>
        <time>2017-06-08T09:21:14Z</time>
      </trkpt>
      <trkpt lat="44.07253" lon="6.97431">
        <ele>1731</ele>
        <time>2017-06-08T09:21:35Z</time>
      </trkpt>
      <trkpt lat="44.07254" lon="6.97437">
        <ele>1731</ele>
        <time>2017-06-08T09:21:35Z</time>
      </trkpt>
      <trkpt lat="44.07253" lon="6.97438">
        <ele>1731</ele>
        <time>2017-06-08T09:21:35Z</time>
      </trkpt>
      <trkpt lat="44.07253" lon="6.97443">
        <ele>1731</ele>
        <time>2017-06-08T09:21:35Z</time>
      </trkpt>
      <trkpt lat="44.07251" lon="6.97448">
        <ele>1731</ele>
        <time>2017-06-08T09:21:35Z</time>
      </trkpt>
      <trkpt lat="44.07251" lon="6.9745">
        <ele>1731</ele>
        <time>2017-06-08T09:21:50Z</time>
      </trkpt>
      <trkpt lat="44.07248" lon="6.97454">
        <ele>1731</ele>
        <time>2017-06-08T09:21:51Z</time>
      </trkpt>
      <trkpt lat="44.07248" lon="6.97459">
        <ele>1733</ele>
        <time>2017-06-08T09:21:51Z</time>
      </trkpt>
      <trkpt lat="44.07244" lon="6.97466">
        <ele>1733</ele>
        <time>2017-06-08T09:21:52Z</time>
      </trkpt>
      <trkpt lat="44.07246" lon="6.97471">
        <ele>1733</ele>
        <time>2017-06-08T09:22:16Z</time>
      </trkpt>
      <trkpt lat="44.07247" lon="6.97472">
        <ele>1733</ele>
        <time>2017-06-08T09:22:17Z</time>
      </trkpt>
      <trkpt lat="44.07247" lon="6.97472">
        <ele>1733</ele>
        <time>2017-06-08T09:22:17Z</time>
      </trkpt>
      <trkpt lat="44.07248" lon="6.97476">
        <ele>1733</ele>
        <time>2017-06-08T09:22:17Z</time>
      </trkpt>
      <trkpt lat="44.07249" lon="6.97481">
        <ele>1733</ele>
        <time>2017-06-08T09:22:17Z</time>
      </trkpt>
      <trkpt lat="44.07249" lon="6.97484">
        <ele>1733</ele>
        <time>2017-06-08T09:22:39Z</time>
      </trkpt>
      <trkpt lat="44.07249" lon="6.97488">
        <ele>1735</ele>
        <time>2017-06-08T09:22:39Z</time>
      </trkpt>
      <trkpt lat="44.07251" lon="6.97493">
        <ele>1735</ele>
        <time>2017-06-08T09:22:39Z</time>
      </trkpt>
      <trkpt lat="44.07252" lon="6.97495">
        <ele>1735</ele>
        <time>2017-06-08T09:22:39Z</time>
      </trkpt>
      <trkpt lat="44.07255" lon="6.97502">
        <ele>1735</ele>
        <time>2017-06-08T09:22:39Z</time>
      </trkpt>
      <trkpt lat="44.07256" lon="6.97505">
        <ele>1735</ele>
        <time>2017-06-08T09:22:58Z</time>
      </trkpt>
      <trkpt lat="44.07256" lon="6.9751">
        <ele>1735</ele>
        <time>2017-06-08T09:22:58Z</time>
      </trkpt>
      <trkpt lat="44.07257" lon="6.97511">
        <ele>1735</ele>
        <time>2017-06-08T09:22:58Z</time>
      </trkpt>
      <trkpt lat="44.07257" lon="6.97516">
        <ele>1738</ele>
        <time>2017-06-08T09:22:59Z</time>
      </trkpt>
      <trkpt lat="44.07258" lon="6.97519">
        <ele>1738</ele>
        <time>2017-06-08T09:22:59Z</time>
      </trkpt>
      <trkpt lat="44.07258" lon="6.97521">
        <ele>1738</ele>
        <time>2017-06-08T09:23:18Z</time>
      </trkpt>
      <trkpt lat="44.07258" lon="6.97525">
        <ele>1738</ele>
        <time>2017-06-08T09:23:18Z</time>
      </trkpt>
      <trkpt lat="44.07259" lon="6.97527">
        <ele>1738</ele>
        <time>2017-06-08T09:23:18Z</time>
      </trkpt>
      <trkpt lat="44.07259" lon="6.97533">
        <ele>1738</ele>
        <time>2017-06-08T09:23:19Z</time>
      </trkpt>
      <trkpt lat="44.07259" lon="6.97534">
        <ele>1738</ele>
        <time>2017-06-08T09:23:19Z</time>
      </trkpt>
      <trkpt lat="44.0726" lon="6.97534">
        <ele>1738</ele>
        <time>2017-06-08T09:23:36Z</time>
      </trkpt>
      <trkpt lat="44.07263" lon="6.97543">
        <ele>1740</ele>
        <time>2017-06-08T09:23:36Z</time>
      </trkpt>
      <trkpt lat="44.07263" lon="6.97545">
        <ele>1740</ele>
        <time>2017-06-08T09:23:36Z</time>
      </trkpt>
      <trkpt lat="44.07266" lon="6.97551">
        <ele>1744</ele>
        <time>2017-06-08T09:23:36Z</time>
      </trkpt>
      <trkpt lat="44.07266" lon="6.97553">
        <ele>1744</ele>
        <time>2017-06-08T09:23:59Z</time>
      </trkpt>
      <trkpt lat="44.07268" lon="6.97557">
        <ele>1744</ele>
        <time>2017-06-08T09:23:59Z</time>
      </trkpt>
      <trkpt lat="44.0727" lon="6.97561">
        <ele>1744</ele>
        <time>2017-06-08T09:23:59Z</time>
      </trkpt>
      <trkpt lat="44.0727" lon="6.97561">
        <ele>1744</ele>
        <time>2017-06-08T09:23:59Z</time>
      </trkpt>
      <trkpt lat="44.07271" lon="6.97564">
        <ele>1744</ele>
        <time>2017-06-08T09:23:59Z</time>
      </trkpt>
      <trkpt lat="44.07273" lon="6.97566">
        <ele>1744</ele>
        <time>2017-06-08T09:24:18Z</time>
      </trkpt>
      <trkpt lat="44.07275" lon="6.97571">
        <ele>1744</ele>
        <time>2017-06-08T09:24:18Z</time>
      </trkpt>
      <trkpt lat="44.07277" lon="6.97573">
        <ele>1744</ele>
        <time>2017-06-08T09:24:18Z</time>
      </trkpt>
      <trkpt lat="44.07277" lon="6.97574">
        <ele>1744</ele>
        <time>2017-06-08T09:24:18Z</time>
      </trkpt>
      <trkpt lat="44.0728" lon="6.97575">
        <ele>1744</ele>
        <time>2017-06-08T09:24:18Z</time>
      </trkpt>
      <trkpt lat="44.07279" lon="6.97584">
        <ele>1744</ele>
        <time>2017-06-08T09:26:19Z</time>
      </trkpt>
      <trkpt lat="44.0728" lon="6.97585">
        <ele>1744</ele>
        <time>2017-06-08T09:26:19Z</time>
      </trkpt>
      <trkpt lat="44.07281" lon="6.97585">
        <ele>1744</ele>
        <time>2017-06-08T09:26:19Z</time>
      </trkpt>
      <trkpt lat="44.07281" lon="6.97587">
        <ele>1744</ele>
        <time>2017-06-08T09:26:19Z</time>
      </trkpt>
      <trkpt lat="44.07281" lon="6.97589">
        <ele>1744</ele>
        <time>2017-06-08T09:26:19Z</time>
      </trkpt>
      <trkpt lat="44.07278" lon="6.97589">
        <ele>1744</ele>
        <time>2017-06-08T09:27:44Z</time>
      </trkpt>
      <trkpt lat="44.07278" lon="6.97591">
        <ele>1744</ele>
        <time>2017-06-08T09:27:44Z</time>
      </trkpt>
      <trkpt lat="44.07279" lon="6.97594">
        <ele>1744</ele>
        <time>2017-06-08T09:27:44Z</time>
      </trkpt>
      <trkpt lat="44.07279" lon="6.97597">
        <ele>1744</ele>
        <time>2017-06-08T09:27:44Z</time>
      </trkpt>
      <trkpt lat="44.0728" lon="6.97606">
        <ele>1744</ele>
        <time>2017-06-08T09:27:44Z</time>
      </trkpt>
      <trkpt lat="44.0728" lon="6.97608">
        <ele>1744</ele>
        <time>2017-06-08T09:27:56Z</time>
      </trkpt>
      <trkpt lat="44.07282" lon="6.97613">
        <ele>1744</ele>
        <time>2017-06-08T09:27:57Z</time>
      </trkpt>
      <trkpt lat="44.07284" lon="6.97616">
        <ele>1744</ele>
        <time>2017-06-08T09:27:57Z</time>
      </trkpt>
      <trkpt lat="44.07286" lon="6.9762">
        <ele>1744</ele>
        <time>2017-06-08T09:27:57Z</time>
      </trkpt>
      <trkpt lat="44.07291" lon="6.97621">
        <ele>1744</ele>
        <time>2017-06-08T09:29:08Z</time>
      </trkpt>
      <trkpt lat="44.0729" lon="6.9762">
        <ele>1744</ele>
        <time>2017-06-08T09:29:08Z</time>
      </trkpt>
      <trkpt lat="44.07286" lon="6.97619">
        <ele>1744</ele>
        <time>2017-06-08T09:29:09Z</time>
      </trkpt>
      <trkpt lat="44.07283" lon="6.97618">
        <ele>1744</ele>
        <time>2017-06-08T09:29:09Z</time>
      </trkpt>
      <trkpt lat="44.07283" lon="6.97616">
        <ele>1744</ele>
        <time>2017-06-08T09:29:09Z</time>
      </trkpt>
      <trkpt lat="44.07279" lon="6.97609">
        <ele>1744</ele>
        <time>2017-06-08T09:29:40Z</time>
      </trkpt>
      <trkpt lat="44.07279" lon="6.97608">
        <ele>1744</ele>
        <time>2017-06-08T09:29:41Z</time>
      </trkpt>
      <trkpt lat="44.07279" lon="6.97606">
        <ele>1744</ele>
        <time>2017-06-08T09:29:41Z</time>
      </trkpt>
      <trkpt lat="44.07279" lon="6.97605">
        <ele>1744</ele>
        <time>2017-06-08T09:29:41Z</time>
      </trkpt>
      <trkpt lat="44.07278" lon="6.97598">
        <ele>1744</ele>
        <time>2017-06-08T09:29:41Z</time>
      </trkpt>
      <trkpt lat="44.07276" lon="6.97586">
        <ele>1744</ele>
        <time>2017-06-08T09:30:15Z</time>
      </trkpt>
      <trkpt lat="44.07273" lon="6.97583">
        <ele>1744</ele>
        <time>2017-06-08T09:30:15Z</time>
      </trkpt>
      <trkpt lat="44.07272" lon="6.97582">
        <ele>1744</ele>
        <time>2017-06-08T09:30:15Z</time>
      </trkpt>
      <trkpt lat="44.07272" lon="6.97582">
        <ele>1744</ele>
        <time>2017-06-08T09:30:15Z</time>
      </trkpt>
      <trkpt lat="44.07272" lon="6.97579">
        <ele>1744</ele>
        <time>2017-06-08T09:30:15Z</time>
      </trkpt>
      <trkpt lat="44.07272" lon="6.97578">
        <ele>1744</ele>
        <time>2017-06-08T09:30:31Z</time>
      </trkpt>
      <trkpt lat="44.0727" lon="6.97571">
        <ele>1744</ele>
        <time>2017-06-08T09:30:31Z</time>
      </trkpt>
      <trkpt lat="44.0727" lon="6.97569">
        <ele>1744</ele>
        <time>2017-06-08T09:30:32Z</time>
      </trkpt>
      <trkpt lat="44.07268" lon="6.97562">
        <ele>1744</ele>
        <time>2017-06-08T09:30:32Z</time>
      </trkpt>
      <trkpt lat="44.07267" lon="6.9756">
        <ele>1744</ele>
        <time>2017-06-08T09:30:48Z</time>
      </trkpt>
      <trkpt lat="44.07265" lon="6.97558">
        <ele>1744</ele>
        <time>2017-06-08T09:30:48Z</time>
      </trkpt>
      <trkpt lat="44.07265" lon="6.97557">
        <ele>1744</ele>
        <time>2017-06-08T09:30:49Z</time>
      </trkpt>
      <trkpt lat="44.07262" lon="6.97554">
        <ele>1740</ele>
        <time>2017-06-08T09:30:49Z</time>
      </trkpt>
      <trkpt lat="44.07258" lon="6.97554">
        <ele>1740</ele>
        <time>2017-06-08T09:30:49Z</time>
      </trkpt>
      <trkpt lat="44.07256" lon="6.97552">
        <ele>1740</ele>
        <time>2017-06-08T09:31:15Z</time>
      </trkpt>
      <trkpt lat="44.07253" lon="6.97551">
        <ele>1740</ele>
        <time>2017-06-08T09:31:15Z</time>
      </trkpt>
      <trkpt lat="44.07249" lon="6.97551">
        <ele>1740</ele>
        <time>2017-06-08T09:31:15Z</time>
      </trkpt>
      <trkpt lat="44.07249" lon="6.97551">
        <ele>1740</ele>
        <time>2017-06-08T09:31:15Z</time>
      </trkpt>
      <trkpt lat="44.07246" lon="6.97552">
        <ele>1740</ele>
        <time>2017-06-08T09:31:15Z</time>
      </trkpt>
      <trkpt lat="44.07242" lon="6.97549">
        <ele>1740</ele>
        <time>2017-06-08T09:31:59Z</time>
      </trkpt>
      <trkpt lat="44.07241" lon="6.97548">
        <ele>1740</ele>
        <time>2017-06-08T09:31:59Z</time>
      </trkpt>
      <trkpt lat="44.07242" lon="6.97546">
        <ele>1740</ele>
        <time>2017-06-08T09:32:00Z</time>
      </trkpt>
      <trkpt lat="44.07241" lon="6.97543">
        <ele>1740</ele>
        <time>2017-06-08T09:32:00Z</time>
      </trkpt>
      <trkpt lat="44.07241" lon="6.97536">
        <ele>1738</ele>
        <time>2017-06-08T09:32:00Z</time>
      </trkpt>
      <trkpt lat="44.07241" lon="6.97533">
        <ele>1738</ele>
        <time>2017-06-08T09:32:14Z</time>
      </trkpt>
      <trkpt lat="44.07241" lon="6.9753">
        <ele>1738</ele>
        <time>2017-06-08T09:32:14Z</time>
      </trkpt>
      <trkpt lat="44.07242" lon="6.9752">
        <ele>1738</ele>
        <time>2017-06-08T09:32:14Z</time>
      </trkpt>
      <trkpt lat="44.07241" lon="6.97518">
        <ele>1738</ele>
        <time>2017-06-08T09:32:14Z</time>
      </trkpt>
      <trkpt lat="44.07241" lon="6.97514">
        <ele>1735</ele>
        <time>2017-06-08T09:32:31Z</time>
      </trkpt>
      <trkpt lat="44.07241" lon="6.97508">
        <ele>1735</ele>
        <time>2017-06-08T09:32:31Z</time>
      </trkpt>
      <trkpt lat="44.07241" lon="6.97506">
        <ele>1735</ele>
        <time>2017-06-08T09:32:31Z</time>
      </trkpt>
      <trkpt lat="44.07238" lon="6.97498">
        <ele>1735</ele>
        <time>2017-06-08T09:32:31Z</time>
      </trkpt>
      <trkpt lat="44.07235" lon="6.97491">
        <ele>1729</ele>
        <time>2017-06-08T09:32:56Z</time>
      </trkpt>
      <trkpt lat="44.07234" lon="6.97488">
        <ele>1729</ele>
        <time>2017-06-08T09:32:57Z</time>
      </trkpt>
      <trkpt lat="44.07234" lon="6.97485">
        <ele>1726</ele>
        <time>2017-06-08T09:32:57Z</time>
      </trkpt>
      <trkpt lat="44.07234" lon="6.97483">
        <ele>1726</ele>
        <time>2017-06-08T09:32:57Z</time>
      </trkpt>
      <trkpt lat="44.07235" lon="6.97482">
        <ele>1726</ele>
        <time>2017-06-08T09:32:57Z</time>
      </trkpt>
      <trkpt lat="44.07236" lon="6.97478">
        <ele>1726</ele>
        <time>2017-06-08T09:33:12Z</time>
      </trkpt>
      <trkpt lat="44.07235" lon="6.97474">
        <ele>1726</ele>
        <time>2017-06-08T09:33:12Z</time>
      </trkpt>
      <trkpt lat="44.07234" lon="6.97468">
        <ele>1726</ele>
        <time>2017-06-08T09:33:13Z</time>
      </trkpt>
      <trkpt lat="44.07234" lon="6.9746">
        <ele>1726</ele>
        <time>2017-06-08T09:33:13Z</time>
      </trkpt>
      <trkpt lat="44.07236" lon="6.97456">
        <ele>1722</ele>
        <time>2017-06-08T09:33:28Z</time>
      </trkpt>
      <trkpt lat="44.07237" lon="6.97453">
        <ele>1731</ele>
        <time>2017-06-08T09:33:29Z</time>
      </trkpt>
      <trkpt lat="44.07238" lon="6.97446">
        <ele>1731</ele>
        <time>2017-06-08T09:33:29Z</time>
      </trkpt>
      <trkpt lat="44.0724" lon="6.97441">
        <ele>1731</ele>
        <time>2017-06-08T09:33:29Z</time>
      </trkpt>
      <trkpt lat="44.07241" lon="6.97438">
        <ele>1731</ele>
        <time>2017-06-08T09:33:44Z</time>
      </trkpt>
      <trkpt lat="44.0724" lon="6.97432">
        <ele>1731</ele>
        <time>2017-06-08T09:33:44Z</time>
      </trkpt>
      <trkpt lat="44.07237" lon="6.97427">
        <ele>1728</ele>
        <time>2017-06-08T09:33:45Z</time>
      </trkpt>
      <trkpt lat="44.07234" lon="6.97422">
        <ele>1721</ele>
        <time>2017-06-08T09:33:45Z</time>
      </trkpt>
      <trkpt lat="44.07232" lon="6.97418">
        <ele>1721</ele>
        <time>2017-06-08T09:34:00Z</time>
      </trkpt>
      <trkpt lat="44.0723" lon="6.97412">
        <ele>1721</ele>
        <time>2017-06-08T09:34:00Z</time>
      </trkpt>
      <trkpt lat="44.07229" lon="6.97406">
        <ele>1721</ele>
        <time>2017-06-08T09:34:01Z</time>
      </trkpt>
      <trkpt lat="44.07228" lon="6.97404">
        <ele>1721</ele>
        <time>2017-06-08T09:34:01Z</time>
      </trkpt>
      <trkpt lat="44.07229" lon="6.97387">
        <ele>1719</ele>
        <time>2017-06-08T09:34:35Z</time>
      </trkpt>
      <trkpt lat="44.07227" lon="6.9738">
        <ele>1719</ele>
        <time>2017-06-08T09:34:35Z</time>
      </trkpt>
      <trkpt lat="44.07226" lon="6.97367">
        <ele>1717</ele>
        <time>2017-06-08T09:34:35Z</time>
      </trkpt>
      <trkpt lat="44.07223" lon="6.97363">
        <ele>1717</ele>
        <time>2017-06-08T09:34:35Z</time>
      </trkpt>
      <trkpt lat="44.07223" lon="6.97356">
        <ele>1717</ele>
        <time>2017-06-08T09:34:35Z</time>
      </trkpt>
      <trkpt lat="44.07222" lon="6.97353">
        <ele>1717</ele>
        <time>2017-06-08T09:34:51Z</time>
      </trkpt>
      <trkpt lat="44.07221" lon="6.97344">
        <ele>1716</ele>
        <time>2017-06-08T09:34:51Z</time>
      </trkpt>
      <trkpt lat="44.07222" lon="6.97343">
        <ele>1716</ele>
        <time>2017-06-08T09:34:51Z</time>
      </trkpt>
      <trkpt lat="44.07221" lon="6.97333">
        <ele>1716</ele>
        <time>2017-06-08T09:34:51Z</time>
      </trkpt>
      <trkpt lat="44.07218" lon="6.97327">
        <ele>1716</ele>
        <time>2017-06-08T09:35:04Z</time>
      </trkpt>
      <trkpt lat="44.07216" lon="6.97321">
        <ele>1716</ele>
        <time>2017-06-08T09:35:04Z</time>
      </trkpt>
      <trkpt lat="44.07215" lon="6.97317">
        <ele>1716</ele>
        <time>2017-06-08T09:35:05Z</time>
      </trkpt>
      <trkpt lat="44.07214" lon="6.97312">
        <ele>1716</ele>
        <time>2017-06-08T09:35:05Z</time>
      </trkpt>
      <trkpt lat="44.07214" lon="6.97307">
        <ele>1716</ele>
        <time>2017-06-08T09:35:23Z</time>
      </trkpt>
      <trkpt lat="44.07212" lon="6.973">
        <ele>1716</ele>
        <time>2017-06-08T09:35:23Z</time>
      </trkpt>
      <trkpt lat="44.07209" lon="6.97296">
        <ele>1716</ele>
        <time>2017-06-08T09:35:23Z</time>
      </trkpt>
      <trkpt lat="44.07206" lon="6.97292">
        <ele>1712</ele>
        <time>2017-06-08T09:35:23Z</time>
      </trkpt>
      <trkpt lat="44.07203" lon="6.97278">
        <ele>1712</ele>
        <time>2017-06-08T09:36:01Z</time>
      </trkpt>
      <trkpt lat="44.07202" lon="6.97275">
        <ele>1712</ele>
        <time>2017-06-08T09:36:01Z</time>
      </trkpt>
      <trkpt lat="44.07202" lon="6.97271">
        <ele>1712</ele>
        <time>2017-06-08T09:36:01Z</time>
      </trkpt>
      <trkpt lat="44.07202" lon="6.9727">
        <ele>1712</ele>
        <time>2017-06-08T09:36:01Z</time>
      </trkpt>
      <trkpt lat="44.07201" lon="6.97269">
        <ele>1712</ele>
        <time>2017-06-08T09:36:01Z</time>
      </trkpt>
      <trkpt lat="44.07202" lon="6.97269">
        <ele>1712</ele>
        <time>2017-06-08T09:36:43Z</time>
      </trkpt>
      <trkpt lat="44.07202" lon="6.97268">
        <ele>1712</ele>
        <time>2017-06-08T09:36:43Z</time>
      </trkpt>
      <trkpt lat="44.07201" lon="6.97264">
        <ele>1712</ele>
        <time>2017-06-08T09:36:43Z</time>
      </trkpt>
      <trkpt lat="44.07199" lon="6.97259">
        <ele>1712</ele>
        <time>2017-06-08T09:36:43Z</time>
      </trkpt>
      <trkpt lat="44.07195" lon="6.97252">
        <ele>1712</ele>
        <time>2017-06-08T09:36:43Z</time>
      </trkpt>
      <trkpt lat="44.07194" lon="6.97251">
        <ele>1712</ele>
        <time>2017-06-08T09:36:57Z</time>
      </trkpt>
      <trkpt lat="44.07196" lon="6.97242">
        <ele>1712</ele>
        <time>2017-06-08T09:36:57Z</time>
      </trkpt>
      <trkpt lat="44.07195" lon="6.9724">
        <ele>1712</ele>
        <time>2017-06-08T09:36:57Z</time>
      </trkpt>
      <trkpt lat="44.07192" lon="6.97238">
        <ele>1712</ele>
        <time>2017-06-08T09:36:57Z</time>
      </trkpt>
      <trkpt lat="44.07188" lon="6.97235">
        <ele>1710</ele>
        <time>2017-06-08T09:37:13Z</time>
      </trkpt>
      <trkpt lat="44.07186" lon="6.9723">
        <ele>1710</ele>
        <time>2017-06-08T09:37:13Z</time>
      </trkpt>
      <trkpt lat="44.07183" lon="6.97226">
        <ele>1710</ele>
        <time>2017-06-08T09:37:13Z</time>
      </trkpt>
      <trkpt lat="44.07181" lon="6.97223">
        <ele>1710</ele>
        <time>2017-06-08T09:37:13Z</time>
      </trkpt>
      <trkpt lat="44.07179" lon="6.97218">
        <ele>1713</ele>
        <time>2017-06-08T09:37:30Z</time>
      </trkpt>
      <trkpt lat="44.07177" lon="6.97216">
        <ele>1713</ele>
        <time>2017-06-08T09:37:30Z</time>
      </trkpt>
      <trkpt lat="44.07175" lon="6.97213">
        <ele>1713</ele>
        <time>2017-06-08T09:37:30Z</time>
      </trkpt>
      <trkpt lat="44.07171" lon="6.9721">
        <ele>1713</ele>
        <time>2017-06-08T09:37:31Z</time>
      </trkpt>
      <trkpt lat="44.07165" lon="6.97207">
        <ele>1715</ele>
        <time>2017-06-08T09:37:52Z</time>
      </trkpt>
      <trkpt lat="44.07162" lon="6.97207">
        <ele>1715</ele>
        <time>2017-06-08T09:37:53Z</time>
      </trkpt>
      <trkpt lat="44.0716" lon="6.97207">
        <ele>1715</ele>
        <time>2017-06-08T09:37:53Z</time>
      </trkpt>
      <trkpt lat="44.07159" lon="6.97207">
        <ele>1715</ele>
        <time>2017-06-08T09:37:53Z</time>
      </trkpt>
      <trkpt lat="44.07157" lon="6.97207">
        <ele>1715</ele>
        <time>2017-06-08T09:37:53Z</time>
      </trkpt>
      <trkpt lat="44.07156" lon="6.9721">
        <ele>1713</ele>
        <time>2017-06-08T09:38:08Z</time>
      </trkpt>
      <trkpt lat="44.07153" lon="6.97212">
        <ele>1717</ele>
        <time>2017-06-08T09:38:09Z</time>
      </trkpt>
      <trkpt lat="44.0715" lon="6.97216">
        <ele>1717</ele>
        <time>2017-06-08T09:38:09Z</time>
      </trkpt>
      <trkpt lat="44.07145" lon="6.97218">
        <ele>1717</ele>
        <time>2017-06-08T09:38:09Z</time>
      </trkpt>
      <trkpt lat="44.07141" lon="6.9722">
        <ele>1717</ele>
        <time>2017-06-08T09:38:24Z</time>
      </trkpt>
      <trkpt lat="44.07136" lon="6.97221">
        <ele>1717</ele>
        <time>2017-06-08T09:38:25Z</time>
      </trkpt>
      <trkpt lat="44.07131" lon="6.97223">
        <ele>1717</ele>
        <time>2017-06-08T09:38:25Z</time>
      </trkpt>
      <trkpt lat="44.07128" lon="6.97222">
        <ele>1717</ele>
        <time>2017-06-08T09:38:25Z</time>
      </trkpt>
      <trkpt lat="44.07128" lon="6.97222">
        <ele>1717</ele>
        <time>2017-06-08T09:38:40Z</time>
      </trkpt>
      <trkpt lat="44.07123" lon="6.97221">
        <ele>1718</ele>
        <time>2017-06-08T09:38:41Z</time>
      </trkpt>
      <trkpt lat="44.07121" lon="6.97221">
        <ele>1718</ele>
        <time>2017-06-08T09:38:41Z</time>
      </trkpt>
      <trkpt lat="44.07117" lon="6.97222">
        <ele>1718</ele>
        <time>2017-06-08T09:38:41Z</time>
      </trkpt>
      <trkpt lat="44.07113" lon="6.97221">
        <ele>1718</ele>
        <time>2017-06-08T09:38:57Z</time>
      </trkpt>
      <trkpt lat="44.07107" lon="6.97222">
        <ele>1718</ele>
        <time>2017-06-08T09:38:57Z</time>
      </trkpt>
      <trkpt lat="44.07103" lon="6.97219">
        <ele>1718</ele>
        <time>2017-06-08T09:38:57Z</time>
      </trkpt>
      <trkpt lat="44.071" lon="6.97217">
        <ele>1718</ele>
        <time>2017-06-08T09:38:58Z</time>
      </trkpt>
      <trkpt lat="44.07096" lon="6.97216">
        <ele>1717</ele>
        <time>2017-06-08T09:39:13Z</time>
      </trkpt>
      <trkpt lat="44.07092" lon="6.97212">
        <ele>1717</ele>
        <time>2017-06-08T09:39:13Z</time>
      </trkpt>
      <trkpt lat="44.07088" lon="6.97212">
        <ele>1717</ele>
        <time>2017-06-08T09:39:13Z</time>
      </trkpt>
      <trkpt lat="44.07085" lon="6.97212">
        <ele>1717</ele>
        <time>2017-06-08T09:39:13Z</time>
      </trkpt>
      <trkpt lat="44.07081" lon="6.97211">
        <ele>1717</ele>
        <time>2017-06-08T09:39:32Z</time>
      </trkpt>
      <trkpt lat="44.07078" lon="6.9721">
        <ele>1717</ele>
        <time>2017-06-08T09:39:32Z</time>
      </trkpt>
      <trkpt lat="44.07075" lon="6.97206">
        <ele>1722</ele>
        <time>2017-06-08T09:39:33Z</time>
      </trkpt>
      <trkpt lat="44.07074" lon="6.97205">
        <ele>1722</ele>
        <time>2017-06-08T09:39:33Z</time>
      </trkpt>
      <trkpt lat="44.07072" lon="6.97202">
        <ele>1722</ele>
        <time>2017-06-08T09:39:33Z</time>
      </trkpt>
      <trkpt lat="44.07077" lon="6.97198">
        <ele>1722</ele>
        <time>2017-06-08T09:40:13Z</time>
      </trkpt>
      <trkpt lat="44.07078" lon="6.97195">
        <ele>1722</ele>
        <time>2017-06-08T09:40:13Z</time>
      </trkpt>
      <trkpt lat="44.0708" lon="6.97196">
        <ele>1722</ele>
        <time>2017-06-08T09:40:13Z</time>
      </trkpt>
      <trkpt lat="44.07081" lon="6.97195">
        <ele>1722</ele>
        <time>2017-06-08T09:40:13Z</time>
      </trkpt>
      <trkpt lat="44.07081" lon="6.97194">
        <ele>1722</ele>
        <time>2017-06-08T09:40:13Z</time>
      </trkpt>
      <trkpt lat="44.07086" lon="6.97186">
        <ele>1722</ele>
        <time>2017-06-08T09:40:47Z</time>
      </trkpt>
      <trkpt lat="44.07085" lon="6.97185">
        <ele>1722</ele>
        <time>2017-06-08T09:40:47Z</time>
      </trkpt>
      <trkpt lat="44.07085" lon="6.97184">
        <ele>1722</ele>
        <time>2017-06-08T09:40:48Z</time>
      </trkpt>
      <trkpt lat="44.07085" lon="6.97183">
        <ele>1722</ele>
        <time>2017-06-08T09:40:48Z</time>
      </trkpt>
      <trkpt lat="44.07085" lon="6.97178">
        <ele>1726</ele>
        <time>2017-06-08T09:40:48Z</time>
      </trkpt>
      <trkpt lat="44.07086" lon="6.97173">
        <ele>1726</ele>
        <time>2017-06-08T09:41:12Z</time>
      </trkpt>
      <trkpt lat="44.07087" lon="6.97173">
        <ele>1726</ele>
        <time>2017-06-08T09:41:13Z</time>
      </trkpt>
      <trkpt lat="44.07086" lon="6.97172">
        <ele>1726</ele>
        <time>2017-06-08T09:41:13Z</time>
      </trkpt>
      <trkpt lat="44.07087" lon="6.9717">
        <ele>1726</ele>
        <time>2017-06-08T09:41:13Z</time>
      </trkpt>
      <trkpt lat="44.07086" lon="6.97159">
        <ele>1726</ele>
        <time>2017-06-08T09:41:13Z</time>
      </trkpt>
      <trkpt lat="44.07083" lon="6.97153">
        <ele>1731</ele>
        <time>2017-06-08T09:41:36Z</time>
      </trkpt>
      <trkpt lat="44.07083" lon="6.9715">
        <ele>1731</ele>
        <time>2017-06-08T09:41:37Z</time>
      </trkpt>
      <trkpt lat="44.07082" lon="6.97149">
        <ele>1731</ele>
        <time>2017-06-08T09:41:37Z</time>
      </trkpt>
      <trkpt lat="44.07082" lon="6.97146">
        <ele>1731</ele>
        <time>2017-06-08T09:41:37Z</time>
      </trkpt>
      <trkpt lat="44.07081" lon="6.97143">
        <ele>1731</ele>
        <time>2017-06-08T09:41:37Z</time>
      </trkpt>
      <trkpt lat="44.07082" lon="6.97122">
        <ele>1738</ele>
        <time>2017-06-08T09:42:24Z</time>
      </trkpt>
      <trkpt lat="44.07082" lon="6.97121">
        <ele>1738</ele>
        <time>2017-06-08T09:42:24Z</time>
      </trkpt>
      <trkpt lat="44.07082" lon="6.97117">
        <ele>1738</ele>
        <time>2017-06-08T09:42:25Z</time>
      </trkpt>
      <trkpt lat="44.07082" lon="6.97114">
        <ele>1738</ele>
        <time>2017-06-08T09:42:25Z</time>
      </trkpt>
      <trkpt lat="44.07082" lon="6.97113">
        <ele>1738</ele>
        <time>2017-06-08T09:42:25Z</time>
      </trkpt>
      <trkpt lat="44.07079" lon="6.9711">
        <ele>1738</ele>
        <time>2017-06-08T09:43:24Z</time>
      </trkpt>
      <trkpt lat="44.07078" lon="6.9711">
        <ele>1738</ele>
        <time>2017-06-08T09:43:24Z</time>
      </trkpt>
      <trkpt lat="44.07077" lon="6.97109">
        <ele>1738</ele>
        <time>2017-06-08T09:43:25Z</time>
      </trkpt>
      <trkpt lat="44.07076" lon="6.97109">
        <ele>1738</ele>
        <time>2017-06-08T09:43:25Z</time>
      </trkpt>
      <trkpt lat="44.0704" lon="6.97098">
        <ele>1733</ele>
        <time>2017-06-08T09:43:25Z</time>
      </trkpt>
      <trkpt lat="44.07036" lon="6.97098">
        <ele>1733</ele>
        <time>2017-06-08T09:43:44Z</time>
      </trkpt>
      <trkpt lat="44.0703" lon="6.97096">
        <ele>1732</ele>
        <time>2017-06-08T09:43:44Z</time>
      </trkpt>
      <trkpt lat="44.07027" lon="6.97097">
        <ele>1732</ele>
        <time>2017-06-08T09:43:44Z</time>
      </trkpt>
      <trkpt lat="44.07022" lon="6.97097">
        <ele>1732</ele>
        <time>2017-06-08T09:43:44Z</time>
      </trkpt>
      <trkpt lat="44.07021" lon="6.97097">
        <ele>1732</ele>
        <time>2017-06-08T09:43:59Z</time>
      </trkpt>
      <trkpt lat="44.07015" lon="6.97096">
        <ele>1732</ele>
        <time>2017-06-08T09:43:59Z</time>
      </trkpt>
      <trkpt lat="44.07013" lon="6.97097">
        <ele>1725</ele>
        <time>2017-06-08T09:43:59Z</time>
      </trkpt>
      <trkpt lat="44.07008" lon="6.97098">
        <ele>1729</ele>
        <time>2017-06-08T09:43:59Z</time>
      </trkpt>
      <trkpt lat="44.07002" lon="6.97096">
        <ele>1725</ele>
        <time>2017-06-08T09:44:32Z</time>
      </trkpt>
      <trkpt lat="44.06999" lon="6.97095">
        <ele>1725</ele>
        <time>2017-06-08T09:44:32Z</time>
      </trkpt>
      <trkpt lat="44.06998" lon="6.97096">
        <ele>1725</ele>
        <time>2017-06-08T09:44:33Z</time>
      </trkpt>
      <trkpt lat="44.06997" lon="6.97096">
        <ele>1725</ele>
        <time>2017-06-08T09:44:33Z</time>
      </trkpt>
      <trkpt lat="44.06996" lon="6.97099">
        <ele>1729</ele>
        <time>2017-06-08T09:44:33Z</time>
      </trkpt>
      <trkpt lat="44.06999" lon="6.97099">
        <ele>1729</ele>
        <time>2017-06-08T09:45:00Z</time>
      </trkpt>
      <trkpt lat="44.06996" lon="6.97098">
        <ele>1729</ele>
        <time>2017-06-08T09:45:00Z</time>
      </trkpt>
      <trkpt lat="44.06992" lon="6.97098">
        <ele>1729</ele>
        <time>2017-06-08T09:45:01Z</time>
      </trkpt>
      <trkpt lat="44.0699" lon="6.97095">
        <ele>1725</ele>
        <time>2017-06-08T09:45:01Z</time>
      </trkpt>
      <trkpt lat="44.06989" lon="6.97094">
        <ele>1725</ele>
        <time>2017-06-08T09:45:01Z</time>
      </trkpt>
      <trkpt lat="44.06985" lon="6.97095">
        <ele>1721</ele>
        <time>2017-06-08T09:45:19Z</time>
      </trkpt>
      <trkpt lat="44.06982" lon="6.97099">
        <ele>1724</ele>
        <time>2017-06-08T09:45:19Z</time>
      </trkpt>
      <trkpt lat="44.06979" lon="6.97101">
        <ele>1724</ele>
        <time>2017-06-08T09:45:19Z</time>
      </trkpt>
      <trkpt lat="44.06977" lon="6.97105">
        <ele>1724</ele>
        <time>2017-06-08T09:45:19Z</time>
      </trkpt>
      <trkpt lat="44.06976" lon="6.97106">
        <ele>1724</ele>
        <time>2017-06-08T09:45:36Z</time>
      </trkpt>
      <trkpt lat="44.06974" lon="6.97106">
        <ele>1724</ele>
        <time>2017-06-08T09:45:37Z</time>
      </trkpt>
      <trkpt lat="44.0697" lon="6.97107">
        <ele>1724</ele>
        <time>2017-06-08T09:45:37Z</time>
      </trkpt>
      <trkpt lat="44.06968" lon="6.97107">
        <ele>1724</ele>
        <time>2017-06-08T09:45:37Z</time>
      </trkpt>
      <trkpt lat="44.06965" lon="6.97105">
        <ele>1724</ele>
        <time>2017-06-08T09:45:37Z</time>
      </trkpt>
      <trkpt lat="44.06955" lon="6.97101">
        <ele>1719</ele>
        <time>2017-06-08T09:46:28Z</time>
      </trkpt>
      <trkpt lat="44.06954" lon="6.97101">
        <ele>1719</ele>
        <time>2017-06-08T09:46:28Z</time>
      </trkpt>
      <trkpt lat="44.06954" lon="6.97102">
        <ele>1719</ele>
        <time>2017-06-08T09:46:28Z</time>
      </trkpt>
      <trkpt lat="44.06953" lon="6.97101">
        <ele>1719</ele>
        <time>2017-06-08T09:46:29Z</time>
      </trkpt>
      <trkpt lat="44.06953" lon="6.971">
        <ele>1719</ele>
        <time>2017-06-08T09:46:29Z</time>
      </trkpt>
      <trkpt lat="44.0695" lon="6.97108">
        <ele>1719</ele>
        <time>2017-06-08T09:48:38Z</time>
      </trkpt>
      <trkpt lat="44.0695" lon="6.97112">
        <ele>1719</ele>
        <time>2017-06-08T09:48:38Z</time>
      </trkpt>
      <trkpt lat="44.06948" lon="6.97118">
        <ele>1719</ele>
        <time>2017-06-08T09:48:38Z</time>
      </trkpt>
      <trkpt lat="44.06947" lon="6.97119">
        <ele>1719</ele>
        <time>2017-06-08T09:48:38Z</time>
      </trkpt>
      <trkpt lat="44.06942" lon="6.97122">
        <ele>1719</ele>
        <time>2017-06-08T09:48:38Z</time>
      </trkpt>
      <trkpt lat="44.0694" lon="6.97125">
        <ele>1719</ele>
        <time>2017-06-08T09:48:56Z</time>
      </trkpt>
      <trkpt lat="44.06935" lon="6.97127">
        <ele>1720</ele>
        <time>2017-06-08T09:48:56Z</time>
      </trkpt>
      <trkpt lat="44.06935" lon="6.97129">
        <ele>1720</ele>
        <time>2017-06-08T09:48:57Z</time>
      </trkpt>
      <trkpt lat="44.06932" lon="6.97133">
        <ele>1720</ele>
        <time>2017-06-08T09:48:57Z</time>
      </trkpt>
      <trkpt lat="44.06932" lon="6.97134">
        <ele>1720</ele>
        <time>2017-06-08T09:49:11Z</time>
      </trkpt>
      <trkpt lat="44.06932" lon="6.9714">
        <ele>1720</ele>
        <time>2017-06-08T09:49:11Z</time>
      </trkpt>
      <trkpt lat="44.0693" lon="6.97142">
        <ele>1717</ele>
        <time>2017-06-08T09:49:11Z</time>
      </trkpt>
      <trkpt lat="44.06926" lon="6.97147">
        <ele>1717</ele>
        <time>2017-06-08T09:49:11Z</time>
      </trkpt>
      <trkpt lat="44.06926" lon="6.97149">
        <ele>1717</ele>
        <time>2017-06-08T09:49:27Z</time>
      </trkpt>
      <trkpt lat="44.06923" lon="6.97153">
        <ele>1718</ele>
        <time>2017-06-08T09:49:27Z</time>
      </trkpt>
      <trkpt lat="44.06922" lon="6.97153">
        <ele>1718</ele>
        <time>2017-06-08T09:49:27Z</time>
      </trkpt>
      <trkpt lat="44.06919" lon="6.97159">
        <ele>1718</ele>
        <time>2017-06-08T09:49:27Z</time>
      </trkpt>
      <trkpt lat="44.06919" lon="6.9716">
        <ele>1718</ele>
        <time>2017-06-08T09:49:45Z</time>
      </trkpt>
      <trkpt lat="44.06913" lon="6.97165">
        <ele>1718</ele>
        <time>2017-06-08T09:49:45Z</time>
      </trkpt>
      <trkpt lat="44.06909" lon="6.97171">
        <ele>1718</ele>
        <time>2017-06-08T09:49:45Z</time>
      </trkpt>
      <trkpt lat="44.06909" lon="6.97172">
        <ele>1718</ele>
        <time>2017-06-08T09:49:45Z</time>
      </trkpt>
      <trkpt lat="44.06904" lon="6.97177">
        <ele>1718</ele>
        <time>2017-06-08T09:50:00Z</time>
      </trkpt>
      <trkpt lat="44.06903" lon="6.9718">
        <ele>1713</ele>
        <time>2017-06-08T09:50:01Z</time>
      </trkpt>
      <trkpt lat="44.069" lon="6.97186">
        <ele>1712</ele>
        <time>2017-06-08T09:50:01Z</time>
      </trkpt>
      <trkpt lat="44.06897" lon="6.97188">
        <ele>1712</ele>
        <time>2017-06-08T09:50:01Z</time>
      </trkpt>
      <trkpt lat="44.06894" lon="6.97189">
        <ele>1712</ele>
        <time>2017-06-08T09:50:17Z</time>
      </trkpt>
      <trkpt lat="44.06891" lon="6.97191">
        <ele>1712</ele>
        <time>2017-06-08T09:50:17Z</time>
      </trkpt>
      <trkpt lat="44.06884" lon="6.97196">
        <ele>1712</ele>
        <time>2017-06-08T09:50:17Z</time>
      </trkpt>
      <trkpt lat="44.06884" lon="6.97196">
        <ele>1712</ele>
        <time>2017-06-08T09:50:17Z</time>
      </trkpt>
      <trkpt lat="44.0688" lon="6.97199">
        <ele>1712</ele>
        <time>2017-06-08T09:50:33Z</time>
      </trkpt>
      <trkpt lat="44.06879" lon="6.97201">
        <ele>1712</ele>
        <time>2017-06-08T09:50:33Z</time>
      </trkpt>
      <trkpt lat="44.06872" lon="6.97206">
        <ele>1708</ele>
        <time>2017-06-08T09:50:33Z</time>
      </trkpt>
      <trkpt lat="44.0687" lon="6.97206">
        <ele>1708</ele>
        <time>2017-06-08T09:50:33Z</time>
      </trkpt>
      <trkpt lat="44.06867" lon="6.97207">
        <ele>1708</ele>
        <time>2017-06-08T09:50:51Z</time>
      </trkpt>
      <trkpt lat="44.06862" lon="6.97212">
        <ele>1708</ele>
        <time>2017-06-08T09:50:51Z</time>
      </trkpt>
      <trkpt lat="44.06862" lon="6.97214">
        <ele>1708</ele>
        <time>2017-06-08T09:50:51Z</time>
      </trkpt>
      <trkpt lat="44.0686" lon="6.97218">
        <ele>1708</ele>
        <time>2017-06-08T09:50:51Z</time>
      </trkpt>
      <trkpt lat="44.06856" lon="6.97211">
        <ele>1708</ele>
        <time>2017-06-08T09:51:20Z</time>
      </trkpt>
      <trkpt lat="44.06858" lon="6.97207">
        <ele>1708</ele>
        <time>2017-06-08T09:51:20Z</time>
      </trkpt>
      <trkpt lat="44.06858" lon="6.97207">
        <ele>1708</ele>
        <time>2017-06-08T09:51:20Z</time>
      </trkpt>
      <trkpt lat="44.06859" lon="6.97207">
        <ele>1708</ele>
        <time>2017-06-08T09:51:21Z</time>
      </trkpt>
      <trkpt lat="44.06859" lon="6.97201">
        <ele>1708</ele>
        <time>2017-06-08T09:51:21Z</time>
      </trkpt>
      <trkpt lat="44.06859" lon="6.972">
        <ele>1708</ele>
        <time>2017-06-08T09:51:37Z</time>
      </trkpt>
      <trkpt lat="44.06858" lon="6.97199">
        <ele>1708</ele>
        <time>2017-06-08T09:51:37Z</time>
      </trkpt>
      <trkpt lat="44.06856" lon="6.97196">
        <ele>1708</ele>
        <time>2017-06-08T09:51:37Z</time>
      </trkpt>
      <trkpt lat="44.06854" lon="6.97206">
        <ele>1708</ele>
        <time>2017-06-08T09:51:37Z</time>
      </trkpt>
      <trkpt lat="44.06852" lon="6.97208">
        <ele>1708</ele>
        <time>2017-06-08T09:51:37Z</time>
      </trkpt>
      <trkpt lat="44.06846" lon="6.97224">
        <ele>1708</ele>
        <time>2017-06-08T09:51:54Z</time>
      </trkpt>
      <trkpt lat="44.06844" lon="6.97228">
        <ele>1708</ele>
        <time>2017-06-08T09:51:54Z</time>
      </trkpt>
      <trkpt lat="44.06842" lon="6.97236">
        <ele>1708</ele>
        <time>2017-06-08T09:51:54Z</time>
      </trkpt>
      <trkpt lat="44.0684" lon="6.9724">
        <ele>1712</ele>
        <time>2017-06-08T09:51:54Z</time>
      </trkpt>
      <trkpt lat="44.06837" lon="6.97243">
        <ele>1712</ele>
        <time>2017-06-08T09:52:08Z</time>
      </trkpt>
      <trkpt lat="44.06833" lon="6.97246">
        <ele>1712</ele>
        <time>2017-06-08T09:52:08Z</time>
      </trkpt>
      <trkpt lat="44.0683" lon="6.97249">
        <ele>1712</ele>
        <time>2017-06-08T09:52:09Z</time>
      </trkpt>
      <trkpt lat="44.06825" lon="6.9725">
        <ele>1712</ele>
        <time>2017-06-08T09:52:09Z</time>
      </trkpt>
      <trkpt lat="44.06821" lon="6.97252">
        <ele>1712</ele>
        <time>2017-06-08T09:52:25Z</time>
      </trkpt>
      <trkpt lat="44.06819" lon="6.97253">
        <ele>1712</ele>
        <time>2017-06-08T09:52:25Z</time>
      </trkpt>
      <trkpt lat="44.06816" lon="6.97256">
        <ele>1712</ele>
        <time>2017-06-08T09:52:25Z</time>
      </trkpt>
      <trkpt lat="44.06812" lon="6.97259">
        <ele>1712</ele>
        <time>2017-06-08T09:52:25Z</time>
      </trkpt>
      <trkpt lat="44.0681" lon="6.97267">
        <ele>1715</ele>
        <time>2017-06-08T09:52:48Z</time>
      </trkpt>
      <trkpt lat="44.06808" lon="6.97269">
        <ele>1715</ele>
        <time>2017-06-08T09:52:48Z</time>
      </trkpt>
      <trkpt lat="44.06805" lon="6.97269">
        <ele>1715</ele>
        <time>2017-06-08T09:52:48Z</time>
      </trkpt>
      <trkpt lat="44.06803" lon="6.97271">
        <ele>1715</ele>
        <time>2017-06-08T09:52:48Z</time>
      </trkpt>
      <trkpt lat="44.06796" lon="6.97275">
        <ele>1715</ele>
        <time>2017-06-08T09:52:48Z</time>
      </trkpt>
      <trkpt lat="44.06795" lon="6.97276">
        <ele>1715</ele>
        <time>2017-06-08T09:53:01Z</time>
      </trkpt>
      <trkpt lat="44.0679" lon="6.97279">
        <ele>1718</ele>
        <time>2017-06-08T09:53:01Z</time>
      </trkpt>
      <trkpt lat="44.06787" lon="6.97284">
        <ele>1718</ele>
        <time>2017-06-08T09:53:01Z</time>
      </trkpt>
      <trkpt lat="44.06783" lon="6.97285">
        <ele>1718</ele>
        <time>2017-06-08T09:53:01Z</time>
      </trkpt>
      <trkpt lat="44.0678" lon="6.97291">
        <ele>1718</ele>
        <time>2017-06-08T09:53:19Z</time>
      </trkpt>
      <trkpt lat="44.06778" lon="6.97295">
        <ele>1714</ele>
        <time>2017-06-08T09:53:19Z</time>
      </trkpt>
      <trkpt lat="44.06775" lon="6.97299">
        <ele>1714</ele>
        <time>2017-06-08T09:53:19Z</time>
      </trkpt>
      <trkpt lat="44.06771" lon="6.97304">
        <ele>1714</ele>
        <time>2017-06-08T09:53:19Z</time>
      </trkpt>
      <trkpt lat="44.06769" lon="6.97304">
        <ele>1714</ele>
        <time>2017-06-08T09:53:32Z</time>
      </trkpt>
      <trkpt lat="44.06766" lon="6.97304">
        <ele>1714</ele>
        <time>2017-06-08T09:53:32Z</time>
      </trkpt>
      <trkpt lat="44.06763" lon="6.97305">
        <ele>1706</ele>
        <time>2017-06-08T09:53:32Z</time>
      </trkpt>
      <trkpt lat="44.0676" lon="6.97304">
        <ele>1706</ele>
        <time>2017-06-08T09:53:33Z</time>
      </trkpt>
      <trkpt lat="44.06751" lon="6.97305">
        <ele>1706</ele>
        <time>2017-06-08T09:54:48Z</time>
      </trkpt>
      <trkpt lat="44.06752" lon="6.97309">
        <ele>1706</ele>
        <time>2017-06-08T09:54:48Z</time>
      </trkpt>
      <trkpt lat="44.06753" lon="6.97313">
        <ele>1706</ele>
        <time>2017-06-08T09:54:49Z</time>
      </trkpt>
      <trkpt lat="44.06756" lon="6.97317">
        <ele>1706</ele>
        <time>2017-06-08T09:54:49Z</time>
      </trkpt>
      <trkpt lat="44.06756" lon="6.97318">
        <ele>1706</ele>
        <time>2017-06-08T09:54:49Z</time>
      </trkpt>
      <trkpt lat="44.06756" lon="6.97318">
        <ele>1706</ele>
        <time>2017-06-08T09:55:07Z</time>
      </trkpt>
      <trkpt lat="44.06758" lon="6.9733">
        <ele>1704</ele>
        <time>2017-06-08T09:55:07Z</time>
      </trkpt>
      <trkpt lat="44.06759" lon="6.97334">
        <ele>1704</ele>
        <time>2017-06-08T09:55:07Z</time>
      </trkpt>
      <trkpt lat="44.06759" lon="6.97341">
        <ele>1704</ele>
        <time>2017-06-08T09:55:07Z</time>
      </trkpt>
      <trkpt lat="44.06762" lon="6.97344">
        <ele>1704</ele>
        <time>2017-06-08T09:55:20Z</time>
      </trkpt>
      <trkpt lat="44.06763" lon="6.97352">
        <ele>1700</ele>
        <time>2017-06-08T09:55:20Z</time>
      </trkpt>
      <trkpt lat="44.06766" lon="6.97357">
        <ele>1703</ele>
        <time>2017-06-08T09:55:21Z</time>
      </trkpt>
      <trkpt lat="44.06768" lon="6.97362">
        <ele>1703</ele>
        <time>2017-06-08T09:55:21Z</time>
      </trkpt>
      <trkpt lat="44.06766" lon="6.97368">
        <ele>1703</ele>
        <time>2017-06-08T09:55:36Z</time>
      </trkpt>
      <trkpt lat="44.06761" lon="6.97376">
        <ele>1696</ele>
        <time>2017-06-08T09:55:36Z</time>
      </trkpt>
      <trkpt lat="44.06759" lon="6.97379">
        <ele>1696</ele>
        <time>2017-06-08T09:55:37Z</time>
      </trkpt>
      <trkpt lat="44.06759" lon="6.97383">
        <ele>1696</ele>
        <time>2017-06-08T09:55:37Z</time>
      </trkpt>
      <trkpt lat="44.06759" lon="6.97387">
        <ele>1696</ele>
        <time>2017-06-08T09:55:52Z</time>
      </trkpt>
      <trkpt lat="44.06758" lon="6.97392">
        <ele>1696</ele>
        <time>2017-06-08T09:55:53Z</time>
      </trkpt>
      <trkpt lat="44.06757" lon="6.97402">
        <ele>1696</ele>
        <time>2017-06-08T09:55:53Z</time>
      </trkpt>
      <trkpt lat="44.06755" lon="6.97406">
        <ele>1695</ele>
        <time>2017-06-08T09:55:53Z</time>
      </trkpt>
      <trkpt lat="44.06754" lon="6.9741">
        <ele>1695</ele>
        <time>2017-06-08T09:56:09Z</time>
      </trkpt>
      <trkpt lat="44.06753" lon="6.97417">
        <ele>1695</ele>
        <time>2017-06-08T09:56:10Z</time>
      </trkpt>
      <trkpt lat="44.0675" lon="6.97423">
        <ele>1695</ele>
        <time>2017-06-08T09:56:10Z</time>
      </trkpt>
      <trkpt lat="44.0675" lon="6.97429">
        <ele>1695</ele>
        <time>2017-06-08T09:56:10Z</time>
      </trkpt>
      <trkpt lat="44.06748" lon="6.97438">
        <ele>1694</ele>
        <time>2017-06-08T09:56:25Z</time>
      </trkpt>
      <trkpt lat="44.06747" lon="6.97447">
        <ele>1694</ele>
        <time>2017-06-08T09:56:25Z</time>
      </trkpt>
      <trkpt lat="44.06746" lon="6.9745">
        <ele>1694</ele>
        <time>2017-06-08T09:56:25Z</time>
      </trkpt>
      <trkpt lat="44.06743" lon="6.97458">
        <ele>1694</ele>
        <time>2017-06-08T09:56:25Z</time>
      </trkpt>
      <trkpt lat="44.06741" lon="6.97464">
        <ele>1693</ele>
        <time>2017-06-08T09:56:40Z</time>
      </trkpt>
      <trkpt lat="44.0674" lon="6.97471">
        <ele>1693</ele>
        <time>2017-06-08T09:56:40Z</time>
      </trkpt>
      <trkpt lat="44.06739" lon="6.97476">
        <ele>1693</ele>
        <time>2017-06-08T09:56:41Z</time>
      </trkpt>
      <trkpt lat="44.06738" lon="6.97481">
        <ele>1693</ele>
        <time>2017-06-08T09:56:41Z</time>
      </trkpt>
      <trkpt lat="44.06736" lon="6.97485">
        <ele>1693</ele>
        <time>2017-06-08T09:56:59Z</time>
      </trkpt>
      <trkpt lat="44.06734" lon="6.97491">
        <ele>1688</ele>
        <time>2017-06-08T09:56:59Z</time>
      </trkpt>
      <trkpt lat="44.06733" lon="6.97495">
        <ele>1688</ele>
        <time>2017-06-08T09:56:59Z</time>
      </trkpt>
      <trkpt lat="44.06732" lon="6.97502">
        <ele>1688</ele>
        <time>2017-06-08T09:56:59Z</time>
      </trkpt>
      <trkpt lat="44.06731" lon="6.97504">
        <ele>1688</ele>
        <time>2017-06-08T09:57:13Z</time>
      </trkpt>
      <trkpt lat="44.06729" lon="6.9751">
        <ele>1688</ele>
        <time>2017-06-08T09:57:13Z</time>
      </trkpt>
      <trkpt lat="44.06725" lon="6.9752">
        <ele>1690</ele>
        <time>2017-06-08T09:57:14Z</time>
      </trkpt>
      <trkpt lat="44.06724" lon="6.97521">
        <ele>1690</ele>
        <time>2017-06-08T09:57:14Z</time>
      </trkpt>
      <trkpt lat="44.06721" lon="6.97529">
        <ele>1690</ele>
        <time>2017-06-08T09:57:31Z</time>
      </trkpt>
      <trkpt lat="44.06719" lon="6.97534">
        <ele>1690</ele>
        <time>2017-06-08T09:57:31Z</time>
      </trkpt>
      <trkpt lat="44.06717" lon="6.97537">
        <ele>1690</ele>
        <time>2017-06-08T09:57:31Z</time>
      </trkpt>
      <trkpt lat="44.06715" lon="6.97542">
        <ele>1689</ele>
        <time>2017-06-08T09:57:31Z</time>
      </trkpt>
      <trkpt lat="44.06714" lon="6.97544">
        <ele>1689</ele>
        <time>2017-06-08T09:57:48Z</time>
      </trkpt>
      <trkpt lat="44.06712" lon="6.9755">
        <ele>1689</ele>
        <time>2017-06-08T09:57:48Z</time>
      </trkpt>
      <trkpt lat="44.06708" lon="6.9756">
        <ele>1684</ele>
        <time>2017-06-08T09:57:49Z</time>
      </trkpt>
      <trkpt lat="44.06707" lon="6.97561">
        <ele>1684</ele>
        <time>2017-06-08T09:57:49Z</time>
      </trkpt>
      <trkpt lat="44.06706" lon="6.97565">
        <ele>1684</ele>
        <time>2017-06-08T09:58:07Z</time>
      </trkpt>
      <trkpt lat="44.06702" lon="6.97571">
        <ele>1683</ele>
        <time>2017-06-08T09:58:07Z</time>
      </trkpt>
      <trkpt lat="44.06701" lon="6.97571">
        <ele>1683</ele>
        <time>2017-06-08T09:58:08Z</time>
      </trkpt>
      <trkpt lat="44.06698" lon="6.97573">
        <ele>1683</ele>
        <time>2017-06-08T09:58:08Z</time>
      </trkpt>
      <trkpt lat="44.06698" lon="6.97573">
        <ele>1683</ele>
        <time>2017-06-08T09:58:22Z</time>
      </trkpt>
      <trkpt lat="44.06695" lon="6.97577">
        <ele>1683</ele>
        <time>2017-06-08T09:58:22Z</time>
      </trkpt>
      <trkpt lat="44.06692" lon="6.97579">
        <ele>1683</ele>
        <time>2017-06-08T09:58:22Z</time>
      </trkpt>
      <trkpt lat="44.0669" lon="6.9758">
        <ele>1683</ele>
        <time>2017-06-08T09:58:22Z</time>
      </trkpt>
      <trkpt lat="44.0669" lon="6.97575">
        <ele>1683</ele>
        <time>2017-06-08T09:58:48Z</time>
      </trkpt>
      <trkpt lat="44.06688" lon="6.97574">
        <ele>1683</ele>
        <time>2017-06-08T09:58:48Z</time>
      </trkpt>
      <trkpt lat="44.06686" lon="6.97571">
        <ele>1683</ele>
        <time>2017-06-08T09:58:48Z</time>
      </trkpt>
      <trkpt lat="44.06685" lon="6.97569">
        <ele>1684</ele>
        <time>2017-06-08T09:58:48Z</time>
      </trkpt>
      <trkpt lat="44.06684" lon="6.97565">
        <ele>1684</ele>
        <time>2017-06-08T09:58:48Z</time>
      </trkpt>
      <trkpt lat="44.06684" lon="6.97563">
        <ele>1684</ele>
        <time>2017-06-08T09:59:08Z</time>
      </trkpt>
      <trkpt lat="44.06681" lon="6.97563">
        <ele>1684</ele>
        <time>2017-06-08T09:59:08Z</time>
      </trkpt>
      <trkpt lat="44.06679" lon="6.97565">
        <ele>1674</ele>
        <time>2017-06-08T09:59:08Z</time>
      </trkpt>
      <trkpt lat="44.06679" lon="6.97568">
        <ele>1674</ele>
        <time>2017-06-08T09:59:08Z</time>
      </trkpt>
      <trkpt lat="44.06676" lon="6.97571">
        <ele>1672</ele>
        <time>2017-06-08T09:59:08Z</time>
      </trkpt>
      <trkpt lat="44.06675" lon="6.97571">
        <ele>1672</ele>
        <time>2017-06-08T09:59:23Z</time>
      </trkpt>
      <trkpt lat="44.06671" lon="6.97576">
        <ele>1672</ele>
        <time>2017-06-08T09:59:23Z</time>
      </trkpt>
      <trkpt lat="44.0667" lon="6.97581">
        <ele>1672</ele>
        <time>2017-06-08T09:59:24Z</time>
      </trkpt>
      <trkpt lat="44.06666" lon="6.97584">
        <ele>1672</ele>
        <time>2017-06-08T09:59:24Z</time>
      </trkpt>
      <trkpt lat="44.06664" lon="6.97587">
        <ele>1672</ele>
        <time>2017-06-08T09:59:38Z</time>
      </trkpt>
      <trkpt lat="44.06658" lon="6.97594">
        <ele>1672</ele>
        <time>2017-06-08T09:59:38Z</time>
      </trkpt>
      <trkpt lat="44.06657" lon="6.97595">
        <ele>1672</ele>
        <time>2017-06-08T09:59:38Z</time>
      </trkpt>
      <trkpt lat="44.06654" lon="6.976">
        <ele>1670</ele>
        <time>2017-06-08T09:59:38Z</time>
      </trkpt>
      <trkpt lat="44.06652" lon="6.97602">
        <ele>1658</ele>
        <time>2017-06-08T09:59:52Z</time>
      </trkpt>
      <trkpt lat="44.06651" lon="6.97605">
        <ele>1658</ele>
        <time>2017-06-08T09:59:52Z</time>
      </trkpt>
      <trkpt lat="44.06647" lon="6.9761">
        <ele>1658</ele>
        <time>2017-06-08T09:59:53Z</time>
      </trkpt>
      <trkpt lat="44.06645" lon="6.97611">
        <ele>1658</ele>
        <time>2017-06-08T09:59:53Z</time>
      </trkpt>
      <trkpt lat="44.06642" lon="6.97614">
        <ele>1658</ele>
        <time>2017-06-08T10:00:09Z</time>
      </trkpt>
      <trkpt lat="44.0664" lon="6.97618">
        <ele>1658</ele>
        <time>2017-06-08T10:00:09Z</time>
      </trkpt>
      <trkpt lat="44.06636" lon="6.97624">
        <ele>1658</ele>
        <time>2017-06-08T10:00:09Z</time>
      </trkpt>
      <trkpt lat="44.06635" lon="6.97626">
        <ele>1655</ele>
        <time>2017-06-08T10:00:09Z</time>
      </trkpt>
      <trkpt lat="44.0663" lon="6.97634">
        <ele>1655</ele>
        <time>2017-06-08T10:00:25Z</time>
      </trkpt>
      <trkpt lat="44.06627" lon="6.97637">
        <ele>1655</ele>
        <time>2017-06-08T10:00:26Z</time>
      </trkpt>
      <trkpt lat="44.06624" lon="6.9764">
        <ele>1652</ele>
        <time>2017-06-08T10:00:26Z</time>
      </trkpt>
      <trkpt lat="44.06622" lon="6.97641">
        <ele>1652</ele>
        <time>2017-06-08T10:00:26Z</time>
      </trkpt>
      <trkpt lat="44.0662" lon="6.97636">
        <ele>1652</ele>
        <time>2017-06-08T10:00:56Z</time>
      </trkpt>
      <trkpt lat="44.06618" lon="6.97634">
        <ele>1652</ele>
        <time>2017-06-08T10:00:57Z</time>
      </trkpt>
      <trkpt lat="44.06616" lon="6.97633">
        <ele>1652</ele>
        <time>2017-06-08T10:00:57Z</time>
      </trkpt>
      <trkpt lat="44.06615" lon="6.97634">
        <ele>1652</ele>
        <time>2017-06-08T10:00:57Z</time>
      </trkpt>
      <trkpt lat="44.06611" lon="6.97636">
        <ele>1652</ele>
        <time>2017-06-08T10:00:57Z</time>
      </trkpt>
      <trkpt lat="44.06607" lon="6.97641">
        <ele>1652</ele>
        <time>2017-06-08T10:01:15Z</time>
      </trkpt>
      <trkpt lat="44.06603" lon="6.97644">
        <ele>1652</ele>
        <time>2017-06-08T10:01:15Z</time>
      </trkpt>
      <trkpt lat="44.06602" lon="6.97644">
        <ele>1652</ele>
        <time>2017-06-08T10:01:15Z</time>
      </trkpt>
      <trkpt lat="44.06597" lon="6.97641">
        <ele>1643</ele>
        <time>2017-06-08T10:01:15Z</time>
      </trkpt>
      <trkpt lat="44.06596" lon="6.97642">
        <ele>1643</ele>
        <time>2017-06-08T10:01:28Z</time>
      </trkpt>
      <trkpt lat="44.06592" lon="6.97644">
        <ele>1643</ele>
        <time>2017-06-08T10:01:28Z</time>
      </trkpt>
      <trkpt lat="44.0659" lon="6.97646">
        <ele>1643</ele>
        <time>2017-06-08T10:01:29Z</time>
      </trkpt>
      <trkpt lat="44.06582" lon="6.97649">
        <ele>1643</ele>
        <time>2017-06-08T10:01:29Z</time>
      </trkpt>
      <trkpt lat="44.06577" lon="6.9765">
        <ele>1643</ele>
        <time>2017-06-08T10:01:56Z</time>
      </trkpt>
      <trkpt lat="44.06575" lon="6.97653">
        <ele>1641</ele>
        <time>2017-06-08T10:01:57Z</time>
      </trkpt>
      <trkpt lat="44.06573" lon="6.97654">
        <ele>1641</ele>
        <time>2017-06-08T10:01:57Z</time>
      </trkpt>
      <trkpt lat="44.06572" lon="6.97652">
        <ele>1643</ele>
        <time>2017-06-08T10:01:57Z</time>
      </trkpt>
      <trkpt lat="44.06567" lon="6.97651">
        <ele>1632</ele>
        <time>2017-06-08T10:01:57Z</time>
      </trkpt>
      <trkpt lat="44.06564" lon="6.9765">
        <ele>1632</ele>
        <time>2017-06-08T10:02:13Z</time>
      </trkpt>
      <trkpt lat="44.0656" lon="6.97649">
        <ele>1632</ele>
        <time>2017-06-08T10:02:13Z</time>
      </trkpt>
      <trkpt lat="44.06553" lon="6.97654">
        <ele>1637</ele>
        <time>2017-06-08T10:02:13Z</time>
      </trkpt>
      <trkpt lat="44.06553" lon="6.97656">
        <ele>1637</ele>
        <time>2017-06-08T10:02:13Z</time>
      </trkpt>
      <trkpt lat="44.06545" lon="6.97659">
        <ele>1637</ele>
        <time>2017-06-08T10:02:56Z</time>
      </trkpt>
      <trkpt lat="44.06542" lon="6.9766">
        <ele>1622</ele>
        <time>2017-06-08T10:02:56Z</time>
      </trkpt>
      <trkpt lat="44.06539" lon="6.97663">
        <ele>1622</ele>
        <time>2017-06-08T10:02:57Z</time>
      </trkpt>
      <trkpt lat="44.06536" lon="6.97665">
        <ele>1622</ele>
        <time>2017-06-08T10:02:57Z</time>
      </trkpt>
      <trkpt lat="44.06532" lon="6.97665">
        <ele>1622</ele>
        <time>2017-06-08T10:02:57Z</time>
      </trkpt>
      <trkpt lat="44.06531" lon="6.97671">
        <ele>1622</ele>
        <time>2017-06-08T10:03:19Z</time>
      </trkpt>
      <trkpt lat="44.06528" lon="6.97669">
        <ele>1622</ele>
        <time>2017-06-08T10:03:19Z</time>
      </trkpt>
      <trkpt lat="44.06526" lon="6.97672">
        <ele>1622</ele>
        <time>2017-06-08T10:03:19Z</time>
      </trkpt>
      <trkpt lat="44.06523" lon="6.97674">
        <ele>1622</ele>
        <time>2017-06-08T10:03:19Z</time>
      </trkpt>
      <trkpt lat="44.06519" lon="6.97678">
        <ele>1622</ele>
        <time>2017-06-08T10:03:19Z</time>
      </trkpt>
      <trkpt lat="44.06517" lon="6.97679">
        <ele>1622</ele>
        <time>2017-06-08T10:03:36Z</time>
      </trkpt>
      <trkpt lat="44.06508" lon="6.97682">
        <ele>1598</ele>
        <time>2017-06-08T10:03:37Z</time>
      </trkpt>
      <trkpt lat="44.06504" lon="6.97684">
        <ele>1598</ele>
        <time>2017-06-08T10:03:37Z</time>
      </trkpt>
      <trkpt lat="44.065" lon="6.97687">
        <ele>1598</ele>
        <time>2017-06-08T10:03:38Z</time>
      </trkpt>
      <trkpt lat="44.06494" lon="6.97687">
        <ele>1598</ele>
        <time>2017-06-08T10:04:01Z</time>
      </trkpt>
      <trkpt lat="44.06493" lon="6.97687">
        <ele>1598</ele>
        <time>2017-06-08T10:04:01Z</time>
      </trkpt>
      <trkpt lat="44.0649" lon="6.97691">
        <ele>1598</ele>
        <time>2017-06-08T10:04:01Z</time>
      </trkpt>
      <trkpt lat="44.0649" lon="6.97691">
        <ele>1598</ele>
        <time>2017-06-08T10:04:02Z</time>
      </trkpt>
      <trkpt lat="44.06485" lon="6.97693">
        <ele>1602</ele>
        <time>2017-06-08T10:04:02Z</time>
      </trkpt>
      <trkpt lat="44.06482" lon="6.97695">
        <ele>1602</ele>
        <time>2017-06-08T10:04:16Z</time>
      </trkpt>
      <trkpt lat="44.06478" lon="6.97693">
        <ele>1602</ele>
        <time>2017-06-08T10:04:16Z</time>
      </trkpt>
      <trkpt lat="44.06474" lon="6.97696">
        <ele>1602</ele>
        <time>2017-06-08T10:04:17Z</time>
      </trkpt>
      <trkpt lat="44.06472" lon="6.97697">
        <ele>1602</ele>
        <time>2017-06-08T10:04:17Z</time>
      </trkpt>
      <trkpt lat="44.06453" lon="6.97696">
        <ele>1603</ele>
        <time>2017-06-08T10:05:04Z</time>
      </trkpt>
      <trkpt lat="44.0645" lon="6.97697">
        <ele>1603</ele>
        <time>2017-06-08T10:05:04Z</time>
      </trkpt>
      <trkpt lat="44.06449" lon="6.97696">
        <ele>1603</ele>
        <time>2017-06-08T10:05:05Z</time>
      </trkpt>
      <trkpt lat="44.06443" lon="6.97698">
        <ele>1603</ele>
        <time>2017-06-08T10:05:05Z</time>
      </trkpt>
      <trkpt lat="44.06443" lon="6.97696">
        <ele>1603</ele>
        <time>2017-06-08T10:05:05Z</time>
      </trkpt>
      <trkpt lat="44.06442" lon="6.97695">
        <ele>1603</ele>
        <time>2017-06-08T10:05:22Z</time>
      </trkpt>
      <trkpt lat="44.06439" lon="6.97694">
        <ele>1603</ele>
        <time>2017-06-08T10:05:23Z</time>
      </trkpt>
      <trkpt lat="44.06436" lon="6.97694">
        <ele>1603</ele>
        <time>2017-06-08T10:05:23Z</time>
      </trkpt>
      <trkpt lat="44.06433" lon="6.97697">
        <ele>1603</ele>
        <time>2017-06-08T10:05:23Z</time>
      </trkpt>
      <trkpt lat="44.06432" lon="6.97696">
        <ele>1603</ele>
        <time>2017-06-08T10:05:36Z</time>
      </trkpt>
      <trkpt lat="44.06426" lon="6.97695">
        <ele>1593</ele>
        <time>2017-06-08T10:05:37Z</time>
      </trkpt>
      <trkpt lat="44.06422" lon="6.97697">
        <ele>1593</ele>
        <time>2017-06-08T10:05:37Z</time>
      </trkpt>
      <trkpt lat="44.06419" lon="6.97699">
        <ele>1593</ele>
        <time>2017-06-08T10:05:37Z</time>
      </trkpt>
      <trkpt lat="44.0641" lon="6.97697">
        <ele>1593</ele>
        <time>2017-06-08T10:05:59Z</time>
      </trkpt>
      <trkpt lat="44.06409" lon="6.97702">
        <ele>1593</ele>
        <time>2017-06-08T10:05:59Z</time>
      </trkpt>
      <trkpt lat="44.06405" lon="6.97704">
        <ele>1593</ele>
        <time>2017-06-08T10:05:59Z</time>
      </trkpt>
      <trkpt lat="44.06405" lon="6.97703">
        <ele>1593</ele>
        <time>2017-06-08T10:05:59Z</time>
      </trkpt>
      <trkpt lat="44.06401" lon="6.97706">
        <ele>1572</ele>
        <time>2017-06-08T10:05:59Z</time>
      </trkpt>
      <trkpt lat="44.06397" lon="6.97709">
        <ele>1575</ele>
        <time>2017-06-08T10:06:23Z</time>
      </trkpt>
      <trkpt lat="44.06394" lon="6.97707">
        <ele>1572</ele>
        <time>2017-06-08T10:06:23Z</time>
      </trkpt>
      <trkpt lat="44.06393" lon="6.97704">
        <ele>1572</ele>
        <time>2017-06-08T10:06:24Z</time>
      </trkpt>
      <trkpt lat="44.06393" lon="6.977">
        <ele>1572</ele>
        <time>2017-06-08T10:06:24Z</time>
      </trkpt>
      <trkpt lat="44.06395" lon="6.97695">
        <ele>1572</ele>
        <time>2017-06-08T10:06:25Z</time>
      </trkpt>
      <trkpt lat="44.06389" lon="6.97662">
        <ele>1565</ele>
        <time>2017-06-08T10:08:00Z</time>
      </trkpt>
      <trkpt lat="44.06388" lon="6.97661">
        <ele>1565</ele>
        <time>2017-06-08T10:08:00Z</time>
      </trkpt>
      <trkpt lat="44.06384" lon="6.97662">
        <ele>1565</ele>
        <time>2017-06-08T10:08:00Z</time>
      </trkpt>
      <trkpt lat="44.06383" lon="6.97661">
        <ele>1565</ele>
        <time>2017-06-08T10:08:01Z</time>
      </trkpt>
      <trkpt lat="44.06379" lon="6.97659">
        <ele>1565</ele>
        <time>2017-06-08T10:08:01Z</time>
      </trkpt>
      <trkpt lat="44.06375" lon="6.97662">
        <ele>1550</ele>
        <time>2017-06-08T10:08:17Z</time>
      </trkpt>
      <trkpt lat="44.06367" lon="6.9766">
        <ele>1550</ele>
        <time>2017-06-08T10:08:17Z</time>
      </trkpt>
      <trkpt lat="44.06365" lon="6.97664">
        <ele>1550</ele>
        <time>2017-06-08T10:08:18Z</time>
      </trkpt>
      <trkpt lat="44.06366" lon="6.97667">
        <ele>1550</ele>
        <time>2017-06-08T10:08:18Z</time>
      </trkpt>
      <trkpt lat="44.06365" lon="6.9766">
        <ele>1550</ele>
        <time>2017-06-08T10:08:46Z</time>
      </trkpt>
      <trkpt lat="44.06368" lon="6.97658">
        <ele>1550</ele>
        <time>2017-06-08T10:08:46Z</time>
      </trkpt>
      <trkpt lat="44.0637" lon="6.97656">
        <ele>1550</ele>
        <time>2017-06-08T10:08:46Z</time>
      </trkpt>
      <trkpt lat="44.06371" lon="6.97649">
        <ele>1542</ele>
        <time>2017-06-08T10:08:46Z</time>
      </trkpt>
      <trkpt lat="44.06371" lon="6.97648">
        <ele>1542</ele>
        <time>2017-06-08T10:08:46Z</time>
      </trkpt>
      <trkpt lat="44.06373" lon="6.97647">
        <ele>1542</ele>
        <time>2017-06-08T10:09:00Z</time>
      </trkpt>
      <trkpt lat="44.06376" lon="6.97638">
        <ele>1555</ele>
        <time>2017-06-08T10:09:01Z</time>
      </trkpt>
      <trkpt lat="44.06376" lon="6.97637">
        <ele>1555</ele>
        <time>2017-06-08T10:09:01Z</time>
      </trkpt>
      <trkpt lat="44.06378" lon="6.9763">
        <ele>1555</ele>
        <time>2017-06-08T10:09:01Z</time>
      </trkpt>
      <trkpt lat="44.06379" lon="6.97625">
        <ele>1537</ele>
        <time>2017-06-08T10:09:22Z</time>
      </trkpt>
      <trkpt lat="44.0638" lon="6.97623">
        <ele>1537</ele>
        <time>2017-06-08T10:09:22Z</time>
      </trkpt>
      <trkpt lat="44.06384" lon="6.97618">
        <ele>1537</ele>
        <time>2017-06-08T10:09:22Z</time>
      </trkpt>
      <trkpt lat="44.06384" lon="6.97617">
        <ele>1537</ele>
        <time>2017-06-08T10:09:22Z</time>
      </trkpt>
      <trkpt lat="44.06385" lon="6.97611">
        <ele>1537</ele>
        <time>2017-06-08T10:09:22Z</time>
      </trkpt>
      <trkpt lat="44.06386" lon="6.9761">
        <ele>1537</ele>
        <time>2017-06-08T10:09:38Z</time>
      </trkpt>
      <trkpt lat="44.0639" lon="6.97602">
        <ele>1537</ele>
        <time>2017-06-08T10:09:38Z</time>
      </trkpt>
      <trkpt lat="44.06389" lon="6.976">
        <ele>1537</ele>
        <time>2017-06-08T10:09:38Z</time>
      </trkpt>
      <trkpt lat="44.06391" lon="6.97598">
        <ele>1537</ele>
        <time>2017-06-08T10:09:39Z</time>
      </trkpt>
      <trkpt lat="44.06397" lon="6.97591">
        <ele>1522</ele>
        <time>2017-06-08T10:09:56Z</time>
      </trkpt>
      <trkpt lat="44.06401" lon="6.97588">
        <ele>1522</ele>
        <time>2017-06-08T10:09:56Z</time>
      </trkpt>
      <trkpt lat="44.06403" lon="6.97588">
        <ele>1522</ele>
        <time>2017-06-08T10:09:56Z</time>
      </trkpt>
      <trkpt lat="44.06409" lon="6.97585">
        <ele>1542</ele>
        <time>2017-06-08T10:09:56Z</time>
      </trkpt>
      <trkpt lat="44.0641" lon="6.97584">
        <ele>1542</ele>
        <time>2017-06-08T10:10:09Z</time>
      </trkpt>
      <trkpt lat="44.06411" lon="6.97579">
        <ele>1542</ele>
        <time>2017-06-08T10:10:09Z</time>
      </trkpt>
      <trkpt lat="44.06413" lon="6.97572">
        <ele>1542</ele>
        <time>2017-06-08T10:10:09Z</time>
      </trkpt>
      <trkpt lat="44.06413" lon="6.97572">
        <ele>1542</ele>
        <time>2017-06-08T10:10:09Z</time>
      </trkpt>
      <trkpt lat="44.06415" lon="6.97564">
        <ele>1528</ele>
        <time>2017-06-08T10:10:28Z</time>
      </trkpt>
      <trkpt lat="44.06416" lon="6.97563">
        <ele>1528</ele>
        <time>2017-06-08T10:10:29Z</time>
      </trkpt>
      <trkpt lat="44.0642" lon="6.97561">
        <ele>1528</ele>
        <time>2017-06-08T10:10:29Z</time>
      </trkpt>
      <trkpt lat="44.06421" lon="6.97556">
        <ele>1528</ele>
        <time>2017-06-08T10:10:29Z</time>
      </trkpt>
      <trkpt lat="44.0642" lon="6.97548">
        <ele>1528</ele>
        <time>2017-06-08T10:10:29Z</time>
      </trkpt>
      <trkpt lat="44.06421" lon="6.9753">
        <ele>1516</ele>
        <time>2017-06-08T10:11:53Z</time>
      </trkpt>
      <trkpt lat="44.06421" lon="6.9753">
        <ele>1516</ele>
        <time>2017-06-08T10:11:53Z</time>
      </trkpt>
      <trkpt lat="44.06422" lon="6.97525">
        <ele>1516</ele>
        <time>2017-06-08T10:11:53Z</time>
      </trkpt>
      <trkpt lat="44.06425" lon="6.97513">
        <ele>1507</ele>
        <time>2017-06-08T10:11:53Z</time>
      </trkpt>
      <trkpt lat="44.06425" lon="6.9751">
        <ele>1507</ele>
        <time>2017-06-08T10:11:53Z</time>
      </trkpt>
      <trkpt lat="44.06425" lon="6.97504">
        <ele>1507</ele>
        <time>2017-06-08T10:12:12Z</time>
      </trkpt>
      <trkpt lat="44.06425" lon="6.97502">
        <ele>1507</ele>
        <time>2017-06-08T10:12:13Z</time>
      </trkpt>
      <trkpt lat="44.06427" lon="6.975">
        <ele>1507</ele>
        <time>2017-06-08T10:12:13Z</time>
      </trkpt>
      <trkpt lat="44.06429" lon="6.97498">
        <ele>1507</ele>
        <time>2017-06-08T10:12:13Z</time>
      </trkpt>
      <trkpt lat="44.06431" lon="6.97494">
        <ele>1522</ele>
        <time>2017-06-08T10:12:13Z</time>
      </trkpt>
      <trkpt lat="44.06432" lon="6.97491">
        <ele>1522</ele>
        <time>2017-06-08T10:12:36Z</time>
      </trkpt>
      <trkpt lat="44.06434" lon="6.97485">
        <ele>1514</ele>
        <time>2017-06-08T10:12:36Z</time>
      </trkpt>
      <trkpt lat="44.06434" lon="6.97484">
        <ele>1514</ele>
        <time>2017-06-08T10:12:36Z</time>
      </trkpt>
      <trkpt lat="44.06435" lon="6.9748">
        <ele>1514</ele>
        <time>2017-06-08T10:12:36Z</time>
      </trkpt>
      <trkpt lat="44.06436" lon="6.97473">
        <ele>1514</ele>
        <time>2017-06-08T10:12:36Z</time>
      </trkpt>
      <trkpt lat="44.06436" lon="6.97472">
        <ele>1514</ele>
        <time>2017-06-08T10:12:54Z</time>
      </trkpt>
      <trkpt lat="44.06437" lon="6.97467">
        <ele>1514</ele>
        <time>2017-06-08T10:12:54Z</time>
      </trkpt>
      <trkpt lat="44.06437" lon="6.97463">
        <ele>1514</ele>
        <time>2017-06-08T10:12:54Z</time>
      </trkpt>
      <trkpt lat="44.06439" lon="6.9746">
        <ele>1514</ele>
        <time>2017-06-08T10:12:54Z</time>
      </trkpt>
      <trkpt lat="44.0644" lon="6.97459">
        <ele>1514</ele>
        <time>2017-06-08T10:12:54Z</time>
      </trkpt>
      <trkpt lat="44.06439" lon="6.97453">
        <ele>1506</ele>
        <time>2017-06-08T10:13:12Z</time>
      </trkpt>
      <trkpt lat="44.06438" lon="6.9745">
        <ele>1506</ele>
        <time>2017-06-08T10:13:13Z</time>
      </trkpt>
      <trkpt lat="44.06438" lon="6.97447">
        <ele>1506</ele>
        <time>2017-06-08T10:13:13Z</time>
      </trkpt>
      <trkpt lat="44.06438" lon="6.97441">
        <ele>1506</ele>
        <time>2017-06-08T10:13:13Z</time>
      </trkpt>
      <trkpt lat="44.06439" lon="6.97437">
        <ele>1506</ele>
        <time>2017-06-08T10:13:13Z</time>
      </trkpt>
      <trkpt lat="44.06442" lon="6.9743">
        <ele>1500</ele>
        <time>2017-06-08T10:13:40Z</time>
      </trkpt>
      <trkpt lat="44.06442" lon="6.9743">
        <ele>1500</ele>
        <time>2017-06-08T10:13:41Z</time>
      </trkpt>
      <trkpt lat="44.06445" lon="6.97426">
        <ele>1500</ele>
        <time>2017-06-08T10:13:41Z</time>
      </trkpt>
      <trkpt lat="44.06447" lon="6.97424">
        <ele>1500</ele>
        <time>2017-06-08T10:13:41Z</time>
      </trkpt>
      <trkpt lat="44.0645" lon="6.9742">
        <ele>1500</ele>
        <time>2017-06-08T10:13:41Z</time>
      </trkpt>
      <trkpt lat="44.06453" lon="6.97412">
        <ele>1500</ele>
        <time>2017-06-08T10:14:00Z</time>
      </trkpt>
      <trkpt lat="44.06452" lon="6.97412">
        <ele>1500</ele>
        <time>2017-06-08T10:14:01Z</time>
      </trkpt>
      <trkpt lat="44.06452" lon="6.97408">
        <ele>1500</ele>
        <time>2017-06-08T10:14:01Z</time>
      </trkpt>
      <trkpt lat="44.0645" lon="6.97403">
        <ele>1500</ele>
        <time>2017-06-08T10:14:01Z</time>
      </trkpt>
      <trkpt lat="44.06449" lon="6.974">
        <ele>1500</ele>
        <time>2017-06-08T10:14:01Z</time>
      </trkpt>
      <trkpt lat="44.06448" lon="6.97393">
        <ele>1500</ele>
        <time>2017-06-08T10:14:20Z</time>
      </trkpt>
      <trkpt lat="44.06447" lon="6.9739">
        <ele>1500</ele>
        <time>2017-06-08T10:14:21Z</time>
      </trkpt>
      <trkpt lat="44.06446" lon="6.97386">
        <ele>1500</ele>
        <time>2017-06-08T10:14:21Z</time>
      </trkpt>
      <trkpt lat="44.06444" lon="6.97383">
        <ele>1500</ele>
        <time>2017-06-08T10:14:21Z</time>
      </trkpt>
      <trkpt lat="44.06444" lon="6.97376">
        <ele>1500</ele>
        <time>2017-06-08T10:14:21Z</time>
      </trkpt>
      <trkpt lat="44.06439" lon="6.97382">
        <ele>1500</ele>
        <time>2017-06-08T10:14:51Z</time>
      </trkpt>
      <trkpt lat="44.06437" lon="6.97379">
        <ele>1500</ele>
        <time>2017-06-08T10:14:51Z</time>
      </trkpt>
      <trkpt lat="44.06438" lon="6.97375">
        <ele>1500</ele>
        <time>2017-06-08T10:14:51Z</time>
      </trkpt>
      <trkpt lat="44.06437" lon="6.97371">
        <ele>1502</ele>
        <time>2017-06-08T10:14:51Z</time>
      </trkpt>
      <trkpt lat="44.06436" lon="6.97369">
        <ele>1502</ele>
        <time>2017-06-08T10:14:51Z</time>
      </trkpt>
      <trkpt lat="44.06435" lon="6.97365">
        <ele>1502</ele>
        <time>2017-06-08T10:15:14Z</time>
      </trkpt>
      <trkpt lat="44.06434" lon="6.97365">
        <ele>1502</ele>
        <time>2017-06-08T10:15:14Z</time>
      </trkpt>
      <trkpt lat="44.06431" lon="6.97363">
        <ele>1502</ele>
        <time>2017-06-08T10:15:15Z</time>
      </trkpt>
      <trkpt lat="44.06431" lon="6.9736">
        <ele>1502</ele>
        <time>2017-06-08T10:15:15Z</time>
      </trkpt>
      <trkpt lat="44.0643" lon="6.97359">
        <ele>1482</ele>
        <time>2017-06-08T10:15:15Z</time>
      </trkpt>
      <trkpt lat="44.06426" lon="6.97358">
        <ele>1482</ele>
        <time>2017-06-08T10:15:40Z</time>
      </trkpt>
      <trkpt lat="44.06426" lon="6.97359">
        <ele>1482</ele>
        <time>2017-06-08T10:15:40Z</time>
      </trkpt>
      <trkpt lat="44.06424" lon="6.97359">
        <ele>1482</ele>
        <time>2017-06-08T10:15:40Z</time>
      </trkpt>
      <trkpt lat="44.06421" lon="6.97357">
        <ele>1482</ele>
        <time>2017-06-08T10:15:41Z</time>
      </trkpt>
      <trkpt lat="44.0642" lon="6.97356">
        <ele>1482</ele>
        <time>2017-06-08T10:15:41Z</time>
      </trkpt>
      <trkpt lat="44.0642" lon="6.97356">
        <ele>1482</ele>
        <time>2017-06-08T10:15:59Z</time>
      </trkpt>
      <trkpt lat="44.06417" lon="6.97354">
        <ele>1482</ele>
        <time>2017-06-08T10:15:59Z</time>
      </trkpt>
      <trkpt lat="44.06414" lon="6.97353">
        <ele>1482</ele>
        <time>2017-06-08T10:16:00Z</time>
      </trkpt>
      <trkpt lat="44.0641" lon="6.97352">
        <ele>1482</ele>
        <time>2017-06-08T10:16:00Z</time>
      </trkpt>
      <trkpt lat="44.06411" lon="6.97351">
        <ele>1482</ele>
        <time>2017-06-08T10:16:19Z</time>
      </trkpt>
      <trkpt lat="44.06408" lon="6.97352">
        <ele>1482</ele>
        <time>2017-06-08T10:16:19Z</time>
      </trkpt>
      <trkpt lat="44.06405" lon="6.97354">
        <ele>1482</ele>
        <time>2017-06-08T10:16:19Z</time>
      </trkpt>
      <trkpt lat="44.06402" lon="6.97351">
        <ele>1459</ele>
        <time>2017-06-08T10:16:19Z</time>
      </trkpt>
      <trkpt lat="44.06398" lon="6.97346">
        <ele>1460</ele>
        <time>2017-06-08T10:16:19Z</time>
      </trkpt>
      <trkpt lat="44.06394" lon="6.97341">
        <ele>1460</ele>
        <time>2017-06-08T10:16:45Z</time>
      </trkpt>
      <trkpt lat="44.06395" lon="6.97338">
        <ele>1460</ele>
        <time>2017-06-08T10:16:45Z</time>
      </trkpt>
      <trkpt lat="44.06396" lon="6.97335">
        <ele>1460</ele>
        <time>2017-06-08T10:16:46Z</time>
      </trkpt>
      <trkpt lat="44.06396" lon="6.97333">
        <ele>1460</ele>
        <time>2017-06-08T10:16:46Z</time>
      </trkpt>
      <trkpt lat="44.06395" lon="6.97333">
        <ele>1460</ele>
        <time>2017-06-08T10:16:46Z</time>
      </trkpt>
      <trkpt lat="44.06395" lon="6.97327">
        <ele>1460</ele>
        <time>2017-06-08T10:17:05Z</time>
      </trkpt>
      <trkpt lat="44.06398" lon="6.97323">
        <ele>1460</ele>
        <time>2017-06-08T10:17:05Z</time>
      </trkpt>
      <trkpt lat="44.06398" lon="6.97319">
        <ele>1459</ele>
        <time>2017-06-08T10:17:05Z</time>
      </trkpt>
      <trkpt lat="44.06398" lon="6.97316">
        <ele>1459</ele>
        <time>2017-06-08T10:17:05Z</time>
      </trkpt>
      <trkpt lat="44.06396" lon="6.97313">
        <ele>1459</ele>
        <time>2017-06-08T10:17:06Z</time>
      </trkpt>
      <trkpt lat="44.06395" lon="6.97309">
        <ele>1459</ele>
        <time>2017-06-08T10:17:23Z</time>
      </trkpt>
      <trkpt lat="44.06399" lon="6.97303">
        <ele>1459</ele>
        <time>2017-06-08T10:17:23Z</time>
      </trkpt>
      <trkpt lat="44.06399" lon="6.973">
        <ele>1459</ele>
        <time>2017-06-08T10:17:23Z</time>
      </trkpt>
      <trkpt lat="44.06398" lon="6.97284">
        <ele>1460</ele>
        <time>2017-06-08T10:17:24Z</time>
      </trkpt>
      <trkpt lat="44.064" lon="6.97286">
        <ele>1460</ele>
        <time>2017-06-08T10:17:36Z</time>
      </trkpt>
      <trkpt lat="44.06401" lon="6.97284">
        <ele>1460</ele>
        <time>2017-06-08T10:17:37Z</time>
      </trkpt>
      <trkpt lat="44.06401" lon="6.9728">
        <ele>1460</ele>
        <time>2017-06-08T10:17:37Z</time>
      </trkpt>
      <trkpt lat="44.06402" lon="6.97273">
        <ele>1460</ele>
        <time>2017-06-08T10:17:37Z</time>
      </trkpt>
      <trkpt lat="44.06404" lon="6.97275">
        <ele>1482</ele>
        <time>2017-06-08T10:18:08Z</time>
      </trkpt>
      <trkpt lat="44.06405" lon="6.97273">
        <ele>1482</ele>
        <time>2017-06-08T10:18:08Z</time>
      </trkpt>
      <trkpt lat="44.06407" lon="6.97269">
        <ele>1482</ele>
        <time>2017-06-08T10:18:09Z</time>
      </trkpt>
      <trkpt lat="44.06407" lon="6.97269">
        <ele>1482</ele>
        <time>2017-06-08T10:18:09Z</time>
      </trkpt>
      <trkpt lat="44.06409" lon="6.97258">
        <ele>1485</ele>
        <time>2017-06-08T10:18:09Z</time>
      </trkpt>
      <trkpt lat="44.06407" lon="6.97254">
        <ele>1485</ele>
        <time>2017-06-08T10:18:31Z</time>
      </trkpt>
      <trkpt lat="44.06406" lon="6.97253">
        <ele>1485</ele>
        <time>2017-06-08T10:18:31Z</time>
      </trkpt>
      <trkpt lat="44.06408" lon="6.97248">
        <ele>1485</ele>
        <time>2017-06-08T10:18:32Z</time>
      </trkpt>
      <trkpt lat="44.06409" lon="6.97242">
        <ele>1485</ele>
        <time>2017-06-08T10:18:32Z</time>
      </trkpt>
      <trkpt lat="44.06409" lon="6.97229">
        <ele>1485</ele>
        <time>2017-06-08T10:18:32Z</time>
      </trkpt>
      <trkpt lat="44.06409" lon="6.97229">
        <ele>1485</ele>
        <time>2017-06-08T10:18:46Z</time>
      </trkpt>
      <trkpt lat="44.06409" lon="6.97223">
        <ele>1485</ele>
        <time>2017-06-08T10:18:47Z</time>
      </trkpt>
      <trkpt lat="44.06409" lon="6.97221">
        <ele>1485</ele>
        <time>2017-06-08T10:18:47Z</time>
      </trkpt>
      <trkpt lat="44.06413" lon="6.97218">
        <ele>1485</ele>
        <time>2017-06-08T10:18:47Z</time>
      </trkpt>
      <trkpt lat="44.06411" lon="6.97212">
        <ele>1485</ele>
        <time>2017-06-08T10:19:01Z</time>
      </trkpt>
      <trkpt lat="44.0641" lon="6.97204">
        <ele>1478</ele>
        <time>2017-06-08T10:19:01Z</time>
      </trkpt>
      <trkpt lat="44.06411" lon="6.97201">
        <ele>1478</ele>
        <time>2017-06-08T10:19:01Z</time>
      </trkpt>
      <trkpt lat="44.06413" lon="6.97196">
        <ele>1478</ele>
        <time>2017-06-08T10:19:01Z</time>
      </trkpt>
      <trkpt lat="44.0641" lon="6.97182">
        <ele>1478</ele>
        <time>2017-06-08T10:19:18Z</time>
      </trkpt>
      <trkpt lat="44.06412" lon="6.97178">
        <ele>1469</ele>
        <time>2017-06-08T10:19:18Z</time>
      </trkpt>
      <trkpt lat="44.06415" lon="6.97172">
        <ele>1469</ele>
        <time>2017-06-08T10:19:19Z</time>
      </trkpt>
      <trkpt lat="44.06417" lon="6.97169">
        <ele>1469</ele>
        <time>2017-06-08T10:19:19Z</time>
      </trkpt>
      <trkpt lat="44.06419" lon="6.97148">
        <ele>1458</ele>
        <time>2017-06-08T10:20:12Z</time>
      </trkpt>
      <trkpt lat="44.06418" lon="6.97147">
        <ele>1458</ele>
        <time>2017-06-08T10:20:12Z</time>
      </trkpt>
      <trkpt lat="44.06418" lon="6.97147">
        <ele>1458</ele>
        <time>2017-06-08T10:20:13Z</time>
      </trkpt>
      <trkpt lat="44.06418" lon="6.97147">
        <ele>1458</ele>
        <time>2017-06-08T10:20:13Z</time>
      </trkpt>
      <trkpt lat="44.06418" lon="6.97146">
        <ele>1458</ele>
        <time>2017-06-08T10:20:13Z</time>
      </trkpt>
      <trkpt lat="44.0642" lon="6.97144">
        <ele>1458</ele>
        <time>2017-06-08T10:25:46Z</time>
      </trkpt>
      <trkpt lat="44.06422" lon="6.9714">
        <ele>1458</ele>
        <time>2017-06-08T10:25:46Z</time>
      </trkpt>
      <trkpt lat="44.06424" lon="6.97137">
        <ele>1458</ele>
        <time>2017-06-08T10:25:46Z</time>
      </trkpt>
      <trkpt lat="44.06424" lon="6.97134">
        <ele>1458</ele>
        <time>2017-06-08T10:25:46Z</time>
      </trkpt>
      <trkpt lat="44.06424" lon="6.97134">
        <ele>1458</ele>
        <time>2017-06-08T10:25:46Z</time>
      </trkpt>
      <trkpt lat="44.06428" lon="6.97132">
        <ele>1458</ele>
        <time>2017-06-08T10:26:16Z</time>
      </trkpt>
      <trkpt lat="44.06431" lon="6.97132">
        <ele>1474</ele>
        <time>2017-06-08T10:26:16Z</time>
      </trkpt>
      <trkpt lat="44.06432" lon="6.97131">
        <ele>1474</ele>
        <time>2017-06-08T10:26:16Z</time>
      </trkpt>
      <trkpt lat="44.06433" lon="6.97131">
        <ele>1474</ele>
        <time>2017-06-08T10:26:17Z</time>
      </trkpt>
      <trkpt lat="44.06437" lon="6.97127">
        <ele>1474</ele>
        <time>2017-06-08T10:26:17Z</time>
      </trkpt>
      <trkpt lat="44.06439" lon="6.97123">
        <ele>1464</ele>
        <time>2017-06-08T10:26:41Z</time>
      </trkpt>
      <trkpt lat="44.06439" lon="6.97124">
        <ele>1464</ele>
        <time>2017-06-08T10:26:41Z</time>
      </trkpt>
      <trkpt lat="44.06441" lon="6.97123">
        <ele>1464</ele>
        <time>2017-06-08T10:26:41Z</time>
      </trkpt>
      <trkpt lat="44.06446" lon="6.97119">
        <ele>1464</ele>
        <time>2017-06-08T10:26:42Z</time>
      </trkpt>
      <trkpt lat="44.06449" lon="6.97118">
        <ele>1464</ele>
        <time>2017-06-08T10:26:42Z</time>
      </trkpt>
      <trkpt lat="44.06455" lon="6.97115">
        <ele>1464</ele>
        <time>2017-06-08T10:27:04Z</time>
      </trkpt>
      <trkpt lat="44.06457" lon="6.97113">
        <ele>1464</ele>
        <time>2017-06-08T10:27:05Z</time>
      </trkpt>
      <trkpt lat="44.06459" lon="6.97112">
        <ele>1489</ele>
        <time>2017-06-08T10:27:05Z</time>
      </trkpt>
      <trkpt lat="44.0646" lon="6.9711">
        <ele>1489</ele>
        <time>2017-06-08T10:27:05Z</time>
      </trkpt>
      <trkpt lat="44.06462" lon="6.97108">
        <ele>1489</ele>
        <time>2017-06-08T10:27:05Z</time>
      </trkpt>
      <trkpt lat="44.06462" lon="6.97103">
        <ele>1489</ele>
        <time>2017-06-08T10:27:20Z</time>
      </trkpt>
      <trkpt lat="44.06464" lon="6.971">
        <ele>1489</ele>
        <time>2017-06-08T10:27:20Z</time>
      </trkpt>
      <trkpt lat="44.06465" lon="6.97097">
        <ele>1483</ele>
        <time>2017-06-08T10:27:21Z</time>
      </trkpt>
      <trkpt lat="44.06466" lon="6.9709">
        <ele>1483</ele>
        <time>2017-06-08T10:27:21Z</time>
      </trkpt>
      <trkpt lat="44.06467" lon="6.97087">
        <ele>1483</ele>
        <time>2017-06-08T10:27:36Z</time>
      </trkpt>
      <trkpt lat="44.0647" lon="6.97079">
        <ele>1483</ele>
        <time>2017-06-08T10:27:36Z</time>
      </trkpt>
      <trkpt lat="44.06472" lon="6.97072">
        <ele>1483</ele>
        <time>2017-06-08T10:27:36Z</time>
      </trkpt>
      <trkpt lat="44.06469" lon="6.97069">
        <ele>1483</ele>
        <time>2017-06-08T10:27:37Z</time>
      </trkpt>
      <trkpt lat="44.0647" lon="6.97066">
        <ele>1483</ele>
        <time>2017-06-08T10:27:54Z</time>
      </trkpt>
      <trkpt lat="44.06466" lon="6.9706">
        <ele>1483</ele>
        <time>2017-06-08T10:27:54Z</time>
      </trkpt>
      <trkpt lat="44.06464" lon="6.97055">
        <ele>1483</ele>
        <time>2017-06-08T10:27:54Z</time>
      </trkpt>
      <trkpt lat="44.06466" lon="6.97053">
        <ele>1483</ele>
        <time>2017-06-08T10:27:54Z</time>
      </trkpt>
      <trkpt lat="44.06467" lon="6.97045">
        <ele>1483</ele>
        <time>2017-06-08T10:28:24Z</time>
      </trkpt>
      <trkpt lat="44.0647" lon="6.9704">
        <ele>1486</ele>
        <time>2017-06-08T10:28:24Z</time>
      </trkpt>
      <trkpt lat="44.06471" lon="6.9704">
        <ele>1486</ele>
        <time>2017-06-08T10:28:25Z</time>
      </trkpt>
      <trkpt lat="44.06473" lon="6.97036">
        <ele>1486</ele>
        <time>2017-06-08T10:28:25Z</time>
      </trkpt>
      <trkpt lat="44.06473" lon="6.97034">
        <ele>1486</ele>
        <time>2017-06-08T10:28:25Z</time>
      </trkpt>
      <trkpt lat="44.06474" lon="6.97018">
        <ele>1486</ele>
        <time>2017-06-08T10:28:54Z</time>
      </trkpt>
      <trkpt lat="44.06474" lon="6.97017">
        <ele>1486</ele>
        <time>2017-06-08T10:28:54Z</time>
      </trkpt>
      <trkpt lat="44.06472" lon="6.97014">
        <ele>1486</ele>
        <time>2017-06-08T10:28:55Z</time>
      </trkpt>
      <trkpt lat="44.06471" lon="6.97012">
        <ele>1490</ele>
        <time>2017-06-08T10:28:55Z</time>
      </trkpt>
      <trkpt lat="44.06471" lon="6.97007">
        <ele>1490</ele>
        <time>2017-06-08T10:28:55Z</time>
      </trkpt>
      <trkpt lat="44.06471" lon="6.97005">
        <ele>1490</ele>
        <time>2017-06-08T10:29:12Z</time>
      </trkpt>
      <trkpt lat="44.06471" lon="6.97004">
        <ele>1490</ele>
        <time>2017-06-08T10:29:12Z</time>
      </trkpt>
      <trkpt lat="44.06475" lon="6.96999">
        <ele>1490</ele>
        <time>2017-06-08T10:29:12Z</time>
      </trkpt>
      <trkpt lat="44.06475" lon="6.96993">
        <ele>1490</ele>
        <time>2017-06-08T10:29:12Z</time>
      </trkpt>
      <trkpt lat="44.06475" lon="6.96987">
        <ele>1490</ele>
        <time>2017-06-08T10:29:33Z</time>
      </trkpt>
      <trkpt lat="44.06474" lon="6.96985">
        <ele>1492</ele>
        <time>2017-06-08T10:29:33Z</time>
      </trkpt>
      <trkpt lat="44.06472" lon="6.96984">
        <ele>1492</ele>
        <time>2017-06-08T10:29:33Z</time>
      </trkpt>
      <trkpt lat="44.06472" lon="6.96982">
        <ele>1492</ele>
        <time>2017-06-08T10:29:33Z</time>
      </trkpt>
      <trkpt lat="44.06469" lon="6.96977">
        <ele>1492</ele>
        <time>2017-06-08T10:29:33Z</time>
      </trkpt>
      <trkpt lat="44.06468" lon="6.96967">
        <ele>1492</ele>
        <time>2017-06-08T10:29:58Z</time>
      </trkpt>
      <trkpt lat="44.06468" lon="6.96966">
        <ele>1492</ele>
        <time>2017-06-08T10:29:58Z</time>
      </trkpt>
      <trkpt lat="44.06468" lon="6.96963">
        <ele>1492</ele>
        <time>2017-06-08T10:29:58Z</time>
      </trkpt>
      <trkpt lat="44.06466" lon="6.96957">
        <ele>1494</ele>
        <time>2017-06-08T10:29:58Z</time>
      </trkpt>
      <trkpt lat="44.06465" lon="6.96955">
        <ele>1494</ele>
        <time>2017-06-08T10:29:58Z</time>
      </trkpt>
      <trkpt lat="44.06466" lon="6.96953">
        <ele>1494</ele>
        <time>2017-06-08T10:30:32Z</time>
      </trkpt>
      <trkpt lat="44.06472" lon="6.96951">
        <ele>1494</ele>
        <time>2017-06-08T10:30:33Z</time>
      </trkpt>
      <trkpt lat="44.06474" lon="6.96952">
        <ele>1494</ele>
        <time>2017-06-08T10:30:33Z</time>
      </trkpt>
      <trkpt lat="44.06477" lon="6.96947">
        <ele>1494</ele>
        <time>2017-06-08T10:30:33Z</time>
      </trkpt>
      <trkpt lat="44.06476" lon="6.96944">
        <ele>1494</ele>
        <time>2017-06-08T10:30:33Z</time>
      </trkpt>
      <trkpt lat="44.06476" lon="6.96943">
        <ele>1494</ele>
        <time>2017-06-08T10:30:52Z</time>
      </trkpt>
      <trkpt lat="44.06477" lon="6.96943">
        <ele>1494</ele>
        <time>2017-06-08T10:30:53Z</time>
      </trkpt>
      <trkpt lat="44.06475" lon="6.96935">
        <ele>1494</ele>
        <time>2017-06-08T10:30:53Z</time>
      </trkpt>
      <trkpt lat="44.06475" lon="6.96931">
        <ele>1494</ele>
        <time>2017-06-08T10:30:53Z</time>
      </trkpt>
      <trkpt lat="44.06473" lon="6.96928">
        <ele>1497</ele>
        <time>2017-06-08T10:30:53Z</time>
      </trkpt>
      <trkpt lat="44.06476" lon="6.96924">
        <ele>1497</ele>
        <time>2017-06-08T10:31:28Z</time>
      </trkpt>
      <trkpt lat="44.06474" lon="6.96923">
        <ele>1497</ele>
        <time>2017-06-08T10:31:29Z</time>
      </trkpt>
      <trkpt lat="44.06472" lon="6.96918">
        <ele>1497</ele>
        <time>2017-06-08T10:31:29Z</time>
      </trkpt>
      <trkpt lat="44.06478" lon="6.96912">
        <ele>1497</ele>
        <time>2017-06-08T10:31:29Z</time>
      </trkpt>
      <trkpt lat="44.06478" lon="6.96909">
        <ele>1497</ele>
        <time>2017-06-08T10:31:29Z</time>
      </trkpt>
      <trkpt lat="44.06479" lon="6.96897">
        <ele>1493</ele>
        <time>2017-06-08T10:32:13Z</time>
      </trkpt>
      <trkpt lat="44.06483" lon="6.96893">
        <ele>1493</ele>
        <time>2017-06-08T10:32:13Z</time>
      </trkpt>
      <trkpt lat="44.06484" lon="6.96893">
        <ele>1493</ele>
        <time>2017-06-08T10:32:13Z</time>
      </trkpt>
      <trkpt lat="44.06488" lon="6.96889">
        <ele>1496</ele>
        <time>2017-06-08T10:32:14Z</time>
      </trkpt>
      <trkpt lat="44.06496" lon="6.96889">
        <ele>1496</ele>
        <time>2017-06-08T10:32:14Z</time>
      </trkpt>
      <trkpt lat="44.06501" lon="6.96891">
        <ele>1496</ele>
        <time>2017-06-08T10:32:40Z</time>
      </trkpt>
      <trkpt lat="44.06502" lon="6.96891">
        <ele>1496</ele>
        <time>2017-06-08T10:32:40Z</time>
      </trkpt>
      <trkpt lat="44.06504" lon="6.9689">
        <ele>1496</ele>
        <time>2017-06-08T10:32:41Z</time>
      </trkpt>
      <trkpt lat="44.06509" lon="6.96889">
        <ele>1496</ele>
        <time>2017-06-08T10:32:41Z</time>
      </trkpt>
      <trkpt lat="44.06511" lon="6.9689">
        <ele>1496</ele>
        <time>2017-06-08T10:32:41Z</time>
      </trkpt>
      <trkpt lat="44.06515" lon="6.96878">
        <ele>1493</ele>
        <time>2017-06-08T10:32:57Z</time>
      </trkpt>
      <trkpt lat="44.06521" lon="6.96875">
        <ele>1493</ele>
        <time>2017-06-08T10:32:57Z</time>
      </trkpt>
      <trkpt lat="44.0653" lon="6.96884">
        <ele>1493</ele>
        <time>2017-06-08T10:32:57Z</time>
      </trkpt>
      <trkpt lat="44.0653" lon="6.96882">
        <ele>1493</ele>
        <time>2017-06-08T10:32:57Z</time>
      </trkpt>
      <trkpt lat="44.06534" lon="6.96889">
        <ele>1493</ele>
        <time>2017-06-08T10:33:15Z</time>
      </trkpt>
      <trkpt lat="44.06538" lon="6.9689">
        <ele>1493</ele>
        <time>2017-06-08T10:33:15Z</time>
      </trkpt>
      <trkpt lat="44.06542" lon="6.96891">
        <ele>1495</ele>
        <time>2017-06-08T10:33:15Z</time>
      </trkpt>
      <trkpt lat="44.06546" lon="6.96887">
        <ele>1495</ele>
        <time>2017-06-08T10:33:15Z</time>
      </trkpt>
      <trkpt lat="44.06547" lon="6.96889">
        <ele>1495</ele>
        <time>2017-06-08T10:33:30Z</time>
      </trkpt>
      <trkpt lat="44.06552" lon="6.96888">
        <ele>1495</ele>
        <time>2017-06-08T10:33:30Z</time>
      </trkpt>
      <trkpt lat="44.06554" lon="6.96886">
        <ele>1495</ele>
        <time>2017-06-08T10:33:30Z</time>
      </trkpt>
      <trkpt lat="44.06556" lon="6.96886">
        <ele>1495</ele>
        <time>2017-06-08T10:33:30Z</time>
      </trkpt>
      <trkpt lat="44.06558" lon="6.96885">
        <ele>1495</ele>
        <time>2017-06-08T10:33:44Z</time>
      </trkpt>
      <trkpt lat="44.06564" lon="6.96884">
        <ele>1495</ele>
        <time>2017-06-08T10:33:44Z</time>
      </trkpt>
      <trkpt lat="44.06568" lon="6.96888">
        <ele>1495</ele>
        <time>2017-06-08T10:33:45Z</time>
      </trkpt>
      <trkpt lat="44.06571" lon="6.96888">
        <ele>1488</ele>
        <time>2017-06-08T10:33:45Z</time>
      </trkpt>
      <trkpt lat="44.06575" lon="6.96893">
        <ele>1488</ele>
        <time>2017-06-08T10:34:01Z</time>
      </trkpt>
      <trkpt lat="44.06579" lon="6.96892">
        <ele>1488</ele>
        <time>2017-06-08T10:34:01Z</time>
      </trkpt>
      <trkpt lat="44.06586" lon="6.96896">
        <ele>1488</ele>
        <time>2017-06-08T10:34:01Z</time>
      </trkpt>
      <trkpt lat="44.06587" lon="6.96895">
        <ele>1488</ele>
        <time>2017-06-08T10:34:01Z</time>
      </trkpt>
      <trkpt lat="44.06595" lon="6.96888">
        <ele>1488</ele>
        <time>2017-06-08T10:34:24Z</time>
      </trkpt>
      <trkpt lat="44.06596" lon="6.96887">
        <ele>1488</ele>
        <time>2017-06-08T10:34:24Z</time>
      </trkpt>
      <trkpt lat="44.06599" lon="6.96885">
        <ele>1492</ele>
        <time>2017-06-08T10:34:25Z</time>
      </trkpt>
      <trkpt lat="44.06601" lon="6.96885">
        <ele>1492</ele>
        <time>2017-06-08T10:34:25Z</time>
      </trkpt>
      <trkpt lat="44.06602" lon="6.96884">
        <ele>1492</ele>
        <time>2017-06-08T10:34:25Z</time>
      </trkpt>
      <trkpt lat="44.06605" lon="6.96881">
        <ele>1492</ele>
        <time>2017-06-08T10:34:40Z</time>
      </trkpt>
      <trkpt lat="44.06611" lon="6.96876">
        <ele>1492</ele>
        <time>2017-06-08T10:34:41Z</time>
      </trkpt>
      <trkpt lat="44.06613" lon="6.96874">
        <ele>1485</ele>
        <time>2017-06-08T10:34:41Z</time>
      </trkpt>
      <trkpt lat="44.06617" lon="6.96869">
        <ele>1485</ele>
        <time>2017-06-08T10:34:41Z</time>
      </trkpt>
      <trkpt lat="44.06621" lon="6.96859">
        <ele>1485</ele>
        <time>2017-06-08T10:34:56Z</time>
      </trkpt>
      <trkpt lat="44.06626" lon="6.9685">
        <ele>1488</ele>
        <time>2017-06-08T10:34:57Z</time>
      </trkpt>
      <trkpt lat="44.06627" lon="6.96843">
        <ele>1481</ele>
        <time>2017-06-08T10:34:57Z</time>
      </trkpt>
      <trkpt lat="44.06631" lon="6.9684">
        <ele>1481</ele>
        <time>2017-06-08T10:34:57Z</time>
      </trkpt>
      <trkpt lat="44.06633" lon="6.96837">
        <ele>1481</ele>
        <time>2017-06-08T10:35:12Z</time>
      </trkpt>
      <trkpt lat="44.06638" lon="6.96832">
        <ele>1481</ele>
        <time>2017-06-08T10:35:12Z</time>
      </trkpt>
      <trkpt lat="44.06639" lon="6.96824">
        <ele>1481</ele>
        <time>2017-06-08T10:35:13Z</time>
      </trkpt>
      <trkpt lat="44.06646" lon="6.96823">
        <ele>1481</ele>
        <time>2017-06-08T10:35:13Z</time>
      </trkpt>
      <trkpt lat="44.06649" lon="6.96822">
        <ele>1481</ele>
        <time>2017-06-08T10:35:28Z</time>
      </trkpt>
      <trkpt lat="44.0665" lon="6.96816">
        <ele>1471</ele>
        <time>2017-06-08T10:35:28Z</time>
      </trkpt>
      <trkpt lat="44.06651" lon="6.96813">
        <ele>1471</ele>
        <time>2017-06-08T10:35:29Z</time>
      </trkpt>
      <trkpt lat="44.06651" lon="6.96808">
        <ele>1471</ele>
        <time>2017-06-08T10:35:29Z</time>
      </trkpt>
      <trkpt lat="44.06653" lon="6.96805">
        <ele>1479</ele>
        <time>2017-06-08T10:35:50Z</time>
      </trkpt>
      <trkpt lat="44.06653" lon="6.96798">
        <ele>1471</ele>
        <time>2017-06-08T10:35:50Z</time>
      </trkpt>
      <trkpt lat="44.06653" lon="6.96798">
        <ele>1479</ele>
        <time>2017-06-08T10:35:50Z</time>
      </trkpt>
      <trkpt lat="44.06655" lon="6.96793">
        <ele>1479</ele>
        <time>2017-06-08T10:35:50Z</time>
      </trkpt>
      <trkpt lat="44.06657" lon="6.96787">
        <ele>1471</ele>
        <time>2017-06-08T10:35:50Z</time>
      </trkpt>
      <trkpt lat="44.06658" lon="6.96784">
        <ele>1471</ele>
        <time>2017-06-08T10:36:19Z</time>
      </trkpt>
      <trkpt lat="44.0666" lon="6.96782">
        <ele>1471</ele>
        <time>2017-06-08T10:36:19Z</time>
      </trkpt>
      <trkpt lat="44.0666" lon="6.9678">
        <ele>1471</ele>
        <time>2017-06-08T10:36:20Z</time>
      </trkpt>
      <trkpt lat="44.06663" lon="6.96777">
        <ele>1471</ele>
        <time>2017-06-08T10:36:20Z</time>
      </trkpt>
      <trkpt lat="44.06667" lon="6.96771">
        <ele>1471</ele>
        <time>2017-06-08T10:36:21Z</time>
      </trkpt>
      <trkpt lat="44.06667" lon="6.96767">
        <ele>1471</ele>
        <time>2017-06-08T10:36:32Z</time>
      </trkpt>
      <trkpt lat="44.06667" lon="6.96759">
        <ele>1459</ele>
        <time>2017-06-08T10:36:32Z</time>
      </trkpt>
      <trkpt lat="44.06668" lon="6.96756">
        <ele>1459</ele>
        <time>2017-06-08T10:36:33Z</time>
      </trkpt>
      <trkpt lat="44.0667" lon="6.96751">
        <ele>1459</ele>
        <time>2017-06-08T10:36:33Z</time>
      </trkpt>
      <trkpt lat="44.06671" lon="6.96741">
        <ele>1459</ele>
        <time>2017-06-08T10:36:54Z</time>
      </trkpt>
      <trkpt lat="44.06672" lon="6.96741">
        <ele>1459</ele>
        <time>2017-06-08T10:36:54Z</time>
      </trkpt>
      <trkpt lat="44.06674" lon="6.96737">
        <ele>1459</ele>
        <time>2017-06-08T10:36:54Z</time>
      </trkpt>
      <trkpt lat="44.06676" lon="6.96731">
        <ele>1446</ele>
        <time>2017-06-08T10:36:54Z</time>
      </trkpt>
      <trkpt lat="44.06678" lon="6.96728">
        <ele>1446</ele>
        <time>2017-06-08T10:36:54Z</time>
      </trkpt>
      <trkpt lat="44.06682" lon="6.96723">
        <ele>1460</ele>
        <time>2017-06-08T10:37:12Z</time>
      </trkpt>
      <trkpt lat="44.06689" lon="6.96719">
        <ele>1460</ele>
        <time>2017-06-08T10:37:12Z</time>
      </trkpt>
      <trkpt lat="44.06691" lon="6.96718">
        <ele>1460</ele>
        <time>2017-06-08T10:37:12Z</time>
      </trkpt>
      <trkpt lat="44.06693" lon="6.96716">
        <ele>1460</ele>
        <time>2017-06-08T10:37:12Z</time>
      </trkpt>
      <trkpt lat="44.06693" lon="6.96717">
        <ele>1460</ele>
        <time>2017-06-08T10:37:24Z</time>
      </trkpt>
      <trkpt lat="44.06696" lon="6.96712">
        <ele>1460</ele>
        <time>2017-06-08T10:37:24Z</time>
      </trkpt>
      <trkpt lat="44.06697" lon="6.96709">
        <ele>1460</ele>
        <time>2017-06-08T10:37:24Z</time>
      </trkpt>
      <trkpt lat="44.067" lon="6.96707">
        <ele>1447</ele>
        <time>2017-06-08T10:37:25Z</time>
      </trkpt>
      <trkpt lat="44.06698" lon="6.96697">
        <ele>1447</ele>
        <time>2017-06-08T10:37:40Z</time>
      </trkpt>
      <trkpt lat="44.067" lon="6.96692">
        <ele>1447</ele>
        <time>2017-06-08T10:37:40Z</time>
      </trkpt>
      <trkpt lat="44.06702" lon="6.96689">
        <ele>1447</ele>
        <time>2017-06-08T10:37:40Z</time>
      </trkpt>
      <trkpt lat="44.06704" lon="6.96687">
        <ele>1447</ele>
        <time>2017-06-08T10:37:41Z</time>
      </trkpt>
      <trkpt lat="44.06705" lon="6.96683">
        <ele>1447</ele>
        <time>2017-06-08T10:37:58Z</time>
      </trkpt>
      <trkpt lat="44.06705" lon="6.96679">
        <ele>1437</ele>
        <time>2017-06-08T10:37:58Z</time>
      </trkpt>
      <trkpt lat="44.06705" lon="6.96667">
        <ele>1437</ele>
        <time>2017-06-08T10:37:58Z</time>
      </trkpt>
      <trkpt lat="44.06706" lon="6.96663">
        <ele>1437</ele>
        <time>2017-06-08T10:37:59Z</time>
      </trkpt>
      <trkpt lat="44.06706" lon="6.96658">
        <ele>1437</ele>
        <time>2017-06-08T10:38:12Z</time>
      </trkpt>
      <trkpt lat="44.06709" lon="6.96653">
        <ele>1446</ele>
        <time>2017-06-08T10:38:12Z</time>
      </trkpt>
      <trkpt lat="44.06712" lon="6.96652">
        <ele>1437</ele>
        <time>2017-06-08T10:38:13Z</time>
      </trkpt>
      <trkpt lat="44.06712" lon="6.96647">
        <ele>1437</ele>
        <time>2017-06-08T10:38:13Z</time>
      </trkpt>
      <trkpt lat="44.06712" lon="6.9665">
        <ele>1437</ele>
        <time>2017-06-08T10:38:31Z</time>
      </trkpt>
      <trkpt lat="44.06714" lon="6.96645">
        <ele>1437</ele>
        <time>2017-06-08T10:38:31Z</time>
      </trkpt>
      <trkpt lat="44.06715" lon="6.96643">
        <ele>1437</ele>
        <time>2017-06-08T10:38:31Z</time>
      </trkpt>
      <trkpt lat="44.06716" lon="6.96639">
        <ele>1437</ele>
        <time>2017-06-08T10:38:31Z</time>
      </trkpt>
      <trkpt lat="44.06717" lon="6.96635">
        <ele>1437</ele>
        <time>2017-06-08T10:38:45Z</time>
      </trkpt>
      <trkpt lat="44.06719" lon="6.96629">
        <ele>1437</ele>
        <time>2017-06-08T10:38:46Z</time>
      </trkpt>
      <trkpt lat="44.06723" lon="6.96623">
        <ele>1432</ele>
        <time>2017-06-08T10:38:46Z</time>
      </trkpt>
      <trkpt lat="44.06723" lon="6.96621">
        <ele>1432</ele>
        <time>2017-06-08T10:38:46Z</time>
      </trkpt>
      <trkpt lat="44.06727" lon="6.96611">
        <ele>1432</ele>
        <time>2017-06-08T10:39:02Z</time>
      </trkpt>
      <trkpt lat="44.0673" lon="6.96599">
        <ele>1432</ele>
        <time>2017-06-08T10:39:02Z</time>
      </trkpt>
      <trkpt lat="44.06731" lon="6.96597">
        <ele>1432</ele>
        <time>2017-06-08T10:39:02Z</time>
      </trkpt>
      <trkpt lat="44.06733" lon="6.96597">
        <ele>1432</ele>
        <time>2017-06-08T10:39:02Z</time>
      </trkpt>
      <trkpt lat="44.06734" lon="6.96595">
        <ele>1429</ele>
        <time>2017-06-08T10:39:16Z</time>
      </trkpt>
      <trkpt lat="44.06735" lon="6.96591">
        <ele>1429</ele>
        <time>2017-06-08T10:39:17Z</time>
      </trkpt>
      <trkpt lat="44.06737" lon="6.9659">
        <ele>1432</ele>
        <time>2017-06-08T10:39:17Z</time>
      </trkpt>
      <trkpt lat="44.06739" lon="6.96584">
        <ele>1432</ele>
        <time>2017-06-08T10:39:17Z</time>
      </trkpt>
      <trkpt lat="44.06738" lon="6.96576">
        <ele>1432</ele>
        <time>2017-06-08T10:39:32Z</time>
      </trkpt>
      <trkpt lat="44.0674" lon="6.96572">
        <ele>1432</ele>
        <time>2017-06-08T10:39:32Z</time>
      </trkpt>
      <trkpt lat="44.06741" lon="6.96567">
        <ele>1428</ele>
        <time>2017-06-08T10:39:33Z</time>
      </trkpt>
      <trkpt lat="44.06742" lon="6.96562">
        <ele>1428</ele>
        <time>2017-06-08T10:39:33Z</time>
      </trkpt>
      <trkpt lat="44.06751" lon="6.96553">
        <ele>1428</ele>
        <time>2017-06-08T10:39:55Z</time>
      </trkpt>
      <trkpt lat="44.06751" lon="6.96553">
        <ele>1428</ele>
        <time>2017-06-08T10:39:55Z</time>
      </trkpt>
      <trkpt lat="44.06754" lon="6.96555">
        <ele>1428</ele>
        <time>2017-06-08T10:39:55Z</time>
      </trkpt>
      <trkpt lat="44.06756" lon="6.96552">
        <ele>1428</ele>
        <time>2017-06-08T10:39:55Z</time>
      </trkpt>
      <trkpt lat="44.06757" lon="6.96543">
        <ele>1428</ele>
        <time>2017-06-08T10:39:55Z</time>
      </trkpt>
      <trkpt lat="44.06759" lon="6.96537">
        <ele>1435</ele>
        <time>2017-06-08T10:40:08Z</time>
      </trkpt>
      <trkpt lat="44.06761" lon="6.9653">
        <ele>1435</ele>
        <time>2017-06-08T10:40:09Z</time>
      </trkpt>
      <trkpt lat="44.06763" lon="6.96526">
        <ele>1435</ele>
        <time>2017-06-08T10:40:09Z</time>
      </trkpt>
      <trkpt lat="44.06767" lon="6.96521">
        <ele>1432</ele>
        <time>2017-06-08T10:40:09Z</time>
      </trkpt>
      <trkpt lat="44.06771" lon="6.96519">
        <ele>1432</ele>
        <time>2017-06-08T10:40:27Z</time>
      </trkpt>
      <trkpt lat="44.06772" lon="6.96511">
        <ele>1438</ele>
        <time>2017-06-08T10:40:27Z</time>
      </trkpt>
      <trkpt lat="44.06775" lon="6.96505">
        <ele>1438</ele>
        <time>2017-06-08T10:40:27Z</time>
      </trkpt>
      <trkpt lat="44.06782" lon="6.96498">
        <ele>1438</ele>
        <time>2017-06-08T10:40:27Z</time>
      </trkpt>
      <trkpt lat="44.06783" lon="6.965">
        <ele>1438</ele>
        <time>2017-06-08T10:40:45Z</time>
      </trkpt>
      <trkpt lat="44.06792" lon="6.965">
        <ele>1443</ele>
        <time>2017-06-08T10:40:45Z</time>
      </trkpt>
      <trkpt lat="44.06797" lon="6.96502">
        <ele>1443</ele>
        <time>2017-06-08T10:40:45Z</time>
      </trkpt>
      <trkpt lat="44.06797" lon="6.96503">
        <ele>1443</ele>
        <time>2017-06-08T10:40:45Z</time>
      </trkpt>
      <trkpt lat="44.06802" lon="6.96506">
        <ele>1443</ele>
        <time>2017-06-08T10:41:00Z</time>
      </trkpt>
      <trkpt lat="44.06807" lon="6.96506">
        <ele>1443</ele>
        <time>2017-06-08T10:41:00Z</time>
      </trkpt>
      <trkpt lat="44.06811" lon="6.96509">
        <ele>1443</ele>
        <time>2017-06-08T10:41:01Z</time>
      </trkpt>
      <trkpt lat="44.06813" lon="6.96509">
        <ele>1443</ele>
        <time>2017-06-08T10:41:01Z</time>
      </trkpt>
      <trkpt lat="44.06818" lon="6.96513">
        <ele>1443</ele>
        <time>2017-06-08T10:41:42Z</time>
      </trkpt>
      <trkpt lat="44.06818" lon="6.96513">
        <ele>1443</ele>
        <time>2017-06-08T10:41:42Z</time>
      </trkpt>
      <trkpt lat="44.06819" lon="6.96514">
        <ele>1443</ele>
        <time>2017-06-08T10:41:42Z</time>
      </trkpt>
      <trkpt lat="44.06822" lon="6.96512">
        <ele>1446</ele>
        <time>2017-06-08T10:41:42Z</time>
      </trkpt>
      <trkpt lat="44.06823" lon="6.96512">
        <ele>1446</ele>
        <time>2017-06-08T10:41:42Z</time>
      </trkpt>
      <trkpt lat="44.06827" lon="6.96511">
        <ele>1446</ele>
        <time>2017-06-08T10:42:01Z</time>
      </trkpt>
      <trkpt lat="44.06828" lon="6.96511">
        <ele>1446</ele>
        <time>2017-06-08T10:42:01Z</time>
      </trkpt>
      <trkpt lat="44.06832" lon="6.96511">
        <ele>1446</ele>
        <time>2017-06-08T10:42:01Z</time>
      </trkpt>
      <trkpt lat="44.06833" lon="6.96509">
        <ele>1446</ele>
        <time>2017-06-08T10:42:01Z</time>
      </trkpt>
      <trkpt lat="44.0684" lon="6.96506">
        <ele>1446</ele>
        <time>2017-06-08T10:42:01Z</time>
      </trkpt>
      <trkpt lat="44.06844" lon="6.96509">
        <ele>1446</ele>
        <time>2017-06-08T10:42:24Z</time>
      </trkpt>
      <trkpt lat="44.06849" lon="6.96505">
        <ele>1444</ele>
        <time>2017-06-08T10:42:24Z</time>
      </trkpt>
      <trkpt lat="44.06853" lon="6.96511">
        <ele>1444</ele>
        <time>2017-06-08T10:42:24Z</time>
      </trkpt>
      <trkpt lat="44.06856" lon="6.9651">
        <ele>1444</ele>
        <time>2017-06-08T10:42:24Z</time>
      </trkpt>
      <trkpt lat="44.06857" lon="6.9651">
        <ele>1444</ele>
        <time>2017-06-08T10:42:39Z</time>
      </trkpt>
      <trkpt lat="44.0686" lon="6.9651">
        <ele>1444</ele>
        <time>2017-06-08T10:42:39Z</time>
      </trkpt>
      <trkpt lat="44.06862" lon="6.9651">
        <ele>1444</ele>
        <time>2017-06-08T10:42:39Z</time>
      </trkpt>
      <trkpt lat="44.06867" lon="6.96505">
        <ele>1444</ele>
        <time>2017-06-08T10:42:39Z</time>
      </trkpt>
      <trkpt lat="44.06868" lon="6.96505">
        <ele>1444</ele>
        <time>2017-06-08T10:42:53Z</time>
      </trkpt>
      <trkpt lat="44.06873" lon="6.96499">
        <ele>1444</ele>
        <time>2017-06-08T10:42:53Z</time>
      </trkpt>
      <trkpt lat="44.06873" lon="6.96499">
        <ele>1444</ele>
        <time>2017-06-08T10:42:53Z</time>
      </trkpt>
      <trkpt lat="44.06876" lon="6.96496">
        <ele>1443</ele>
        <time>2017-06-08T10:42:53Z</time>
      </trkpt>
      <trkpt lat="44.06881" lon="6.96488">
        <ele>1443</ele>
        <time>2017-06-08T10:43:28Z</time>
      </trkpt>
      <trkpt lat="44.06881" lon="6.96487">
        <ele>1443</ele>
        <time>2017-06-08T10:43:28Z</time>
      </trkpt>
      <trkpt lat="44.06891" lon="6.96478">
        <ele>1447</ele>
        <time>2017-06-08T10:43:28Z</time>
      </trkpt>
      <trkpt lat="44.06891" lon="6.96478">
        <ele>1447</ele>
        <time>2017-06-08T10:43:28Z</time>
      </trkpt>
      <trkpt lat="44.06894" lon="6.96474">
        <ele>1447</ele>
        <time>2017-06-08T10:43:28Z</time>
      </trkpt>
      <trkpt lat="44.06894" lon="6.96473">
        <ele>1447</ele>
        <time>2017-06-08T10:43:43Z</time>
      </trkpt>
      <trkpt lat="44.06895" lon="6.96471">
        <ele>1447</ele>
        <time>2017-06-08T10:43:43Z</time>
      </trkpt>
      <trkpt lat="44.06895" lon="6.96467">
        <ele>1447</ele>
        <time>2017-06-08T10:43:43Z</time>
      </trkpt>
      <trkpt lat="44.06898" lon="6.96458">
        <ele>1453</ele>
        <time>2017-06-08T10:43:43Z</time>
      </trkpt>
      <trkpt lat="44.06899" lon="6.96459">
        <ele>1447</ele>
        <time>2017-06-08T10:44:00Z</time>
      </trkpt>
      <trkpt lat="44.06904" lon="6.96449">
        <ele>1448</ele>
        <time>2017-06-08T10:44:00Z</time>
      </trkpt>
      <trkpt lat="44.06904" lon="6.96448">
        <ele>1448</ele>
        <time>2017-06-08T10:44:00Z</time>
      </trkpt>
      <trkpt lat="44.06904" lon="6.96443">
        <ele>1448</ele>
        <time>2017-06-08T10:44:00Z</time>
      </trkpt>
      <trkpt lat="44.06904" lon="6.96443">
        <ele>1448</ele>
        <time>2017-06-08T10:44:14Z</time>
      </trkpt>
      <trkpt lat="44.06906" lon="6.9644">
        <ele>1448</ele>
        <time>2017-06-08T10:44:14Z</time>
      </trkpt>
      <trkpt lat="44.06909" lon="6.96438">
        <ele>1448</ele>
        <time>2017-06-08T10:44:14Z</time>
      </trkpt>
      <trkpt lat="44.06916" lon="6.96434">
        <ele>1448</ele>
        <time>2017-06-08T10:44:14Z</time>
      </trkpt>
      <trkpt lat="44.06919" lon="6.96432">
        <ele>1448</ele>
        <time>2017-06-08T10:44:28Z</time>
      </trkpt>
      <trkpt lat="44.06922" lon="6.9643">
        <ele>1450</ele>
        <time>2017-06-08T10:44:29Z</time>
      </trkpt>
      <trkpt lat="44.06927" lon="6.96425">
        <ele>1450</ele>
        <time>2017-06-08T10:44:29Z</time>
      </trkpt>
      <trkpt lat="44.06928" lon="6.96422">
        <ele>1450</ele>
        <time>2017-06-08T10:44:29Z</time>
      </trkpt>
      <trkpt lat="44.0693" lon="6.96416">
        <ele>1450</ele>
        <time>2017-06-08T10:47:52Z</time>
      </trkpt>
      <trkpt lat="44.06932" lon="6.96413">
        <ele>1448</ele>
        <time>2017-06-08T10:47:52Z</time>
      </trkpt>
      <trkpt lat="44.06932" lon="6.96412">
        <ele>1448</ele>
        <time>2017-06-08T10:47:53Z</time>
      </trkpt>
      <trkpt lat="44.06934" lon="6.96412">
        <ele>1448</ele>
        <time>2017-06-08T10:47:53Z</time>
      </trkpt>
      <trkpt lat="44.06936" lon="6.96409">
        <ele>1448</ele>
        <time>2017-06-08T10:47:53Z</time>
      </trkpt>
      <trkpt lat="44.06937" lon="6.96404">
        <ele>1448</ele>
        <time>2017-06-08T10:48:08Z</time>
      </trkpt>
      <trkpt lat="44.06941" lon="6.96401">
        <ele>1450</ele>
        <time>2017-06-08T10:48:08Z</time>
      </trkpt>
      <trkpt lat="44.06942" lon="6.96396">
        <ele>1450</ele>
        <time>2017-06-08T10:48:08Z</time>
      </trkpt>
      <trkpt lat="44.06945" lon="6.96392">
        <ele>1450</ele>
        <time>2017-06-08T10:48:09Z</time>
      </trkpt>
      <trkpt lat="44.06938" lon="6.96391">
        <ele>1450</ele>
        <time>2017-06-08T10:48:24Z</time>
      </trkpt>
      <trkpt lat="44.06937" lon="6.96386">
        <ele>1450</ele>
        <time>2017-06-08T10:48:24Z</time>
      </trkpt>
      <trkpt lat="44.06937" lon="6.96381">
        <ele>1450</ele>
        <time>2017-06-08T10:48:24Z</time>
      </trkpt>
      <trkpt lat="44.06937" lon="6.96376">
        <ele>1450</ele>
        <time>2017-06-08T10:48:25Z</time>
      </trkpt>
      <trkpt lat="44.0694" lon="6.96368">
        <ele>1453</ele>
        <time>2017-06-08T10:48:42Z</time>
      </trkpt>
      <trkpt lat="44.06945" lon="6.9636">
        <ele>1453</ele>
        <time>2017-06-08T10:48:42Z</time>
      </trkpt>
      <trkpt lat="44.06945" lon="6.9635">
        <ele>1453</ele>
        <time>2017-06-08T10:48:42Z</time>
      </trkpt>
      <trkpt lat="44.06947" lon="6.96343">
        <ele>1458</ele>
        <time>2017-06-08T10:48:42Z</time>
      </trkpt>
      <trkpt lat="44.06949" lon="6.96341">
        <ele>1458</ele>
        <time>2017-06-08T10:48:57Z</time>
      </trkpt>
      <trkpt lat="44.06949" lon="6.96333">
        <ele>1458</ele>
        <time>2017-06-08T10:48:57Z</time>
      </trkpt>
      <trkpt lat="44.06949" lon="6.96328">
        <ele>1458</ele>
        <time>2017-06-08T10:48:57Z</time>
      </trkpt>
      <trkpt lat="44.06953" lon="6.96322">
        <ele>1458</ele>
        <time>2017-06-08T10:48:57Z</time>
      </trkpt>
      <trkpt lat="44.06961" lon="6.96302">
        <ele>1457</ele>
        <time>2017-06-08T10:49:28Z</time>
      </trkpt>
      <trkpt lat="44.06963" lon="6.96295">
        <ele>1457</ele>
        <time>2017-06-08T10:49:28Z</time>
      </trkpt>
      <trkpt lat="44.06963" lon="6.96289">
        <ele>1457</ele>
        <time>2017-06-08T10:49:29Z</time>
      </trkpt>
      <trkpt lat="44.06965" lon="6.96285">
        <ele>1457</ele>
        <time>2017-06-08T10:49:29Z</time>
      </trkpt>
      <trkpt lat="44.06965" lon="6.96282">
        <ele>1457</ele>
        <time>2017-06-08T10:49:29Z</time>
      </trkpt>
      <trkpt lat="44.0697" lon="6.96274">
        <ele>1457</ele>
        <time>2017-06-08T10:49:46Z</time>
      </trkpt>
      <trkpt lat="44.06973" lon="6.9627">
        <ele>1457</ele>
        <time>2017-06-08T10:49:47Z</time>
      </trkpt>
      <trkpt lat="44.06974" lon="6.96264">
        <ele>1461</ele>
        <time>2017-06-08T10:49:47Z</time>
      </trkpt>
      <trkpt lat="44.06975" lon="6.96255">
        <ele>1461</ele>
        <time>2017-06-08T10:49:47Z</time>
      </trkpt>
      <trkpt lat="44.06981" lon="6.96252">
        <ele>1461</ele>
        <time>2017-06-08T10:50:02Z</time>
      </trkpt>
      <trkpt lat="44.06984" lon="6.96245">
        <ele>1461</ele>
        <time>2017-06-08T10:50:02Z</time>
      </trkpt>
      <trkpt lat="44.06985" lon="6.96244">
        <ele>1461</ele>
        <time>2017-06-08T10:50:02Z</time>
      </trkpt>
      <trkpt lat="44.06987" lon="6.96242">
        <ele>1461</ele>
        <time>2017-06-08T10:50:02Z</time>
      </trkpt>
      <trkpt lat="44.06989" lon="6.96238">
        <ele>1461</ele>
        <time>2017-06-08T10:50:16Z</time>
      </trkpt>
      <trkpt lat="44.06993" lon="6.96231">
        <ele>1460</ele>
        <time>2017-06-08T10:50:16Z</time>
      </trkpt>
      <trkpt lat="44.06995" lon="6.96226">
        <ele>1460</ele>
        <time>2017-06-08T10:50:17Z</time>
      </trkpt>
      <trkpt lat="44.06997" lon="6.96225">
        <ele>1460</ele>
        <time>2017-06-08T10:50:17Z</time>
      </trkpt>
      <trkpt lat="44.06999" lon="6.9622">
        <ele>1460</ele>
        <time>2017-06-08T10:50:32Z</time>
      </trkpt>
      <trkpt lat="44.07004" lon="6.96218">
        <ele>1460</ele>
        <time>2017-06-08T10:50:32Z</time>
      </trkpt>
      <trkpt lat="44.07008" lon="6.96215">
        <ele>1460</ele>
        <time>2017-06-08T10:50:33Z</time>
      </trkpt>
      <trkpt lat="44.07009" lon="6.9621">
        <ele>1460</ele>
        <time>2017-06-08T10:50:33Z</time>
      </trkpt>
      <trkpt lat="44.07012" lon="6.96209">
        <ele>1460</ele>
        <time>2017-06-08T10:50:51Z</time>
      </trkpt>
      <trkpt lat="44.07018" lon="6.96207">
        <ele>1460</ele>
        <time>2017-06-08T10:50:51Z</time>
      </trkpt>
      <trkpt lat="44.07022" lon="6.96207">
        <ele>1460</ele>
        <time>2017-06-08T10:50:51Z</time>
      </trkpt>
      <trkpt lat="44.07027" lon="6.96209">
        <ele>1463</ele>
        <time>2017-06-08T10:50:51Z</time>
      </trkpt>
      <trkpt lat="44.07028" lon="6.96209">
        <ele>1463</ele>
        <time>2017-06-08T10:51:12Z</time>
      </trkpt>
      <trkpt lat="44.0703" lon="6.96207">
        <ele>1460</ele>
        <time>2017-06-08T10:51:12Z</time>
      </trkpt>
      <trkpt lat="44.07031" lon="6.96208">
        <ele>1460</ele>
        <time>2017-06-08T10:51:12Z</time>
      </trkpt>
      <trkpt lat="44.07035" lon="6.96207">
        <ele>1460</ele>
        <time>2017-06-08T10:51:12Z</time>
      </trkpt>
      <trkpt lat="44.07042" lon="6.96201">
        <ele>1461</ele>
        <time>2017-06-08T10:51:12Z</time>
      </trkpt>
      <trkpt lat="44.07043" lon="6.96201">
        <ele>1461</ele>
        <time>2017-06-08T10:51:24Z</time>
      </trkpt>
      <trkpt lat="44.07048" lon="6.96195">
        <ele>1461</ele>
        <time>2017-06-08T10:51:24Z</time>
      </trkpt>
      <trkpt lat="44.07049" lon="6.96194">
        <ele>1461</ele>
        <time>2017-06-08T10:51:25Z</time>
      </trkpt>
      <trkpt lat="44.07051" lon="6.96192">
        <ele>1461</ele>
        <time>2017-06-08T10:51:25Z</time>
      </trkpt>
      <trkpt lat="44.07054" lon="6.9619">
        <ele>1461</ele>
        <time>2017-06-08T10:51:44Z</time>
      </trkpt>
      <trkpt lat="44.07058" lon="6.96186">
        <ele>1461</ele>
        <time>2017-06-08T10:51:44Z</time>
      </trkpt>
      <trkpt lat="44.07062" lon="6.96183">
        <ele>1461</ele>
        <time>2017-06-08T10:51:44Z</time>
      </trkpt>
      <trkpt lat="44.07069" lon="6.96179">
        <ele>1459</ele>
        <time>2017-06-08T10:51:45Z</time>
      </trkpt>
      <trkpt lat="44.07074" lon="6.96177">
        <ele>1459</ele>
        <time>2017-06-08T10:52:02Z</time>
      </trkpt>
      <trkpt lat="44.07077" lon="6.96175">
        <ele>1459</ele>
        <time>2017-06-08T10:52:02Z</time>
      </trkpt>
      <trkpt lat="44.07081" lon="6.96174">
        <ele>1459</ele>
        <time>2017-06-08T10:52:02Z</time>
      </trkpt>
      <trkpt lat="44.07087" lon="6.96172">
        <ele>1459</ele>
        <time>2017-06-08T10:52:02Z</time>
      </trkpt>
      <trkpt lat="44.07089" lon="6.96172">
        <ele>1459</ele>
        <time>2017-06-08T10:52:17Z</time>
      </trkpt>
      <trkpt lat="44.07095" lon="6.96171">
        <ele>1459</ele>
        <time>2017-06-08T10:52:17Z</time>
      </trkpt>
      <trkpt lat="44.07099" lon="6.9617">
        <ele>1463</ele>
        <time>2017-06-08T10:52:18Z</time>
      </trkpt>
      <trkpt lat="44.07103" lon="6.96168">
        <ele>1463</ele>
        <time>2017-06-08T10:52:18Z</time>
      </trkpt>
      <trkpt lat="44.07105" lon="6.96164">
        <ele>1463</ele>
        <time>2017-06-08T10:52:32Z</time>
      </trkpt>
      <trkpt lat="44.0711" lon="6.96161">
        <ele>1463</ele>
        <time>2017-06-08T10:52:33Z</time>
      </trkpt>
      <trkpt lat="44.07114" lon="6.96159">
        <ele>1463</ele>
        <time>2017-06-08T10:52:33Z</time>
      </trkpt>
      <trkpt lat="44.07116" lon="6.96156">
        <ele>1463</ele>
        <time>2017-06-08T10:52:33Z</time>
      </trkpt>
      <trkpt lat="44.0712" lon="6.96151">
        <ele>1462</ele>
        <time>2017-06-08T10:52:51Z</time>
      </trkpt>
      <trkpt lat="44.07124" lon="6.96148">
        <ele>1462</ele>
        <time>2017-06-08T10:52:51Z</time>
      </trkpt>
      <trkpt lat="44.07128" lon="6.9614">
        <ele>1465</ele>
        <time>2017-06-08T10:52:51Z</time>
      </trkpt>
      <trkpt lat="44.07128" lon="6.96137">
        <ele>1465</ele>
        <time>2017-06-08T10:52:51Z</time>
      </trkpt>
      <trkpt lat="44.07129" lon="6.96137">
        <ele>1465</ele>
        <time>2017-06-08T10:53:09Z</time>
      </trkpt>
      <trkpt lat="44.07129" lon="6.96136">
        <ele>1465</ele>
        <time>2017-06-08T10:53:09Z</time>
      </trkpt>
      <trkpt lat="44.07131" lon="6.96135">
        <ele>1465</ele>
        <time>2017-06-08T10:53:09Z</time>
      </trkpt>
      <trkpt lat="44.07134" lon="6.96134">
        <ele>1465</ele>
        <time>2017-06-08T10:53:09Z</time>
      </trkpt>
      <trkpt lat="44.07139" lon="6.96127">
        <ele>1465</ele>
        <time>2017-06-08T10:53:09Z</time>
      </trkpt>
      <trkpt lat="44.07141" lon="6.96121">
        <ele>1465</ele>
        <time>2017-06-08T10:53:24Z</time>
      </trkpt>
      <trkpt lat="44.07143" lon="6.96115">
        <ele>1465</ele>
        <time>2017-06-08T10:53:24Z</time>
      </trkpt>
      <trkpt lat="44.07144" lon="6.96112">
        <ele>1465</ele>
        <time>2017-06-08T10:53:25Z</time>
      </trkpt>
      <trkpt lat="44.07145" lon="6.9611">
        <ele>1465</ele>
        <time>2017-06-08T10:53:25Z</time>
      </trkpt>
      <trkpt lat="44.07153" lon="6.96104">
        <ele>1466</ele>
        <time>2017-06-08T10:53:40Z</time>
      </trkpt>
      <trkpt lat="44.07155" lon="6.96098">
        <ele>1466</ele>
        <time>2017-06-08T10:53:41Z</time>
      </trkpt>
      <trkpt lat="44.07159" lon="6.96093">
        <ele>1462</ele>
        <time>2017-06-08T10:53:41Z</time>
      </trkpt>
      <trkpt lat="44.07164" lon="6.9609">
        <ele>1462</ele>
        <time>2017-06-08T10:53:41Z</time>
      </trkpt>
      <trkpt lat="44.07171" lon="6.96083">
        <ele>1462</ele>
        <time>2017-06-08T10:54:01Z</time>
      </trkpt>
      <trkpt lat="44.07173" lon="6.96081">
        <ele>1462</ele>
        <time>2017-06-08T10:54:01Z</time>
      </trkpt>
      <trkpt lat="44.07175" lon="6.96075">
        <ele>1462</ele>
        <time>2017-06-08T10:54:01Z</time>
      </trkpt>
      <trkpt lat="44.07178" lon="6.96077">
        <ele>1462</ele>
        <time>2017-06-08T10:54:01Z</time>
      </trkpt>
      <trkpt lat="44.07182" lon="6.96074">
        <ele>1462</ele>
        <time>2017-06-08T10:54:01Z</time>
      </trkpt>
      <trkpt lat="44.07185" lon="6.96066">
        <ele>1469</ele>
        <time>2017-06-08T10:54:18Z</time>
      </trkpt>
      <trkpt lat="44.07193" lon="6.96063">
        <ele>1469</ele>
        <time>2017-06-08T10:54:18Z</time>
      </trkpt>
      <trkpt lat="44.07196" lon="6.96062">
        <ele>1469</ele>
        <time>2017-06-08T10:54:19Z</time>
      </trkpt>
      <trkpt lat="44.07205" lon="6.96063">
        <ele>1469</ele>
        <time>2017-06-08T10:54:19Z</time>
      </trkpt>
      <trkpt lat="44.07205" lon="6.96064">
        <ele>1469</ele>
        <time>2017-06-08T10:54:32Z</time>
      </trkpt>
      <trkpt lat="44.07208" lon="6.96065">
        <ele>1469</ele>
        <time>2017-06-08T10:54:33Z</time>
      </trkpt>
      <trkpt lat="44.07211" lon="6.96062">
        <ele>1467</ele>
        <time>2017-06-08T10:54:33Z</time>
      </trkpt>
      <trkpt lat="44.07216" lon="6.96058">
        <ele>1467</ele>
        <time>2017-06-08T10:54:33Z</time>
      </trkpt>
      <trkpt lat="44.07221" lon="6.96053">
        <ele>1467</ele>
        <time>2017-06-08T10:55:02Z</time>
      </trkpt>
      <trkpt lat="44.07229" lon="6.96047">
        <ele>1467</ele>
        <time>2017-06-08T10:55:02Z</time>
      </trkpt>
      <trkpt lat="44.07229" lon="6.96043">
        <ele>1467</ele>
        <time>2017-06-08T10:55:02Z</time>
      </trkpt>
      <trkpt lat="44.07231" lon="6.96038">
        <ele>1477</ele>
        <time>2017-06-08T10:55:02Z</time>
      </trkpt>
      <trkpt lat="44.07232" lon="6.96036">
        <ele>1477</ele>
        <time>2017-06-08T10:55:02Z</time>
      </trkpt>
      <trkpt lat="44.07236" lon="6.96035">
        <ele>1476</ele>
        <time>2017-06-08T10:55:19Z</time>
      </trkpt>
      <trkpt lat="44.07242" lon="6.96025">
        <ele>1476</ele>
        <time>2017-06-08T10:55:19Z</time>
      </trkpt>
      <trkpt lat="44.07244" lon="6.96024">
        <ele>1476</ele>
        <time>2017-06-08T10:55:19Z</time>
      </trkpt>
      <trkpt lat="44.07246" lon="6.96021">
        <ele>1476</ele>
        <time>2017-06-08T10:55:19Z</time>
      </trkpt>
      <trkpt lat="44.07248" lon="6.96018">
        <ele>1476</ele>
        <time>2017-06-08T10:55:32Z</time>
      </trkpt>
      <trkpt lat="44.07253" lon="6.96014">
        <ele>1476</ele>
        <time>2017-06-08T10:55:33Z</time>
      </trkpt>
      <trkpt lat="44.07255" lon="6.96015">
        <ele>1476</ele>
        <time>2017-06-08T10:55:33Z</time>
      </trkpt>
      <trkpt lat="44.07259" lon="6.9601">
        <ele>1484</ele>
        <time>2017-06-08T10:55:33Z</time>
      </trkpt>
      <trkpt lat="44.07263" lon="6.96009">
        <ele>1484</ele>
        <time>2017-06-08T10:55:50Z</time>
      </trkpt>
      <trkpt lat="44.07266" lon="6.96008">
        <ele>1478</ele>
        <time>2017-06-08T10:55:50Z</time>
      </trkpt>
      <trkpt lat="44.07274" lon="6.96001">
        <ele>1478</ele>
        <time>2017-06-08T10:55:50Z</time>
      </trkpt>
      <trkpt lat="44.07277" lon="6.95994">
        <ele>1478</ele>
        <time>2017-06-08T10:55:50Z</time>
      </trkpt>
      <trkpt lat="44.0728" lon="6.95995">
        <ele>1478</ele>
        <time>2017-06-08T10:56:04Z</time>
      </trkpt>
      <trkpt lat="44.07282" lon="6.95991">
        <ele>1478</ele>
        <time>2017-06-08T10:56:05Z</time>
      </trkpt>
      <trkpt lat="44.07285" lon="6.9599">
        <ele>1478</ele>
        <time>2017-06-08T10:56:05Z</time>
      </trkpt>
      <trkpt lat="44.07289" lon="6.95988">
        <ele>1478</ele>
        <time>2017-06-08T10:56:05Z</time>
      </trkpt>
      <trkpt lat="44.07295" lon="6.95984">
        <ele>1481</ele>
        <time>2017-06-08T10:56:22Z</time>
      </trkpt>
      <trkpt lat="44.07298" lon="6.95982">
        <ele>1481</ele>
        <time>2017-06-08T10:56:22Z</time>
      </trkpt>
      <trkpt lat="44.073" lon="6.95981">
        <ele>1481</ele>
        <time>2017-06-08T10:56:22Z</time>
      </trkpt>
      <trkpt lat="44.07306" lon="6.95977">
        <ele>1481</ele>
        <time>2017-06-08T10:56:22Z</time>
      </trkpt>
      <trkpt lat="44.0731" lon="6.95974">
        <ele>1481</ele>
        <time>2017-06-08T10:56:42Z</time>
      </trkpt>
      <trkpt lat="44.07312" lon="6.95971">
        <ele>1481</ele>
        <time>2017-06-08T10:56:42Z</time>
      </trkpt>
      <trkpt lat="44.07312" lon="6.95971">
        <ele>1481</ele>
        <time>2017-06-08T10:56:42Z</time>
      </trkpt>
      <trkpt lat="44.07316" lon="6.95967">
        <ele>1481</ele>
        <time>2017-06-08T10:56:42Z</time>
      </trkpt>
      <trkpt lat="44.07318" lon="6.95965">
        <ele>1481</ele>
        <time>2017-06-08T10:56:42Z</time>
      </trkpt>
      <trkpt lat="44.07323" lon="6.95961">
        <ele>1483</ele>
        <time>2017-06-08T10:56:59Z</time>
      </trkpt>
      <trkpt lat="44.07326" lon="6.95953">
        <ele>1483</ele>
        <time>2017-06-08T10:56:59Z</time>
      </trkpt>
      <trkpt lat="44.07331" lon="6.95951">
        <ele>1483</ele>
        <time>2017-06-08T10:56:59Z</time>
      </trkpt>
      <trkpt lat="44.07338" lon="6.95948">
        <ele>1483</ele>
        <time>2017-06-08T10:56:59Z</time>
      </trkpt>
      <trkpt lat="44.07338" lon="6.95948">
        <ele>1483</ele>
        <time>2017-06-08T10:57:12Z</time>
      </trkpt>
      <trkpt lat="44.0734" lon="6.95945">
        <ele>1483</ele>
        <time>2017-06-08T10:57:13Z</time>
      </trkpt>
      <trkpt lat="44.07344" lon="6.95939">
        <ele>1483</ele>
        <time>2017-06-08T10:57:13Z</time>
      </trkpt>
      <trkpt lat="44.07344" lon="6.95937">
        <ele>1483</ele>
        <time>2017-06-08T10:57:13Z</time>
      </trkpt>
      <trkpt lat="44.07348" lon="6.95933">
        <ele>1482</ele>
        <time>2017-06-08T10:57:29Z</time>
      </trkpt>
      <trkpt lat="44.07352" lon="6.95929">
        <ele>1481</ele>
        <time>2017-06-08T10:57:29Z</time>
      </trkpt>
      <trkpt lat="44.07356" lon="6.95927">
        <ele>1481</ele>
        <time>2017-06-08T10:57:29Z</time>
      </trkpt>
      <trkpt lat="44.07356" lon="6.95927">
        <ele>1481</ele>
        <time>2017-06-08T10:57:29Z</time>
      </trkpt>
      <trkpt lat="44.07363" lon="6.95923">
        <ele>1481</ele>
        <time>2017-06-08T10:57:48Z</time>
      </trkpt>
      <trkpt lat="44.07364" lon="6.95924">
        <ele>1481</ele>
        <time>2017-06-08T10:57:49Z</time>
      </trkpt>
      <trkpt lat="44.07367" lon="6.95922">
        <ele>1481</ele>
        <time>2017-06-08T10:57:49Z</time>
      </trkpt>
      <trkpt lat="44.07369" lon="6.95922">
        <ele>1481</ele>
        <time>2017-06-08T10:57:49Z</time>
      </trkpt>
      <trkpt lat="44.07372" lon="6.95924">
        <ele>1481</ele>
        <time>2017-06-08T10:57:49Z</time>
      </trkpt>
      <trkpt lat="44.07378" lon="6.95922">
        <ele>1481</ele>
        <time>2017-06-08T10:58:04Z</time>
      </trkpt>
      <trkpt lat="44.07384" lon="6.95921">
        <ele>1481</ele>
        <time>2017-06-08T10:58:05Z</time>
      </trkpt>
      <trkpt lat="44.07388" lon="6.9592">
        <ele>1481</ele>
        <time>2017-06-08T10:58:05Z</time>
      </trkpt>
      <trkpt lat="44.0739" lon="6.9592">
        <ele>1481</ele>
        <time>2017-06-08T10:58:05Z</time>
      </trkpt>
      <trkpt lat="44.0739" lon="6.95921">
        <ele>1481</ele>
        <time>2017-06-08T10:58:20Z</time>
      </trkpt>
      <trkpt lat="44.07398" lon="6.95914">
        <ele>1481</ele>
        <time>2017-06-08T10:58:20Z</time>
      </trkpt>
      <trkpt lat="44.07403" lon="6.95909">
        <ele>1481</ele>
        <time>2017-06-08T10:58:21Z</time>
      </trkpt>
      <trkpt lat="44.07405" lon="6.95907">
        <ele>1481</ele>
        <time>2017-06-08T10:58:21Z</time>
      </trkpt>
      <trkpt lat="44.0741" lon="6.95903">
        <ele>1481</ele>
        <time>2017-06-08T10:58:38Z</time>
      </trkpt>
      <trkpt lat="44.07414" lon="6.95898">
        <ele>1483</ele>
        <time>2017-06-08T10:58:38Z</time>
      </trkpt>
      <trkpt lat="44.07417" lon="6.95896">
        <ele>1483</ele>
        <time>2017-06-08T10:58:38Z</time>
      </trkpt>
      <trkpt lat="44.07424" lon="6.95894">
        <ele>1483</ele>
        <time>2017-06-08T10:58:39Z</time>
      </trkpt>
      <trkpt lat="44.07428" lon="6.95891">
        <ele>1483</ele>
        <time>2017-06-08T10:59:08Z</time>
      </trkpt>
      <trkpt lat="44.07428" lon="6.95891">
        <ele>1483</ele>
        <time>2017-06-08T10:59:08Z</time>
      </trkpt>
      <trkpt lat="44.07429" lon="6.95891">
        <ele>1483</ele>
        <time>2017-06-08T10:59:08Z</time>
      </trkpt>
      <trkpt lat="44.07433" lon="6.95889">
        <ele>1479</ele>
        <time>2017-06-08T10:59:08Z</time>
      </trkpt>
      <trkpt lat="44.07445" lon="6.95883">
        <ele>1479</ele>
        <time>2017-06-08T10:59:08Z</time>
      </trkpt>
      <trkpt lat="44.07446" lon="6.95882">
        <ele>1479</ele>
        <time>2017-06-08T10:59:22Z</time>
      </trkpt>
      <trkpt lat="44.07452" lon="6.95881">
        <ele>1479</ele>
        <time>2017-06-08T10:59:23Z</time>
      </trkpt>
      <trkpt lat="44.0746" lon="6.95879">
        <ele>1478</ele>
        <time>2017-06-08T10:59:23Z</time>
      </trkpt>
      <trkpt lat="44.07468" lon="6.95878">
        <ele>1478</ele>
        <time>2017-06-08T10:59:23Z</time>
      </trkpt>
      <trkpt lat="44.07469" lon="6.95878">
        <ele>1478</ele>
        <time>2017-06-08T10:59:38Z</time>
      </trkpt>
      <trkpt lat="44.07479" lon="6.95875">
        <ele>1478</ele>
        <time>2017-06-08T10:59:38Z</time>
      </trkpt>
      <trkpt lat="44.07481" lon="6.95875">
        <ele>1486</ele>
        <time>2017-06-08T10:59:38Z</time>
      </trkpt>
      <trkpt lat="44.07488" lon="6.95873">
        <ele>1481</ele>
        <time>2017-06-08T10:59:39Z</time>
      </trkpt>
      <trkpt lat="44.07491" lon="6.95873">
        <ele>1481</ele>
        <time>2017-06-08T10:59:55Z</time>
      </trkpt>
      <trkpt lat="44.07493" lon="6.95873">
        <ele>1481</ele>
        <time>2017-06-08T10:59:55Z</time>
      </trkpt>
      <trkpt lat="44.07497" lon="6.95869">
        <ele>1481</ele>
        <time>2017-06-08T10:59:55Z</time>
      </trkpt>
      <trkpt lat="44.07501" lon="6.95869">
        <ele>1481</ele>
        <time>2017-06-08T10:59:55Z</time>
      </trkpt>
      <trkpt lat="44.07504" lon="6.95868">
        <ele>1481</ele>
        <time>2017-06-08T11:00:11Z</time>
      </trkpt>
      <trkpt lat="44.0751" lon="6.95865">
        <ele>1481</ele>
        <time>2017-06-08T11:00:11Z</time>
      </trkpt>
      <trkpt lat="44.07513" lon="6.95866">
        <ele>1481</ele>
        <time>2017-06-08T11:00:11Z</time>
      </trkpt>
      <trkpt lat="44.07516" lon="6.95866">
        <ele>1482</ele>
        <time>2017-06-08T11:00:11Z</time>
      </trkpt>
      <trkpt lat="44.07519" lon="6.95863">
        <ele>1482</ele>
        <time>2017-06-08T11:00:27Z</time>
      </trkpt>
      <trkpt lat="44.07525" lon="6.9586">
        <ele>1482</ele>
        <time>2017-06-08T11:00:27Z</time>
      </trkpt>
      <trkpt lat="44.07526" lon="6.9586">
        <ele>1482</ele>
        <time>2017-06-08T11:00:28Z</time>
      </trkpt>
      <trkpt lat="44.07528" lon="6.95857">
        <ele>1482</ele>
        <time>2017-06-08T11:00:28Z</time>
      </trkpt>
      <trkpt lat="44.0753" lon="6.95856">
        <ele>1482</ele>
        <time>2017-06-08T11:00:40Z</time>
      </trkpt>
      <trkpt lat="44.07533" lon="6.95852">
        <ele>1482</ele>
        <time>2017-06-08T11:00:40Z</time>
      </trkpt>
      <trkpt lat="44.07532" lon="6.95846">
        <ele>1485</ele>
        <time>2017-06-08T11:00:41Z</time>
      </trkpt>
      <trkpt lat="44.07537" lon="6.95845">
        <ele>1485</ele>
        <time>2017-06-08T11:00:41Z</time>
      </trkpt>
      <trkpt lat="44.0754" lon="6.95842">
        <ele>1485</ele>
        <time>2017-06-08T11:01:56Z</time>
      </trkpt>
      <trkpt lat="44.07541" lon="6.95839">
        <ele>1485</ele>
        <time>2017-06-08T11:01:56Z</time>
      </trkpt>
      <trkpt lat="44.07543" lon="6.95834">
        <ele>1480</ele>
        <time>2017-06-08T11:01:57Z</time>
      </trkpt>
      <trkpt lat="44.0754" lon="6.95831">
        <ele>1485</ele>
        <time>2017-06-08T11:01:57Z</time>
      </trkpt>
      <trkpt lat="44.0754" lon="6.95828">
        <ele>1485</ele>
        <time>2017-06-08T11:01:57Z</time>
      </trkpt>
      <trkpt lat="44.07538" lon="6.95835">
        <ele>1485</ele>
        <time>2017-06-08T11:03:24Z</time>
      </trkpt>
      <trkpt lat="44.07537" lon="6.95836">
        <ele>1485</ele>
        <time>2017-06-08T11:03:24Z</time>
      </trkpt>
      <trkpt lat="44.07538" lon="6.95838">
        <ele>1485</ele>
        <time>2017-06-08T11:03:24Z</time>
      </trkpt>
      <trkpt lat="44.07537" lon="6.9584">
        <ele>1485</ele>
        <time>2017-06-08T11:03:25Z</time>
      </trkpt>
      <trkpt lat="44.0754" lon="6.95841">
        <ele>1485</ele>
        <time>2017-06-08T11:03:25Z</time>
      </trkpt>
      <trkpt lat="44.07541" lon="6.95841">
        <ele>1485</ele>
        <time>2017-06-08T11:05:36Z</time>
      </trkpt>
      <trkpt lat="44.07549" lon="6.9584">
        <ele>1480</ele>
        <time>2017-06-08T11:05:36Z</time>
      </trkpt>
      <trkpt lat="44.07549" lon="6.95836">
        <ele>1480</ele>
        <time>2017-06-08T11:05:36Z</time>
      </trkpt>
      <trkpt lat="44.0755" lon="6.95829">
        <ele>1480</ele>
        <time>2017-06-08T11:05:37Z</time>
      </trkpt>
      <trkpt lat="44.07555" lon="6.95824">
        <ele>1480</ele>
        <time>2017-06-08T11:05:37Z</time>
      </trkpt>
      <trkpt lat="44.07552" lon="6.95824">
        <ele>1480</ele>
        <time>2017-06-08T11:06:24Z</time>
      </trkpt>
      <trkpt lat="44.07541" lon="6.95848">
        <ele>1482</ele>
        <time>2017-06-08T11:06:25Z</time>
      </trkpt>
      <trkpt lat="44.0753" lon="6.95838">
        <ele>1485</ele>
        <time>2017-06-08T11:06:25Z</time>
      </trkpt>
      <trkpt lat="44.07528" lon="6.95833">
        <ele>1485</ele>
        <time>2017-06-08T11:06:25Z</time>
      </trkpt>
      <trkpt lat="44.07526" lon="6.95827">
        <ele>1485</ele>
        <time>2017-06-08T11:06:25Z</time>
      </trkpt>
      <trkpt lat="44.07516" lon="6.95828">
        <ele>1485</ele>
        <time>2017-06-08T11:06:40Z</time>
      </trkpt>
      <trkpt lat="44.07514" lon="6.95825">
        <ele>1485</ele>
        <time>2017-06-08T11:06:40Z</time>
      </trkpt>
      <trkpt lat="44.07507" lon="6.95826">
        <ele>1492</ele>
        <time>2017-06-08T11:06:41Z</time>
      </trkpt>
      <trkpt lat="44.07508" lon="6.95821">
        <ele>1492</ele>
        <time>2017-06-08T11:06:41Z</time>
      </trkpt>
      <trkpt lat="44.07505" lon="6.9582">
        <ele>1492</ele>
        <time>2017-06-08T11:06:56Z</time>
      </trkpt>
      <trkpt lat="44.07494" lon="6.95827">
        <ele>1492</ele>
        <time>2017-06-08T11:06:56Z</time>
      </trkpt>
      <trkpt lat="44.07492" lon="6.95825">
        <ele>1492</ele>
        <time>2017-06-08T11:06:56Z</time>
      </trkpt>
      <trkpt lat="44.07485" lon="6.95824">
        <ele>1499</ele>
        <time>2017-06-08T11:06:57Z</time>
      </trkpt>
      <trkpt lat="44.07479" lon="6.95823">
        <ele>1499</ele>
        <time>2017-06-08T11:07:12Z</time>
      </trkpt>
      <trkpt lat="44.07476" lon="6.95828">
        <ele>1499</ele>
        <time>2017-06-08T11:07:12Z</time>
      </trkpt>
      <trkpt lat="44.07469" lon="6.9583">
        <ele>1499</ele>
        <time>2017-06-08T11:07:13Z</time>
      </trkpt>
      <trkpt lat="44.07463" lon="6.95831">
        <ele>1499</ele>
        <time>2017-06-08T11:07:13Z</time>
      </trkpt>
      <trkpt lat="44.0746" lon="6.95839">
        <ele>1499</ele>
        <time>2017-06-08T11:07:28Z</time>
      </trkpt>
      <trkpt lat="44.07457" lon="6.9584">
        <ele>1504</ele>
        <time>2017-06-08T11:07:29Z</time>
      </trkpt>
      <trkpt lat="44.07455" lon="6.95835">
        <ele>1504</ele>
        <time>2017-06-08T11:07:29Z</time>
      </trkpt>
      <trkpt lat="44.07448" lon="6.9584">
        <ele>1504</ele>
        <time>2017-06-08T11:07:29Z</time>
      </trkpt>
      <trkpt lat="44.07449" lon="6.95836">
        <ele>1504</ele>
        <time>2017-06-08T11:07:44Z</time>
      </trkpt>
      <trkpt lat="44.07441" lon="6.95838">
        <ele>1504</ele>
        <time>2017-06-08T11:07:44Z</time>
      </trkpt>
      <trkpt lat="44.07437" lon="6.95847">
        <ele>1504</ele>
        <time>2017-06-08T11:07:45Z</time>
      </trkpt>
      <trkpt lat="44.07428" lon="6.9584">
        <ele>1505</ele>
        <time>2017-06-08T11:07:45Z</time>
      </trkpt>
      <trkpt lat="44.07428" lon="6.95845">
        <ele>1505</ele>
        <time>2017-06-08T11:08:00Z</time>
      </trkpt>
      <trkpt lat="44.07425" lon="6.95852">
        <ele>1491</ele>
        <time>2017-06-08T11:08:01Z</time>
      </trkpt>
      <trkpt lat="44.07421" lon="6.95845">
        <ele>1505</ele>
        <time>2017-06-08T11:08:01Z</time>
      </trkpt>
      <trkpt lat="44.0742" lon="6.95856">
        <ele>1491</ele>
        <time>2017-06-08T11:08:01Z</time>
      </trkpt>
      <trkpt lat="44.07388" lon="6.95875">
        <ele>1492</ele>
        <time>2017-06-08T11:08:48Z</time>
      </trkpt>
      <trkpt lat="44.07385" lon="6.95877">
        <ele>1484</ele>
        <time>2017-06-08T11:08:49Z</time>
      </trkpt>
      <trkpt lat="44.07381" lon="6.95875">
        <ele>1484</ele>
        <time>2017-06-08T11:08:49Z</time>
      </trkpt>
      <trkpt lat="44.07372" lon="6.95873">
        <ele>1505</ele>
        <time>2017-06-08T11:08:49Z</time>
      </trkpt>
      <trkpt lat="44.07367" lon="6.9587">
        <ele>1505</ele>
        <time>2017-06-08T11:08:49Z</time>
      </trkpt>
      <trkpt lat="44.07364" lon="6.95873">
        <ele>1505</ele>
        <time>2017-06-08T11:09:08Z</time>
      </trkpt>
      <trkpt lat="44.0736" lon="6.95872">
        <ele>1505</ele>
        <time>2017-06-08T11:09:09Z</time>
      </trkpt>
      <trkpt lat="44.07359" lon="6.95875">
        <ele>1505</ele>
        <time>2017-06-08T11:09:09Z</time>
      </trkpt>
      <trkpt lat="44.07356" lon="6.9587">
        <ele>1505</ele>
        <time>2017-06-08T11:09:09Z</time>
      </trkpt>
      <trkpt lat="44.07351" lon="6.95866">
        <ele>1505</ele>
        <time>2017-06-08T11:09:09Z</time>
      </trkpt>
      <trkpt lat="44.07345" lon="6.95865">
        <ele>1515</ele>
        <time>2017-06-08T11:09:24Z</time>
      </trkpt>
      <trkpt lat="44.07341" lon="6.9587">
        <ele>1515</ele>
        <time>2017-06-08T11:09:25Z</time>
      </trkpt>
      <trkpt lat="44.07337" lon="6.95871">
        <ele>1515</ele>
        <time>2017-06-08T11:09:25Z</time>
      </trkpt>
      <trkpt lat="44.07332" lon="6.95874">
        <ele>1515</ele>
        <time>2017-06-08T11:09:25Z</time>
      </trkpt>
      <trkpt lat="44.07331" lon="6.95879">
        <ele>1496</ele>
        <time>2017-06-08T11:10:00Z</time>
      </trkpt>
      <trkpt lat="44.07331" lon="6.95878">
        <ele>1496</ele>
        <time>2017-06-08T11:10:00Z</time>
      </trkpt>
      <trkpt lat="44.07331" lon="6.95879">
        <ele>1496</ele>
        <time>2017-06-08T11:10:01Z</time>
      </trkpt>
      <trkpt lat="44.07325" lon="6.95878">
        <ele>1496</ele>
        <time>2017-06-08T11:10:01Z</time>
      </trkpt>
      <trkpt lat="44.07317" lon="6.95886">
        <ele>1505</ele>
        <time>2017-06-08T11:10:01Z</time>
      </trkpt>
      <trkpt lat="44.07307" lon="6.95888">
        <ele>1505</ele>
        <time>2017-06-08T11:10:16Z</time>
      </trkpt>
      <trkpt lat="44.07303" lon="6.9589">
        <ele>1505</ele>
        <time>2017-06-08T11:10:16Z</time>
      </trkpt>
      <trkpt lat="44.07295" lon="6.9589">
        <ele>1505</ele>
        <time>2017-06-08T11:10:17Z</time>
      </trkpt>
      <trkpt lat="44.07289" lon="6.95889">
        <ele>1513</ele>
        <time>2017-06-08T11:10:17Z</time>
      </trkpt>
      <trkpt lat="44.07285" lon="6.95886">
        <ele>1513</ele>
        <time>2017-06-08T11:10:32Z</time>
      </trkpt>
      <trkpt lat="44.07281" lon="6.95889">
        <ele>1513</ele>
        <time>2017-06-08T11:10:32Z</time>
      </trkpt>
      <trkpt lat="44.07278" lon="6.95886">
        <ele>1513</ele>
        <time>2017-06-08T11:10:33Z</time>
      </trkpt>
      <trkpt lat="44.07272" lon="6.9589">
        <ele>1513</ele>
        <time>2017-06-08T11:10:33Z</time>
      </trkpt>
      <trkpt lat="44.07267" lon="6.9589">
        <ele>1513</ele>
        <time>2017-06-08T11:10:48Z</time>
      </trkpt>
      <trkpt lat="44.07264" lon="6.95892">
        <ele>1520</ele>
        <time>2017-06-08T11:10:49Z</time>
      </trkpt>
      <trkpt lat="44.07261" lon="6.95893">
        <ele>1520</ele>
        <time>2017-06-08T11:10:49Z</time>
      </trkpt>
      <trkpt lat="44.07256" lon="6.95892">
        <ele>1520</ele>
        <time>2017-06-08T11:10:49Z</time>
      </trkpt>
      <trkpt lat="44.07253" lon="6.95891">
        <ele>1520</ele>
        <time>2017-06-08T11:11:04Z</time>
      </trkpt>
      <trkpt lat="44.07253" lon="6.95892">
        <ele>1520</ele>
        <time>2017-06-08T11:11:04Z</time>
      </trkpt>
      <trkpt lat="44.07248" lon="6.95894">
        <ele>1520</ele>
        <time>2017-06-08T11:11:05Z</time>
      </trkpt>
      <trkpt lat="44.07244" lon="6.95898">
        <ele>1520</ele>
        <time>2017-06-08T11:11:05Z</time>
      </trkpt>
      <trkpt lat="44.0724" lon="6.95904">
        <ele>1508</ele>
        <time>2017-06-08T11:11:20Z</time>
      </trkpt>
      <trkpt lat="44.07239" lon="6.95906">
        <ele>1508</ele>
        <time>2017-06-08T11:11:20Z</time>
      </trkpt>
      <trkpt lat="44.07234" lon="6.95905">
        <ele>1515</ele>
        <time>2017-06-08T11:11:21Z</time>
      </trkpt>
      <trkpt lat="44.07227" lon="6.95905">
        <ele>1515</ele>
        <time>2017-06-08T11:11:21Z</time>
      </trkpt>
      <trkpt lat="44.07221" lon="6.95907">
        <ele>1515</ele>
        <time>2017-06-08T11:11:36Z</time>
      </trkpt>
      <trkpt lat="44.07217" lon="6.95909">
        <ele>1515</ele>
        <time>2017-06-08T11:11:36Z</time>
      </trkpt>
      <trkpt lat="44.07213" lon="6.95916">
        <ele>1515</ele>
        <time>2017-06-08T11:11:37Z</time>
      </trkpt>
      <trkpt lat="44.0721" lon="6.95916">
        <ele>1515</ele>
        <time>2017-06-08T11:11:37Z</time>
      </trkpt>
      <trkpt lat="44.07207" lon="6.95914">
        <ele>1517</ele>
        <time>2017-06-08T11:11:52Z</time>
      </trkpt>
      <trkpt lat="44.07203" lon="6.95919">
        <ele>1517</ele>
        <time>2017-06-08T11:11:53Z</time>
      </trkpt>
      <trkpt lat="44.07197" lon="6.95924">
        <ele>1517</ele>
        <time>2017-06-08T11:11:53Z</time>
      </trkpt>
      <trkpt lat="44.07191" lon="6.95923">
        <ele>1517</ele>
        <time>2017-06-08T11:11:53Z</time>
      </trkpt>
      <trkpt lat="44.07187" lon="6.95922">
        <ele>1517</ele>
        <time>2017-06-08T11:12:08Z</time>
      </trkpt>
      <trkpt lat="44.07181" lon="6.95925">
        <ele>1517</ele>
        <time>2017-06-08T11:12:08Z</time>
      </trkpt>
      <trkpt lat="44.07177" lon="6.95924">
        <ele>1509</ele>
        <time>2017-06-08T11:12:09Z</time>
      </trkpt>
      <trkpt lat="44.07174" lon="6.95924">
        <ele>1509</ele>
        <time>2017-06-08T11:12:09Z</time>
      </trkpt>
      <trkpt lat="44.07172" lon="6.95916">
        <ele>1509</ele>
        <time>2017-06-08T11:12:24Z</time>
      </trkpt>
      <trkpt lat="44.07168" lon="6.95912">
        <ele>1509</ele>
        <time>2017-06-08T11:12:24Z</time>
      </trkpt>
      <trkpt lat="44.07169" lon="6.95912">
        <ele>1509</ele>
        <time>2017-06-08T11:12:25Z</time>
      </trkpt>
      <trkpt lat="44.07163" lon="6.95913">
        <ele>1509</ele>
        <time>2017-06-08T11:12:25Z</time>
      </trkpt>
      <trkpt lat="44.07159" lon="6.95911">
        <ele>1509</ele>
        <time>2017-06-08T11:12:40Z</time>
      </trkpt>
      <trkpt lat="44.07156" lon="6.95905">
        <ele>1509</ele>
        <time>2017-06-08T11:12:40Z</time>
      </trkpt>
      <trkpt lat="44.07153" lon="6.95897">
        <ele>1508</ele>
        <time>2017-06-08T11:12:40Z</time>
      </trkpt>
      <trkpt lat="44.07148" lon="6.95895">
        <ele>1508</ele>
        <time>2017-06-08T11:12:41Z</time>
      </trkpt>
      <trkpt lat="44.07145" lon="6.9589">
        <ele>1508</ele>
        <time>2017-06-08T11:12:56Z</time>
      </trkpt>
      <trkpt lat="44.07141" lon="6.95884">
        <ele>1508</ele>
        <time>2017-06-08T11:12:57Z</time>
      </trkpt>
      <trkpt lat="44.07138" lon="6.9588">
        <ele>1508</ele>
        <time>2017-06-08T11:12:57Z</time>
      </trkpt>
      <trkpt lat="44.07138" lon="6.95871">
        <ele>1519</ele>
        <time>2017-06-08T11:12:57Z</time>
      </trkpt>
      <trkpt lat="44.07137" lon="6.95873">
        <ele>1519</ele>
        <time>2017-06-08T11:13:12Z</time>
      </trkpt>
      <trkpt lat="44.07136" lon="6.95868">
        <ele>1519</ele>
        <time>2017-06-08T11:13:12Z</time>
      </trkpt>
      <trkpt lat="44.07136" lon="6.95865">
        <ele>1519</ele>
        <time>2017-06-08T11:13:13Z</time>
      </trkpt>
      <trkpt lat="44.07135" lon="6.95858">
        <ele>1519</ele>
        <time>2017-06-08T11:13:13Z</time>
      </trkpt>
      <trkpt lat="44.07133" lon="6.95854">
        <ele>1519</ele>
        <time>2017-06-08T11:13:28Z</time>
      </trkpt>
      <trkpt lat="44.07131" lon="6.95847">
        <ele>1530</ele>
        <time>2017-06-08T11:13:28Z</time>
      </trkpt>
      <trkpt lat="44.07131" lon="6.95839">
        <ele>1530</ele>
        <time>2017-06-08T11:13:29Z</time>
      </trkpt>
      <trkpt lat="44.07137" lon="6.95838">
        <ele>1530</ele>
        <time>2017-06-08T11:13:29Z</time>
      </trkpt>
      <trkpt lat="44.07138" lon="6.95836">
        <ele>1530</ele>
        <time>2017-06-08T11:13:51Z</time>
      </trkpt>
      <trkpt lat="44.07141" lon="6.95833">
        <ele>1530</ele>
        <time>2017-06-08T11:13:52Z</time>
      </trkpt>
      <trkpt lat="44.07136" lon="6.9583">
        <ele>1530</ele>
        <time>2017-06-08T11:13:52Z</time>
      </trkpt>
      <trkpt lat="44.07134" lon="6.95829">
        <ele>1530</ele>
        <time>2017-06-08T11:13:52Z</time>
      </trkpt>
      <trkpt lat="44.07122" lon="6.9583">
        <ele>1531</ele>
        <time>2017-06-08T11:13:52Z</time>
      </trkpt>
      <trkpt lat="44.07123" lon="6.9583">
        <ele>1531</ele>
        <time>2017-06-08T11:14:05Z</time>
      </trkpt>
      <trkpt lat="44.07117" lon="6.95834">
        <ele>1531</ele>
        <time>2017-06-08T11:14:05Z</time>
      </trkpt>
      <trkpt lat="44.07113" lon="6.95837">
        <ele>1531</ele>
        <time>2017-06-08T11:14:06Z</time>
      </trkpt>
      <trkpt lat="44.07109" lon="6.95841">
        <ele>1531</ele>
        <time>2017-06-08T11:14:06Z</time>
      </trkpt>
      <trkpt lat="44.07105" lon="6.95844">
        <ele>1531</ele>
        <time>2017-06-08T11:14:21Z</time>
      </trkpt>
      <trkpt lat="44.07101" lon="6.95847">
        <ele>1531</ele>
        <time>2017-06-08T11:14:21Z</time>
      </trkpt>
      <trkpt lat="44.07098" lon="6.95847">
        <ele>1531</ele>
        <time>2017-06-08T11:14:21Z</time>
      </trkpt>
      <trkpt lat="44.07096" lon="6.95848">
        <ele>1539</ele>
        <time>2017-06-08T11:14:22Z</time>
      </trkpt>
      <trkpt lat="44.07093" lon="6.95851">
        <ele>1539</ele>
        <time>2017-06-08T11:14:42Z</time>
      </trkpt>
      <trkpt lat="44.07091" lon="6.95853">
        <ele>1539</ele>
        <time>2017-06-08T11:14:42Z</time>
      </trkpt>
      <trkpt lat="44.07087" lon="6.95855">
        <ele>1539</ele>
        <time>2017-06-08T11:14:42Z</time>
      </trkpt>
      <trkpt lat="44.07085" lon="6.95854">
        <ele>1539</ele>
        <time>2017-06-08T11:14:42Z</time>
      </trkpt>
      <trkpt lat="44.07081" lon="6.95856">
        <ele>1539</ele>
        <time>2017-06-08T11:14:42Z</time>
      </trkpt>
      <trkpt lat="44.0708" lon="6.9586">
        <ele>1539</ele>
        <time>2017-06-08T11:14:58Z</time>
      </trkpt>
      <trkpt lat="44.07077" lon="6.95864">
        <ele>1539</ele>
        <time>2017-06-08T11:14:58Z</time>
      </trkpt>
      <trkpt lat="44.07074" lon="6.9587">
        <ele>1539</ele>
        <time>2017-06-08T11:14:58Z</time>
      </trkpt>
      <trkpt lat="44.07072" lon="6.95877">
        <ele>1531</ele>
        <time>2017-06-08T11:14:58Z</time>
      </trkpt>
      <trkpt lat="44.07071" lon="6.95879">
        <ele>1531</ele>
        <time>2017-06-08T11:15:15Z</time>
      </trkpt>
      <trkpt lat="44.07069" lon="6.95884">
        <ele>1541</ele>
        <time>2017-06-08T11:15:15Z</time>
      </trkpt>
      <trkpt lat="44.07068" lon="6.95888">
        <ele>1541</ele>
        <time>2017-06-08T11:15:15Z</time>
      </trkpt>
      <trkpt lat="44.07065" lon="6.95895">
        <ele>1541</ele>
        <time>2017-06-08T11:15:16Z</time>
      </trkpt>
      <trkpt lat="44.07064" lon="6.95896">
        <ele>1541</ele>
        <time>2017-06-08T11:15:28Z</time>
      </trkpt>
      <trkpt lat="44.0706" lon="6.959">
        <ele>1541</ele>
        <time>2017-06-08T11:15:29Z</time>
      </trkpt>
      <trkpt lat="44.07057" lon="6.95906">
        <ele>1530</ele>
        <time>2017-06-08T11:15:29Z</time>
      </trkpt>
      <trkpt lat="44.07055" lon="6.9591">
        <ele>1530</ele>
        <time>2017-06-08T11:15:29Z</time>
      </trkpt>
      <trkpt lat="44.07051" lon="6.95915">
        <ele>1530</ele>
        <time>2017-06-08T11:15:46Z</time>
      </trkpt>
      <trkpt lat="44.07048" lon="6.95918">
        <ele>1530</ele>
        <time>2017-06-08T11:15:46Z</time>
      </trkpt>
      <trkpt lat="44.07045" lon="6.95919">
        <ele>1530</ele>
        <time>2017-06-08T11:15:46Z</time>
      </trkpt>
      <trkpt lat="44.07043" lon="6.95923">
        <ele>1530</ele>
        <time>2017-06-08T11:15:46Z</time>
      </trkpt>
      <trkpt lat="44.0704" lon="6.95928">
        <ele>1542</ele>
        <time>2017-06-08T11:16:01Z</time>
      </trkpt>
      <trkpt lat="44.07037" lon="6.95935">
        <ele>1532</ele>
        <time>2017-06-08T11:16:01Z</time>
      </trkpt>
      <trkpt lat="44.07037" lon="6.95935">
        <ele>1532</ele>
        <time>2017-06-08T11:16:01Z</time>
      </trkpt>
      <trkpt lat="44.07029" lon="6.95943">
        <ele>1532</ele>
        <time>2017-06-08T11:16:01Z</time>
      </trkpt>
      <trkpt lat="44.07027" lon="6.95949">
        <ele>1532</ele>
        <time>2017-06-08T11:16:22Z</time>
      </trkpt>
      <trkpt lat="44.07025" lon="6.95948">
        <ele>1532</ele>
        <time>2017-06-08T11:16:22Z</time>
      </trkpt>
      <trkpt lat="44.07022" lon="6.95953">
        <ele>1532</ele>
        <time>2017-06-08T11:16:22Z</time>
      </trkpt>
      <trkpt lat="44.07019" lon="6.95953">
        <ele>1532</ele>
        <time>2017-06-08T11:16:22Z</time>
      </trkpt>
      <trkpt lat="44.07017" lon="6.95952">
        <ele>1532</ele>
        <time>2017-06-08T11:16:22Z</time>
      </trkpt>
      <trkpt lat="44.07014" lon="6.95954">
        <ele>1532</ele>
        <time>2017-06-08T11:16:38Z</time>
      </trkpt>
      <trkpt lat="44.07009" lon="6.95959">
        <ele>1539</ele>
        <time>2017-06-08T11:16:38Z</time>
      </trkpt>
      <trkpt lat="44.07009" lon="6.95964">
        <ele>1539</ele>
        <time>2017-06-08T11:16:38Z</time>
      </trkpt>
      <trkpt lat="44.07007" lon="6.95967">
        <ele>1539</ele>
        <time>2017-06-08T11:16:38Z</time>
      </trkpt>
      <trkpt lat="44.07003" lon="6.95972">
        <ele>1539</ele>
        <time>2017-06-08T11:16:54Z</time>
      </trkpt>
      <trkpt lat="44.07003" lon="6.95975">
        <ele>1539</ele>
        <time>2017-06-08T11:16:54Z</time>
      </trkpt>
      <trkpt lat="44.06998" lon="6.95976">
        <ele>1539</ele>
        <time>2017-06-08T11:16:54Z</time>
      </trkpt>
      <trkpt lat="44.06995" lon="6.9598">
        <ele>1539</ele>
        <time>2017-06-08T11:16:54Z</time>
      </trkpt>
      <trkpt lat="44.06993" lon="6.95984">
        <ele>1539</ele>
        <time>2017-06-08T11:17:08Z</time>
      </trkpt>
      <trkpt lat="44.06988" lon="6.95988">
        <ele>1529</ele>
        <time>2017-06-08T11:17:09Z</time>
      </trkpt>
      <trkpt lat="44.06984" lon="6.95991">
        <ele>1537</ele>
        <time>2017-06-08T11:17:09Z</time>
      </trkpt>
      <trkpt lat="44.06983" lon="6.9599">
        <ele>1537</ele>
        <time>2017-06-08T11:17:09Z</time>
      </trkpt>
      <trkpt lat="44.06977" lon="6.95989">
        <ele>1537</ele>
        <time>2017-06-08T11:17:30Z</time>
      </trkpt>
      <trkpt lat="44.06977" lon="6.95989">
        <ele>1537</ele>
        <time>2017-06-08T11:17:30Z</time>
      </trkpt>
      <trkpt lat="44.06973" lon="6.95996">
        <ele>1537</ele>
        <time>2017-06-08T11:17:30Z</time>
      </trkpt>
      <trkpt lat="44.0697" lon="6.95995">
        <ele>1537</ele>
        <time>2017-06-08T11:17:30Z</time>
      </trkpt>
      <trkpt lat="44.06966" lon="6.96">
        <ele>1537</ele>
        <time>2017-06-08T11:17:30Z</time>
      </trkpt>
      <trkpt lat="44.06965" lon="6.96002">
        <ele>1537</ele>
        <time>2017-06-08T11:17:46Z</time>
      </trkpt>
      <trkpt lat="44.06962" lon="6.96005">
        <ele>1537</ele>
        <time>2017-06-08T11:17:46Z</time>
      </trkpt>
      <trkpt lat="44.06959" lon="6.96007">
        <ele>1537</ele>
        <time>2017-06-08T11:17:46Z</time>
      </trkpt>
      <trkpt lat="44.06952" lon="6.96011">
        <ele>1550</ele>
        <time>2017-06-08T11:17:46Z</time>
      </trkpt>
      <trkpt lat="44.06951" lon="6.96012">
        <ele>1550</ele>
        <time>2017-06-08T11:18:01Z</time>
      </trkpt>
      <trkpt lat="44.06948" lon="6.96016">
        <ele>1542</ele>
        <time>2017-06-08T11:18:01Z</time>
      </trkpt>
      <trkpt lat="44.06944" lon="6.96021">
        <ele>1542</ele>
        <time>2017-06-08T11:18:02Z</time>
      </trkpt>
      <trkpt lat="44.06939" lon="6.96021">
        <ele>1542</ele>
        <time>2017-06-08T11:18:02Z</time>
      </trkpt>
      <trkpt lat="44.06937" lon="6.96024">
        <ele>1542</ele>
        <time>2017-06-08T11:18:18Z</time>
      </trkpt>
      <trkpt lat="44.06931" lon="6.96025">
        <ele>1542</ele>
        <time>2017-06-08T11:18:18Z</time>
      </trkpt>
      <trkpt lat="44.06929" lon="6.96027">
        <ele>1554</ele>
        <time>2017-06-08T11:18:18Z</time>
      </trkpt>
      <trkpt lat="44.06922" lon="6.96029">
        <ele>1554</ele>
        <time>2017-06-08T11:18:18Z</time>
      </trkpt>
      <trkpt lat="44.06916" lon="6.96031">
        <ele>1554</ele>
        <time>2017-06-08T11:18:33Z</time>
      </trkpt>
      <trkpt lat="44.0691" lon="6.96031">
        <ele>1554</ele>
        <time>2017-06-08T11:18:33Z</time>
      </trkpt>
      <trkpt lat="44.06909" lon="6.9603">
        <ele>1554</ele>
        <time>2017-06-08T11:18:33Z</time>
      </trkpt>
      <trkpt lat="44.06905" lon="6.96033">
        <ele>1554</ele>
        <time>2017-06-08T11:18:33Z</time>
      </trkpt>
      <trkpt lat="44.06901" lon="6.96033">
        <ele>1561</ele>
        <time>2017-06-08T11:18:48Z</time>
      </trkpt>
      <trkpt lat="44.06899" lon="6.96035">
        <ele>1561</ele>
        <time>2017-06-08T11:18:48Z</time>
      </trkpt>
      <trkpt lat="44.06894" lon="6.96038">
        <ele>1561</ele>
        <time>2017-06-08T11:18:48Z</time>
      </trkpt>
      <trkpt lat="44.06891" lon="6.96041">
        <ele>1561</ele>
        <time>2017-06-08T11:18:49Z</time>
      </trkpt>
      <trkpt lat="44.0689" lon="6.96041">
        <ele>1561</ele>
        <time>2017-06-08T11:19:06Z</time>
      </trkpt>
      <trkpt lat="44.06887" lon="6.96039">
        <ele>1561</ele>
        <time>2017-06-08T11:19:06Z</time>
      </trkpt>
      <trkpt lat="44.06883" lon="6.96041">
        <ele>1561</ele>
        <time>2017-06-08T11:19:06Z</time>
      </trkpt>
      <trkpt lat="44.06878" lon="6.96041">
        <ele>1561</ele>
        <time>2017-06-08T11:19:06Z</time>
      </trkpt>
      <trkpt lat="44.06878" lon="6.96044">
        <ele>1554</ele>
        <time>2017-06-08T11:19:21Z</time>
      </trkpt>
      <trkpt lat="44.06874" lon="6.96047">
        <ele>1555</ele>
        <time>2017-06-08T11:19:21Z</time>
      </trkpt>
      <trkpt lat="44.06869" lon="6.96053">
        <ele>1555</ele>
        <time>2017-06-08T11:19:22Z</time>
      </trkpt>
      <trkpt lat="44.06867" lon="6.96054">
        <ele>1555</ele>
        <time>2017-06-08T11:19:22Z</time>
      </trkpt>
      <trkpt lat="44.06867" lon="6.96055">
        <ele>1555</ele>
        <time>2017-06-08T11:19:38Z</time>
      </trkpt>
      <trkpt lat="44.06862" lon="6.9606">
        <ele>1555</ele>
        <time>2017-06-08T11:19:38Z</time>
      </trkpt>
      <trkpt lat="44.06858" lon="6.96062">
        <ele>1555</ele>
        <time>2017-06-08T11:19:38Z</time>
      </trkpt>
      <trkpt lat="44.06857" lon="6.96061">
        <ele>1555</ele>
        <time>2017-06-08T11:19:38Z</time>
      </trkpt>
      <trkpt lat="44.06856" lon="6.96063">
        <ele>1555</ele>
        <time>2017-06-08T11:19:52Z</time>
      </trkpt>
      <trkpt lat="44.06852" lon="6.9607">
        <ele>1547</ele>
        <time>2017-06-08T11:19:53Z</time>
      </trkpt>
      <trkpt lat="44.06847" lon="6.96072">
        <ele>1547</ele>
        <time>2017-06-08T11:19:53Z</time>
      </trkpt>
      <trkpt lat="44.06841" lon="6.96072">
        <ele>1552</ele>
        <time>2017-06-08T11:19:53Z</time>
      </trkpt>
      <trkpt lat="44.06836" lon="6.96072">
        <ele>1552</ele>
        <time>2017-06-08T11:20:10Z</time>
      </trkpt>
      <trkpt lat="44.06832" lon="6.96074">
        <ele>1552</ele>
        <time>2017-06-08T11:20:10Z</time>
      </trkpt>
      <trkpt lat="44.06825" lon="6.96079">
        <ele>1552</ele>
        <time>2017-06-08T11:20:10Z</time>
      </trkpt>
      <trkpt lat="44.06823" lon="6.96083">
        <ele>1552</ele>
        <time>2017-06-08T11:20:10Z</time>
      </trkpt>
      <trkpt lat="44.06822" lon="6.96085">
        <ele>1552</ele>
        <time>2017-06-08T11:20:26Z</time>
      </trkpt>
      <trkpt lat="44.0682" lon="6.96087">
        <ele>1552</ele>
        <time>2017-06-08T11:20:26Z</time>
      </trkpt>
      <trkpt lat="44.06817" lon="6.96088">
        <ele>1559</ele>
        <time>2017-06-08T11:20:27Z</time>
      </trkpt>
      <trkpt lat="44.0681" lon="6.96094">
        <ele>1559</ele>
        <time>2017-06-08T11:20:27Z</time>
      </trkpt>
      <trkpt lat="44.06804" lon="6.96097">
        <ele>1559</ele>
        <time>2017-06-08T11:20:41Z</time>
      </trkpt>
      <trkpt lat="44.06799" lon="6.96098">
        <ele>1554</ele>
        <time>2017-06-08T11:20:41Z</time>
      </trkpt>
      <trkpt lat="44.06797" lon="6.96098">
        <ele>1554</ele>
        <time>2017-06-08T11:20:41Z</time>
      </trkpt>
      <trkpt lat="44.06794" lon="6.96098">
        <ele>1554</ele>
        <time>2017-06-08T11:20:41Z</time>
      </trkpt>
      <trkpt lat="44.06794" lon="6.96098">
        <ele>1554</ele>
        <time>2017-06-08T11:20:56Z</time>
      </trkpt>
      <trkpt lat="44.0679" lon="6.96101">
        <ele>1561</ele>
        <time>2017-06-08T11:20:57Z</time>
      </trkpt>
      <trkpt lat="44.06785" lon="6.96108">
        <ele>1561</ele>
        <time>2017-06-08T11:20:57Z</time>
      </trkpt>
      <trkpt lat="44.06781" lon="6.9611">
        <ele>1561</ele>
        <time>2017-06-08T11:20:57Z</time>
      </trkpt>
      <trkpt lat="44.06777" lon="6.96114">
        <ele>1561</ele>
        <time>2017-06-08T11:21:13Z</time>
      </trkpt>
      <trkpt lat="44.06776" lon="6.96114">
        <ele>1561</ele>
        <time>2017-06-08T11:21:13Z</time>
      </trkpt>
      <trkpt lat="44.06772" lon="6.96115">
        <ele>1561</ele>
        <time>2017-06-08T11:21:13Z</time>
      </trkpt>
      <trkpt lat="44.06766" lon="6.9612">
        <ele>1561</ele>
        <time>2017-06-08T11:21:13Z</time>
      </trkpt>
      <trkpt lat="44.06761" lon="6.96123">
        <ele>1570</ele>
        <time>2017-06-08T11:21:29Z</time>
      </trkpt>
      <trkpt lat="44.06758" lon="6.96126">
        <ele>1562</ele>
        <time>2017-06-08T11:21:29Z</time>
      </trkpt>
      <trkpt lat="44.06755" lon="6.96127">
        <ele>1562</ele>
        <time>2017-06-08T11:21:29Z</time>
      </trkpt>
      <trkpt lat="44.06752" lon="6.96131">
        <ele>1562</ele>
        <time>2017-06-08T11:21:29Z</time>
      </trkpt>
      <trkpt lat="44.06748" lon="6.96132">
        <ele>1562</ele>
        <time>2017-06-08T11:21:48Z</time>
      </trkpt>
      <trkpt lat="44.06744" lon="6.96133">
        <ele>1562</ele>
        <time>2017-06-08T11:21:48Z</time>
      </trkpt>
      <trkpt lat="44.06741" lon="6.96137">
        <ele>1562</ele>
        <time>2017-06-08T11:21:49Z</time>
      </trkpt>
      <trkpt lat="44.06741" lon="6.96139">
        <ele>1562</ele>
        <time>2017-06-08T11:21:49Z</time>
      </trkpt>
      <trkpt lat="44.0674" lon="6.96143">
        <ele>1562</ele>
        <time>2017-06-08T11:21:49Z</time>
      </trkpt>
      <trkpt lat="44.06734" lon="6.96144">
        <ele>1573</ele>
        <time>2017-06-08T11:22:06Z</time>
      </trkpt>
      <trkpt lat="44.06731" lon="6.96148">
        <ele>1573</ele>
        <time>2017-06-08T11:22:06Z</time>
      </trkpt>
      <trkpt lat="44.06728" lon="6.96151">
        <ele>1573</ele>
        <time>2017-06-08T11:22:06Z</time>
      </trkpt>
      <trkpt lat="44.06725" lon="6.96159">
        <ele>1568</ele>
        <time>2017-06-08T11:22:06Z</time>
      </trkpt>
      <trkpt lat="44.06723" lon="6.96163">
        <ele>1568</ele>
        <time>2017-06-08T11:22:25Z</time>
      </trkpt>
      <trkpt lat="44.06723" lon="6.96164">
        <ele>1568</ele>
        <time>2017-06-08T11:22:25Z</time>
      </trkpt>
      <trkpt lat="44.06724" lon="6.96168">
        <ele>1568</ele>
        <time>2017-06-08T11:22:25Z</time>
      </trkpt>
      <trkpt lat="44.06721" lon="6.96173">
        <ele>1568</ele>
        <time>2017-06-08T11:22:25Z</time>
      </trkpt>
      <trkpt lat="44.06717" lon="6.96178">
        <ele>1568</ele>
        <time>2017-06-08T11:22:25Z</time>
      </trkpt>
      <trkpt lat="44.06707" lon="6.96186">
        <ele>1571</ele>
        <time>2017-06-08T11:22:54Z</time>
      </trkpt>
      <trkpt lat="44.06704" lon="6.96189">
        <ele>1571</ele>
        <time>2017-06-08T11:22:54Z</time>
      </trkpt>
      <trkpt lat="44.06702" lon="6.9619">
        <ele>1571</ele>
        <time>2017-06-08T11:22:54Z</time>
      </trkpt>
      <trkpt lat="44.06692" lon="6.96195">
        <ele>1571</ele>
        <time>2017-06-08T11:22:54Z</time>
      </trkpt>
      <trkpt lat="44.06685" lon="6.96197">
        <ele>1571</ele>
        <time>2017-06-08T11:22:54Z</time>
      </trkpt>
      <trkpt lat="44.06681" lon="6.962">
        <ele>1571</ele>
        <time>2017-06-08T11:23:13Z</time>
      </trkpt>
      <trkpt lat="44.06682" lon="6.96201">
        <ele>1571</ele>
        <time>2017-06-08T11:23:13Z</time>
      </trkpt>
      <trkpt lat="44.06682" lon="6.96204">
        <ele>1571</ele>
        <time>2017-06-08T11:23:13Z</time>
      </trkpt>
      <trkpt lat="44.06681" lon="6.96208">
        <ele>1571</ele>
        <time>2017-06-08T11:23:13Z</time>
      </trkpt>
      <trkpt lat="44.06681" lon="6.96215">
        <ele>1566</ele>
        <time>2017-06-08T11:23:13Z</time>
      </trkpt>
      <trkpt lat="44.06673" lon="6.96221">
        <ele>1575</ele>
        <time>2017-06-08T11:23:33Z</time>
      </trkpt>
      <trkpt lat="44.06672" lon="6.96226">
        <ele>1575</ele>
        <time>2017-06-08T11:23:33Z</time>
      </trkpt>
      <trkpt lat="44.06669" lon="6.96228">
        <ele>1575</ele>
        <time>2017-06-08T11:23:34Z</time>
      </trkpt>
      <trkpt lat="44.06668" lon="6.96231">
        <ele>1575</ele>
        <time>2017-06-08T11:23:34Z</time>
      </trkpt>
      <trkpt lat="44.06663" lon="6.96233">
        <ele>1575</ele>
        <time>2017-06-08T11:23:34Z</time>
      </trkpt>
      <trkpt lat="44.06662" lon="6.96236">
        <ele>1571</ele>
        <time>2017-06-08T11:23:49Z</time>
      </trkpt>
      <trkpt lat="44.06659" lon="6.9624">
        <ele>1571</ele>
        <time>2017-06-08T11:23:49Z</time>
      </trkpt>
      <trkpt lat="44.06656" lon="6.96241">
        <ele>1571</ele>
        <time>2017-06-08T11:23:49Z</time>
      </trkpt>
      <trkpt lat="44.06651" lon="6.96245">
        <ele>1574</ele>
        <time>2017-06-08T11:23:49Z</time>
      </trkpt>
      <trkpt lat="44.06649" lon="6.96249">
        <ele>1574</ele>
        <time>2017-06-08T11:24:04Z</time>
      </trkpt>
      <trkpt lat="44.06643" lon="6.96253">
        <ele>1574</ele>
        <time>2017-06-08T11:24:05Z</time>
      </trkpt>
      <trkpt lat="44.06641" lon="6.96256">
        <ele>1574</ele>
        <time>2017-06-08T11:24:05Z</time>
      </trkpt>
      <trkpt lat="44.0664" lon="6.96257">
        <ele>1574</ele>
        <time>2017-06-08T11:24:05Z</time>
      </trkpt>
      <trkpt lat="44.06634" lon="6.96266">
        <ele>1568</ele>
        <time>2017-06-08T11:24:22Z</time>
      </trkpt>
      <trkpt lat="44.06629" lon="6.96268">
        <ele>1568</ele>
        <time>2017-06-08T11:24:22Z</time>
      </trkpt>
      <trkpt lat="44.06627" lon="6.9627">
        <ele>1568</ele>
        <time>2017-06-08T11:24:22Z</time>
      </trkpt>
      <trkpt lat="44.06621" lon="6.96274">
        <ele>1571</ele>
        <time>2017-06-08T11:24:22Z</time>
      </trkpt>
      <trkpt lat="44.06617" lon="6.96276">
        <ele>1571</ele>
        <time>2017-06-08T11:24:36Z</time>
      </trkpt>
      <trkpt lat="44.06615" lon="6.96276">
        <ele>1571</ele>
        <time>2017-06-08T11:24:37Z</time>
      </trkpt>
      <trkpt lat="44.0661" lon="6.96276">
        <ele>1571</ele>
        <time>2017-06-08T11:24:37Z</time>
      </trkpt>
      <trkpt lat="44.06604" lon="6.96285">
        <ele>1571</ele>
        <time>2017-06-08T11:24:37Z</time>
      </trkpt>
      <trkpt lat="44.06604" lon="6.96285">
        <ele>1571</ele>
        <time>2017-06-08T11:24:52Z</time>
      </trkpt>
      <trkpt lat="44.06601" lon="6.96285">
        <ele>1571</ele>
        <time>2017-06-08T11:24:53Z</time>
      </trkpt>
      <trkpt lat="44.06598" lon="6.96285">
        <ele>1571</ele>
        <time>2017-06-08T11:24:53Z</time>
      </trkpt>
      <trkpt lat="44.06595" lon="6.96289">
        <ele>1579</ele>
        <time>2017-06-08T11:24:53Z</time>
      </trkpt>
      <trkpt lat="44.0659" lon="6.96294">
        <ele>1573</ele>
        <time>2017-06-08T11:25:10Z</time>
      </trkpt>
      <trkpt lat="44.06581" lon="6.96297">
        <ele>1573</ele>
        <time>2017-06-08T11:25:10Z</time>
      </trkpt>
      <trkpt lat="44.06574" lon="6.96303">
        <ele>1573</ele>
        <time>2017-06-08T11:25:10Z</time>
      </trkpt>
      <trkpt lat="44.06574" lon="6.96303">
        <ele>1573</ele>
        <time>2017-06-08T11:25:10Z</time>
      </trkpt>
      <trkpt lat="44.06571" lon="6.9631">
        <ele>1573</ele>
        <time>2017-06-08T11:25:25Z</time>
      </trkpt>
      <trkpt lat="44.06569" lon="6.96313">
        <ele>1582</ele>
        <time>2017-06-08T11:25:25Z</time>
      </trkpt>
      <trkpt lat="44.06563" lon="6.96321">
        <ele>1574</ele>
        <time>2017-06-08T11:25:25Z</time>
      </trkpt>
      <trkpt lat="44.06562" lon="6.96323">
        <ele>1574</ele>
        <time>2017-06-08T11:25:25Z</time>
      </trkpt>
      <trkpt lat="44.06559" lon="6.96324">
        <ele>1574</ele>
        <time>2017-06-08T11:25:42Z</time>
      </trkpt>
      <trkpt lat="44.06557" lon="6.96323">
        <ele>1574</ele>
        <time>2017-06-08T11:25:42Z</time>
      </trkpt>
      <trkpt lat="44.06554" lon="6.96327">
        <ele>1574</ele>
        <time>2017-06-08T11:25:42Z</time>
      </trkpt>
      <trkpt lat="44.06551" lon="6.96331">
        <ele>1574</ele>
        <time>2017-06-08T11:25:42Z</time>
      </trkpt>
      <trkpt lat="44.06549" lon="6.96335">
        <ele>1574</ele>
        <time>2017-06-08T11:26:00Z</time>
      </trkpt>
      <trkpt lat="44.06547" lon="6.96337">
        <ele>1574</ele>
        <time>2017-06-08T11:26:01Z</time>
      </trkpt>
      <trkpt lat="44.06547" lon="6.96337">
        <ele>1574</ele>
        <time>2017-06-08T11:26:01Z</time>
      </trkpt>
      <trkpt lat="44.06542" lon="6.96341">
        <ele>1580</ele>
        <time>2017-06-08T11:26:01Z</time>
      </trkpt>
      <trkpt lat="44.06537" lon="6.96343">
        <ele>1580</ele>
        <time>2017-06-08T11:26:01Z</time>
      </trkpt>
      <trkpt lat="44.06534" lon="6.96345">
        <ele>1580</ele>
        <time>2017-06-08T11:26:18Z</time>
      </trkpt>
      <trkpt lat="44.0653" lon="6.96345">
        <ele>1580</ele>
        <time>2017-06-08T11:26:18Z</time>
      </trkpt>
      <trkpt lat="44.06526" lon="6.96351">
        <ele>1570</ele>
        <time>2017-06-08T11:26:18Z</time>
      </trkpt>
      <trkpt lat="44.06521" lon="6.96354">
        <ele>1570</ele>
        <time>2017-06-08T11:26:18Z</time>
      </trkpt>
      <trkpt lat="44.06517" lon="6.96356">
        <ele>1570</ele>
        <time>2017-06-08T11:26:34Z</time>
      </trkpt>
      <trkpt lat="44.06512" lon="6.9636">
        <ele>1574</ele>
        <time>2017-06-08T11:26:34Z</time>
      </trkpt>
      <trkpt lat="44.06509" lon="6.9636">
        <ele>1574</ele>
        <time>2017-06-08T11:26:34Z</time>
      </trkpt>
      <trkpt lat="44.06508" lon="6.9636">
        <ele>1574</ele>
        <time>2017-06-08T11:26:34Z</time>
      </trkpt>
      <trkpt lat="44.06504" lon="6.96359">
        <ele>1574</ele>
        <time>2017-06-08T11:26:52Z</time>
      </trkpt>
      <trkpt lat="44.065" lon="6.96357">
        <ele>1574</ele>
        <time>2017-06-08T11:26:53Z</time>
      </trkpt>
      <trkpt lat="44.06498" lon="6.96356">
        <ele>1574</ele>
        <time>2017-06-08T11:26:53Z</time>
      </trkpt>
      <trkpt lat="44.06495" lon="6.96357">
        <ele>1574</ele>
        <time>2017-06-08T11:26:53Z</time>
      </trkpt>
      <trkpt lat="44.06493" lon="6.96351">
        <ele>1574</ele>
        <time>2017-06-08T11:26:53Z</time>
      </trkpt>
      <trkpt lat="44.06491" lon="6.96348">
        <ele>1574</ele>
        <time>2017-06-08T11:27:12Z</time>
      </trkpt>
      <trkpt lat="44.0649" lon="6.96349">
        <ele>1574</ele>
        <time>2017-06-08T11:27:12Z</time>
      </trkpt>
      <trkpt lat="44.06491" lon="6.9635">
        <ele>1574</ele>
        <time>2017-06-08T11:27:12Z</time>
      </trkpt>
      <trkpt lat="44.06489" lon="6.96351">
        <ele>1574</ele>
        <time>2017-06-08T11:27:13Z</time>
      </trkpt>
      <trkpt lat="44.06482" lon="6.96348">
        <ele>1578</ele>
        <time>2017-06-08T11:27:13Z</time>
      </trkpt>
      <trkpt lat="44.0647" lon="6.96347">
        <ele>1592</ele>
        <time>2017-06-08T11:29:08Z</time>
      </trkpt>
      <trkpt lat="44.0647" lon="6.96348">
        <ele>1578</ele>
        <time>2017-06-08T11:29:09Z</time>
      </trkpt>
      <trkpt lat="44.06467" lon="6.96346">
        <ele>1592</ele>
        <time>2017-06-08T11:29:09Z</time>
      </trkpt>
      <trkpt lat="44.06467" lon="6.96344">
        <ele>1592</ele>
        <time>2017-06-08T11:29:09Z</time>
      </trkpt>
      <trkpt lat="44.06467" lon="6.96342">
        <ele>1592</ele>
        <time>2017-06-08T11:29:09Z</time>
      </trkpt>
      <trkpt lat="44.06465" lon="6.96336">
        <ele>1592</ele>
        <time>2017-06-08T11:31:45Z</time>
      </trkpt>
      <trkpt lat="44.06464" lon="6.96337">
        <ele>1592</ele>
        <time>2017-06-08T11:31:45Z</time>
      </trkpt>
      <trkpt lat="44.06463" lon="6.96337">
        <ele>1592</ele>
        <time>2017-06-08T11:31:45Z</time>
      </trkpt>
      <trkpt lat="44.06458" lon="6.96335">
        <ele>1590</ele>
        <time>2017-06-08T11:31:45Z</time>
      </trkpt>
      <trkpt lat="44.06457" lon="6.96337">
        <ele>1590</ele>
        <time>2017-06-08T11:31:46Z</time>
      </trkpt>
      <trkpt lat="44.06452" lon="6.9634">
        <ele>1590</ele>
        <time>2017-06-08T11:32:10Z</time>
      </trkpt>
      <trkpt lat="44.06452" lon="6.96341">
        <ele>1590</ele>
        <time>2017-06-08T11:32:10Z</time>
      </trkpt>
      <trkpt lat="44.0645" lon="6.9634">
        <ele>1590</ele>
        <time>2017-06-08T11:32:10Z</time>
      </trkpt>
      <trkpt lat="44.06445" lon="6.96342">
        <ele>1590</ele>
        <time>2017-06-08T11:32:10Z</time>
      </trkpt>
      <trkpt lat="44.0644" lon="6.96344">
        <ele>1590</ele>
        <time>2017-06-08T11:32:10Z</time>
      </trkpt>
      <trkpt lat="44.06432" lon="6.96337">
        <ele>1590</ele>
        <time>2017-06-08T11:32:34Z</time>
      </trkpt>
      <trkpt lat="44.06431" lon="6.96338">
        <ele>1589</ele>
        <time>2017-06-08T11:32:34Z</time>
      </trkpt>
      <trkpt lat="44.06428" lon="6.96338">
        <ele>1589</ele>
        <time>2017-06-08T11:32:34Z</time>
      </trkpt>
      <trkpt lat="44.06428" lon="6.96338">
        <ele>1589</ele>
        <time>2017-06-08T11:32:34Z</time>
      </trkpt>
      <trkpt lat="44.06427" lon="6.96338">
        <ele>1589</ele>
        <time>2017-06-08T11:32:34Z</time>
      </trkpt>
      <trkpt lat="44.06427" lon="6.96336">
        <ele>1589</ele>
        <time>2017-06-08T11:32:52Z</time>
      </trkpt>
      <trkpt lat="44.06422" lon="6.96336">
        <ele>1589</ele>
        <time>2017-06-08T11:32:52Z</time>
      </trkpt>
      <trkpt lat="44.06421" lon="6.96335">
        <ele>1589</ele>
        <time>2017-06-08T11:32:53Z</time>
      </trkpt>
      <trkpt lat="44.06421" lon="6.96336">
        <ele>1589</ele>
        <time>2017-06-08T11:32:53Z</time>
      </trkpt>
      <trkpt lat="44.06417" lon="6.96334">
        <ele>1589</ele>
        <time>2017-06-08T11:32:53Z</time>
      </trkpt>
      <trkpt lat="44.06415" lon="6.96332">
        <ele>1589</ele>
        <time>2017-06-08T11:33:10Z</time>
      </trkpt>
      <trkpt lat="44.0641" lon="6.96328">
        <ele>1589</ele>
        <time>2017-06-08T11:33:10Z</time>
      </trkpt>
      <trkpt lat="44.06409" lon="6.96325">
        <ele>1589</ele>
        <time>2017-06-08T11:33:10Z</time>
      </trkpt>
      <trkpt lat="44.06406" lon="6.96324">
        <ele>1589</ele>
        <time>2017-06-08T11:33:11Z</time>
      </trkpt>
      <trkpt lat="44.06402" lon="6.96321">
        <ele>1586</ele>
        <time>2017-06-08T11:33:39Z</time>
      </trkpt>
      <trkpt lat="44.06401" lon="6.96321">
        <ele>1586</ele>
        <time>2017-06-08T11:33:39Z</time>
      </trkpt>
      <trkpt lat="44.06399" lon="6.96319">
        <ele>1595</ele>
        <time>2017-06-08T11:33:39Z</time>
      </trkpt>
      <trkpt lat="44.06398" lon="6.96318">
        <ele>1595</ele>
        <time>2017-06-08T11:33:39Z</time>
      </trkpt>
      <trkpt lat="44.06395" lon="6.96313">
        <ele>1595</ele>
        <time>2017-06-08T11:33:40Z</time>
      </trkpt>
      <trkpt lat="44.06393" lon="6.96312">
        <ele>1595</ele>
        <time>2017-06-08T11:33:52Z</time>
      </trkpt>
      <trkpt lat="44.0639" lon="6.96305">
        <ele>1595</ele>
        <time>2017-06-08T11:33:53Z</time>
      </trkpt>
      <trkpt lat="44.06389" lon="6.96302">
        <ele>1595</ele>
        <time>2017-06-08T11:33:53Z</time>
      </trkpt>
      <trkpt lat="44.06388" lon="6.96297">
        <ele>1595</ele>
        <time>2017-06-08T11:33:53Z</time>
      </trkpt>
      <trkpt lat="44.06388" lon="6.96293">
        <ele>1595</ele>
        <time>2017-06-08T11:34:08Z</time>
      </trkpt>
      <trkpt lat="44.06386" lon="6.96282">
        <ele>1600</ele>
        <time>2017-06-08T11:34:08Z</time>
      </trkpt>
      <trkpt lat="44.06386" lon="6.9628">
        <ele>1600</ele>
        <time>2017-06-08T11:34:09Z</time>
      </trkpt>
      <trkpt lat="44.06383" lon="6.96277">
        <ele>1600</ele>
        <time>2017-06-08T11:34:09Z</time>
      </trkpt>
      <trkpt lat="44.06382" lon="6.96271">
        <ele>1600</ele>
        <time>2017-06-08T11:34:25Z</time>
      </trkpt>
      <trkpt lat="44.06383" lon="6.96265">
        <ele>1600</ele>
        <time>2017-06-08T11:34:25Z</time>
      </trkpt>
      <trkpt lat="44.06385" lon="6.96258">
        <ele>1608</ele>
        <time>2017-06-08T11:34:25Z</time>
      </trkpt>
      <trkpt lat="44.06382" lon="6.96249">
        <ele>1608</ele>
        <time>2017-06-08T11:34:25Z</time>
      </trkpt>
      <trkpt lat="44.06382" lon="6.96244">
        <ele>1608</ele>
        <time>2017-06-08T11:34:44Z</time>
      </trkpt>
      <trkpt lat="44.06382" lon="6.96241">
        <ele>1608</ele>
        <time>2017-06-08T11:34:44Z</time>
      </trkpt>
      <trkpt lat="44.06381" lon="6.96238">
        <ele>1608</ele>
        <time>2017-06-08T11:34:44Z</time>
      </trkpt>
      <trkpt lat="44.06382" lon="6.96234">
        <ele>1616</ele>
        <time>2017-06-08T11:34:45Z</time>
      </trkpt>
      <trkpt lat="44.0638" lon="6.96229">
        <ele>1616</ele>
        <time>2017-06-08T11:34:45Z</time>
      </trkpt>
      <trkpt lat="44.06379" lon="6.96225">
        <ele>1616</ele>
        <time>2017-06-08T11:35:00Z</time>
      </trkpt>
      <trkpt lat="44.06378" lon="6.96222">
        <ele>1616</ele>
        <time>2017-06-08T11:35:01Z</time>
      </trkpt>
      <trkpt lat="44.06376" lon="6.96217">
        <ele>1616</ele>
        <time>2017-06-08T11:35:01Z</time>
      </trkpt>
      <trkpt lat="44.06374" lon="6.96212">
        <ele>1601</ele>
        <time>2017-06-08T11:35:01Z</time>
      </trkpt>
      <trkpt lat="44.06368" lon="6.96204">
        <ele>1612</ele>
        <time>2017-06-08T11:35:17Z</time>
      </trkpt>
      <trkpt lat="44.06365" lon="6.96203">
        <ele>1612</ele>
        <time>2017-06-08T11:35:17Z</time>
      </trkpt>
      <trkpt lat="44.0636" lon="6.96198">
        <ele>1612</ele>
        <time>2017-06-08T11:35:17Z</time>
      </trkpt>
      <trkpt lat="44.06356" lon="6.96193">
        <ele>1612</ele>
        <time>2017-06-08T11:35:17Z</time>
      </trkpt>
      <trkpt lat="44.06353" lon="6.96189">
        <ele>1612</ele>
        <time>2017-06-08T11:35:33Z</time>
      </trkpt>
      <trkpt lat="44.06351" lon="6.96186">
        <ele>1612</ele>
        <time>2017-06-08T11:35:33Z</time>
      </trkpt>
      <trkpt lat="44.06348" lon="6.96178">
        <ele>1623</ele>
        <time>2017-06-08T11:35:33Z</time>
      </trkpt>
      <trkpt lat="44.06348" lon="6.96179">
        <ele>1623</ele>
        <time>2017-06-08T11:35:33Z</time>
      </trkpt>
      <trkpt lat="44.06346" lon="6.96176">
        <ele>1613</ele>
        <time>2017-06-08T11:35:52Z</time>
      </trkpt>
      <trkpt lat="44.06346" lon="6.96172">
        <ele>1613</ele>
        <time>2017-06-08T11:35:52Z</time>
      </trkpt>
      <trkpt lat="44.06346" lon="6.96168">
        <ele>1613</ele>
        <time>2017-06-08T11:35:53Z</time>
      </trkpt>
      <trkpt lat="44.06345" lon="6.96166">
        <ele>1613</ele>
        <time>2017-06-08T11:35:53Z</time>
      </trkpt>
      <trkpt lat="44.06342" lon="6.96163">
        <ele>1613</ele>
        <time>2017-06-08T11:35:53Z</time>
      </trkpt>
      <trkpt lat="44.06333" lon="6.96161">
        <ele>1613</ele>
        <time>2017-06-08T11:36:20Z</time>
      </trkpt>
      <trkpt lat="44.06333" lon="6.9616">
        <ele>1613</ele>
        <time>2017-06-08T11:36:20Z</time>
      </trkpt>
      <trkpt lat="44.06332" lon="6.9616">
        <ele>1613</ele>
        <time>2017-06-08T11:36:20Z</time>
      </trkpt>
      <trkpt lat="44.06332" lon="6.9616">
        <ele>1613</ele>
        <time>2017-06-08T11:36:21Z</time>
      </trkpt>
      <trkpt lat="44.06328" lon="6.96153">
        <ele>1613</ele>
        <time>2017-06-08T11:36:21Z</time>
      </trkpt>
      <trkpt lat="44.06322" lon="6.96145">
        <ele>1627</ele>
        <time>2017-06-08T11:36:38Z</time>
      </trkpt>
      <trkpt lat="44.06319" lon="6.96143">
        <ele>1617</ele>
        <time>2017-06-08T11:36:38Z</time>
      </trkpt>
      <trkpt lat="44.06315" lon="6.96133">
        <ele>1617</ele>
        <time>2017-06-08T11:36:38Z</time>
      </trkpt>
      <trkpt lat="44.06315" lon="6.9613">
        <ele>1617</ele>
        <time>2017-06-08T11:36:38Z</time>
      </trkpt>
      <trkpt lat="44.06311" lon="6.96124">
        <ele>1629</ele>
        <time>2017-06-08T11:36:53Z</time>
      </trkpt>
      <trkpt lat="44.0631" lon="6.96118">
        <ele>1629</ele>
        <time>2017-06-08T11:36:53Z</time>
      </trkpt>
      <trkpt lat="44.06307" lon="6.96115">
        <ele>1629</ele>
        <time>2017-06-08T11:36:53Z</time>
      </trkpt>
      <trkpt lat="44.06305" lon="6.96112">
        <ele>1629</ele>
        <time>2017-06-08T11:36:53Z</time>
      </trkpt>
      <trkpt lat="44.06301" lon="6.96108">
        <ele>1629</ele>
        <time>2017-06-08T11:37:09Z</time>
      </trkpt>
      <trkpt lat="44.06299" lon="6.96102">
        <ele>1629</ele>
        <time>2017-06-08T11:37:09Z</time>
      </trkpt>
      <trkpt lat="44.06292" lon="6.96093">
        <ele>1639</ele>
        <time>2017-06-08T11:37:09Z</time>
      </trkpt>
      <trkpt lat="44.06291" lon="6.96093">
        <ele>1623</ele>
        <time>2017-06-08T11:37:09Z</time>
      </trkpt>
      <trkpt lat="44.06286" lon="6.96091">
        <ele>1623</ele>
        <time>2017-06-08T11:37:27Z</time>
      </trkpt>
      <trkpt lat="44.06284" lon="6.96087">
        <ele>1623</ele>
        <time>2017-06-08T11:37:27Z</time>
      </trkpt>
      <trkpt lat="44.06281" lon="6.96083">
        <ele>1623</ele>
        <time>2017-06-08T11:37:27Z</time>
      </trkpt>
      <trkpt lat="44.06275" lon="6.96072">
        <ele>1623</ele>
        <time>2017-06-08T11:37:27Z</time>
      </trkpt>
      <trkpt lat="44.06272" lon="6.96061">
        <ele>1631</ele>
        <time>2017-06-08T11:37:52Z</time>
      </trkpt>
      <trkpt lat="44.06271" lon="6.96052">
        <ele>1631</ele>
        <time>2017-06-08T11:37:52Z</time>
      </trkpt>
      <trkpt lat="44.0627" lon="6.96051">
        <ele>1631</ele>
        <time>2017-06-08T11:37:52Z</time>
      </trkpt>
      <trkpt lat="44.06268" lon="6.96043">
        <ele>1631</ele>
        <time>2017-06-08T11:37:52Z</time>
      </trkpt>
      <trkpt lat="44.06267" lon="6.96035">
        <ele>1639</ele>
        <time>2017-06-08T11:38:09Z</time>
      </trkpt>
      <trkpt lat="44.06263" lon="6.96028">
        <ele>1621</ele>
        <time>2017-06-08T11:38:09Z</time>
      </trkpt>
      <trkpt lat="44.06258" lon="6.96019">
        <ele>1621</ele>
        <time>2017-06-08T11:38:10Z</time>
      </trkpt>
      <trkpt lat="44.06258" lon="6.96017">
        <ele>1621</ele>
        <time>2017-06-08T11:38:10Z</time>
      </trkpt>
      <trkpt lat="44.06253" lon="6.96011">
        <ele>1632</ele>
        <time>2017-06-08T11:38:27Z</time>
      </trkpt>
      <trkpt lat="44.06248" lon="6.96005">
        <ele>1632</ele>
        <time>2017-06-08T11:38:27Z</time>
      </trkpt>
      <trkpt lat="44.06246" lon="6.96001">
        <ele>1632</ele>
        <time>2017-06-08T11:38:27Z</time>
      </trkpt>
      <trkpt lat="44.06242" lon="6.95997">
        <ele>1632</ele>
        <time>2017-06-08T11:38:27Z</time>
      </trkpt>
      <trkpt lat="44.06241" lon="6.95997">
        <ele>1632</ele>
        <time>2017-06-08T11:38:42Z</time>
      </trkpt>
      <trkpt lat="44.06237" lon="6.95992">
        <ele>1632</ele>
        <time>2017-06-08T11:38:42Z</time>
      </trkpt>
      <trkpt lat="44.06237" lon="6.95991">
        <ele>1632</ele>
        <time>2017-06-08T11:38:42Z</time>
      </trkpt>
      <trkpt lat="44.06233" lon="6.95984">
        <ele>1626</ele>
        <time>2017-06-08T11:38:42Z</time>
      </trkpt>
      <trkpt lat="44.06233" lon="6.95979">
        <ele>1626</ele>
        <time>2017-06-08T11:38:56Z</time>
      </trkpt>
      <trkpt lat="44.06232" lon="6.95976">
        <ele>1626</ele>
        <time>2017-06-08T11:38:56Z</time>
      </trkpt>
      <trkpt lat="44.06232" lon="6.9597">
        <ele>1626</ele>
        <time>2017-06-08T11:38:57Z</time>
      </trkpt>
      <trkpt lat="44.0623" lon="6.95965">
        <ele>1626</ele>
        <time>2017-06-08T11:38:57Z</time>
      </trkpt>
      <trkpt lat="44.06229" lon="6.95956">
        <ele>1629</ele>
        <time>2017-06-08T11:39:12Z</time>
      </trkpt>
      <trkpt lat="44.06229" lon="6.95952">
        <ele>1629</ele>
        <time>2017-06-08T11:39:13Z</time>
      </trkpt>
      <trkpt lat="44.06228" lon="6.95943">
        <ele>1629</ele>
        <time>2017-06-08T11:39:13Z</time>
      </trkpt>
      <trkpt lat="44.06226" lon="6.95942">
        <ele>1629</ele>
        <time>2017-06-08T11:39:13Z</time>
      </trkpt>
      <trkpt lat="44.06227" lon="6.95935">
        <ele>1629</ele>
        <time>2017-06-08T11:39:28Z</time>
      </trkpt>
      <trkpt lat="44.06231" lon="6.95928">
        <ele>1629</ele>
        <time>2017-06-08T11:39:28Z</time>
      </trkpt>
      <trkpt lat="44.06228" lon="6.95925">
        <ele>1629</ele>
        <time>2017-06-08T11:39:29Z</time>
      </trkpt>
      <trkpt lat="44.0623" lon="6.9592">
        <ele>1629</ele>
        <time>2017-06-08T11:39:29Z</time>
      </trkpt>
      <trkpt lat="44.06231" lon="6.95914">
        <ele>1629</ele>
        <time>2017-06-08T11:39:44Z</time>
      </trkpt>
      <trkpt lat="44.06235" lon="6.95911">
        <ele>1629</ele>
        <time>2017-06-08T11:39:44Z</time>
      </trkpt>
      <trkpt lat="44.06237" lon="6.95907">
        <ele>1649</ele>
        <time>2017-06-08T11:39:45Z</time>
      </trkpt>
      <trkpt lat="44.06233" lon="6.959">
        <ele>1631</ele>
        <time>2017-06-08T11:39:45Z</time>
      </trkpt>
      <trkpt lat="44.06233" lon="6.95894">
        <ele>1631</ele>
        <time>2017-06-08T11:40:00Z</time>
      </trkpt>
      <trkpt lat="44.0623" lon="6.95885">
        <ele>1631</ele>
        <time>2017-06-08T11:40:00Z</time>
      </trkpt>
      <trkpt lat="44.06233" lon="6.95875">
        <ele>1631</ele>
        <time>2017-06-08T11:40:01Z</time>
      </trkpt>
      <trkpt lat="44.06232" lon="6.95865">
        <ele>1636</ele>
        <time>2017-06-08T11:40:01Z</time>
      </trkpt>
      <trkpt lat="44.06229" lon="6.95861">
        <ele>1636</ele>
        <time>2017-06-08T11:40:16Z</time>
      </trkpt>
      <trkpt lat="44.06226" lon="6.95855">
        <ele>1636</ele>
        <time>2017-06-08T11:40:16Z</time>
      </trkpt>
      <trkpt lat="44.06224" lon="6.95846">
        <ele>1642</ele>
        <time>2017-06-08T11:40:17Z</time>
      </trkpt>
      <trkpt lat="44.06228" lon="6.95844">
        <ele>1642</ele>
        <time>2017-06-08T11:40:17Z</time>
      </trkpt>
      <trkpt lat="44.06221" lon="6.95841">
        <ele>1642</ele>
        <time>2017-06-08T11:40:32Z</time>
      </trkpt>
      <trkpt lat="44.06221" lon="6.95839">
        <ele>1642</ele>
        <time>2017-06-08T11:40:32Z</time>
      </trkpt>
      <trkpt lat="44.06218" lon="6.95834">
        <ele>1642</ele>
        <time>2017-06-08T11:40:33Z</time>
      </trkpt>
      <trkpt lat="44.06213" lon="6.95835">
        <ele>1642</ele>
        <time>2017-06-08T11:40:33Z</time>
      </trkpt>
      <trkpt lat="44.06207" lon="6.95831">
        <ele>1630</ele>
        <time>2017-06-08T11:41:00Z</time>
      </trkpt>
      <trkpt lat="44.06206" lon="6.9583">
        <ele>1630</ele>
        <time>2017-06-08T11:41:01Z</time>
      </trkpt>
      <trkpt lat="44.06205" lon="6.9583">
        <ele>1630</ele>
        <time>2017-06-08T11:41:01Z</time>
      </trkpt>
      <trkpt lat="44.06205" lon="6.9583">
        <ele>1630</ele>
        <time>2017-06-08T11:41:01Z</time>
      </trkpt>
      <trkpt lat="44.062" lon="6.95821">
        <ele>1630</ele>
        <time>2017-06-08T11:41:01Z</time>
      </trkpt>
      <trkpt lat="44.06195" lon="6.95812">
        <ele>1640</ele>
        <time>2017-06-08T11:41:16Z</time>
      </trkpt>
      <trkpt lat="44.06194" lon="6.95806">
        <ele>1640</ele>
        <time>2017-06-08T11:41:16Z</time>
      </trkpt>
      <trkpt lat="44.06193" lon="6.95797">
        <ele>1640</ele>
        <time>2017-06-08T11:41:17Z</time>
      </trkpt>
      <trkpt lat="44.06194" lon="6.9579">
        <ele>1651</ele>
        <time>2017-06-08T11:41:17Z</time>
      </trkpt>
      <trkpt lat="44.06185" lon="6.95769">
        <ele>1651</ele>
        <time>2017-06-08T11:41:48Z</time>
      </trkpt>
      <trkpt lat="44.06184" lon="6.95766">
        <ele>1651</ele>
        <time>2017-06-08T11:41:48Z</time>
      </trkpt>
      <trkpt lat="44.06183" lon="6.95764">
        <ele>1651</ele>
        <time>2017-06-08T11:41:48Z</time>
      </trkpt>
      <trkpt lat="44.06182" lon="6.95762">
        <ele>1661</ele>
        <time>2017-06-08T11:41:49Z</time>
      </trkpt>
      <trkpt lat="44.06181" lon="6.95754">
        <ele>1661</ele>
        <time>2017-06-08T11:41:49Z</time>
      </trkpt>
      <trkpt lat="44.0617" lon="6.95746">
        <ele>1647</ele>
        <time>2017-06-08T11:42:08Z</time>
      </trkpt>
      <trkpt lat="44.06172" lon="6.95739">
        <ele>1647</ele>
        <time>2017-06-08T11:42:09Z</time>
      </trkpt>
      <trkpt lat="44.06172" lon="6.95737">
        <ele>1647</ele>
        <time>2017-06-08T11:42:09Z</time>
      </trkpt>
      <trkpt lat="44.0617" lon="6.95737">
        <ele>1647</ele>
        <time>2017-06-08T11:42:09Z</time>
      </trkpt>
      <trkpt lat="44.06172" lon="6.95732">
        <ele>1658</ele>
        <time>2017-06-08T11:42:09Z</time>
      </trkpt>
      <trkpt lat="44.06172" lon="6.9573">
        <ele>1658</ele>
        <time>2017-06-08T11:42:24Z</time>
      </trkpt>
      <trkpt lat="44.06171" lon="6.95726">
        <ele>1658</ele>
        <time>2017-06-08T11:42:25Z</time>
      </trkpt>
      <trkpt lat="44.06167" lon="6.95721">
        <ele>1658</ele>
        <time>2017-06-08T11:42:25Z</time>
      </trkpt>
      <trkpt lat="44.06163" lon="6.95717">
        <ele>1658</ele>
        <time>2017-06-08T11:42:25Z</time>
      </trkpt>
      <trkpt lat="44.06163" lon="6.95713">
        <ele>1658</ele>
        <time>2017-06-08T11:42:40Z</time>
      </trkpt>
      <trkpt lat="44.06162" lon="6.95709">
        <ele>1658</ele>
        <time>2017-06-08T11:42:40Z</time>
      </trkpt>
      <trkpt lat="44.06164" lon="6.95704">
        <ele>1668</ele>
        <time>2017-06-08T11:42:41Z</time>
      </trkpt>
      <trkpt lat="44.06163" lon="6.95697">
        <ele>1668</ele>
        <time>2017-06-08T11:42:41Z</time>
      </trkpt>
      <trkpt lat="44.06164" lon="6.95686">
        <ele>1668</ele>
        <time>2017-06-08T11:42:56Z</time>
      </trkpt>
      <trkpt lat="44.06169" lon="6.9567">
        <ele>1676</ele>
        <time>2017-06-08T11:42:56Z</time>
      </trkpt>
      <trkpt lat="44.06169" lon="6.95667">
        <ele>1676</ele>
        <time>2017-06-08T11:42:56Z</time>
      </trkpt>
      <trkpt lat="44.06154" lon="6.95665">
        <ele>1676</ele>
        <time>2017-06-08T11:42:57Z</time>
      </trkpt>
      <trkpt lat="44.06154" lon="6.9566">
        <ele>1676</ele>
        <time>2017-06-08T11:43:24Z</time>
      </trkpt>
      <trkpt lat="44.06152" lon="6.95653">
        <ele>1668</ele>
        <time>2017-06-08T11:43:24Z</time>
      </trkpt>
      <trkpt lat="44.06142" lon="6.95645">
        <ele>1668</ele>
        <time>2017-06-08T11:43:25Z</time>
      </trkpt>
      <trkpt lat="44.06139" lon="6.95646">
        <ele>1668</ele>
        <time>2017-06-08T11:43:25Z</time>
      </trkpt>
      <trkpt lat="44.06137" lon="6.95631">
        <ele>1668</ele>
        <time>2017-06-08T11:43:25Z</time>
      </trkpt>
      <trkpt lat="44.06134" lon="6.95633">
        <ele>1668</ele>
        <time>2017-06-08T11:43:40Z</time>
      </trkpt>
      <trkpt lat="44.06142" lon="6.95628">
        <ele>1668</ele>
        <time>2017-06-08T11:43:40Z</time>
      </trkpt>
      <trkpt lat="44.06139" lon="6.95621">
        <ele>1674</ele>
        <time>2017-06-08T11:43:41Z</time>
      </trkpt>
      <trkpt lat="44.06128" lon="6.95617">
        <ele>1674</ele>
        <time>2017-06-08T11:43:41Z</time>
      </trkpt>
      <trkpt lat="44.06124" lon="6.95609">
        <ele>1664</ele>
        <time>2017-06-08T11:43:56Z</time>
      </trkpt>
      <trkpt lat="44.06131" lon="6.95605">
        <ele>1674</ele>
        <time>2017-06-08T11:43:56Z</time>
      </trkpt>
      <trkpt lat="44.06124" lon="6.95595">
        <ele>1670</ele>
        <time>2017-06-08T11:43:57Z</time>
      </trkpt>
      <trkpt lat="44.06126" lon="6.95589">
        <ele>1679</ele>
        <time>2017-06-08T11:43:57Z</time>
      </trkpt>
      <trkpt lat="44.06138" lon="6.95588">
        <ele>1679</ele>
        <time>2017-06-08T11:44:12Z</time>
      </trkpt>
      <trkpt lat="44.06137" lon="6.95588">
        <ele>1679</ele>
        <time>2017-06-08T11:44:12Z</time>
      </trkpt>
      <trkpt lat="44.06129" lon="6.95585">
        <ele>1679</ele>
        <time>2017-06-08T11:44:13Z</time>
      </trkpt>
      <trkpt lat="44.06124" lon="6.95581">
        <ele>1670</ele>
        <time>2017-06-08T11:44:13Z</time>
      </trkpt>
      <trkpt lat="44.06122" lon="6.95578">
        <ele>1670</ele>
        <time>2017-06-08T11:44:28Z</time>
      </trkpt>
      <trkpt lat="44.06115" lon="6.9558">
        <ele>1670</ele>
        <time>2017-06-08T11:44:28Z</time>
      </trkpt>
      <trkpt lat="44.06109" lon="6.95577">
        <ele>1670</ele>
        <time>2017-06-08T11:44:29Z</time>
      </trkpt>
      <trkpt lat="44.06108" lon="6.95579">
        <ele>1670</ele>
        <time>2017-06-08T11:44:29Z</time>
      </trkpt>
      <trkpt lat="44.06102" lon="6.95576">
        <ele>1670</ele>
        <time>2017-06-08T11:44:44Z</time>
      </trkpt>
      <trkpt lat="44.06099" lon="6.95575">
        <ele>1670</ele>
        <time>2017-06-08T11:44:44Z</time>
      </trkpt>
      <trkpt lat="44.06096" lon="6.95572">
        <ele>1661</ele>
        <time>2017-06-08T11:44:45Z</time>
      </trkpt>
      <trkpt lat="44.06094" lon="6.95567">
        <ele>1670</ele>
        <time>2017-06-08T11:44:45Z</time>
      </trkpt>
      <trkpt lat="44.06088" lon="6.95565">
        <ele>1670</ele>
        <time>2017-06-08T11:45:20Z</time>
      </trkpt>
      <trkpt lat="44.06088" lon="6.95565">
        <ele>1670</ele>
        <time>2017-06-08T11:45:21Z</time>
      </trkpt>
      <trkpt lat="44.06087" lon="6.95564">
        <ele>1670</ele>
        <time>2017-06-08T11:45:21Z</time>
      </trkpt>
      <trkpt lat="44.06087" lon="6.95558">
        <ele>1670</ele>
        <time>2017-06-08T11:45:21Z</time>
      </trkpt>
      <trkpt lat="44.0608" lon="6.95543">
        <ele>1670</ele>
        <time>2017-06-08T11:45:21Z</time>
      </trkpt>
      <trkpt lat="44.06071" lon="6.95522">
        <ele>1680</ele>
        <time>2017-06-08T11:45:36Z</time>
      </trkpt>
      <trkpt lat="44.06056" lon="6.95509">
        <ele>1668</ele>
        <time>2017-06-08T11:45:37Z</time>
      </trkpt>
      <trkpt lat="44.0606" lon="6.95494">
        <ele>1668</ele>
        <time>2017-06-08T11:45:37Z</time>
      </trkpt>
      <trkpt lat="44.06057" lon="6.95483">
        <ele>1670</ele>
        <time>2017-06-08T11:45:37Z</time>
      </trkpt>
      <trkpt lat="44.06058" lon="6.95487">
        <ele>1668</ele>
        <time>2017-06-08T11:46:00Z</time>
      </trkpt>
      <trkpt lat="44.06063" lon="6.95486">
        <ele>1668</ele>
        <time>2017-06-08T11:46:00Z</time>
      </trkpt>
      <trkpt lat="44.06064" lon="6.95486">
        <ele>1670</ele>
        <time>2017-06-08T11:46:01Z</time>
      </trkpt>
      <trkpt lat="44.06065" lon="6.95485">
        <ele>1670</ele>
        <time>2017-06-08T11:46:01Z</time>
      </trkpt>
      <trkpt lat="44.06066" lon="6.9548">
        <ele>1670</ele>
        <time>2017-06-08T11:46:01Z</time>
      </trkpt>
      <trkpt lat="44.06066" lon="6.95458">
        <ele>1670</ele>
        <time>2017-06-08T11:46:16Z</time>
      </trkpt>
      <trkpt lat="44.06064" lon="6.95444">
        <ele>1671</ele>
        <time>2017-06-08T11:46:17Z</time>
      </trkpt>
      <trkpt lat="44.06069" lon="6.95436">
        <ele>1671</ele>
        <time>2017-06-08T11:46:17Z</time>
      </trkpt>
      <trkpt lat="44.06084" lon="6.9543">
        <ele>1688</ele>
        <time>2017-06-08T11:46:17Z</time>
      </trkpt>
      <trkpt lat="44.06065" lon="6.95414">
        <ele>1673</ele>
        <time>2017-06-08T11:46:48Z</time>
      </trkpt>
      <trkpt lat="44.06063" lon="6.95409">
        <ele>1673</ele>
        <time>2017-06-08T11:46:49Z</time>
      </trkpt>
      <trkpt lat="44.06062" lon="6.95406">
        <ele>1673</ele>
        <time>2017-06-08T11:46:49Z</time>
      </trkpt>
      <trkpt lat="44.06065" lon="6.95401">
        <ele>1676</ele>
        <time>2017-06-08T11:46:49Z</time>
      </trkpt>
      <trkpt lat="44.06062" lon="6.95392">
        <ele>1676</ele>
        <time>2017-06-08T11:46:49Z</time>
      </trkpt>
      <trkpt lat="44.06074" lon="6.95389">
        <ele>1689</ele>
        <time>2017-06-08T11:47:04Z</time>
      </trkpt>
      <trkpt lat="44.06077" lon="6.95384">
        <ele>1689</ele>
        <time>2017-06-08T11:47:04Z</time>
      </trkpt>
      <trkpt lat="44.06074" lon="6.9538">
        <ele>1689</ele>
        <time>2017-06-08T11:47:05Z</time>
      </trkpt>
      <trkpt lat="44.06065" lon="6.95371">
        <ele>1677</ele>
        <time>2017-06-08T11:47:05Z</time>
      </trkpt>
      <trkpt lat="44.06054" lon="6.95366">
        <ele>1677</ele>
        <time>2017-06-08T11:47:20Z</time>
      </trkpt>
      <trkpt lat="44.06064" lon="6.95356">
        <ele>1677</ele>
        <time>2017-06-08T11:47:20Z</time>
      </trkpt>
      <trkpt lat="44.06062" lon="6.95352">
        <ele>1677</ele>
        <time>2017-06-08T11:47:21Z</time>
      </trkpt>
      <trkpt lat="44.06061" lon="6.95344">
        <ele>1680</ele>
        <time>2017-06-08T11:47:21Z</time>
      </trkpt>
      <trkpt lat="44.06059" lon="6.95328">
        <ele>1680</ele>
        <time>2017-06-08T11:47:36Z</time>
      </trkpt>
      <trkpt lat="44.06055" lon="6.95324">
        <ele>1680</ele>
        <time>2017-06-08T11:47:36Z</time>
      </trkpt>
      <trkpt lat="44.06049" lon="6.95323">
        <ele>1680</ele>
        <time>2017-06-08T11:47:37Z</time>
      </trkpt>
      <trkpt lat="44.06047" lon="6.95316">
        <ele>1684</ele>
        <time>2017-06-08T11:47:37Z</time>
      </trkpt>
      <trkpt lat="44.06046" lon="6.9531">
        <ele>1684</ele>
        <time>2017-06-08T11:48:12Z</time>
      </trkpt>
      <trkpt lat="44.06046" lon="6.9531">
        <ele>1684</ele>
        <time>2017-06-08T11:48:12Z</time>
      </trkpt>
      <trkpt lat="44.06046" lon="6.9531">
        <ele>1684</ele>
        <time>2017-06-08T11:48:12Z</time>
      </trkpt>
      <trkpt lat="44.06046" lon="6.9531">
        <ele>1684</ele>
        <time>2017-06-08T11:48:13Z</time>
      </trkpt>
      <trkpt lat="44.06041" lon="6.95292">
        <ele>1673</ele>
        <time>2017-06-08T11:48:13Z</time>
      </trkpt>
      <trkpt lat="44.0604" lon="6.95277">
        <ele>1675</ele>
        <time>2017-06-08T11:48:28Z</time>
      </trkpt>
      <trkpt lat="44.06043" lon="6.95269">
        <ele>1686</ele>
        <time>2017-06-08T11:48:28Z</time>
      </trkpt>
      <trkpt lat="44.06044" lon="6.9526">
        <ele>1687</ele>
        <time>2017-06-08T11:48:29Z</time>
      </trkpt>
      <trkpt lat="44.06051" lon="6.95259">
        <ele>1687</ele>
        <time>2017-06-08T11:48:29Z</time>
      </trkpt>
      <trkpt lat="44.06045" lon="6.9524">
        <ele>1687</ele>
        <time>2017-06-08T11:49:05Z</time>
      </trkpt>
      <trkpt lat="44.06043" lon="6.95235">
        <ele>1689</ele>
        <time>2017-06-08T11:49:05Z</time>
      </trkpt>
      <trkpt lat="44.06043" lon="6.95234">
        <ele>1689</ele>
        <time>2017-06-08T11:49:06Z</time>
      </trkpt>
      <trkpt lat="44.06042" lon="6.95232">
        <ele>1689</ele>
        <time>2017-06-08T11:49:06Z</time>
      </trkpt>
      <trkpt lat="44.06043" lon="6.95231">
        <ele>1689</ele>
        <time>2017-06-08T11:49:06Z</time>
      </trkpt>
      <trkpt lat="44.06045" lon="6.95241">
        <ele>1687</ele>
        <time>2017-06-08T11:50:00Z</time>
      </trkpt>
      <trkpt lat="44.06049" lon="6.95245">
        <ele>1687</ele>
        <time>2017-06-08T11:50:00Z</time>
      </trkpt>
      <trkpt lat="44.06055" lon="6.95258">
        <ele>1687</ele>
        <time>2017-06-08T11:50:00Z</time>
      </trkpt>
      <trkpt lat="44.06054" lon="6.9526">
        <ele>1687</ele>
        <time>2017-06-08T11:50:01Z</time>
      </trkpt>
      <trkpt lat="44.06054" lon="6.95261">
        <ele>1687</ele>
        <time>2017-06-08T11:50:01Z</time>
      </trkpt>
      <trkpt lat="44.06055" lon="6.95254">
        <ele>1687</ele>
        <time>2017-06-08T11:50:28Z</time>
      </trkpt>
      <trkpt lat="44.06054" lon="6.95251">
        <ele>1687</ele>
        <time>2017-06-08T11:50:28Z</time>
      </trkpt>
      <trkpt lat="44.06055" lon="6.95251">
        <ele>1687</ele>
        <time>2017-06-08T11:50:29Z</time>
      </trkpt>
      <trkpt lat="44.06055" lon="6.95248">
        <ele>1687</ele>
        <time>2017-06-08T11:50:29Z</time>
      </trkpt>
      <trkpt lat="44.06056" lon="6.95246">
        <ele>1687</ele>
        <time>2017-06-08T11:50:29Z</time>
      </trkpt>
      <trkpt lat="44.0606" lon="6.95239">
        <ele>1687</ele>
        <time>2017-06-08T11:50:58Z</time>
      </trkpt>
      <trkpt lat="44.06061" lon="6.95238">
        <ele>1687</ele>
        <time>2017-06-08T11:50:58Z</time>
      </trkpt>
      <trkpt lat="44.06062" lon="6.95236">
        <ele>1689</ele>
        <time>2017-06-08T11:50:58Z</time>
      </trkpt>
      <trkpt lat="44.06063" lon="6.95232">
        <ele>1689</ele>
        <time>2017-06-08T11:50:58Z</time>
      </trkpt>
      <trkpt lat="44.06062" lon="6.95227">
        <ele>1689</ele>
        <time>2017-06-08T11:50:58Z</time>
      </trkpt>
      <trkpt lat="44.06065" lon="6.95226">
        <ele>1689</ele>
        <time>2017-06-08T11:51:18Z</time>
      </trkpt>
      <trkpt lat="44.06067" lon="6.95222">
        <ele>1689</ele>
        <time>2017-06-08T11:51:18Z</time>
      </trkpt>
      <trkpt lat="44.06066" lon="6.9522">
        <ele>1689</ele>
        <time>2017-06-08T11:51:18Z</time>
      </trkpt>
      <trkpt lat="44.06068" lon="6.95215">
        <ele>1689</ele>
        <time>2017-06-08T11:51:18Z</time>
      </trkpt>
      <trkpt lat="44.06068" lon="6.95214">
        <ele>1689</ele>
        <time>2017-06-08T11:51:18Z</time>
      </trkpt>
      <trkpt lat="44.06071" lon="6.95214">
        <ele>1698</ele>
        <time>2017-06-08T11:51:45Z</time>
      </trkpt>
      <trkpt lat="44.06072" lon="6.95219">
        <ele>1698</ele>
        <time>2017-06-08T11:51:46Z</time>
      </trkpt>
      <trkpt lat="44.06073" lon="6.9522">
        <ele>1698</ele>
        <time>2017-06-08T11:51:47Z</time>
      </trkpt>
      <trkpt lat="44.06074" lon="6.95222">
        <ele>1698</ele>
        <time>2017-06-08T11:51:47Z</time>
      </trkpt>
      <trkpt lat="44.06076" lon="6.95225">
        <ele>1698</ele>
        <time>2017-06-08T11:51:47Z</time>
      </trkpt>
      <trkpt lat="44.06083" lon="6.95231">
        <ele>1698</ele>
        <time>2017-06-08T11:52:52Z</time>
      </trkpt>
      <trkpt lat="44.06084" lon="6.9523">
        <ele>1698</ele>
        <time>2017-06-08T11:52:52Z</time>
      </trkpt>
      <trkpt lat="44.06088" lon="6.95229">
        <ele>1698</ele>
        <time>2017-06-08T11:52:53Z</time>
      </trkpt>
      <trkpt lat="44.06088" lon="6.95229">
        <ele>1698</ele>
        <time>2017-06-08T11:52:53Z</time>
      </trkpt>
      <trkpt lat="44.06089" lon="6.95229">
        <ele>1698</ele>
        <time>2017-06-08T11:52:53Z</time>
      </trkpt>
      <trkpt lat="44.06089" lon="6.95228">
        <ele>1698</ele>
        <time>2017-06-08T11:53:09Z</time>
      </trkpt>
      <trkpt lat="44.0609" lon="6.95229">
        <ele>1698</ele>
        <time>2017-06-08T11:53:09Z</time>
      </trkpt>
      <trkpt lat="44.06094" lon="6.95228">
        <ele>1698</ele>
        <time>2017-06-08T11:53:09Z</time>
      </trkpt>
      <trkpt lat="44.06095" lon="6.95227">
        <ele>1698</ele>
        <time>2017-06-08T11:53:09Z</time>
      </trkpt>
      <trkpt lat="44.06101" lon="6.95229">
        <ele>1708</ele>
        <time>2017-06-08T11:53:09Z</time>
      </trkpt>
      <trkpt lat="44.06102" lon="6.95227">
        <ele>1708</ele>
        <time>2017-06-08T11:53:24Z</time>
      </trkpt>
      <trkpt lat="44.06105" lon="6.95223">
        <ele>1708</ele>
        <time>2017-06-08T11:53:25Z</time>
      </trkpt>
      <trkpt lat="44.06105" lon="6.95218">
        <ele>1708</ele>
        <time>2017-06-08T11:53:25Z</time>
      </trkpt>
      <trkpt lat="44.06107" lon="6.95214">
        <ele>1708</ele>
        <time>2017-06-08T11:53:25Z</time>
      </trkpt>
      <trkpt lat="44.06108" lon="6.95207">
        <ele>1709</ele>
        <time>2017-06-08T11:53:54Z</time>
      </trkpt>
      <trkpt lat="44.06107" lon="6.95205">
        <ele>1709</ele>
        <time>2017-06-08T11:53:55Z</time>
      </trkpt>
      <trkpt lat="44.06108" lon="6.95204">
        <ele>1709</ele>
        <time>2017-06-08T11:53:55Z</time>
      </trkpt>
      <trkpt lat="44.06109" lon="6.95202">
        <ele>1709</ele>
        <time>2017-06-08T11:53:55Z</time>
      </trkpt>
      <trkpt lat="44.0611" lon="6.95196">
        <ele>1709</ele>
        <time>2017-06-08T11:53:55Z</time>
      </trkpt>
      <trkpt lat="44.06113" lon="6.95195">
        <ele>1709</ele>
        <time>2017-06-08T11:54:20Z</time>
      </trkpt>
      <trkpt lat="44.06114" lon="6.95193">
        <ele>1709</ele>
        <time>2017-06-08T11:54:21Z</time>
      </trkpt>
      <trkpt lat="44.06116" lon="6.95192">
        <ele>1709</ele>
        <time>2017-06-08T11:54:21Z</time>
      </trkpt>
      <trkpt lat="44.06117" lon="6.95193">
        <ele>1709</ele>
        <time>2017-06-08T11:54:21Z</time>
      </trkpt>
      <trkpt lat="44.0612" lon="6.95192">
        <ele>1709</ele>
        <time>2017-06-08T11:54:21Z</time>
      </trkpt>
      <trkpt lat="44.06129" lon="6.95187">
        <ele>1716</ele>
        <time>2017-06-08T11:54:54Z</time>
      </trkpt>
      <trkpt lat="44.06132" lon="6.95183">
        <ele>1716</ele>
        <time>2017-06-08T11:54:54Z</time>
      </trkpt>
      <trkpt lat="44.06134" lon="6.95182">
        <ele>1716</ele>
        <time>2017-06-08T11:54:54Z</time>
      </trkpt>
      <trkpt lat="44.06135" lon="6.95177">
        <ele>1718</ele>
        <time>2017-06-08T11:54:55Z</time>
      </trkpt>
      <trkpt lat="44.06138" lon="6.95175">
        <ele>1718</ele>
        <time>2017-06-08T11:54:55Z</time>
      </trkpt>
      <trkpt lat="44.06138" lon="6.9517">
        <ele>1718</ele>
        <time>2017-06-08T11:55:16Z</time>
      </trkpt>
      <trkpt lat="44.06136" lon="6.95168">
        <ele>1718</ele>
        <time>2017-06-08T11:55:16Z</time>
      </trkpt>
      <trkpt lat="44.06141" lon="6.95167">
        <ele>1718</ele>
        <time>2017-06-08T11:55:17Z</time>
      </trkpt>
      <trkpt lat="44.06143" lon="6.95166">
        <ele>1718</ele>
        <time>2017-06-08T11:55:17Z</time>
      </trkpt>
      <trkpt lat="44.06145" lon="6.95165">
        <ele>1718</ele>
        <time>2017-06-08T11:55:17Z</time>
      </trkpt>
      <trkpt lat="44.06151" lon="6.95164">
        <ele>1718</ele>
        <time>2017-06-08T11:55:50Z</time>
      </trkpt>
      <trkpt lat="44.06151" lon="6.95164">
        <ele>1718</ele>
        <time>2017-06-08T11:55:50Z</time>
      </trkpt>
      <trkpt lat="44.06154" lon="6.95164">
        <ele>1726</ele>
        <time>2017-06-08T11:55:50Z</time>
      </trkpt>
      <trkpt lat="44.06156" lon="6.95163">
        <ele>1726</ele>
        <time>2017-06-08T11:55:50Z</time>
      </trkpt>
      <trkpt lat="44.06157" lon="6.95162">
        <ele>1726</ele>
        <time>2017-06-08T11:55:50Z</time>
      </trkpt>
      <trkpt lat="44.06158" lon="6.95162">
        <ele>1726</ele>
        <time>2017-06-08T11:56:06Z</time>
      </trkpt>
      <trkpt lat="44.06164" lon="6.95157">
        <ele>1726</ele>
        <time>2017-06-08T11:56:06Z</time>
      </trkpt>
      <trkpt lat="44.06165" lon="6.95159">
        <ele>1726</ele>
        <time>2017-06-08T11:56:06Z</time>
      </trkpt>
      <trkpt lat="44.06166" lon="6.95154">
        <ele>1726</ele>
        <time>2017-06-08T11:56:06Z</time>
      </trkpt>
      <trkpt lat="44.06169" lon="6.95154">
        <ele>1726</ele>
        <time>2017-06-08T11:56:40Z</time>
      </trkpt>
      <trkpt lat="44.0617" lon="6.95152">
        <ele>1727</ele>
        <time>2017-06-08T11:56:40Z</time>
      </trkpt>
      <trkpt lat="44.06174" lon="6.95149">
        <ele>1727</ele>
        <time>2017-06-08T11:56:41Z</time>
      </trkpt>
      <trkpt lat="44.06174" lon="6.95147">
        <ele>1727</ele>
        <time>2017-06-08T11:56:41Z</time>
      </trkpt>
      <trkpt lat="44.06176" lon="6.95148">
        <ele>1727</ele>
        <time>2017-06-08T11:56:41Z</time>
      </trkpt>
      <trkpt lat="44.06177" lon="6.95146">
        <ele>1727</ele>
        <time>2017-06-08T11:56:57Z</time>
      </trkpt>
      <trkpt lat="44.06184" lon="6.9515">
        <ele>1737</ele>
        <time>2017-06-08T11:56:57Z</time>
      </trkpt>
      <trkpt lat="44.06187" lon="6.95149">
        <ele>1737</ele>
        <time>2017-06-08T11:56:57Z</time>
      </trkpt>
      <trkpt lat="44.06188" lon="6.95149">
        <ele>1737</ele>
        <time>2017-06-08T11:56:57Z</time>
      </trkpt>
      <trkpt lat="44.06192" lon="6.95146">
        <ele>1737</ele>
        <time>2017-06-08T11:57:22Z</time>
      </trkpt>
      <trkpt lat="44.06193" lon="6.95144">
        <ele>1737</ele>
        <time>2017-06-08T11:57:22Z</time>
      </trkpt>
      <trkpt lat="44.06194" lon="6.95143">
        <ele>1737</ele>
        <time>2017-06-08T11:57:23Z</time>
      </trkpt>
      <trkpt lat="44.06197" lon="6.95143">
        <ele>1737</ele>
        <time>2017-06-08T11:57:23Z</time>
      </trkpt>
      <trkpt lat="44.06199" lon="6.95142">
        <ele>1737</ele>
        <time>2017-06-08T11:57:23Z</time>
      </trkpt>
      <trkpt lat="44.06201" lon="6.95139">
        <ele>1737</ele>
        <time>2017-06-08T11:57:37Z</time>
      </trkpt>
      <trkpt lat="44.06206" lon="6.95133">
        <ele>1737</ele>
        <time>2017-06-08T11:57:37Z</time>
      </trkpt>
      <trkpt lat="44.06208" lon="6.95132">
        <ele>1737</ele>
        <time>2017-06-08T11:57:37Z</time>
      </trkpt>
      <trkpt lat="44.0621" lon="6.95131">
        <ele>1746</ele>
        <time>2017-06-08T11:57:37Z</time>
      </trkpt>
      <trkpt lat="44.06217" lon="6.95127">
        <ele>1746</ele>
        <time>2017-06-08T11:58:08Z</time>
      </trkpt>
      <trkpt lat="44.06218" lon="6.95126">
        <ele>1746</ele>
        <time>2017-06-08T11:58:08Z</time>
      </trkpt>
      <trkpt lat="44.06218" lon="6.95126">
        <ele>1746</ele>
        <time>2017-06-08T11:58:08Z</time>
      </trkpt>
      <trkpt lat="44.06219" lon="6.95127">
        <ele>1746</ele>
        <time>2017-06-08T11:58:09Z</time>
      </trkpt>
      <trkpt lat="44.06222" lon="6.95127">
        <ele>1746</ele>
        <time>2017-06-08T11:58:09Z</time>
      </trkpt>
      <trkpt lat="44.06225" lon="6.95117">
        <ele>1745</ele>
        <time>2017-06-08T11:58:33Z</time>
      </trkpt>
      <trkpt lat="44.06225" lon="6.95117">
        <ele>1745</ele>
        <time>2017-06-08T11:58:34Z</time>
      </trkpt>
      <trkpt lat="44.06225" lon="6.95114">
        <ele>1745</ele>
        <time>2017-06-08T11:58:35Z</time>
      </trkpt>
      <trkpt lat="44.06225" lon="6.95109">
        <ele>1745</ele>
        <time>2017-06-08T11:58:35Z</time>
      </trkpt>
      <trkpt lat="44.06227" lon="6.95106">
        <ele>1745</ele>
        <time>2017-06-08T11:58:36Z</time>
      </trkpt>
      <trkpt lat="44.06227" lon="6.95106">
        <ele>1745</ele>
        <time>2017-06-08T11:58:52Z</time>
      </trkpt>
      <trkpt lat="44.06228" lon="6.95104">
        <ele>1745</ele>
        <time>2017-06-08T11:58:52Z</time>
      </trkpt>
      <trkpt lat="44.06229" lon="6.951">
        <ele>1745</ele>
        <time>2017-06-08T11:58:53Z</time>
      </trkpt>
      <trkpt lat="44.0623" lon="6.95097">
        <ele>1746</ele>
        <time>2017-06-08T11:58:53Z</time>
      </trkpt>
      <trkpt lat="44.06233" lon="6.95091">
        <ele>1746</ele>
        <time>2017-06-08T11:58:53Z</time>
      </trkpt>
      <trkpt lat="44.0624" lon="6.95087">
        <ele>1750</ele>
        <time>2017-06-08T11:59:29Z</time>
      </trkpt>
      <trkpt lat="44.0624" lon="6.95088">
        <ele>1750</ele>
        <time>2017-06-08T11:59:29Z</time>
      </trkpt>
      <trkpt lat="44.06244" lon="6.95088">
        <ele>1750</ele>
        <time>2017-06-08T11:59:29Z</time>
      </trkpt>
      <trkpt lat="44.06245" lon="6.95086">
        <ele>1750</ele>
        <time>2017-06-08T11:59:29Z</time>
      </trkpt>
      <trkpt lat="44.06247" lon="6.95087">
        <ele>1750</ele>
        <time>2017-06-08T11:59:29Z</time>
      </trkpt>
      <trkpt lat="44.06251" lon="6.95085">
        <ele>1750</ele>
        <time>2017-06-08T11:59:48Z</time>
      </trkpt>
      <trkpt lat="44.06256" lon="6.95082">
        <ele>1750</ele>
        <time>2017-06-08T11:59:48Z</time>
      </trkpt>
      <trkpt lat="44.06255" lon="6.9508">
        <ele>1750</ele>
        <time>2017-06-08T11:59:49Z</time>
      </trkpt>
      <trkpt lat="44.06258" lon="6.95082">
        <ele>1750</ele>
        <time>2017-06-08T11:59:49Z</time>
      </trkpt>
      <trkpt lat="44.0626" lon="6.95078">
        <ele>1750</ele>
        <time>2017-06-08T11:59:49Z</time>
      </trkpt>
      <trkpt lat="44.06268" lon="6.95074">
        <ele>1759</ele>
        <time>2017-06-08T12:00:15Z</time>
      </trkpt>
      <trkpt lat="44.06269" lon="6.95072">
        <ele>1759</ele>
        <time>2017-06-08T12:00:15Z</time>
      </trkpt>
      <trkpt lat="44.06271" lon="6.95073">
        <ele>1759</ele>
        <time>2017-06-08T12:00:15Z</time>
      </trkpt>
      <trkpt lat="44.06274" lon="6.95073">
        <ele>1759</ele>
        <time>2017-06-08T12:00:15Z</time>
      </trkpt>
      <trkpt lat="44.06276" lon="6.9507">
        <ele>1759</ele>
        <time>2017-06-08T12:00:15Z</time>
      </trkpt>
      <trkpt lat="44.06277" lon="6.95071">
        <ele>1759</ele>
        <time>2017-06-08T12:00:31Z</time>
      </trkpt>
      <trkpt lat="44.06283" lon="6.95065">
        <ele>1759</ele>
        <time>2017-06-08T12:00:31Z</time>
      </trkpt>
      <trkpt lat="44.06285" lon="6.95062">
        <ele>1759</ele>
        <time>2017-06-08T12:00:31Z</time>
      </trkpt>
      <trkpt lat="44.06289" lon="6.9506">
        <ele>1759</ele>
        <time>2017-06-08T12:00:31Z</time>
      </trkpt>
      <trkpt lat="44.06293" lon="6.95056">
        <ele>1766</ele>
        <time>2017-06-08T12:01:13Z</time>
      </trkpt>
      <trkpt lat="44.06295" lon="6.95056">
        <ele>1766</ele>
        <time>2017-06-08T12:01:13Z</time>
      </trkpt>
      <trkpt lat="44.06297" lon="6.9505">
        <ele>1766</ele>
        <time>2017-06-08T12:01:14Z</time>
      </trkpt>
      <trkpt lat="44.06301" lon="6.95051">
        <ele>1766</ele>
        <time>2017-06-08T12:01:14Z</time>
      </trkpt>
      <trkpt lat="44.06301" lon="6.9505">
        <ele>1766</ele>
        <time>2017-06-08T12:01:14Z</time>
      </trkpt>
      <trkpt lat="44.06304" lon="6.95049">
        <ele>1766</ele>
        <time>2017-06-08T12:06:48Z</time>
      </trkpt>
      <trkpt lat="44.06304" lon="6.95049">
        <ele>1766</ele>
        <time>2017-06-08T12:06:48Z</time>
      </trkpt>
      <trkpt lat="44.06304" lon="6.95047">
        <ele>1766</ele>
        <time>2017-06-08T12:06:49Z</time>
      </trkpt>
      <trkpt lat="44.06304" lon="6.95046">
        <ele>1766</ele>
        <time>2017-06-08T12:06:49Z</time>
      </trkpt>
      <trkpt lat="44.06306" lon="6.95038">
        <ele>1766</ele>
        <time>2017-06-08T12:06:49Z</time>
      </trkpt>
      <trkpt lat="44.06307" lon="6.95037">
        <ele>1766</ele>
        <time>2017-06-08T12:07:00Z</time>
      </trkpt>
      <trkpt lat="44.0631" lon="6.95031">
        <ele>1766</ele>
        <time>2017-06-08T12:07:00Z</time>
      </trkpt>
      <trkpt lat="44.06311" lon="6.95028">
        <ele>1766</ele>
        <time>2017-06-08T12:07:01Z</time>
      </trkpt>
      <trkpt lat="44.06313" lon="6.95026">
        <ele>1766</ele>
        <time>2017-06-08T12:07:01Z</time>
      </trkpt>
      <trkpt lat="44.06314" lon="6.95024">
        <ele>1766</ele>
        <time>2017-06-08T12:07:20Z</time>
      </trkpt>
      <trkpt lat="44.06315" lon="6.9502">
        <ele>1766</ele>
        <time>2017-06-08T12:07:20Z</time>
      </trkpt>
      <trkpt lat="44.06315" lon="6.95017">
        <ele>1766</ele>
        <time>2017-06-08T12:07:20Z</time>
      </trkpt>
      <trkpt lat="44.06327" lon="6.95013">
        <ele>1768</ele>
        <time>2017-06-08T12:07:20Z</time>
      </trkpt>
      <trkpt lat="44.06329" lon="6.95013">
        <ele>1768</ele>
        <time>2017-06-08T12:07:38Z</time>
      </trkpt>
      <trkpt lat="44.06329" lon="6.95009">
        <ele>1768</ele>
        <time>2017-06-08T12:07:39Z</time>
      </trkpt>
      <trkpt lat="44.06334" lon="6.95007">
        <ele>1768</ele>
        <time>2017-06-08T12:07:39Z</time>
      </trkpt>
      <trkpt lat="44.06336" lon="6.95005">
        <ele>1768</ele>
        <time>2017-06-08T12:07:39Z</time>
      </trkpt>
      <trkpt lat="44.06336" lon="6.95003">
        <ele>1768</ele>
        <time>2017-06-08T12:07:39Z</time>
      </trkpt>
      <trkpt lat="44.06338" lon="6.95002">
        <ele>1768</ele>
        <time>2017-06-08T12:07:56Z</time>
      </trkpt>
      <trkpt lat="44.06351" lon="6.94997">
        <ele>1769</ele>
        <time>2017-06-08T12:07:56Z</time>
      </trkpt>
      <trkpt lat="44.06352" lon="6.94997">
        <ele>1769</ele>
        <time>2017-06-08T12:07:56Z</time>
      </trkpt>
      <trkpt lat="44.06353" lon="6.94995">
        <ele>1769</ele>
        <time>2017-06-08T12:07:56Z</time>
      </trkpt>
      <trkpt lat="44.06358" lon="6.94988">
        <ele>1769</ele>
        <time>2017-06-08T12:09:28Z</time>
      </trkpt>
      <trkpt lat="44.06359" lon="6.94989">
        <ele>1769</ele>
        <time>2017-06-08T12:09:28Z</time>
      </trkpt>
      <trkpt lat="44.06365" lon="6.94987">
        <ele>1769</ele>
        <time>2017-06-08T12:09:28Z</time>
      </trkpt>
      <trkpt lat="44.06365" lon="6.94986">
        <ele>1769</ele>
        <time>2017-06-08T12:09:28Z</time>
      </trkpt>
      <trkpt lat="44.06368" lon="6.94982">
        <ele>1773</ele>
        <time>2017-06-08T12:09:28Z</time>
      </trkpt>
      <trkpt lat="44.06368" lon="6.94981">
        <ele>1773</ele>
        <time>2017-06-08T12:09:42Z</time>
      </trkpt>
      <trkpt lat="44.06372" lon="6.94977">
        <ele>1773</ele>
        <time>2017-06-08T12:09:42Z</time>
      </trkpt>
      <trkpt lat="44.06375" lon="6.94972">
        <ele>1773</ele>
        <time>2017-06-08T12:09:42Z</time>
      </trkpt>
      <trkpt lat="44.06377" lon="6.94972">
        <ele>1768</ele>
        <time>2017-06-08T12:09:42Z</time>
      </trkpt>
      <trkpt lat="44.0638" lon="6.94969">
        <ele>1768</ele>
        <time>2017-06-08T12:09:58Z</time>
      </trkpt>
      <trkpt lat="44.06386" lon="6.94964">
        <ele>1768</ele>
        <time>2017-06-08T12:09:59Z</time>
      </trkpt>
      <trkpt lat="44.06388" lon="6.94963">
        <ele>1768</ele>
        <time>2017-06-08T12:09:59Z</time>
      </trkpt>
      <trkpt lat="44.06392" lon="6.9496">
        <ele>1768</ele>
        <time>2017-06-08T12:09:59Z</time>
      </trkpt>
      <trkpt lat="44.06392" lon="6.94959">
        <ele>1768</ele>
        <time>2017-06-08T12:10:14Z</time>
      </trkpt>
      <trkpt lat="44.06397" lon="6.94957">
        <ele>1769</ele>
        <time>2017-06-08T12:10:14Z</time>
      </trkpt>
      <trkpt lat="44.06404" lon="6.9495">
        <ele>1767</ele>
        <time>2017-06-08T12:10:14Z</time>
      </trkpt>
      <trkpt lat="44.06405" lon="6.94948">
        <ele>1767</ele>
        <time>2017-06-08T12:10:14Z</time>
      </trkpt>
      <trkpt lat="44.06408" lon="6.94946">
        <ele>1767</ele>
        <time>2017-06-08T12:10:30Z</time>
      </trkpt>
      <trkpt lat="44.06412" lon="6.94941">
        <ele>1767</ele>
        <time>2017-06-08T12:10:30Z</time>
      </trkpt>
      <trkpt lat="44.06417" lon="6.94941">
        <ele>1767</ele>
        <time>2017-06-08T12:10:30Z</time>
      </trkpt>
      <trkpt lat="44.06418" lon="6.9494">
        <ele>1767</ele>
        <time>2017-06-08T12:10:30Z</time>
      </trkpt>
      <trkpt lat="44.0642" lon="6.94939">
        <ele>1767</ele>
        <time>2017-06-08T12:10:49Z</time>
      </trkpt>
      <trkpt lat="44.06425" lon="6.94929">
        <ele>1772</ele>
        <time>2017-06-08T12:10:49Z</time>
      </trkpt>
      <trkpt lat="44.0643" lon="6.94922">
        <ele>1772</ele>
        <time>2017-06-08T12:10:49Z</time>
      </trkpt>
      <trkpt lat="44.0643" lon="6.94922">
        <ele>1772</ele>
        <time>2017-06-08T12:10:49Z</time>
      </trkpt>
      <trkpt lat="44.06435" lon="6.94916">
        <ele>1775</ele>
        <time>2017-06-08T12:11:09Z</time>
      </trkpt>
      <trkpt lat="44.06438" lon="6.94913">
        <ele>1775</ele>
        <time>2017-06-08T12:11:09Z</time>
      </trkpt>
      <trkpt lat="44.06437" lon="6.94911">
        <ele>1775</ele>
        <time>2017-06-08T12:11:10Z</time>
      </trkpt>
      <trkpt lat="44.06439" lon="6.9491">
        <ele>1775</ele>
        <time>2017-06-08T12:11:10Z</time>
      </trkpt>
      <trkpt lat="44.06444" lon="6.94904">
        <ele>1775</ele>
        <time>2017-06-08T12:11:10Z</time>
      </trkpt>
      <trkpt lat="44.06445" lon="6.94898">
        <ele>1776</ele>
        <time>2017-06-08T12:11:26Z</time>
      </trkpt>
      <trkpt lat="44.06451" lon="6.94889">
        <ele>1776</ele>
        <time>2017-06-08T12:11:26Z</time>
      </trkpt>
      <trkpt lat="44.06453" lon="6.94888">
        <ele>1776</ele>
        <time>2017-06-08T12:11:26Z</time>
      </trkpt>
      <trkpt lat="44.06453" lon="6.9488">
        <ele>1776</ele>
        <time>2017-06-08T12:11:26Z</time>
      </trkpt>
      <trkpt lat="44.06456" lon="6.9488">
        <ele>1776</ele>
        <time>2017-06-08T12:11:43Z</time>
      </trkpt>
      <trkpt lat="44.06462" lon="6.9487">
        <ele>1776</ele>
        <time>2017-06-08T12:11:43Z</time>
      </trkpt>
      <trkpt lat="44.06463" lon="6.94869">
        <ele>1776</ele>
        <time>2017-06-08T12:11:44Z</time>
      </trkpt>
      <trkpt lat="44.06465" lon="6.94866">
        <ele>1776</ele>
        <time>2017-06-08T12:11:44Z</time>
      </trkpt>
      <trkpt lat="44.06466" lon="6.94864">
        <ele>1776</ele>
        <time>2017-06-08T12:11:59Z</time>
      </trkpt>
      <trkpt lat="44.06467" lon="6.94854">
        <ele>1776</ele>
        <time>2017-06-08T12:11:59Z</time>
      </trkpt>
      <trkpt lat="44.06468" lon="6.9485">
        <ele>1776</ele>
        <time>2017-06-08T12:11:59Z</time>
      </trkpt>
      <trkpt lat="44.0647" lon="6.94844">
        <ele>1776</ele>
        <time>2017-06-08T12:11:59Z</time>
      </trkpt>
      <trkpt lat="44.0647" lon="6.94842">
        <ele>1776</ele>
        <time>2017-06-08T12:12:14Z</time>
      </trkpt>
      <trkpt lat="44.06474" lon="6.94839">
        <ele>1776</ele>
        <time>2017-06-08T12:12:14Z</time>
      </trkpt>
      <trkpt lat="44.06477" lon="6.9484">
        <ele>1776</ele>
        <time>2017-06-08T12:12:14Z</time>
      </trkpt>
      <trkpt lat="44.06479" lon="6.94835">
        <ele>1776</ele>
        <time>2017-06-08T12:12:14Z</time>
      </trkpt>
      <trkpt lat="44.06482" lon="6.9483">
        <ele>1776</ele>
        <time>2017-06-08T12:12:28Z</time>
      </trkpt>
      <trkpt lat="44.0648" lon="6.94823">
        <ele>1776</ele>
        <time>2017-06-08T12:12:28Z</time>
      </trkpt>
      <trkpt lat="44.0648" lon="6.94818">
        <ele>1776</ele>
        <time>2017-06-08T12:12:29Z</time>
      </trkpt>
      <trkpt lat="44.06482" lon="6.94812">
        <ele>1776</ele>
        <time>2017-06-08T12:12:29Z</time>
      </trkpt>
      <trkpt lat="44.06488" lon="6.94809">
        <ele>1777</ele>
        <time>2017-06-08T12:12:44Z</time>
      </trkpt>
      <trkpt lat="44.06488" lon="6.94796">
        <ele>1777</ele>
        <time>2017-06-08T12:12:44Z</time>
      </trkpt>
      <trkpt lat="44.0649" lon="6.94795">
        <ele>1777</ele>
        <time>2017-06-08T12:12:44Z</time>
      </trkpt>
      <trkpt lat="44.06492" lon="6.94792">
        <ele>1777</ele>
        <time>2017-06-08T12:12:45Z</time>
      </trkpt>
      <trkpt lat="44.06495" lon="6.94788">
        <ele>1779</ele>
        <time>2017-06-08T12:13:01Z</time>
      </trkpt>
      <trkpt lat="44.06499" lon="6.94782">
        <ele>1779</ele>
        <time>2017-06-08T12:13:01Z</time>
      </trkpt>
      <trkpt lat="44.06501" lon="6.94778">
        <ele>1779</ele>
        <time>2017-06-08T12:13:01Z</time>
      </trkpt>
      <trkpt lat="44.06504" lon="6.94776">
        <ele>1779</ele>
        <time>2017-06-08T12:13:01Z</time>
      </trkpt>
      <trkpt lat="44.06506" lon="6.94768">
        <ele>1779</ele>
        <time>2017-06-08T12:13:19Z</time>
      </trkpt>
      <trkpt lat="44.06506" lon="6.94762">
        <ele>1781</ele>
        <time>2017-06-08T12:13:19Z</time>
      </trkpt>
      <trkpt lat="44.06509" lon="6.94761">
        <ele>1781</ele>
        <time>2017-06-08T12:13:19Z</time>
      </trkpt>
      <trkpt lat="44.06513" lon="6.94755">
        <ele>1781</ele>
        <time>2017-06-08T12:13:19Z</time>
      </trkpt>
      <trkpt lat="44.06513" lon="6.94754">
        <ele>1781</ele>
        <time>2017-06-08T12:13:35Z</time>
      </trkpt>
      <trkpt lat="44.0652" lon="6.9475">
        <ele>1783</ele>
        <time>2017-06-08T12:13:36Z</time>
      </trkpt>
      <trkpt lat="44.06523" lon="6.94749">
        <ele>1783</ele>
        <time>2017-06-08T12:13:36Z</time>
      </trkpt>
      <trkpt lat="44.06526" lon="6.94744">
        <ele>1783</ele>
        <time>2017-06-08T12:13:36Z</time>
      </trkpt>
      <trkpt lat="44.06532" lon="6.94739">
        <ele>1783</ele>
        <time>2017-06-08T12:13:53Z</time>
      </trkpt>
      <trkpt lat="44.06534" lon="6.94736">
        <ele>1783</ele>
        <time>2017-06-08T12:13:53Z</time>
      </trkpt>
      <trkpt lat="44.06538" lon="6.94729">
        <ele>1783</ele>
        <time>2017-06-08T12:13:53Z</time>
      </trkpt>
      <trkpt lat="44.0654" lon="6.94727">
        <ele>1783</ele>
        <time>2017-06-08T12:13:53Z</time>
      </trkpt>
      <trkpt lat="44.06541" lon="6.94721">
        <ele>1783</ele>
        <time>2017-06-08T12:14:09Z</time>
      </trkpt>
      <trkpt lat="44.06543" lon="6.94713">
        <ele>1782</ele>
        <time>2017-06-08T12:14:09Z</time>
      </trkpt>
      <trkpt lat="44.06546" lon="6.94713">
        <ele>1782</ele>
        <time>2017-06-08T12:14:09Z</time>
      </trkpt>
      <trkpt lat="44.06549" lon="6.94711">
        <ele>1782</ele>
        <time>2017-06-08T12:14:09Z</time>
      </trkpt>
      <trkpt lat="44.06554" lon="6.94707">
        <ele>1781</ele>
        <time>2017-06-08T12:14:30Z</time>
      </trkpt>
      <trkpt lat="44.06554" lon="6.94703">
        <ele>1781</ele>
        <time>2017-06-08T12:14:30Z</time>
      </trkpt>
      <trkpt lat="44.06556" lon="6.94702">
        <ele>1781</ele>
        <time>2017-06-08T12:14:30Z</time>
      </trkpt>
      <trkpt lat="44.06558" lon="6.94699">
        <ele>1781</ele>
        <time>2017-06-08T12:14:30Z</time>
      </trkpt>
      <trkpt lat="44.0656" lon="6.94693">
        <ele>1781</ele>
        <time>2017-06-08T12:14:30Z</time>
      </trkpt>
      <trkpt lat="44.06562" lon="6.94687">
        <ele>1781</ele>
        <time>2017-06-08T12:14:44Z</time>
      </trkpt>
      <trkpt lat="44.06564" lon="6.9468">
        <ele>1783</ele>
        <time>2017-06-08T12:14:44Z</time>
      </trkpt>
      <trkpt lat="44.06564" lon="6.94679">
        <ele>1783</ele>
        <time>2017-06-08T12:14:45Z</time>
      </trkpt>
      <trkpt lat="44.06566" lon="6.94674">
        <ele>1783</ele>
        <time>2017-06-08T12:14:45Z</time>
      </trkpt>
      <trkpt lat="44.06568" lon="6.94668">
        <ele>1783</ele>
        <time>2017-06-08T12:15:01Z</time>
      </trkpt>
      <trkpt lat="44.0657" lon="6.94664">
        <ele>1781</ele>
        <time>2017-06-08T12:15:01Z</time>
      </trkpt>
      <trkpt lat="44.0657" lon="6.94656">
        <ele>1781</ele>
        <time>2017-06-08T12:15:01Z</time>
      </trkpt>
      <trkpt lat="44.06571" lon="6.94654">
        <ele>1781</ele>
        <time>2017-06-08T12:15:01Z</time>
      </trkpt>
      <trkpt lat="44.06572" lon="6.94645">
        <ele>1781</ele>
        <time>2017-06-08T12:15:17Z</time>
      </trkpt>
      <trkpt lat="44.06572" lon="6.9464">
        <ele>1781</ele>
        <time>2017-06-08T12:15:18Z</time>
      </trkpt>
      <trkpt lat="44.06571" lon="6.94631">
        <ele>1781</ele>
        <time>2017-06-08T12:15:18Z</time>
      </trkpt>
      <trkpt lat="44.06571" lon="6.94628">
        <ele>1781</ele>
        <time>2017-06-08T12:15:18Z</time>
      </trkpt>
      <trkpt lat="44.06572" lon="6.94626">
        <ele>1781</ele>
        <time>2017-06-08T12:15:34Z</time>
      </trkpt>
      <trkpt lat="44.06571" lon="6.94621">
        <ele>1780</ele>
        <time>2017-06-08T12:15:34Z</time>
      </trkpt>
      <trkpt lat="44.0657" lon="6.94608">
        <ele>1780</ele>
        <time>2017-06-08T12:15:34Z</time>
      </trkpt>
      <trkpt lat="44.06571" lon="6.94603">
        <ele>1780</ele>
        <time>2017-06-08T12:15:34Z</time>
      </trkpt>
      <trkpt lat="44.06573" lon="6.94599">
        <ele>1780</ele>
        <time>2017-06-08T12:15:49Z</time>
      </trkpt>
      <trkpt lat="44.06575" lon="6.94596">
        <ele>1782</ele>
        <time>2017-06-08T12:15:49Z</time>
      </trkpt>
      <trkpt lat="44.0657" lon="6.94587">
        <ele>1782</ele>
        <time>2017-06-08T12:15:49Z</time>
      </trkpt>
      <trkpt lat="44.06571" lon="6.94586">
        <ele>1782</ele>
        <time>2017-06-08T12:15:49Z</time>
      </trkpt>
      <trkpt lat="44.0657" lon="6.94581">
        <ele>1782</ele>
        <time>2017-06-08T12:16:05Z</time>
      </trkpt>
      <trkpt lat="44.06572" lon="6.94577">
        <ele>1782</ele>
        <time>2017-06-08T12:16:05Z</time>
      </trkpt>
      <trkpt lat="44.06576" lon="6.9458">
        <ele>1782</ele>
        <time>2017-06-08T12:16:05Z</time>
      </trkpt>
      <trkpt lat="44.06578" lon="6.94576">
        <ele>1782</ele>
        <time>2017-06-08T12:16:05Z</time>
      </trkpt>
      <trkpt lat="44.06585" lon="6.94579">
        <ele>1782</ele>
        <time>2017-06-08T12:16:54Z</time>
      </trkpt>
      <trkpt lat="44.06589" lon="6.94577">
        <ele>1782</ele>
        <time>2017-06-08T12:16:54Z</time>
      </trkpt>
      <trkpt lat="44.06591" lon="6.94575">
        <ele>1782</ele>
        <time>2017-06-08T12:16:54Z</time>
      </trkpt>
      <trkpt lat="44.06594" lon="6.94576">
        <ele>1782</ele>
        <time>2017-06-08T12:16:54Z</time>
      </trkpt>
      <trkpt lat="44.06598" lon="6.94573">
        <ele>1781</ele>
        <time>2017-06-08T12:16:54Z</time>
      </trkpt>
      <trkpt lat="44.06601" lon="6.94568">
        <ele>1785</ele>
        <time>2017-06-08T12:17:44Z</time>
      </trkpt>
      <trkpt lat="44.066" lon="6.94566">
        <ele>1785</ele>
        <time>2017-06-08T12:17:44Z</time>
      </trkpt>
      <trkpt lat="44.06599" lon="6.94565">
        <ele>1785</ele>
        <time>2017-06-08T12:17:45Z</time>
      </trkpt>
      <trkpt lat="44.06599" lon="6.94563">
        <ele>1785</ele>
        <time>2017-06-08T12:17:45Z</time>
      </trkpt>
      <trkpt lat="44.06595" lon="6.94558">
        <ele>1788</ele>
        <time>2017-06-08T12:17:45Z</time>
      </trkpt>
      <trkpt lat="44.0659" lon="6.94548">
        <ele>1788</ele>
        <time>2017-06-08T12:18:28Z</time>
      </trkpt>
      <trkpt lat="44.06588" lon="6.94545">
        <ele>1788</ele>
        <time>2017-06-08T12:18:28Z</time>
      </trkpt>
      <trkpt lat="44.06587" lon="6.94545">
        <ele>1788</ele>
        <time>2017-06-08T12:18:28Z</time>
      </trkpt>
      <trkpt lat="44.06585" lon="6.94541">
        <ele>1797</ele>
        <time>2017-06-08T12:18:29Z</time>
      </trkpt>
      <trkpt lat="44.06585" lon="6.9454">
        <ele>1797</ele>
        <time>2017-06-08T12:18:29Z</time>
      </trkpt>
      <trkpt lat="44.06584" lon="6.94528">
        <ele>1797</ele>
        <time>2017-06-08T12:19:32Z</time>
      </trkpt>
      <trkpt lat="44.06583" lon="6.94526">
        <ele>1797</ele>
        <time>2017-06-08T12:19:32Z</time>
      </trkpt>
      <trkpt lat="44.06584" lon="6.94525">
        <ele>1797</ele>
        <time>2017-06-08T12:19:33Z</time>
      </trkpt>
      <trkpt lat="44.06583" lon="6.94524">
        <ele>1797</ele>
        <time>2017-06-08T12:19:33Z</time>
      </trkpt>
      <trkpt lat="44.06582" lon="6.94517">
        <ele>1797</ele>
        <time>2017-06-08T12:19:33Z</time>
      </trkpt>
      <trkpt lat="44.06574" lon="6.94508">
        <ele>1804</ele>
        <time>2017-06-08T12:20:06Z</time>
      </trkpt>
      <trkpt lat="44.06573" lon="6.94507">
        <ele>1804</ele>
        <time>2017-06-08T12:20:06Z</time>
      </trkpt>
      <trkpt lat="44.06571" lon="6.94503">
        <ele>1804</ele>
        <time>2017-06-08T12:20:06Z</time>
      </trkpt>
      <trkpt lat="44.0657" lon="6.94504">
        <ele>1804</ele>
        <time>2017-06-08T12:20:06Z</time>
      </trkpt>
      <trkpt lat="44.06567" lon="6.94502">
        <ele>1811</ele>
        <time>2017-06-08T12:20:06Z</time>
      </trkpt>
      <trkpt lat="44.06564" lon="6.945">
        <ele>1811</ele>
        <time>2017-06-08T12:20:36Z</time>
      </trkpt>
      <trkpt lat="44.06564" lon="6.94499">
        <ele>1811</ele>
        <time>2017-06-08T12:20:37Z</time>
      </trkpt>
      <trkpt lat="44.06563" lon="6.945">
        <ele>1811</ele>
        <time>2017-06-08T12:20:37Z</time>
      </trkpt>
      <trkpt lat="44.06561" lon="6.94499">
        <ele>1811</ele>
        <time>2017-06-08T12:20:37Z</time>
      </trkpt>
      <trkpt lat="44.0656" lon="6.94496">
        <ele>1811</ele>
        <time>2017-06-08T12:20:37Z</time>
      </trkpt>
      <trkpt lat="44.0656" lon="6.94494">
        <ele>1811</ele>
        <time>2017-06-08T12:21:06Z</time>
      </trkpt>
      <trkpt lat="44.06558" lon="6.94493">
        <ele>1811</ele>
        <time>2017-06-08T12:21:06Z</time>
      </trkpt>
      <trkpt lat="44.06552" lon="6.9449">
        <ele>1811</ele>
        <time>2017-06-08T12:21:06Z</time>
      </trkpt>
      <trkpt lat="44.06552" lon="6.9449">
        <ele>1811</ele>
        <time>2017-06-08T12:21:06Z</time>
      </trkpt>
      <trkpt lat="44.0655" lon="6.94489">
        <ele>1811</ele>
        <time>2017-06-08T12:21:06Z</time>
      </trkpt>
      <trkpt lat="44.06549" lon="6.94486">
        <ele>1819</ele>
        <time>2017-06-08T12:21:36Z</time>
      </trkpt>
      <trkpt lat="44.06547" lon="6.94486">
        <ele>1819</ele>
        <time>2017-06-08T12:21:36Z</time>
      </trkpt>
      <trkpt lat="44.06544" lon="6.94484">
        <ele>1819</ele>
        <time>2017-06-08T12:21:37Z</time>
      </trkpt>
      <trkpt lat="44.06543" lon="6.94484">
        <ele>1819</ele>
        <time>2017-06-08T12:21:37Z</time>
      </trkpt>
      <trkpt lat="44.06542" lon="6.94482">
        <ele>1822</ele>
        <time>2017-06-08T12:21:37Z</time>
      </trkpt>
      <trkpt lat="44.06536" lon="6.94477">
        <ele>1822</ele>
        <time>2017-06-08T12:22:08Z</time>
      </trkpt>
      <trkpt lat="44.06535" lon="6.94475">
        <ele>1822</ele>
        <time>2017-06-08T12:22:08Z</time>
      </trkpt>
      <trkpt lat="44.06534" lon="6.94473">
        <ele>1822</ele>
        <time>2017-06-08T12:22:08Z</time>
      </trkpt>
      <trkpt lat="44.06534" lon="6.94472">
        <ele>1822</ele>
        <time>2017-06-08T12:22:08Z</time>
      </trkpt>
      <trkpt lat="44.06527" lon="6.94465">
        <ele>1822</ele>
        <time>2017-06-08T12:22:08Z</time>
      </trkpt>
      <trkpt lat="44.06525" lon="6.94448">
        <ele>1832</ele>
        <time>2017-06-08T12:23:18Z</time>
      </trkpt>
      <trkpt lat="44.06521" lon="6.94447">
        <ele>1832</ele>
        <time>2017-06-08T12:23:18Z</time>
      </trkpt>
      <trkpt lat="44.06519" lon="6.94445">
        <ele>1832</ele>
        <time>2017-06-08T12:23:18Z</time>
      </trkpt>
      <trkpt lat="44.06519" lon="6.94444">
        <ele>1832</ele>
        <time>2017-06-08T12:23:18Z</time>
      </trkpt>
      <trkpt lat="44.06517" lon="6.94444">
        <ele>1832</ele>
        <time>2017-06-08T12:23:18Z</time>
      </trkpt>
      <trkpt lat="44.06516" lon="6.94439">
        <ele>1832</ele>
        <time>2017-06-08T12:23:58Z</time>
      </trkpt>
      <trkpt lat="44.06516" lon="6.94438">
        <ele>1832</ele>
        <time>2017-06-08T12:23:58Z</time>
      </trkpt>
      <trkpt lat="44.06513" lon="6.94436">
        <ele>1833</ele>
        <time>2017-06-08T12:23:59Z</time>
      </trkpt>
      <trkpt lat="44.06511" lon="6.94437">
        <ele>1833</ele>
        <time>2017-06-08T12:23:59Z</time>
      </trkpt>
      <trkpt lat="44.06508" lon="6.94434">
        <ele>1833</ele>
        <time>2017-06-08T12:23:59Z</time>
      </trkpt>
      <trkpt lat="44.06505" lon="6.94425">
        <ele>1843</ele>
        <time>2017-06-08T12:24:37Z</time>
      </trkpt>
      <trkpt lat="44.06504" lon="6.94424">
        <ele>1843</ele>
        <time>2017-06-08T12:24:38Z</time>
      </trkpt>
      <trkpt lat="44.06505" lon="6.94424">
        <ele>1843</ele>
        <time>2017-06-08T12:24:38Z</time>
      </trkpt>
      <trkpt lat="44.06505" lon="6.9442">
        <ele>1843</ele>
        <time>2017-06-08T12:24:38Z</time>
      </trkpt>
      <trkpt lat="44.06501" lon="6.94414">
        <ele>1843</ele>
        <time>2017-06-08T12:24:38Z</time>
      </trkpt>
      <trkpt lat="44.06502" lon="6.94404">
        <ele>1843</ele>
        <time>2017-06-08T12:25:38Z</time>
      </trkpt>
      <trkpt lat="44.06501" lon="6.94401">
        <ele>1852</ele>
        <time>2017-06-08T12:25:38Z</time>
      </trkpt>
      <trkpt lat="44.06502" lon="6.94396">
        <ele>1852</ele>
        <time>2017-06-08T12:25:38Z</time>
      </trkpt>
      <trkpt lat="44.06502" lon="6.94393">
        <ele>1852</ele>
        <time>2017-06-08T12:25:38Z</time>
      </trkpt>
      <trkpt lat="44.06502" lon="6.94388">
        <ele>1852</ele>
        <time>2017-06-08T12:25:38Z</time>
      </trkpt>
      <trkpt lat="44.06502" lon="6.94387">
        <ele>1852</ele>
        <time>2017-06-08T12:25:55Z</time>
      </trkpt>
      <trkpt lat="44.06498" lon="6.94382">
        <ele>1852</ele>
        <time>2017-06-08T12:25:55Z</time>
      </trkpt>
      <trkpt lat="44.06495" lon="6.94378">
        <ele>1852</ele>
        <time>2017-06-08T12:25:55Z</time>
      </trkpt>
      <trkpt lat="44.06493" lon="6.94376">
        <ele>1852</ele>
        <time>2017-06-08T12:25:55Z</time>
      </trkpt>
      <trkpt lat="44.06491" lon="6.94374">
        <ele>1863</ele>
        <time>2017-06-08T12:26:10Z</time>
      </trkpt>
      <trkpt lat="44.06488" lon="6.94375">
        <ele>1863</ele>
        <time>2017-06-08T12:26:10Z</time>
      </trkpt>
      <trkpt lat="44.06486" lon="6.94376">
        <ele>1851</ele>
        <time>2017-06-08T12:26:10Z</time>
      </trkpt>
      <trkpt lat="44.06481" lon="6.94375">
        <ele>1851</ele>
        <time>2017-06-08T12:26:10Z</time>
      </trkpt>
      <trkpt lat="44.0648" lon="6.94369">
        <ele>1861</ele>
        <time>2017-06-08T12:26:38Z</time>
      </trkpt>
      <trkpt lat="44.06473" lon="6.94364">
        <ele>1861</ele>
        <time>2017-06-08T12:26:38Z</time>
      </trkpt>
      <trkpt lat="44.06469" lon="6.94364">
        <ele>1861</ele>
        <time>2017-06-08T12:26:39Z</time>
      </trkpt>
      <trkpt lat="44.06462" lon="6.94363">
        <ele>1861</ele>
        <time>2017-06-08T12:26:39Z</time>
      </trkpt>
      <trkpt lat="44.0646" lon="6.94362">
        <ele>1861</ele>
        <time>2017-06-08T12:26:39Z</time>
      </trkpt>
      <trkpt lat="44.06453" lon="6.94354">
        <ele>1862</ele>
        <time>2017-06-08T12:27:01Z</time>
      </trkpt>
      <trkpt lat="44.06453" lon="6.94349">
        <ele>1862</ele>
        <time>2017-06-08T12:27:01Z</time>
      </trkpt>
      <trkpt lat="44.06456" lon="6.94346">
        <ele>1875</ele>
        <time>2017-06-08T12:27:01Z</time>
      </trkpt>
      <trkpt lat="44.06454" lon="6.94346">
        <ele>1875</ele>
        <time>2017-06-08T12:27:01Z</time>
      </trkpt>
      <trkpt lat="44.06452" lon="6.94344">
        <ele>1875</ele>
        <time>2017-06-08T12:27:01Z</time>
      </trkpt>
      <trkpt lat="44.06451" lon="6.94342">
        <ele>1875</ele>
        <time>2017-06-08T12:27:22Z</time>
      </trkpt>
      <trkpt lat="44.06447" lon="6.94341">
        <ele>1875</ele>
        <time>2017-06-08T12:27:22Z</time>
      </trkpt>
      <trkpt lat="44.06447" lon="6.94338">
        <ele>1875</ele>
        <time>2017-06-08T12:27:22Z</time>
      </trkpt>
      <trkpt lat="44.06445" lon="6.94335">
        <ele>1875</ele>
        <time>2017-06-08T12:27:23Z</time>
      </trkpt>
      <trkpt lat="44.06444" lon="6.94331">
        <ele>1875</ele>
        <time>2017-06-08T12:27:23Z</time>
      </trkpt>
      <trkpt lat="44.06443" lon="6.94328">
        <ele>1875</ele>
        <time>2017-06-08T12:27:51Z</time>
      </trkpt>
      <trkpt lat="44.06442" lon="6.94327">
        <ele>1875</ele>
        <time>2017-06-08T12:27:51Z</time>
      </trkpt>
      <trkpt lat="44.06441" lon="6.94325">
        <ele>1875</ele>
        <time>2017-06-08T12:27:51Z</time>
      </trkpt>
      <trkpt lat="44.06441" lon="6.94325">
        <ele>1875</ele>
        <time>2017-06-08T12:27:51Z</time>
      </trkpt>
      <trkpt lat="44.06439" lon="6.94316">
        <ele>1888</ele>
        <time>2017-06-08T12:27:51Z</time>
      </trkpt>
      <trkpt lat="44.06446" lon="6.94306">
        <ele>1888</ele>
        <time>2017-06-08T12:28:31Z</time>
      </trkpt>
      <trkpt lat="44.06446" lon="6.94303">
        <ele>1888</ele>
        <time>2017-06-08T12:28:31Z</time>
      </trkpt>
      <trkpt lat="44.06448" lon="6.94302">
        <ele>1888</ele>
        <time>2017-06-08T12:28:31Z</time>
      </trkpt>
      <trkpt lat="44.06453" lon="6.94294">
        <ele>1888</ele>
        <time>2017-06-08T12:28:31Z</time>
      </trkpt>
      <trkpt lat="44.06455" lon="6.94292">
        <ele>1888</ele>
        <time>2017-06-08T12:28:31Z</time>
      </trkpt>
      <trkpt lat="44.06455" lon="6.94292">
        <ele>1888</ele>
        <time>2017-06-08T12:28:48Z</time>
      </trkpt>
      <trkpt lat="44.06457" lon="6.94295">
        <ele>1888</ele>
        <time>2017-06-08T12:28:48Z</time>
      </trkpt>
      <trkpt lat="44.0646" lon="6.94291">
        <ele>1897</ele>
        <time>2017-06-08T12:28:49Z</time>
      </trkpt>
      <trkpt lat="44.06463" lon="6.94288">
        <ele>1897</ele>
        <time>2017-06-08T12:28:49Z</time>
      </trkpt>
      <trkpt lat="44.06464" lon="6.94287">
        <ele>1897</ele>
        <time>2017-06-08T12:28:49Z</time>
      </trkpt>
      <trkpt lat="44.06462" lon="6.94287">
        <ele>1897</ele>
        <time>2017-06-08T12:29:08Z</time>
      </trkpt>
      <trkpt lat="44.06462" lon="6.94284">
        <ele>1897</ele>
        <time>2017-06-08T12:29:09Z</time>
      </trkpt>
      <trkpt lat="44.06463" lon="6.94282">
        <ele>1897</ele>
        <time>2017-06-08T12:29:09Z</time>
      </trkpt>
      <trkpt lat="44.06464" lon="6.94278">
        <ele>1897</ele>
        <time>2017-06-08T12:29:09Z</time>
      </trkpt>
      <trkpt lat="44.06464" lon="6.94272">
        <ele>1897</ele>
        <time>2017-06-08T12:29:09Z</time>
      </trkpt>
      <trkpt lat="44.06459" lon="6.94252">
        <ele>1904</ele>
        <time>2017-06-08T12:30:09Z</time>
      </trkpt>
      <trkpt lat="44.06454" lon="6.94245">
        <ele>1906</ele>
        <time>2017-06-08T12:30:09Z</time>
      </trkpt>
      <trkpt lat="44.06453" lon="6.94243">
        <ele>1906</ele>
        <time>2017-06-08T12:30:09Z</time>
      </trkpt>
      <trkpt lat="44.06453" lon="6.94243">
        <ele>1906</ele>
        <time>2017-06-08T12:30:09Z</time>
      </trkpt>
      <trkpt lat="44.06452" lon="6.94242">
        <ele>1906</ele>
        <time>2017-06-08T12:30:09Z</time>
      </trkpt>
      <trkpt lat="44.06448" lon="6.94243">
        <ele>1906</ele>
        <time>2017-06-08T12:30:27Z</time>
      </trkpt>
      <trkpt lat="44.06444" lon="6.9424">
        <ele>1906</ele>
        <time>2017-06-08T12:30:27Z</time>
      </trkpt>
      <trkpt lat="44.0644" lon="6.9424">
        <ele>1906</ele>
        <time>2017-06-08T12:30:28Z</time>
      </trkpt>
      <trkpt lat="44.06437" lon="6.94235">
        <ele>1913</ele>
        <time>2017-06-08T12:30:28Z</time>
      </trkpt>
      <trkpt lat="44.06439" lon="6.94234">
        <ele>1913</ele>
        <time>2017-06-08T12:30:55Z</time>
      </trkpt>
      <trkpt lat="44.06441" lon="6.94234">
        <ele>1913</ele>
        <time>2017-06-08T12:30:55Z</time>
      </trkpt>
      <trkpt lat="44.06442" lon="6.94229">
        <ele>1913</ele>
        <time>2017-06-08T12:30:55Z</time>
      </trkpt>
      <trkpt lat="44.06442" lon="6.94228">
        <ele>1913</ele>
        <time>2017-06-08T12:30:55Z</time>
      </trkpt>
      <trkpt lat="44.06442" lon="6.94222">
        <ele>1913</ele>
        <time>2017-06-08T12:30:55Z</time>
      </trkpt>
      <trkpt lat="44.06442" lon="6.94219">
        <ele>1913</ele>
        <time>2017-06-08T12:31:19Z</time>
      </trkpt>
      <trkpt lat="44.06441" lon="6.94216">
        <ele>1913</ele>
        <time>2017-06-08T12:31:19Z</time>
      </trkpt>
      <trkpt lat="44.06438" lon="6.94214">
        <ele>1913</ele>
        <time>2017-06-08T12:31:20Z</time>
      </trkpt>
      <trkpt lat="44.06437" lon="6.94214">
        <ele>1913</ele>
        <time>2017-06-08T12:31:20Z</time>
      </trkpt>
      <trkpt lat="44.06436" lon="6.94212">
        <ele>1913</ele>
        <time>2017-06-08T12:31:20Z</time>
      </trkpt>
      <trkpt lat="44.06433" lon="6.94209">
        <ele>1913</ele>
        <time>2017-06-08T12:31:44Z</time>
      </trkpt>
      <trkpt lat="44.06431" lon="6.94205">
        <ele>1922</ele>
        <time>2017-06-08T12:31:44Z</time>
      </trkpt>
      <trkpt lat="44.06431" lon="6.94202">
        <ele>1922</ele>
        <time>2017-06-08T12:31:45Z</time>
      </trkpt>
      <trkpt lat="44.06432" lon="6.942">
        <ele>1922</ele>
        <time>2017-06-08T12:31:45Z</time>
      </trkpt>
      <trkpt lat="44.06434" lon="6.94198">
        <ele>1922</ele>
        <time>2017-06-08T12:31:45Z</time>
      </trkpt>
      <trkpt lat="44.06439" lon="6.94189">
        <ele>1922</ele>
        <time>2017-06-08T12:32:27Z</time>
      </trkpt>
      <trkpt lat="44.06439" lon="6.94187">
        <ele>1922</ele>
        <time>2017-06-08T12:32:27Z</time>
      </trkpt>
      <trkpt lat="44.06438" lon="6.94183">
        <ele>1922</ele>
        <time>2017-06-08T12:32:27Z</time>
      </trkpt>
      <trkpt lat="44.06438" lon="6.94182">
        <ele>1922</ele>
        <time>2017-06-08T12:32:27Z</time>
      </trkpt>
      <trkpt lat="44.06438" lon="6.94178">
        <ele>1933</ele>
        <time>2017-06-08T12:32:27Z</time>
      </trkpt>
      <trkpt lat="44.06437" lon="6.94174">
        <ele>1933</ele>
        <time>2017-06-08T12:32:40Z</time>
      </trkpt>
      <trkpt lat="44.06435" lon="6.9417">
        <ele>1933</ele>
        <time>2017-06-08T12:32:40Z</time>
      </trkpt>
      <trkpt lat="44.06432" lon="6.94167">
        <ele>1933</ele>
        <time>2017-06-08T12:32:41Z</time>
      </trkpt>
      <trkpt lat="44.06428" lon="6.94162">
        <ele>1930</ele>
        <time>2017-06-08T12:32:41Z</time>
      </trkpt>
      <trkpt lat="44.06424" lon="6.94163">
        <ele>1930</ele>
        <time>2017-06-08T12:32:56Z</time>
      </trkpt>
      <trkpt lat="44.06421" lon="6.94159">
        <ele>1930</ele>
        <time>2017-06-08T12:32:56Z</time>
      </trkpt>
      <trkpt lat="44.06418" lon="6.94154">
        <ele>1930</ele>
        <time>2017-06-08T12:32:57Z</time>
      </trkpt>
      <trkpt lat="44.06416" lon="6.94152">
        <ele>1940</ele>
        <time>2017-06-08T12:32:57Z</time>
      </trkpt>
      <trkpt lat="44.06411" lon="6.9415">
        <ele>1940</ele>
        <time>2017-06-08T12:33:15Z</time>
      </trkpt>
      <trkpt lat="44.06407" lon="6.9415">
        <ele>1940</ele>
        <time>2017-06-08T12:33:15Z</time>
      </trkpt>
      <trkpt lat="44.06404" lon="6.94146">
        <ele>1940</ele>
        <time>2017-06-08T12:33:15Z</time>
      </trkpt>
      <trkpt lat="44.06399" lon="6.94142">
        <ele>1935</ele>
        <time>2017-06-08T12:33:15Z</time>
      </trkpt>
      <trkpt lat="44.06398" lon="6.94141">
        <ele>1935</ele>
        <time>2017-06-08T12:33:32Z</time>
      </trkpt>
      <trkpt lat="44.06394" lon="6.94134">
        <ele>1935</ele>
        <time>2017-06-08T12:33:32Z</time>
      </trkpt>
      <trkpt lat="44.06392" lon="6.94134">
        <ele>1935</ele>
        <time>2017-06-08T12:33:33Z</time>
      </trkpt>
      <trkpt lat="44.06383" lon="6.94131">
        <ele>1935</ele>
        <time>2017-06-08T12:33:33Z</time>
      </trkpt>
      <trkpt lat="44.06376" lon="6.94127">
        <ele>1935</ele>
        <time>2017-06-08T12:34:07Z</time>
      </trkpt>
      <trkpt lat="44.06375" lon="6.94121">
        <ele>1946</ele>
        <time>2017-06-08T12:34:07Z</time>
      </trkpt>
      <trkpt lat="44.06375" lon="6.9412">
        <ele>1946</ele>
        <time>2017-06-08T12:34:07Z</time>
      </trkpt>
      <trkpt lat="44.06374" lon="6.9412">
        <ele>1943</ele>
        <time>2017-06-08T12:34:07Z</time>
      </trkpt>
      <trkpt lat="44.06374" lon="6.94119">
        <ele>1943</ele>
        <time>2017-06-08T12:34:07Z</time>
      </trkpt>
      <trkpt lat="44.06372" lon="6.94119">
        <ele>1943</ele>
        <time>2017-06-08T12:34:26Z</time>
      </trkpt>
      <trkpt lat="44.06369" lon="6.94117">
        <ele>1943</ele>
        <time>2017-06-08T12:34:27Z</time>
      </trkpt>
      <trkpt lat="44.06366" lon="6.94115">
        <ele>1943</ele>
        <time>2017-06-08T12:34:27Z</time>
      </trkpt>
      <trkpt lat="44.06367" lon="6.94111">
        <ele>1943</ele>
        <time>2017-06-08T12:34:27Z</time>
      </trkpt>
      <trkpt lat="44.06367" lon="6.94104">
        <ele>1943</ele>
        <time>2017-06-08T12:34:27Z</time>
      </trkpt>
      <trkpt lat="44.06369" lon="6.94103">
        <ele>1943</ele>
        <time>2017-06-08T12:34:54Z</time>
      </trkpt>
      <trkpt lat="44.0637" lon="6.94097">
        <ele>1950</ele>
        <time>2017-06-08T12:34:54Z</time>
      </trkpt>
      <trkpt lat="44.0637" lon="6.94097">
        <ele>1950</ele>
        <time>2017-06-08T12:34:54Z</time>
      </trkpt>
      <trkpt lat="44.0637" lon="6.94092">
        <ele>1950</ele>
        <time>2017-06-08T12:34:54Z</time>
      </trkpt>
      <trkpt lat="44.06369" lon="6.9409">
        <ele>1950</ele>
        <time>2017-06-08T12:34:54Z</time>
      </trkpt>
      <trkpt lat="44.06368" lon="6.94085">
        <ele>1950</ele>
        <time>2017-06-08T12:35:08Z</time>
      </trkpt>
      <trkpt lat="44.06365" lon="6.9408">
        <ele>1950</ele>
        <time>2017-06-08T12:35:08Z</time>
      </trkpt>
      <trkpt lat="44.06365" lon="6.94078">
        <ele>1950</ele>
        <time>2017-06-08T12:35:09Z</time>
      </trkpt>
      <trkpt lat="44.06364" lon="6.94072">
        <ele>1950</ele>
        <time>2017-06-08T12:35:09Z</time>
      </trkpt>
      <trkpt lat="44.06364" lon="6.94066">
        <ele>1958</ele>
        <time>2017-06-08T12:35:26Z</time>
      </trkpt>
      <trkpt lat="44.06364" lon="6.94062">
        <ele>1958</ele>
        <time>2017-06-08T12:35:26Z</time>
      </trkpt>
      <trkpt lat="44.06363" lon="6.94058">
        <ele>1958</ele>
        <time>2017-06-08T12:35:26Z</time>
      </trkpt>
      <trkpt lat="44.06363" lon="6.94053">
        <ele>1958</ele>
        <time>2017-06-08T12:35:27Z</time>
      </trkpt>
      <trkpt lat="44.06362" lon="6.9405">
        <ele>1958</ele>
        <time>2017-06-08T12:35:44Z</time>
      </trkpt>
      <trkpt lat="44.06359" lon="6.94042">
        <ele>1958</ele>
        <time>2017-06-08T12:35:44Z</time>
      </trkpt>
      <trkpt lat="44.06358" lon="6.94037">
        <ele>1966</ele>
        <time>2017-06-08T12:35:44Z</time>
      </trkpt>
      <trkpt lat="44.06356" lon="6.94031">
        <ele>1966</ele>
        <time>2017-06-08T12:35:44Z</time>
      </trkpt>
      <trkpt lat="44.06355" lon="6.94028">
        <ele>1966</ele>
        <time>2017-06-08T12:35:59Z</time>
      </trkpt>
      <trkpt lat="44.06352" lon="6.94017">
        <ele>1966</ele>
        <time>2017-06-08T12:35:59Z</time>
      </trkpt>
      <trkpt lat="44.0635" lon="6.94014">
        <ele>1972</ele>
        <time>2017-06-08T12:36:00Z</time>
      </trkpt>
      <trkpt lat="44.06349" lon="6.94009">
        <ele>1972</ele>
        <time>2017-06-08T12:36:00Z</time>
      </trkpt>
      <trkpt lat="44.06349" lon="6.94008">
        <ele>1972</ele>
        <time>2017-06-08T12:36:19Z</time>
      </trkpt>
      <trkpt lat="44.06349" lon="6.94005">
        <ele>1972</ele>
        <time>2017-06-08T12:36:19Z</time>
      </trkpt>
      <trkpt lat="44.06353" lon="6.94002">
        <ele>1972</ele>
        <time>2017-06-08T12:36:19Z</time>
      </trkpt>
      <trkpt lat="44.06355" lon="6.94001">
        <ele>1972</ele>
        <time>2017-06-08T12:36:19Z</time>
      </trkpt>
      <trkpt lat="44.06358" lon="6.93996">
        <ele>1972</ele>
        <time>2017-06-08T12:36:19Z</time>
      </trkpt>
      <trkpt lat="44.06362" lon="6.93992">
        <ele>1972</ele>
        <time>2017-06-08T12:36:36Z</time>
      </trkpt>
      <trkpt lat="44.06366" lon="6.93988">
        <ele>1972</ele>
        <time>2017-06-08T12:36:37Z</time>
      </trkpt>
      <trkpt lat="44.06369" lon="6.93984">
        <ele>1976</ele>
        <time>2017-06-08T12:36:37Z</time>
      </trkpt>
      <trkpt lat="44.06371" lon="6.93982">
        <ele>1976</ele>
        <time>2017-06-08T12:36:37Z</time>
      </trkpt>
      <trkpt lat="44.0637" lon="6.93977">
        <ele>1976</ele>
        <time>2017-06-08T12:36:58Z</time>
      </trkpt>
      <trkpt lat="44.06369" lon="6.93973">
        <ele>1976</ele>
        <time>2017-06-08T12:36:59Z</time>
      </trkpt>
      <trkpt lat="44.06371" lon="6.93973">
        <ele>1976</ele>
        <time>2017-06-08T12:36:59Z</time>
      </trkpt>
      <trkpt lat="44.06371" lon="6.93969">
        <ele>1976</ele>
        <time>2017-06-08T12:36:59Z</time>
      </trkpt>
      <trkpt lat="44.06371" lon="6.93965">
        <ele>1976</ele>
        <time>2017-06-08T12:36:59Z</time>
      </trkpt>
      <trkpt lat="44.06368" lon="6.93962">
        <ele>1976</ele>
        <time>2017-06-08T12:37:14Z</time>
      </trkpt>
      <trkpt lat="44.06365" lon="6.93955">
        <ele>1982</ele>
        <time>2017-06-08T12:37:14Z</time>
      </trkpt>
      <trkpt lat="44.06362" lon="6.93954">
        <ele>1982</ele>
        <time>2017-06-08T12:37:15Z</time>
      </trkpt>
      <trkpt lat="44.06361" lon="6.93951">
        <ele>1982</ele>
        <time>2017-06-08T12:37:15Z</time>
      </trkpt>
      <trkpt lat="44.0636" lon="6.93949">
        <ele>1982</ele>
        <time>2017-06-08T12:37:32Z</time>
      </trkpt>
      <trkpt lat="44.06358" lon="6.93941">
        <ele>1982</ele>
        <time>2017-06-08T12:37:32Z</time>
      </trkpt>
      <trkpt lat="44.06358" lon="6.9394">
        <ele>1982</ele>
        <time>2017-06-08T12:37:32Z</time>
      </trkpt>
      <trkpt lat="44.06353" lon="6.93931">
        <ele>1982</ele>
        <time>2017-06-08T12:37:32Z</time>
      </trkpt>
      <trkpt lat="44.06357" lon="6.93926">
        <ele>1986</ele>
        <time>2017-06-08T12:38:00Z</time>
      </trkpt>
      <trkpt lat="44.06357" lon="6.93919">
        <ele>1986</ele>
        <time>2017-06-08T12:38:00Z</time>
      </trkpt>
      <trkpt lat="44.06358" lon="6.93917">
        <ele>1986</ele>
        <time>2017-06-08T12:38:01Z</time>
      </trkpt>
      <trkpt lat="44.06356" lon="6.9391">
        <ele>1986</ele>
        <time>2017-06-08T12:38:01Z</time>
      </trkpt>
      <trkpt lat="44.06355" lon="6.93909">
        <ele>1986</ele>
        <time>2017-06-08T12:38:01Z</time>
      </trkpt>
      <trkpt lat="44.06298" lon="6.93833">
        <ele>1982</ele>
        <time>2017-06-08T12:52:51Z</time>
      </trkpt>
      <trkpt lat="44.06295" lon="6.93828">
        <ele>1982</ele>
        <time>2017-06-08T12:52:51Z</time>
      </trkpt>
      <trkpt lat="44.06292" lon="6.93824">
        <ele>1982</ele>
        <time>2017-06-08T12:52:51Z</time>
      </trkpt>
      <trkpt lat="44.06287" lon="6.93821">
        <ele>1977</ele>
        <time>2017-06-08T12:52:51Z</time>
      </trkpt>
      <trkpt lat="44.06283" lon="6.93818">
        <ele>1979</ele>
        <time>2017-06-08T12:53:07Z</time>
      </trkpt>
      <trkpt lat="44.06278" lon="6.93818">
        <ele>1979</ele>
        <time>2017-06-08T12:53:07Z</time>
      </trkpt>
      <trkpt lat="44.06275" lon="6.9382">
        <ele>1977</ele>
        <time>2017-06-08T12:53:07Z</time>
      </trkpt>
      <trkpt lat="44.06273" lon="6.93821">
        <ele>1977</ele>
        <time>2017-06-08T12:53:07Z</time>
      </trkpt>
      <trkpt lat="44.0627" lon="6.93816">
        <ele>1979</ele>
        <time>2017-06-08T12:53:23Z</time>
      </trkpt>
      <trkpt lat="44.06266" lon="6.93813">
        <ele>1979</ele>
        <time>2017-06-08T12:53:23Z</time>
      </trkpt>
      <trkpt lat="44.06261" lon="6.93817">
        <ele>1977</ele>
        <time>2017-06-08T12:53:23Z</time>
      </trkpt>
      <trkpt lat="44.06258" lon="6.93813">
        <ele>1977</ele>
        <time>2017-06-08T12:53:23Z</time>
      </trkpt>
      <trkpt lat="44.06254" lon="6.93816">
        <ele>1977</ele>
        <time>2017-06-08T12:53:39Z</time>
      </trkpt>
      <trkpt lat="44.0625" lon="6.93818">
        <ele>1977</ele>
        <time>2017-06-08T12:53:39Z</time>
      </trkpt>
      <trkpt lat="44.06245" lon="6.93822">
        <ele>1977</ele>
        <time>2017-06-08T12:53:39Z</time>
      </trkpt>
      <trkpt lat="44.06241" lon="6.93822">
        <ele>1977</ele>
        <time>2017-06-08T12:53:39Z</time>
      </trkpt>
      <trkpt lat="44.06238" lon="6.93823">
        <ele>1977</ele>
        <time>2017-06-08T12:53:59Z</time>
      </trkpt>
      <trkpt lat="44.06236" lon="6.93826">
        <ele>1979</ele>
        <time>2017-06-08T12:53:59Z</time>
      </trkpt>
      <trkpt lat="44.06234" lon="6.93829">
        <ele>1979</ele>
        <time>2017-06-08T12:53:59Z</time>
      </trkpt>
      <trkpt lat="44.06231" lon="6.93829">
        <ele>1979</ele>
        <time>2017-06-08T12:53:59Z</time>
      </trkpt>
      <trkpt lat="44.06229" lon="6.93832">
        <ele>1979</ele>
        <time>2017-06-08T12:53:59Z</time>
      </trkpt>
      <trkpt lat="44.06225" lon="6.93832">
        <ele>1979</ele>
        <time>2017-06-08T12:54:19Z</time>
      </trkpt>
      <trkpt lat="44.06224" lon="6.93833">
        <ele>1979</ele>
        <time>2017-06-08T12:54:19Z</time>
      </trkpt>
      <trkpt lat="44.06221" lon="6.93836">
        <ele>1979</ele>
        <time>2017-06-08T12:54:19Z</time>
      </trkpt>
      <trkpt lat="44.06219" lon="6.93839">
        <ele>1979</ele>
        <time>2017-06-08T12:54:19Z</time>
      </trkpt>
      <trkpt lat="44.06217" lon="6.93841">
        <ele>1979</ele>
        <time>2017-06-08T12:54:19Z</time>
      </trkpt>
      <trkpt lat="44.06205" lon="6.93842">
        <ele>1981</ele>
        <time>2017-06-08T13:55:03Z</time>
      </trkpt>
      <trkpt lat="44.06202" lon="6.93841">
        <ele>1981</ele>
        <time>2017-06-08T13:55:03Z</time>
      </trkpt>
      <trkpt lat="44.06201" lon="6.93838">
        <ele>1981</ele>
        <time>2017-06-08T13:55:03Z</time>
      </trkpt>
      <trkpt lat="44.062" lon="6.93837">
        <ele>1981</ele>
        <time>2017-06-08T13:55:03Z</time>
      </trkpt>
      <trkpt lat="44.06199" lon="6.93835">
        <ele>1981</ele>
        <time>2017-06-08T13:55:03Z</time>
      </trkpt>
      <trkpt lat="44.06196" lon="6.93832">
        <ele>1981</ele>
        <time>2017-06-08T13:55:23Z</time>
      </trkpt>
      <trkpt lat="44.06194" lon="6.9383">
        <ele>1981</ele>
        <time>2017-06-08T13:55:23Z</time>
      </trkpt>
      <trkpt lat="44.06192" lon="6.93834">
        <ele>1981</ele>
        <time>2017-06-08T13:55:23Z</time>
      </trkpt>
      <trkpt lat="44.06191" lon="6.93837">
        <ele>1981</ele>
        <time>2017-06-08T13:55:23Z</time>
      </trkpt>
      <trkpt lat="44.06186" lon="6.93841">
        <ele>1981</ele>
        <time>2017-06-08T13:55:23Z</time>
      </trkpt>
      <trkpt lat="44.06184" lon="6.93844">
        <ele>1981</ele>
        <time>2017-06-08T13:55:39Z</time>
      </trkpt>
      <trkpt lat="44.0618" lon="6.93847">
        <ele>1982</ele>
        <time>2017-06-08T13:55:39Z</time>
      </trkpt>
      <trkpt lat="44.06177" lon="6.93851">
        <ele>1982</ele>
        <time>2017-06-08T13:55:39Z</time>
      </trkpt>
      <trkpt lat="44.06174" lon="6.93849">
        <ele>1982</ele>
        <time>2017-06-08T13:55:39Z</time>
      </trkpt>
      <trkpt lat="44.0617" lon="6.93852">
        <ele>1982</ele>
        <time>2017-06-08T13:55:55Z</time>
      </trkpt>
      <trkpt lat="44.06165" lon="6.93856">
        <ele>1982</ele>
        <time>2017-06-08T13:55:55Z</time>
      </trkpt>
      <trkpt lat="44.06161" lon="6.93858">
        <ele>1982</ele>
        <time>2017-06-08T13:55:55Z</time>
      </trkpt>
      <trkpt lat="44.06156" lon="6.93862">
        <ele>1982</ele>
        <time>2017-06-08T13:55:55Z</time>
      </trkpt>
      <trkpt lat="44.06155" lon="6.93863">
        <ele>1982</ele>
        <time>2017-06-08T13:56:11Z</time>
      </trkpt>
      <trkpt lat="44.06149" lon="6.93865">
        <ele>1983</ele>
        <time>2017-06-08T13:56:11Z</time>
      </trkpt>
      <trkpt lat="44.06146" lon="6.93866">
        <ele>1983</ele>
        <time>2017-06-08T13:56:11Z</time>
      </trkpt>
      <trkpt lat="44.06141" lon="6.93865">
        <ele>1983</ele>
        <time>2017-06-08T13:56:11Z</time>
      </trkpt>
      <trkpt lat="44.06137" lon="6.93865">
        <ele>1983</ele>
        <time>2017-06-08T13:56:27Z</time>
      </trkpt>
      <trkpt lat="44.06132" lon="6.93866">
        <ele>1983</ele>
        <time>2017-06-08T13:56:27Z</time>
      </trkpt>
      <trkpt lat="44.06126" lon="6.93867">
        <ele>1983</ele>
        <time>2017-06-08T13:56:27Z</time>
      </trkpt>
      <trkpt lat="44.06125" lon="6.93863">
        <ele>1985</ele>
        <time>2017-06-08T13:56:27Z</time>
      </trkpt>
      <trkpt lat="44.06123" lon="6.93862">
        <ele>1985</ele>
        <time>2017-06-08T13:56:43Z</time>
      </trkpt>
      <trkpt lat="44.06119" lon="6.93859">
        <ele>1985</ele>
        <time>2017-06-08T13:56:43Z</time>
      </trkpt>
      <trkpt lat="44.06117" lon="6.93856">
        <ele>1985</ele>
        <time>2017-06-08T13:56:43Z</time>
      </trkpt>
      <trkpt lat="44.06114" lon="6.9385">
        <ele>1985</ele>
        <time>2017-06-08T13:56:43Z</time>
      </trkpt>
      <trkpt lat="44.0611" lon="6.93846">
        <ele>1984</ele>
        <time>2017-06-08T13:56:59Z</time>
      </trkpt>
      <trkpt lat="44.06106" lon="6.93847">
        <ele>1984</ele>
        <time>2017-06-08T13:56:59Z</time>
      </trkpt>
      <trkpt lat="44.06103" lon="6.93846">
        <ele>1984</ele>
        <time>2017-06-08T13:56:59Z</time>
      </trkpt>
      <trkpt lat="44.06098" lon="6.93843">
        <ele>1984</ele>
        <time>2017-06-08T13:56:59Z</time>
      </trkpt>
      <trkpt lat="44.06095" lon="6.9384">
        <ele>1989</ele>
        <time>2017-06-08T13:57:15Z</time>
      </trkpt>
      <trkpt lat="44.06092" lon="6.9384">
        <ele>1989</ele>
        <time>2017-06-08T13:57:15Z</time>
      </trkpt>
      <trkpt lat="44.06087" lon="6.93837">
        <ele>1989</ele>
        <time>2017-06-08T13:57:15Z</time>
      </trkpt>
      <trkpt lat="44.06085" lon="6.93835">
        <ele>1989</ele>
        <time>2017-06-08T13:57:15Z</time>
      </trkpt>
      <trkpt lat="44.06081" lon="6.93835">
        <ele>1989</ele>
        <time>2017-06-08T13:57:31Z</time>
      </trkpt>
      <trkpt lat="44.06076" lon="6.93832">
        <ele>1989</ele>
        <time>2017-06-08T13:57:31Z</time>
      </trkpt>
      <trkpt lat="44.06074" lon="6.93831">
        <ele>1989</ele>
        <time>2017-06-08T13:57:31Z</time>
      </trkpt>
      <trkpt lat="44.0607" lon="6.93829">
        <ele>1989</ele>
        <time>2017-06-08T13:57:31Z</time>
      </trkpt>
      <trkpt lat="44.06065" lon="6.93827">
        <ele>1994</ele>
        <time>2017-06-08T13:57:55Z</time>
      </trkpt>
      <trkpt lat="44.0606" lon="6.93824">
        <ele>1994</ele>
        <time>2017-06-08T13:57:55Z</time>
      </trkpt>
      <trkpt lat="44.06059" lon="6.93823">
        <ele>1994</ele>
        <time>2017-06-08T13:57:55Z</time>
      </trkpt>
      <trkpt lat="44.06058" lon="6.9382">
        <ele>1994</ele>
        <time>2017-06-08T13:57:55Z</time>
      </trkpt>
      <trkpt lat="44.06056" lon="6.93818">
        <ele>1992</ele>
        <time>2017-06-08T13:57:55Z</time>
      </trkpt>
      <trkpt lat="44.06051" lon="6.93817">
        <ele>1992</ele>
        <time>2017-06-08T13:58:11Z</time>
      </trkpt>
      <trkpt lat="44.06046" lon="6.93813">
        <ele>1992</ele>
        <time>2017-06-08T13:58:11Z</time>
      </trkpt>
      <trkpt lat="44.06041" lon="6.93811">
        <ele>1995</ele>
        <time>2017-06-08T13:58:11Z</time>
      </trkpt>
      <trkpt lat="44.06039" lon="6.9381">
        <ele>1995</ele>
        <time>2017-06-08T13:58:11Z</time>
      </trkpt>
      <trkpt lat="44.06037" lon="6.93808">
        <ele>1995</ele>
        <time>2017-06-08T13:58:27Z</time>
      </trkpt>
      <trkpt lat="44.06032" lon="6.93805">
        <ele>1995</ele>
        <time>2017-06-08T13:58:27Z</time>
      </trkpt>
      <trkpt lat="44.06027" lon="6.93805">
        <ele>1995</ele>
        <time>2017-06-08T13:58:27Z</time>
      </trkpt>
      <trkpt lat="44.06024" lon="6.93801">
        <ele>1995</ele>
        <time>2017-06-08T13:58:27Z</time>
      </trkpt>
      <trkpt lat="44.06019" lon="6.93799">
        <ele>1995</ele>
        <time>2017-06-08T13:58:47Z</time>
      </trkpt>
      <trkpt lat="44.06017" lon="6.93798">
        <ele>1995</ele>
        <time>2017-06-08T13:58:47Z</time>
      </trkpt>
      <trkpt lat="44.06013" lon="6.93795">
        <ele>1996</ele>
        <time>2017-06-08T13:58:47Z</time>
      </trkpt>
      <trkpt lat="44.06011" lon="6.93795">
        <ele>1996</ele>
        <time>2017-06-08T13:58:47Z</time>
      </trkpt>
      <trkpt lat="44.06008" lon="6.93793">
        <ele>1996</ele>
        <time>2017-06-08T13:58:47Z</time>
      </trkpt>
      <trkpt lat="44.06002" lon="6.93791">
        <ele>1994</ele>
        <time>2017-06-08T13:59:03Z</time>
      </trkpt>
      <trkpt lat="44.05998" lon="6.93789">
        <ele>1994</ele>
        <time>2017-06-08T13:59:03Z</time>
      </trkpt>
      <trkpt lat="44.05995" lon="6.93788">
        <ele>1994</ele>
        <time>2017-06-08T13:59:03Z</time>
      </trkpt>
      <trkpt lat="44.05992" lon="6.93787">
        <ele>1994</ele>
        <time>2017-06-08T13:59:03Z</time>
      </trkpt>
      <trkpt lat="44.05985" lon="6.93785">
        <ele>1995</ele>
        <time>2017-06-08T13:59:20Z</time>
      </trkpt>
      <trkpt lat="44.05981" lon="6.93782">
        <ele>1995</ele>
        <time>2017-06-08T13:59:20Z</time>
      </trkpt>
      <trkpt lat="44.05977" lon="6.9378">
        <ele>1995</ele>
        <time>2017-06-08T13:59:20Z</time>
      </trkpt>
      <trkpt lat="44.05973" lon="6.93778">
        <ele>1995</ele>
        <time>2017-06-08T13:59:20Z</time>
      </trkpt>
      <trkpt lat="44.0597" lon="6.93776">
        <ele>1995</ele>
        <time>2017-06-08T13:59:36Z</time>
      </trkpt>
      <trkpt lat="44.05966" lon="6.93775">
        <ele>1995</ele>
        <time>2017-06-08T13:59:36Z</time>
      </trkpt>
      <trkpt lat="44.05961" lon="6.93772">
        <ele>1995</ele>
        <time>2017-06-08T13:59:37Z</time>
      </trkpt>
      <trkpt lat="44.05958" lon="6.93772">
        <ele>1997</ele>
        <time>2017-06-08T13:59:37Z</time>
      </trkpt>
      <trkpt lat="44.05957" lon="6.93771">
        <ele>1997</ele>
        <time>2017-06-08T13:59:54Z</time>
      </trkpt>
      <trkpt lat="44.05947" lon="6.9377">
        <ele>1997</ele>
        <time>2017-06-08T13:59:54Z</time>
      </trkpt>
      <trkpt lat="44.05946" lon="6.9377">
        <ele>1997</ele>
        <time>2017-06-08T13:59:54Z</time>
      </trkpt>
      <trkpt lat="44.0594" lon="6.93769">
        <ele>1997</ele>
        <time>2017-06-08T13:59:54Z</time>
      </trkpt>
      <trkpt lat="44.0594" lon="6.93768">
        <ele>1997</ele>
        <time>2017-06-08T14:00:16Z</time>
      </trkpt>
      <trkpt lat="44.05941" lon="6.93767">
        <ele>1997</ele>
        <time>2017-06-08T14:00:16Z</time>
      </trkpt>
      <trkpt lat="44.05936" lon="6.93769">
        <ele>1997</ele>
        <time>2017-06-08T14:00:16Z</time>
      </trkpt>
      <trkpt lat="44.05935" lon="6.93769">
        <ele>1997</ele>
        <time>2017-06-08T14:00:16Z</time>
      </trkpt>
      <trkpt lat="44.05928" lon="6.93771">
        <ele>1999</ele>
        <time>2017-06-08T14:00:17Z</time>
      </trkpt>
      <trkpt lat="44.05923" lon="6.9377">
        <ele>1999</ele>
        <time>2017-06-08T14:00:31Z</time>
      </trkpt>
      <trkpt lat="44.05918" lon="6.93769">
        <ele>1999</ele>
        <time>2017-06-08T14:00:31Z</time>
      </trkpt>
      <trkpt lat="44.05917" lon="6.93768">
        <ele>1999</ele>
        <time>2017-06-08T14:00:31Z</time>
      </trkpt>
      <trkpt lat="44.05912" lon="6.93769">
        <ele>1999</ele>
        <time>2017-06-08T14:00:31Z</time>
      </trkpt>
      <trkpt lat="44.05907" lon="6.93769">
        <ele>1999</ele>
        <time>2017-06-08T14:00:53Z</time>
      </trkpt>
      <trkpt lat="44.05906" lon="6.93767">
        <ele>1999</ele>
        <time>2017-06-08T14:00:53Z</time>
      </trkpt>
      <trkpt lat="44.05903" lon="6.93769">
        <ele>1999</ele>
        <time>2017-06-08T14:00:53Z</time>
      </trkpt>
      <trkpt lat="44.05899" lon="6.93769">
        <ele>2004</ele>
        <time>2017-06-08T14:00:54Z</time>
      </trkpt>
      <trkpt lat="44.05895" lon="6.93768">
        <ele>2004</ele>
        <time>2017-06-08T14:00:54Z</time>
      </trkpt>
      <trkpt lat="44.05894" lon="6.93768">
        <ele>2004</ele>
        <time>2017-06-08T14:01:07Z</time>
      </trkpt>
      <trkpt lat="44.0589" lon="6.93769">
        <ele>2004</ele>
        <time>2017-06-08T14:01:07Z</time>
      </trkpt>
      <trkpt lat="44.05888" lon="6.93769">
        <ele>2004</ele>
        <time>2017-06-08T14:01:07Z</time>
      </trkpt>
      <trkpt lat="44.05885" lon="6.93772">
        <ele>2004</ele>
        <time>2017-06-08T14:01:07Z</time>
      </trkpt>
      <trkpt lat="44.05883" lon="6.93772">
        <ele>2004</ele>
        <time>2017-06-08T14:01:23Z</time>
      </trkpt>
      <trkpt lat="44.05877" lon="6.93772">
        <ele>2004</ele>
        <time>2017-06-08T14:01:23Z</time>
      </trkpt>
      <trkpt lat="44.05872" lon="6.93774">
        <ele>2009</ele>
        <time>2017-06-08T14:01:23Z</time>
      </trkpt>
      <trkpt lat="44.0587" lon="6.93774">
        <ele>2009</ele>
        <time>2017-06-08T14:01:23Z</time>
      </trkpt>
      <trkpt lat="44.05867" lon="6.93776">
        <ele>2009</ele>
        <time>2017-06-08T14:01:46Z</time>
      </trkpt>
      <trkpt lat="44.05866" lon="6.93779">
        <ele>2009</ele>
        <time>2017-06-08T14:01:46Z</time>
      </trkpt>
      <trkpt lat="44.05865" lon="6.93778">
        <ele>2009</ele>
        <time>2017-06-08T14:01:47Z</time>
      </trkpt>
      <trkpt lat="44.05865" lon="6.93778">
        <ele>2009</ele>
        <time>2017-06-08T14:01:47Z</time>
      </trkpt>
      <trkpt lat="44.05858" lon="6.93775">
        <ele>2009</ele>
        <time>2017-06-08T14:01:47Z</time>
      </trkpt>
      <trkpt lat="44.05857" lon="6.93774">
        <ele>2009</ele>
        <time>2017-06-08T14:01:59Z</time>
      </trkpt>
      <trkpt lat="44.05852" lon="6.93776">
        <ele>2009</ele>
        <time>2017-06-08T14:01:59Z</time>
      </trkpt>
      <trkpt lat="44.05848" lon="6.93778">
        <ele>2009</ele>
        <time>2017-06-08T14:01:59Z</time>
      </trkpt>
      <trkpt lat="44.05845" lon="6.93779">
        <ele>2013</ele>
        <time>2017-06-08T14:01:59Z</time>
      </trkpt>
      <trkpt lat="44.05839" lon="6.93783">
        <ele>2013</ele>
        <time>2017-06-08T14:02:18Z</time>
      </trkpt>
      <trkpt lat="44.05834" lon="6.93786">
        <ele>2013</ele>
        <time>2017-06-08T14:02:18Z</time>
      </trkpt>
      <trkpt lat="44.05832" lon="6.93787">
        <ele>2013</ele>
        <time>2017-06-08T14:02:18Z</time>
      </trkpt>
      <trkpt lat="44.05831" lon="6.93791">
        <ele>2013</ele>
        <time>2017-06-08T14:02:19Z</time>
      </trkpt>
      <trkpt lat="44.0583" lon="6.9379">
        <ele>2013</ele>
        <time>2017-06-08T14:02:41Z</time>
      </trkpt>
      <trkpt lat="44.05831" lon="6.9379">
        <ele>2013</ele>
        <time>2017-06-08T14:02:41Z</time>
      </trkpt>
      <trkpt lat="44.05827" lon="6.9379">
        <ele>2013</ele>
        <time>2017-06-08T14:02:41Z</time>
      </trkpt>
      <trkpt lat="44.05824" lon="6.93792">
        <ele>2007</ele>
        <time>2017-06-08T14:02:41Z</time>
      </trkpt>
      <trkpt lat="44.0582" lon="6.93794">
        <ele>2007</ele>
        <time>2017-06-08T14:02:41Z</time>
      </trkpt>
      <trkpt lat="44.0581" lon="6.93804">
        <ele>2008</ele>
        <time>2017-06-08T14:03:12Z</time>
      </trkpt>
      <trkpt lat="44.05807" lon="6.93806">
        <ele>2008</ele>
        <time>2017-06-08T14:03:12Z</time>
      </trkpt>
      <trkpt lat="44.05804" lon="6.93809">
        <ele>2008</ele>
        <time>2017-06-08T14:03:13Z</time>
      </trkpt>
      <trkpt lat="44.05799" lon="6.93818">
        <ele>2008</ele>
        <time>2017-06-08T14:03:13Z</time>
      </trkpt>
      <trkpt lat="44.05795" lon="6.93822">
        <ele>2002</ele>
        <time>2017-06-08T14:03:13Z</time>
      </trkpt>
      <trkpt lat="44.05793" lon="6.93823">
        <ele>2002</ele>
        <time>2017-06-08T14:03:29Z</time>
      </trkpt>
      <trkpt lat="44.05786" lon="6.93828">
        <ele>2007</ele>
        <time>2017-06-08T14:03:29Z</time>
      </trkpt>
      <trkpt lat="44.05784" lon="6.93829">
        <ele>2007</ele>
        <time>2017-06-08T14:03:29Z</time>
      </trkpt>
      <trkpt lat="44.05781" lon="6.93829">
        <ele>2007</ele>
        <time>2017-06-08T14:03:29Z</time>
      </trkpt>
      <trkpt lat="44.05782" lon="6.9383">
        <ele>2007</ele>
        <time>2017-06-08T14:03:45Z</time>
      </trkpt>
      <trkpt lat="44.05778" lon="6.9383">
        <ele>2007</ele>
        <time>2017-06-08T14:03:46Z</time>
      </trkpt>
      <trkpt lat="44.05776" lon="6.93829">
        <ele>2007</ele>
        <time>2017-06-08T14:03:47Z</time>
      </trkpt>
      <trkpt lat="44.05771" lon="6.93829">
        <ele>2007</ele>
        <time>2017-06-08T14:03:47Z</time>
      </trkpt>
      <trkpt lat="44.05771" lon="6.9383">
        <ele>2007</ele>
        <time>2017-06-08T14:04:00Z</time>
      </trkpt>
      <trkpt lat="44.05767" lon="6.93834">
        <ele>2007</ele>
        <time>2017-06-08T14:04:00Z</time>
      </trkpt>
      <trkpt lat="44.05762" lon="6.93837">
        <ele>2006</ele>
        <time>2017-06-08T14:04:00Z</time>
      </trkpt>
      <trkpt lat="44.05755" lon="6.93839">
        <ele>2006</ele>
        <time>2017-06-08T14:04:00Z</time>
      </trkpt>
      <trkpt lat="44.05752" lon="6.9384">
        <ele>2006</ele>
        <time>2017-06-08T14:04:17Z</time>
      </trkpt>
      <trkpt lat="44.05746" lon="6.93842">
        <ele>2006</ele>
        <time>2017-06-08T14:04:17Z</time>
      </trkpt>
      <trkpt lat="44.05744" lon="6.93843">
        <ele>2006</ele>
        <time>2017-06-08T14:04:17Z</time>
      </trkpt>
      <trkpt lat="44.05741" lon="6.93845">
        <ele>2006</ele>
        <time>2017-06-08T14:04:17Z</time>
      </trkpt>
      <trkpt lat="44.0574" lon="6.93845">
        <ele>2006</ele>
        <time>2017-06-08T14:04:31Z</time>
      </trkpt>
      <trkpt lat="44.05732" lon="6.93849">
        <ele>2008</ele>
        <time>2017-06-08T14:04:32Z</time>
      </trkpt>
      <trkpt lat="44.05728" lon="6.93853">
        <ele>2008</ele>
        <time>2017-06-08T14:04:32Z</time>
      </trkpt>
      <trkpt lat="44.05725" lon="6.93857">
        <ele>2008</ele>
        <time>2017-06-08T14:04:32Z</time>
      </trkpt>
      <trkpt lat="44.05722" lon="6.93863">
        <ele>2008</ele>
        <time>2017-06-08T14:04:49Z</time>
      </trkpt>
      <trkpt lat="44.05718" lon="6.93869">
        <ele>2008</ele>
        <time>2017-06-08T14:04:49Z</time>
      </trkpt>
      <trkpt lat="44.05716" lon="6.93874">
        <ele>2008</ele>
        <time>2017-06-08T14:04:49Z</time>
      </trkpt>
      <trkpt lat="44.05713" lon="6.93878">
        <ele>2014</ele>
        <time>2017-06-08T14:04:49Z</time>
      </trkpt>
      <trkpt lat="44.05712" lon="6.93879">
        <ele>2014</ele>
        <time>2017-06-08T14:05:03Z</time>
      </trkpt>
      <trkpt lat="44.05707" lon="6.93889">
        <ele>2014</ele>
        <time>2017-06-08T14:05:03Z</time>
      </trkpt>
      <trkpt lat="44.05707" lon="6.9389">
        <ele>2014</ele>
        <time>2017-06-08T14:05:03Z</time>
      </trkpt>
      <trkpt lat="44.05705" lon="6.93893">
        <ele>2014</ele>
        <time>2017-06-08T14:05:03Z</time>
      </trkpt>
      <trkpt lat="44.05702" lon="6.93895">
        <ele>2014</ele>
        <time>2017-06-08T14:05:20Z</time>
      </trkpt>
      <trkpt lat="44.05701" lon="6.93896">
        <ele>2014</ele>
        <time>2017-06-08T14:05:20Z</time>
      </trkpt>
      <trkpt lat="44.05694" lon="6.93901">
        <ele>2014</ele>
        <time>2017-06-08T14:05:20Z</time>
      </trkpt>
      <trkpt lat="44.0569" lon="6.93904">
        <ele>2017</ele>
        <time>2017-06-08T14:05:20Z</time>
      </trkpt>
      <trkpt lat="44.05688" lon="6.93906">
        <ele>2017</ele>
        <time>2017-06-08T14:05:37Z</time>
      </trkpt>
      <trkpt lat="44.05679" lon="6.93909">
        <ele>2016</ele>
        <time>2017-06-08T14:05:37Z</time>
      </trkpt>
      <trkpt lat="44.05678" lon="6.9391">
        <ele>2016</ele>
        <time>2017-06-08T14:05:37Z</time>
      </trkpt>
      <trkpt lat="44.05674" lon="6.93912">
        <ele>2016</ele>
        <time>2017-06-08T14:05:37Z</time>
      </trkpt>
      <trkpt lat="44.0567" lon="6.93917">
        <ele>2016</ele>
        <time>2017-06-08T14:05:55Z</time>
      </trkpt>
      <trkpt lat="44.05669" lon="6.93919">
        <ele>2016</ele>
        <time>2017-06-08T14:05:55Z</time>
      </trkpt>
      <trkpt lat="44.05665" lon="6.93929">
        <ele>2016</ele>
        <time>2017-06-08T14:05:55Z</time>
      </trkpt>
      <trkpt lat="44.05665" lon="6.93931">
        <ele>2021</ele>
        <time>2017-06-08T14:05:56Z</time>
      </trkpt>
      <trkpt lat="44.05665" lon="6.93934">
        <ele>2021</ele>
        <time>2017-06-08T14:06:12Z</time>
      </trkpt>
      <trkpt lat="44.05663" lon="6.93939">
        <ele>2021</ele>
        <time>2017-06-08T14:06:12Z</time>
      </trkpt>
      <trkpt lat="44.05662" lon="6.93945">
        <ele>2021</ele>
        <time>2017-06-08T14:06:12Z</time>
      </trkpt>
      <trkpt lat="44.05662" lon="6.93948">
        <ele>2021</ele>
        <time>2017-06-08T14:06:12Z</time>
      </trkpt>
      <trkpt lat="44.0566" lon="6.93948">
        <ele>2021</ele>
        <time>2017-06-08T14:06:29Z</time>
      </trkpt>
      <trkpt lat="44.05658" lon="6.9395">
        <ele>2021</ele>
        <time>2017-06-08T14:06:29Z</time>
      </trkpt>
      <trkpt lat="44.05655" lon="6.93951">
        <ele>2021</ele>
        <time>2017-06-08T14:06:30Z</time>
      </trkpt>
      <trkpt lat="44.05651" lon="6.93958">
        <ele>2023</ele>
        <time>2017-06-08T14:06:30Z</time>
      </trkpt>
      <trkpt lat="44.0565" lon="6.93959">
        <ele>2027</ele>
        <time>2017-06-08T14:06:46Z</time>
      </trkpt>
      <trkpt lat="44.05643" lon="6.93962">
        <ele>2027</ele>
        <time>2017-06-08T14:06:46Z</time>
      </trkpt>
      <trkpt lat="44.05642" lon="6.93964">
        <ele>2027</ele>
        <time>2017-06-08T14:06:46Z</time>
      </trkpt>
      <trkpt lat="44.05634" lon="6.93968">
        <ele>2027</ele>
        <time>2017-06-08T14:06:46Z</time>
      </trkpt>
      <trkpt lat="44.05629" lon="6.9397">
        <ele>2027</ele>
        <time>2017-06-08T14:07:04Z</time>
      </trkpt>
      <trkpt lat="44.05625" lon="6.93971">
        <ele>2027</ele>
        <time>2017-06-08T14:07:04Z</time>
      </trkpt>
      <trkpt lat="44.0562" lon="6.93973">
        <ele>2020</ele>
        <time>2017-06-08T14:07:04Z</time>
      </trkpt>
      <trkpt lat="44.05617" lon="6.93975">
        <ele>2020</ele>
        <time>2017-06-08T14:07:04Z</time>
      </trkpt>
      <trkpt lat="44.05614" lon="6.93977">
        <ele>2020</ele>
        <time>2017-06-08T14:07:21Z</time>
      </trkpt>
      <trkpt lat="44.05609" lon="6.93979">
        <ele>2020</ele>
        <time>2017-06-08T14:07:21Z</time>
      </trkpt>
      <trkpt lat="44.05607" lon="6.93981">
        <ele>2020</ele>
        <time>2017-06-08T14:07:21Z</time>
      </trkpt>
      <trkpt lat="44.05603" lon="6.93985">
        <ele>2020</ele>
        <time>2017-06-08T14:07:21Z</time>
      </trkpt>
      <trkpt lat="44.05602" lon="6.93985">
        <ele>2020</ele>
        <time>2017-06-08T14:07:36Z</time>
      </trkpt>
      <trkpt lat="44.05596" lon="6.93989">
        <ele>2018</ele>
        <time>2017-06-08T14:07:37Z</time>
      </trkpt>
      <trkpt lat="44.05595" lon="6.9399">
        <ele>2018</ele>
        <time>2017-06-08T14:07:38Z</time>
      </trkpt>
      <trkpt lat="44.05591" lon="6.93992">
        <ele>2018</ele>
        <time>2017-06-08T14:07:38Z</time>
      </trkpt>
      <trkpt lat="44.05589" lon="6.93995">
        <ele>2018</ele>
        <time>2017-06-08T14:07:52Z</time>
      </trkpt>
      <trkpt lat="44.05587" lon="6.93996">
        <ele>2018</ele>
        <time>2017-06-08T14:07:52Z</time>
      </trkpt>
      <trkpt lat="44.05583" lon="6.93998">
        <ele>2018</ele>
        <time>2017-06-08T14:07:52Z</time>
      </trkpt>
      <trkpt lat="44.0558" lon="6.93999">
        <ele>2018</ele>
        <time>2017-06-08T14:07:52Z</time>
      </trkpt>
      <trkpt lat="44.05578" lon="6.94004">
        <ele>2018</ele>
        <time>2017-06-08T14:08:09Z</time>
      </trkpt>
      <trkpt lat="44.05577" lon="6.94007">
        <ele>2018</ele>
        <time>2017-06-08T14:08:09Z</time>
      </trkpt>
      <trkpt lat="44.05573" lon="6.94011">
        <ele>2018</ele>
        <time>2017-06-08T14:08:09Z</time>
      </trkpt>
      <trkpt lat="44.0557" lon="6.94018">
        <ele>2023</ele>
        <time>2017-06-08T14:08:09Z</time>
      </trkpt>
      <trkpt lat="44.05566" lon="6.94025">
        <ele>2020</ele>
        <time>2017-06-08T14:08:28Z</time>
      </trkpt>
      <trkpt lat="44.05563" lon="6.94028">
        <ele>2020</ele>
        <time>2017-06-08T14:08:28Z</time>
      </trkpt>
      <trkpt lat="44.0556" lon="6.94031">
        <ele>2020</ele>
        <time>2017-06-08T14:08:29Z</time>
      </trkpt>
      <trkpt lat="44.05558" lon="6.94036">
        <ele>2020</ele>
        <time>2017-06-08T14:08:29Z</time>
      </trkpt>
      <trkpt lat="44.05557" lon="6.94037">
        <ele>2020</ele>
        <time>2017-06-08T14:08:45Z</time>
      </trkpt>
      <trkpt lat="44.05553" lon="6.94044">
        <ele>2022</ele>
        <time>2017-06-08T14:08:45Z</time>
      </trkpt>
      <trkpt lat="44.05554" lon="6.94047">
        <ele>2022</ele>
        <time>2017-06-08T14:08:46Z</time>
      </trkpt>
      <trkpt lat="44.05551" lon="6.9405">
        <ele>2022</ele>
        <time>2017-06-08T14:08:46Z</time>
      </trkpt>
      <trkpt lat="44.0555" lon="6.94051">
        <ele>2022</ele>
        <time>2017-06-08T14:09:02Z</time>
      </trkpt>
      <trkpt lat="44.05548" lon="6.94059">
        <ele>2022</ele>
        <time>2017-06-08T14:09:02Z</time>
      </trkpt>
      <trkpt lat="44.05547" lon="6.94063">
        <ele>2022</ele>
        <time>2017-06-08T14:09:02Z</time>
      </trkpt>
      <trkpt lat="44.05546" lon="6.94067">
        <ele>2022</ele>
        <time>2017-06-08T14:09:02Z</time>
      </trkpt>
      <trkpt lat="44.05544" lon="6.94068">
        <ele>2022</ele>
        <time>2017-06-08T14:09:21Z</time>
      </trkpt>
      <trkpt lat="44.05544" lon="6.94067">
        <ele>2022</ele>
        <time>2017-06-08T14:09:22Z</time>
      </trkpt>
      <trkpt lat="44.0554" lon="6.94074">
        <ele>2011</ele>
        <time>2017-06-08T14:09:22Z</time>
      </trkpt>
      <trkpt lat="44.05536" lon="6.94077">
        <ele>2011</ele>
        <time>2017-06-08T14:09:22Z</time>
      </trkpt>
      <trkpt lat="44.05535" lon="6.94078">
        <ele>2011</ele>
        <time>2017-06-08T14:09:37Z</time>
      </trkpt>
      <trkpt lat="44.05532" lon="6.94087">
        <ele>2011</ele>
        <time>2017-06-08T14:09:37Z</time>
      </trkpt>
      <trkpt lat="44.05533" lon="6.94091">
        <ele>2011</ele>
        <time>2017-06-08T14:09:38Z</time>
      </trkpt>
      <trkpt lat="44.05529" lon="6.94095">
        <ele>2011</ele>
        <time>2017-06-08T14:09:38Z</time>
      </trkpt>
      <trkpt lat="44.05524" lon="6.94111">
        <ele>2014</ele>
        <time>2017-06-08T14:09:55Z</time>
      </trkpt>
      <trkpt lat="44.05523" lon="6.94114">
        <ele>2014</ele>
        <time>2017-06-08T14:09:55Z</time>
      </trkpt>
      <trkpt lat="44.05519" lon="6.94121">
        <ele>2014</ele>
        <time>2017-06-08T14:09:55Z</time>
      </trkpt>
      <trkpt lat="44.05518" lon="6.94126">
        <ele>2015</ele>
        <time>2017-06-08T14:09:55Z</time>
      </trkpt>
      <trkpt lat="44.05516" lon="6.9413">
        <ele>2015</ele>
        <time>2017-06-08T14:10:12Z</time>
      </trkpt>
      <trkpt lat="44.05512" lon="6.94138">
        <ele>2008</ele>
        <time>2017-06-08T14:10:12Z</time>
      </trkpt>
      <trkpt lat="44.0551" lon="6.94139">
        <ele>2008</ele>
        <time>2017-06-08T14:10:12Z</time>
      </trkpt>
      <trkpt lat="44.05508" lon="6.94142">
        <ele>2008</ele>
        <time>2017-06-08T14:10:12Z</time>
      </trkpt>
      <trkpt lat="44.05507" lon="6.94145">
        <ele>2008</ele>
        <time>2017-06-08T14:10:29Z</time>
      </trkpt>
      <trkpt lat="44.05505" lon="6.94152">
        <ele>2008</ele>
        <time>2017-06-08T14:10:29Z</time>
      </trkpt>
      <trkpt lat="44.05503" lon="6.94154">
        <ele>2011</ele>
        <time>2017-06-08T14:10:30Z</time>
      </trkpt>
      <trkpt lat="44.055" lon="6.94162">
        <ele>2011</ele>
        <time>2017-06-08T14:10:30Z</time>
      </trkpt>
      <trkpt lat="44.05493" lon="6.94176">
        <ele>2011</ele>
        <time>2017-06-08T14:10:48Z</time>
      </trkpt>
      <trkpt lat="44.05491" lon="6.94178">
        <ele>2011</ele>
        <time>2017-06-08T14:10:48Z</time>
      </trkpt>
      <trkpt lat="44.05487" lon="6.94186">
        <ele>2014</ele>
        <time>2017-06-08T14:10:48Z</time>
      </trkpt>
      <trkpt lat="44.05486" lon="6.94188">
        <ele>2010</ele>
        <time>2017-06-08T14:10:48Z</time>
      </trkpt>
      <trkpt lat="44.05483" lon="6.94193">
        <ele>2010</ele>
        <time>2017-06-08T14:11:04Z</time>
      </trkpt>
      <trkpt lat="44.05481" lon="6.94196">
        <ele>2010</ele>
        <time>2017-06-08T14:11:04Z</time>
      </trkpt>
      <trkpt lat="44.05478" lon="6.94202">
        <ele>2010</ele>
        <time>2017-06-08T14:11:04Z</time>
      </trkpt>
      <trkpt lat="44.05475" lon="6.94207">
        <ele>2010</ele>
        <time>2017-06-08T14:11:05Z</time>
      </trkpt>
      <trkpt lat="44.05474" lon="6.94208">
        <ele>2010</ele>
        <time>2017-06-08T14:11:22Z</time>
      </trkpt>
      <trkpt lat="44.05467" lon="6.94215">
        <ele>2015</ele>
        <time>2017-06-08T14:11:22Z</time>
      </trkpt>
      <trkpt lat="44.05464" lon="6.94219">
        <ele>2015</ele>
        <time>2017-06-08T14:11:22Z</time>
      </trkpt>
      <trkpt lat="44.0546" lon="6.94223">
        <ele>2015</ele>
        <time>2017-06-08T14:11:22Z</time>
      </trkpt>
      <trkpt lat="44.05459" lon="6.94224">
        <ele>2015</ele>
        <time>2017-06-08T14:11:37Z</time>
      </trkpt>
      <trkpt lat="44.05453" lon="6.94229">
        <ele>2013</ele>
        <time>2017-06-08T14:11:37Z</time>
      </trkpt>
      <trkpt lat="44.05451" lon="6.94231">
        <ele>2013</ele>
        <time>2017-06-08T14:11:37Z</time>
      </trkpt>
      <trkpt lat="44.05445" lon="6.94237">
        <ele>2019</ele>
        <time>2017-06-08T14:11:38Z</time>
      </trkpt>
      <trkpt lat="44.05444" lon="6.94237">
        <ele>2019</ele>
        <time>2017-06-08T14:11:53Z</time>
      </trkpt>
      <trkpt lat="44.0544" lon="6.94238">
        <ele>2019</ele>
        <time>2017-06-08T14:11:53Z</time>
      </trkpt>
      <trkpt lat="44.05437" lon="6.94238">
        <ele>2019</ele>
        <time>2017-06-08T14:11:53Z</time>
      </trkpt>
      <trkpt lat="44.05434" lon="6.94238">
        <ele>2019</ele>
        <time>2017-06-08T14:11:53Z</time>
      </trkpt>
      <trkpt lat="44.05433" lon="6.94241">
        <ele>2019</ele>
        <time>2017-06-08T14:12:15Z</time>
      </trkpt>
      <trkpt lat="44.05429" lon="6.94249">
        <ele>2019</ele>
        <time>2017-06-08T14:12:15Z</time>
      </trkpt>
      <trkpt lat="44.05425" lon="6.94255">
        <ele>2019</ele>
        <time>2017-06-08T14:12:15Z</time>
      </trkpt>
      <trkpt lat="44.05425" lon="6.94257">
        <ele>2019</ele>
        <time>2017-06-08T14:12:15Z</time>
      </trkpt>
      <trkpt lat="44.0542" lon="6.94262">
        <ele>2019</ele>
        <time>2017-06-08T14:12:32Z</time>
      </trkpt>
      <trkpt lat="44.05415" lon="6.94265">
        <ele>2019</ele>
        <time>2017-06-08T14:12:32Z</time>
      </trkpt>
      <trkpt lat="44.05408" lon="6.94269">
        <ele>2019</ele>
        <time>2017-06-08T14:12:32Z</time>
      </trkpt>
      <trkpt lat="44.05404" lon="6.9427">
        <ele>2019</ele>
        <time>2017-06-08T14:12:32Z</time>
      </trkpt>
      <trkpt lat="44.054" lon="6.94271">
        <ele>2017</ele>
        <time>2017-06-08T14:12:49Z</time>
      </trkpt>
      <trkpt lat="44.05394" lon="6.94273">
        <ele>2017</ele>
        <time>2017-06-08T14:12:49Z</time>
      </trkpt>
      <trkpt lat="44.05392" lon="6.94274">
        <ele>2017</ele>
        <time>2017-06-08T14:12:49Z</time>
      </trkpt>
      <trkpt lat="44.05386" lon="6.94278">
        <ele>2017</ele>
        <time>2017-06-08T14:12:49Z</time>
      </trkpt>
      <trkpt lat="44.05386" lon="6.94278">
        <ele>2017</ele>
        <time>2017-06-08T14:13:05Z</time>
      </trkpt>
      <trkpt lat="44.05381" lon="6.9428">
        <ele>2017</ele>
        <time>2017-06-08T14:13:05Z</time>
      </trkpt>
      <trkpt lat="44.05376" lon="6.94285">
        <ele>2017</ele>
        <time>2017-06-08T14:13:05Z</time>
      </trkpt>
      <trkpt lat="44.0537" lon="6.94291">
        <ele>2015</ele>
        <time>2017-06-08T14:13:05Z</time>
      </trkpt>
      <trkpt lat="44.05369" lon="6.94292">
        <ele>2015</ele>
        <time>2017-06-08T14:13:19Z</time>
      </trkpt>
      <trkpt lat="44.0536" lon="6.94295">
        <ele>2019</ele>
        <time>2017-06-08T14:13:19Z</time>
      </trkpt>
      <trkpt lat="44.05358" lon="6.94295">
        <ele>2019</ele>
        <time>2017-06-08T14:13:19Z</time>
      </trkpt>
      <trkpt lat="44.05352" lon="6.94297">
        <ele>2019</ele>
        <time>2017-06-08T14:13:19Z</time>
      </trkpt>
      <trkpt lat="44.05344" lon="6.94297">
        <ele>2020</ele>
        <time>2017-06-08T14:13:36Z</time>
      </trkpt>
      <trkpt lat="44.05343" lon="6.94298">
        <ele>2020</ele>
        <time>2017-06-08T14:13:36Z</time>
      </trkpt>
      <trkpt lat="44.05339" lon="6.94302">
        <ele>2020</ele>
        <time>2017-06-08T14:13:36Z</time>
      </trkpt>
      <trkpt lat="44.05336" lon="6.94304">
        <ele>2020</ele>
        <time>2017-06-08T14:13:37Z</time>
      </trkpt>
      <trkpt lat="44.05333" lon="6.94306">
        <ele>2020</ele>
        <time>2017-06-08T14:13:53Z</time>
      </trkpt>
      <trkpt lat="44.05328" lon="6.94307">
        <ele>2020</ele>
        <time>2017-06-08T14:13:53Z</time>
      </trkpt>
      <trkpt lat="44.05323" lon="6.94308">
        <ele>2020</ele>
        <time>2017-06-08T14:13:53Z</time>
      </trkpt>
      <trkpt lat="44.05318" lon="6.9431">
        <ele>2015</ele>
        <time>2017-06-08T14:13:53Z</time>
      </trkpt>
      <trkpt lat="44.05316" lon="6.94312">
        <ele>2015</ele>
        <time>2017-06-08T14:14:07Z</time>
      </trkpt>
      <trkpt lat="44.05312" lon="6.94315">
        <ele>2015</ele>
        <time>2017-06-08T14:14:07Z</time>
      </trkpt>
      <trkpt lat="44.05303" lon="6.94319">
        <ele>2015</ele>
        <time>2017-06-08T14:14:08Z</time>
      </trkpt>
      <trkpt lat="44.05302" lon="6.9432">
        <ele>2013</ele>
        <time>2017-06-08T14:14:08Z</time>
      </trkpt>
      <trkpt lat="44.05299" lon="6.94321">
        <ele>2013</ele>
        <time>2017-06-08T14:14:24Z</time>
      </trkpt>
      <trkpt lat="44.05295" lon="6.94322">
        <ele>2013</ele>
        <time>2017-06-08T14:14:24Z</time>
      </trkpt>
      <trkpt lat="44.0529" lon="6.94321">
        <ele>2016</ele>
        <time>2017-06-08T14:14:25Z</time>
      </trkpt>
      <trkpt lat="44.05287" lon="6.9432">
        <ele>2016</ele>
        <time>2017-06-08T14:14:25Z</time>
      </trkpt>
      <trkpt lat="44.05286" lon="6.9432">
        <ele>2016</ele>
        <time>2017-06-08T14:14:43Z</time>
      </trkpt>
      <trkpt lat="44.05282" lon="6.94317">
        <ele>2018</ele>
        <time>2017-06-08T14:14:43Z</time>
      </trkpt>
      <trkpt lat="44.05282" lon="6.94315">
        <ele>2018</ele>
        <time>2017-06-08T14:14:43Z</time>
      </trkpt>
      <trkpt lat="44.05277" lon="6.94316">
        <ele>2018</ele>
        <time>2017-06-08T14:14:43Z</time>
      </trkpt>
      <trkpt lat="44.05276" lon="6.94317">
        <ele>2018</ele>
        <time>2017-06-08T14:14:56Z</time>
      </trkpt>
      <trkpt lat="44.05273" lon="6.9432">
        <ele>2016</ele>
        <time>2017-06-08T14:14:56Z</time>
      </trkpt>
      <trkpt lat="44.0527" lon="6.94322">
        <ele>2016</ele>
        <time>2017-06-08T14:14:56Z</time>
      </trkpt>
      <trkpt lat="44.05268" lon="6.94324">
        <ele>2016</ele>
        <time>2017-06-08T14:14:56Z</time>
      </trkpt>
      <trkpt lat="44.05267" lon="6.94324">
        <ele>2016</ele>
        <time>2017-06-08T14:15:14Z</time>
      </trkpt>
      <trkpt lat="44.05263" lon="6.94327">
        <ele>2024</ele>
        <time>2017-06-08T14:15:14Z</time>
      </trkpt>
      <trkpt lat="44.05262" lon="6.94329">
        <ele>2024</ele>
        <time>2017-06-08T14:15:14Z</time>
      </trkpt>
      <trkpt lat="44.05258" lon="6.94328">
        <ele>2024</ele>
        <time>2017-06-08T14:15:14Z</time>
      </trkpt>
      <trkpt lat="44.0525" lon="6.94329">
        <ele>2024</ele>
        <time>2017-06-08T14:15:40Z</time>
      </trkpt>
      <trkpt lat="44.05249" lon="6.94326">
        <ele>2024</ele>
        <time>2017-06-08T14:15:41Z</time>
      </trkpt>
      <trkpt lat="44.05248" lon="6.94324">
        <ele>2024</ele>
        <time>2017-06-08T14:15:41Z</time>
      </trkpt>
      <trkpt lat="44.05245" lon="6.94322">
        <ele>2024</ele>
        <time>2017-06-08T14:15:41Z</time>
      </trkpt>
      <trkpt lat="44.05241" lon="6.94322">
        <ele>2024</ele>
        <time>2017-06-08T14:15:41Z</time>
      </trkpt>
      <trkpt lat="44.05241" lon="6.94321">
        <ele>2024</ele>
        <time>2017-06-08T14:15:56Z</time>
      </trkpt>
      <trkpt lat="44.05236" lon="6.94317">
        <ele>2034</ele>
        <time>2017-06-08T14:15:56Z</time>
      </trkpt>
      <trkpt lat="44.05234" lon="6.94315">
        <ele>2034</ele>
        <time>2017-06-08T14:15:56Z</time>
      </trkpt>
      <trkpt lat="44.05231" lon="6.94318">
        <ele>2034</ele>
        <time>2017-06-08T14:15:57Z</time>
      </trkpt>
      <trkpt lat="44.05229" lon="6.94319">
        <ele>2034</ele>
        <time>2017-06-08T14:16:15Z</time>
      </trkpt>
      <trkpt lat="44.05225" lon="6.94319">
        <ele>2034</ele>
        <time>2017-06-08T14:16:15Z</time>
      </trkpt>
      <trkpt lat="44.05223" lon="6.94319">
        <ele>2034</ele>
        <time>2017-06-08T14:16:15Z</time>
      </trkpt>
      <trkpt lat="44.05221" lon="6.94321">
        <ele>2034</ele>
        <time>2017-06-08T14:16:15Z</time>
      </trkpt>
      <trkpt lat="44.05218" lon="6.94322">
        <ele>2034</ele>
        <time>2017-06-08T14:16:15Z</time>
      </trkpt>
      <trkpt lat="44.05216" lon="6.94321">
        <ele>2034</ele>
        <time>2017-06-08T14:16:34Z</time>
      </trkpt>
      <trkpt lat="44.05211" lon="6.94319">
        <ele>2034</ele>
        <time>2017-06-08T14:16:34Z</time>
      </trkpt>
      <trkpt lat="44.05209" lon="6.94319">
        <ele>2034</ele>
        <time>2017-06-08T14:16:34Z</time>
      </trkpt>
      <trkpt lat="44.05203" lon="6.94322">
        <ele>2043</ele>
        <time>2017-06-08T14:16:34Z</time>
      </trkpt>
      <trkpt lat="44.05203" lon="6.94322">
        <ele>2043</ele>
        <time>2017-06-08T14:16:49Z</time>
      </trkpt>
      <trkpt lat="44.05199" lon="6.94325">
        <ele>2043</ele>
        <time>2017-06-08T14:16:50Z</time>
      </trkpt>
      <trkpt lat="44.05195" lon="6.94329">
        <ele>2043</ele>
        <time>2017-06-08T14:16:50Z</time>
      </trkpt>
      <trkpt lat="44.05191" lon="6.94331">
        <ele>2043</ele>
        <time>2017-06-08T14:16:50Z</time>
      </trkpt>
      <trkpt lat="44.0519" lon="6.94332">
        <ele>2043</ele>
        <time>2017-06-08T14:17:03Z</time>
      </trkpt>
      <trkpt lat="44.05187" lon="6.94335">
        <ele>2043</ele>
        <time>2017-06-08T14:17:04Z</time>
      </trkpt>
      <trkpt lat="44.05184" lon="6.94337">
        <ele>2043</ele>
        <time>2017-06-08T14:17:04Z</time>
      </trkpt>
      <trkpt lat="44.05182" lon="6.94338">
        <ele>2043</ele>
        <time>2017-06-08T14:17:04Z</time>
      </trkpt>
      <trkpt lat="44.05179" lon="6.9434">
        <ele>2048</ele>
        <time>2017-06-08T14:17:21Z</time>
      </trkpt>
      <trkpt lat="44.05171" lon="6.94345">
        <ele>2048</ele>
        <time>2017-06-08T14:17:21Z</time>
      </trkpt>
      <trkpt lat="44.0517" lon="6.94346">
        <ele>2048</ele>
        <time>2017-06-08T14:17:22Z</time>
      </trkpt>
      <trkpt lat="44.05166" lon="6.94349">
        <ele>2048</ele>
        <time>2017-06-08T14:17:22Z</time>
      </trkpt>
      <trkpt lat="44.0516" lon="6.94351">
        <ele>2048</ele>
        <time>2017-06-08T14:17:40Z</time>
      </trkpt>
      <trkpt lat="44.05158" lon="6.9435">
        <ele>2048</ele>
        <time>2017-06-08T14:17:40Z</time>
      </trkpt>
      <trkpt lat="44.05152" lon="6.94348">
        <ele>2052</ele>
        <time>2017-06-08T14:17:41Z</time>
      </trkpt>
      <trkpt lat="44.0515" lon="6.94349">
        <ele>2052</ele>
        <time>2017-06-08T14:17:41Z</time>
      </trkpt>
      <trkpt lat="44.05149" lon="6.94349">
        <ele>2052</ele>
        <time>2017-06-08T14:18:05Z</time>
      </trkpt>
      <trkpt lat="44.05144" lon="6.94348">
        <ele>2052</ele>
        <time>2017-06-08T14:18:05Z</time>
      </trkpt>
      <trkpt lat="44.05145" lon="6.94344">
        <ele>2058</ele>
        <time>2017-06-08T14:18:06Z</time>
      </trkpt>
      <trkpt lat="44.05145" lon="6.94344">
        <ele>2058</ele>
        <time>2017-06-08T14:18:06Z</time>
      </trkpt>
      <trkpt lat="44.0514" lon="6.9434">
        <ele>2058</ele>
        <time>2017-06-08T14:18:06Z</time>
      </trkpt>
      <trkpt lat="44.05139" lon="6.9434">
        <ele>2058</ele>
        <time>2017-06-08T14:18:26Z</time>
      </trkpt>
      <trkpt lat="44.05137" lon="6.94339">
        <ele>2058</ele>
        <time>2017-06-08T14:18:26Z</time>
      </trkpt>
      <trkpt lat="44.05137" lon="6.94338">
        <ele>2058</ele>
        <time>2017-06-08T14:18:27Z</time>
      </trkpt>
      <trkpt lat="44.05134" lon="6.94336">
        <ele>2058</ele>
        <time>2017-06-08T14:18:27Z</time>
      </trkpt>
      <trkpt lat="44.05123" lon="6.94332">
        <ele>2054</ele>
        <time>2017-06-08T14:18:27Z</time>
      </trkpt>
      <trkpt lat="44.05115" lon="6.94332">
        <ele>2054</ele>
        <time>2017-06-08T14:19:04Z</time>
      </trkpt>
      <trkpt lat="44.05115" lon="6.94331">
        <ele>2054</ele>
        <time>2017-06-08T14:19:04Z</time>
      </trkpt>
      <trkpt lat="44.05115" lon="6.9433">
        <ele>2054</ele>
        <time>2017-06-08T14:19:04Z</time>
      </trkpt>
      <trkpt lat="44.05113" lon="6.94328">
        <ele>2054</ele>
        <time>2017-06-08T14:19:05Z</time>
      </trkpt>
      <trkpt lat="44.0511" lon="6.94328">
        <ele>2054</ele>
        <time>2017-06-08T14:19:05Z</time>
      </trkpt>
      <trkpt lat="44.05109" lon="6.94328">
        <ele>2054</ele>
        <time>2017-06-08T14:19:19Z</time>
      </trkpt>
      <trkpt lat="44.05104" lon="6.94324">
        <ele>2054</ele>
        <time>2017-06-08T14:19:19Z</time>
      </trkpt>
      <trkpt lat="44.05102" lon="6.94323">
        <ele>2054</ele>
        <time>2017-06-08T14:19:19Z</time>
      </trkpt>
      <trkpt lat="44.05098" lon="6.94324">
        <ele>2054</ele>
        <time>2017-06-08T14:19:19Z</time>
      </trkpt>
      <trkpt lat="44.05094" lon="6.94327">
        <ele>2049</ele>
        <time>2017-06-08T14:22:47Z</time>
      </trkpt>
      <trkpt lat="44.05093" lon="6.94328">
        <ele>2049</ele>
        <time>2017-06-08T14:22:47Z</time>
      </trkpt>
      <trkpt lat="44.05091" lon="6.94329">
        <ele>2049</ele>
        <time>2017-06-08T14:22:48Z</time>
      </trkpt>
      <trkpt lat="44.05086" lon="6.94327">
        <ele>2049</ele>
        <time>2017-06-08T14:22:48Z</time>
      </trkpt>
      <trkpt lat="44.05085" lon="6.94327">
        <ele>2049</ele>
        <time>2017-06-08T14:22:48Z</time>
      </trkpt>
      <trkpt lat="44.05085" lon="6.94327">
        <ele>2049</ele>
        <time>2017-06-08T14:23:07Z</time>
      </trkpt>
      <trkpt lat="44.0508" lon="6.94339">
        <ele>2049</ele>
        <time>2017-06-08T14:23:07Z</time>
      </trkpt>
      <trkpt lat="44.05074" lon="6.94347">
        <ele>2049</ele>
        <time>2017-06-08T14:23:07Z</time>
      </trkpt>
      <trkpt lat="44.05071" lon="6.94351">
        <ele>2046</ele>
        <time>2017-06-08T14:23:07Z</time>
      </trkpt>
      <trkpt lat="44.05066" lon="6.94362">
        <ele>2043</ele>
        <time>2017-06-08T14:23:24Z</time>
      </trkpt>
      <trkpt lat="44.05067" lon="6.94365">
        <ele>2043</ele>
        <time>2017-06-08T14:23:24Z</time>
      </trkpt>
      <trkpt lat="44.05068" lon="6.94372">
        <ele>2043</ele>
        <time>2017-06-08T14:23:25Z</time>
      </trkpt>
      <trkpt lat="44.05069" lon="6.94376">
        <ele>2039</ele>
        <time>2017-06-08T14:23:25Z</time>
      </trkpt>
      <trkpt lat="44.05069" lon="6.94384">
        <ele>2039</ele>
        <time>2017-06-08T14:23:51Z</time>
      </trkpt>
      <trkpt lat="44.05068" lon="6.9439">
        <ele>2039</ele>
        <time>2017-06-08T14:23:51Z</time>
      </trkpt>
      <trkpt lat="44.05068" lon="6.94392">
        <ele>2039</ele>
        <time>2017-06-08T14:23:52Z</time>
      </trkpt>
      <trkpt lat="44.05064" lon="6.94402">
        <ele>2039</ele>
        <time>2017-06-08T14:23:52Z</time>
      </trkpt>
      <trkpt lat="44.05062" lon="6.94405">
        <ele>2030</ele>
        <time>2017-06-08T14:23:52Z</time>
      </trkpt>
      <trkpt lat="44.0506" lon="6.94408">
        <ele>2030</ele>
        <time>2017-06-08T14:24:09Z</time>
      </trkpt>
      <trkpt lat="44.05055" lon="6.94413">
        <ele>2030</ele>
        <time>2017-06-08T14:24:09Z</time>
      </trkpt>
      <trkpt lat="44.05056" lon="6.94414">
        <ele>2030</ele>
        <time>2017-06-08T14:24:10Z</time>
      </trkpt>
      <trkpt lat="44.05053" lon="6.9442">
        <ele>2030</ele>
        <time>2017-06-08T14:24:10Z</time>
      </trkpt>
      <trkpt lat="44.0505" lon="6.94426">
        <ele>2030</ele>
        <time>2017-06-08T14:24:33Z</time>
      </trkpt>
      <trkpt lat="44.0505" lon="6.94428">
        <ele>2030</ele>
        <time>2017-06-08T14:24:33Z</time>
      </trkpt>
      <trkpt lat="44.05047" lon="6.9443">
        <ele>2030</ele>
        <time>2017-06-08T14:24:33Z</time>
      </trkpt>
      <trkpt lat="44.05047" lon="6.94431">
        <ele>2025</ele>
        <time>2017-06-08T14:24:33Z</time>
      </trkpt>
      <trkpt lat="44.05048" lon="6.94434">
        <ele>2025</ele>
        <time>2017-06-08T14:24:33Z</time>
      </trkpt>
      <trkpt lat="44.05045" lon="6.94465">
        <ele>2025</ele>
        <time>2017-06-08T14:25:46Z</time>
      </trkpt>
      <trkpt lat="44.05045" lon="6.94466">
        <ele>2025</ele>
        <time>2017-06-08T14:25:47Z</time>
      </trkpt>
      <trkpt lat="44.05045" lon="6.94468">
        <ele>2025</ele>
        <time>2017-06-08T14:25:47Z</time>
      </trkpt>
      <trkpt lat="44.05046" lon="6.94473">
        <ele>2025</ele>
        <time>2017-06-08T14:25:47Z</time>
      </trkpt>
      <trkpt lat="44.05049" lon="6.94478">
        <ele>2025</ele>
        <time>2017-06-08T14:25:47Z</time>
      </trkpt>
      <trkpt lat="44.0505" lon="6.94478">
        <ele>2025</ele>
        <time>2017-06-08T14:26:01Z</time>
      </trkpt>
      <trkpt lat="44.0505" lon="6.9448">
        <ele>2025</ele>
        <time>2017-06-08T14:26:01Z</time>
      </trkpt>
      <trkpt lat="44.05052" lon="6.94487">
        <ele>2025</ele>
        <time>2017-06-08T14:26:01Z</time>
      </trkpt>
      <trkpt lat="44.05052" lon="6.94491">
        <ele>2025</ele>
        <time>2017-06-08T14:26:01Z</time>
      </trkpt>
      <trkpt lat="44.05051" lon="6.94493">
        <ele>2025</ele>
        <time>2017-06-08T14:26:17Z</time>
      </trkpt>
      <trkpt lat="44.05048" lon="6.94503">
        <ele>2025</ele>
        <time>2017-06-08T14:26:17Z</time>
      </trkpt>
      <trkpt lat="44.05046" lon="6.94506">
        <ele>2025</ele>
        <time>2017-06-08T14:26:18Z</time>
      </trkpt>
      <trkpt lat="44.05046" lon="6.94511">
        <ele>2025</ele>
        <time>2017-06-08T14:26:18Z</time>
      </trkpt>
      <trkpt lat="44.05044" lon="6.94515">
        <ele>2027</ele>
        <time>2017-06-08T14:26:38Z</time>
      </trkpt>
      <trkpt lat="44.05044" lon="6.94519">
        <ele>2027</ele>
        <time>2017-06-08T14:26:39Z</time>
      </trkpt>
      <trkpt lat="44.05045" lon="6.94523">
        <ele>2027</ele>
        <time>2017-06-08T14:26:39Z</time>
      </trkpt>
      <trkpt lat="44.05045" lon="6.94526">
        <ele>2027</ele>
        <time>2017-06-08T14:26:39Z</time>
      </trkpt>
      <trkpt lat="44.05044" lon="6.94539">
        <ele>2027</ele>
        <time>2017-06-08T14:26:39Z</time>
      </trkpt>
      <trkpt lat="44.05043" lon="6.94544">
        <ele>2027</ele>
        <time>2017-06-08T14:26:57Z</time>
      </trkpt>
      <trkpt lat="44.05039" lon="6.94553">
        <ele>2015</ele>
        <time>2017-06-08T14:26:57Z</time>
      </trkpt>
      <trkpt lat="44.05037" lon="6.94554">
        <ele>2015</ele>
        <time>2017-06-08T14:26:58Z</time>
      </trkpt>
      <trkpt lat="44.05035" lon="6.94557">
        <ele>2015</ele>
        <time>2017-06-08T14:26:58Z</time>
      </trkpt>
      <trkpt lat="44.05028" lon="6.94569">
        <ele>2015</ele>
        <time>2017-06-08T14:27:35Z</time>
      </trkpt>
      <trkpt lat="44.05028" lon="6.9457">
        <ele>2015</ele>
        <time>2017-06-08T14:27:35Z</time>
      </trkpt>
      <trkpt lat="44.05027" lon="6.94571">
        <ele>2015</ele>
        <time>2017-06-08T14:27:35Z</time>
      </trkpt>
      <trkpt lat="44.05027" lon="6.94572">
        <ele>2015</ele>
        <time>2017-06-08T14:27:35Z</time>
      </trkpt>
      <trkpt lat="44.05027" lon="6.94573">
        <ele>2015</ele>
        <time>2017-06-08T14:27:35Z</time>
      </trkpt>
      <trkpt lat="44.05026" lon="6.94573">
        <ele>2015</ele>
        <time>2017-06-08T14:27:49Z</time>
      </trkpt>
      <trkpt lat="44.0502" lon="6.94576">
        <ele>2015</ele>
        <time>2017-06-08T14:27:49Z</time>
      </trkpt>
      <trkpt lat="44.05019" lon="6.94575">
        <ele>2015</ele>
        <time>2017-06-08T14:27:50Z</time>
      </trkpt>
      <trkpt lat="44.05015" lon="6.94576">
        <ele>2015</ele>
        <time>2017-06-08T14:27:50Z</time>
      </trkpt>
      <trkpt lat="44.05014" lon="6.94574">
        <ele>2015</ele>
        <time>2017-06-08T14:37:11Z</time>
      </trkpt>
      <trkpt lat="44.05016" lon="6.94574">
        <ele>2015</ele>
        <time>2017-06-08T14:37:11Z</time>
      </trkpt>
      <trkpt lat="44.0502" lon="6.94573">
        <ele>2015</ele>
        <time>2017-06-08T14:37:11Z</time>
      </trkpt>
      <trkpt lat="44.05018" lon="6.94569">
        <ele>2015</ele>
        <time>2017-06-08T14:37:11Z</time>
      </trkpt>
      <trkpt lat="44.05023" lon="6.94569">
        <ele>2015</ele>
        <time>2017-06-08T14:37:11Z</time>
      </trkpt>
      <trkpt lat="44.05027" lon="6.9457">
        <ele>2015</ele>
        <time>2017-06-08T14:38:10Z</time>
      </trkpt>
      <trkpt lat="44.05028" lon="6.94572">
        <ele>2015</ele>
        <time>2017-06-08T14:38:10Z</time>
      </trkpt>
      <trkpt lat="44.0503" lon="6.94568">
        <ele>2015</ele>
        <time>2017-06-08T14:38:10Z</time>
      </trkpt>
      <trkpt lat="44.05031" lon="6.94567">
        <ele>2015</ele>
        <time>2017-06-08T14:38:10Z</time>
      </trkpt>
      <trkpt lat="44.05033" lon="6.94563">
        <ele>2015</ele>
        <time>2017-06-08T14:38:10Z</time>
      </trkpt>
      <trkpt lat="44.05034" lon="6.94563">
        <ele>2015</ele>
        <time>2017-06-08T14:38:23Z</time>
      </trkpt>
      <trkpt lat="44.05037" lon="6.94556">
        <ele>2015</ele>
        <time>2017-06-08T14:38:23Z</time>
      </trkpt>
      <trkpt lat="44.05039" lon="6.9455">
        <ele>2015</ele>
        <time>2017-06-08T14:38:23Z</time>
      </trkpt>
      <trkpt lat="44.05041" lon="6.9455">
        <ele>2015</ele>
        <time>2017-06-08T14:38:23Z</time>
      </trkpt>
      <trkpt lat="44.05046" lon="6.94547">
        <ele>2027</ele>
        <time>2017-06-08T14:38:45Z</time>
      </trkpt>
      <trkpt lat="44.05046" lon="6.94544">
        <ele>2027</ele>
        <time>2017-06-08T14:38:46Z</time>
      </trkpt>
      <trkpt lat="44.05047" lon="6.94541">
        <ele>2027</ele>
        <time>2017-06-08T14:38:46Z</time>
      </trkpt>
      <trkpt lat="44.05047" lon="6.94536">
        <ele>2027</ele>
        <time>2017-06-08T14:38:46Z</time>
      </trkpt>
      <trkpt lat="44.05049" lon="6.94531">
        <ele>2027</ele>
        <time>2017-06-08T14:38:46Z</time>
      </trkpt>
      <trkpt lat="44.0505" lon="6.9453">
        <ele>2027</ele>
        <time>2017-06-08T14:39:04Z</time>
      </trkpt>
      <trkpt lat="44.0505" lon="6.94527">
        <ele>2027</ele>
        <time>2017-06-08T14:39:04Z</time>
      </trkpt>
      <trkpt lat="44.0505" lon="6.94521">
        <ele>2027</ele>
        <time>2017-06-08T14:39:04Z</time>
      </trkpt>
      <trkpt lat="44.05052" lon="6.94518">
        <ele>2027</ele>
        <time>2017-06-08T14:39:05Z</time>
      </trkpt>
      <trkpt lat="44.05054" lon="6.94513">
        <ele>2025</ele>
        <time>2017-06-08T14:39:05Z</time>
      </trkpt>
      <trkpt lat="44.05055" lon="6.94511">
        <ele>2025</ele>
        <time>2017-06-08T14:39:25Z</time>
      </trkpt>
      <trkpt lat="44.05056" lon="6.945">
        <ele>2025</ele>
        <time>2017-06-08T14:39:25Z</time>
      </trkpt>
      <trkpt lat="44.05056" lon="6.945">
        <ele>2025</ele>
        <time>2017-06-08T14:39:25Z</time>
      </trkpt>
      <trkpt lat="44.05056" lon="6.94499">
        <ele>2025</ele>
        <time>2017-06-08T14:39:25Z</time>
      </trkpt>
      <trkpt lat="44.05056" lon="6.94494">
        <ele>2025</ele>
        <time>2017-06-08T14:39:25Z</time>
      </trkpt>
      <trkpt lat="44.05056" lon="6.94493">
        <ele>2025</ele>
        <time>2017-06-08T14:39:39Z</time>
      </trkpt>
      <trkpt lat="44.05058" lon="6.94481">
        <ele>2025</ele>
        <time>2017-06-08T14:39:39Z</time>
      </trkpt>
      <trkpt lat="44.05058" lon="6.94479">
        <ele>2025</ele>
        <time>2017-06-08T14:39:39Z</time>
      </trkpt>
      <trkpt lat="44.0506" lon="6.94477">
        <ele>2025</ele>
        <time>2017-06-08T14:39:39Z</time>
      </trkpt>
      <trkpt lat="44.05062" lon="6.94471">
        <ele>2025</ele>
        <time>2017-06-08T14:39:56Z</time>
      </trkpt>
      <trkpt lat="44.05064" lon="6.94467">
        <ele>2025</ele>
        <time>2017-06-08T14:39:57Z</time>
      </trkpt>
      <trkpt lat="44.05065" lon="6.94461">
        <ele>2025</ele>
        <time>2017-06-08T14:39:57Z</time>
      </trkpt>
      <trkpt lat="44.05067" lon="6.94458">
        <ele>2025</ele>
        <time>2017-06-08T14:39:57Z</time>
      </trkpt>
      <trkpt lat="44.05068" lon="6.94457">
        <ele>2025</ele>
        <time>2017-06-08T14:40:12Z</time>
      </trkpt>
      <trkpt lat="44.05072" lon="6.94448">
        <ele>2022</ele>
        <time>2017-06-08T14:40:12Z</time>
      </trkpt>
      <trkpt lat="44.05074" lon="6.94441">
        <ele>2022</ele>
        <time>2017-06-08T14:40:12Z</time>
      </trkpt>
      <trkpt lat="44.05075" lon="6.94438">
        <ele>2022</ele>
        <time>2017-06-08T14:40:12Z</time>
      </trkpt>
      <trkpt lat="44.0508" lon="6.94435">
        <ele>2022</ele>
        <time>2017-06-08T14:40:29Z</time>
      </trkpt>
      <trkpt lat="44.05081" lon="6.94429">
        <ele>2032</ele>
        <time>2017-06-08T14:40:30Z</time>
      </trkpt>
      <trkpt lat="44.05083" lon="6.94426">
        <ele>2032</ele>
        <time>2017-06-08T14:40:30Z</time>
      </trkpt>
      <trkpt lat="44.05089" lon="6.94424">
        <ele>2032</ele>
        <time>2017-06-08T14:40:30Z</time>
      </trkpt>
      <trkpt lat="44.0509" lon="6.94423">
        <ele>2032</ele>
        <time>2017-06-08T14:40:45Z</time>
      </trkpt>
      <trkpt lat="44.05094" lon="6.94421">
        <ele>2032</ele>
        <time>2017-06-08T14:40:46Z</time>
      </trkpt>
      <trkpt lat="44.05096" lon="6.94419">
        <ele>2032</ele>
        <time>2017-06-08T14:40:47Z</time>
      </trkpt>
      <trkpt lat="44.05098" lon="6.94415">
        <ele>2029</ele>
        <time>2017-06-08T14:40:47Z</time>
      </trkpt>
      <trkpt lat="44.05099" lon="6.94415">
        <ele>2029</ele>
        <time>2017-06-08T14:41:10Z</time>
      </trkpt>
      <trkpt lat="44.05099" lon="6.94415">
        <ele>2029</ele>
        <time>2017-06-08T14:41:10Z</time>
      </trkpt>
      <trkpt lat="44.05099" lon="6.94415">
        <ele>2029</ele>
        <time>2017-06-08T14:41:10Z</time>
      </trkpt>
      <trkpt lat="44.05099" lon="6.94414">
        <ele>2029</ele>
        <time>2017-06-08T14:41:10Z</time>
      </trkpt>
      <trkpt lat="44.05107" lon="6.94411">
        <ele>2029</ele>
        <time>2017-06-08T14:41:10Z</time>
      </trkpt>
      <trkpt lat="44.05109" lon="6.94411">
        <ele>2029</ele>
        <time>2017-06-08T14:41:23Z</time>
      </trkpt>
      <trkpt lat="44.05115" lon="6.94407">
        <ele>2029</ele>
        <time>2017-06-08T14:41:23Z</time>
      </trkpt>
      <trkpt lat="44.05119" lon="6.94406">
        <ele>2029</ele>
        <time>2017-06-08T14:41:23Z</time>
      </trkpt>
      <trkpt lat="44.0512" lon="6.94406">
        <ele>2029</ele>
        <time>2017-06-08T14:41:23Z</time>
      </trkpt>
      <trkpt lat="44.05125" lon="6.94403">
        <ele>2031</ele>
        <time>2017-06-08T14:41:46Z</time>
      </trkpt>
      <trkpt lat="44.05126" lon="6.94399">
        <ele>2046</ele>
        <time>2017-06-08T14:41:46Z</time>
      </trkpt>
      <trkpt lat="44.05129" lon="6.94399">
        <ele>2046</ele>
        <time>2017-06-08T14:41:46Z</time>
      </trkpt>
      <trkpt lat="44.05133" lon="6.944">
        <ele>2046</ele>
        <time>2017-06-08T14:41:47Z</time>
      </trkpt>
      <trkpt lat="44.0514" lon="6.944">
        <ele>2046</ele>
        <time>2017-06-08T14:41:47Z</time>
      </trkpt>
      <trkpt lat="44.05142" lon="6.944">
        <ele>2046</ele>
        <time>2017-06-08T14:41:59Z</time>
      </trkpt>
      <trkpt lat="44.05145" lon="6.94397">
        <ele>2046</ele>
        <time>2017-06-08T14:41:59Z</time>
      </trkpt>
      <trkpt lat="44.0515" lon="6.94393">
        <ele>2046</ele>
        <time>2017-06-08T14:41:59Z</time>
      </trkpt>
      <trkpt lat="44.05152" lon="6.94391">
        <ele>2046</ele>
        <time>2017-06-08T14:41:59Z</time>
      </trkpt>
      <trkpt lat="44.05155" lon="6.94388">
        <ele>2043</ele>
        <time>2017-06-08T14:42:19Z</time>
      </trkpt>
      <trkpt lat="44.05157" lon="6.94383">
        <ele>2043</ele>
        <time>2017-06-08T14:42:19Z</time>
      </trkpt>
      <trkpt lat="44.05162" lon="6.9438">
        <ele>2043</ele>
        <time>2017-06-08T14:42:20Z</time>
      </trkpt>
      <trkpt lat="44.05162" lon="6.9438">
        <ele>2043</ele>
        <time>2017-06-08T14:42:20Z</time>
      </trkpt>
      <trkpt lat="44.05168" lon="6.94378">
        <ele>2043</ele>
        <time>2017-06-08T14:42:20Z</time>
      </trkpt>
      <trkpt lat="44.05182" lon="6.94364">
        <ele>2040</ele>
        <time>2017-06-08T14:42:57Z</time>
      </trkpt>
      <trkpt lat="44.05185" lon="6.94361">
        <ele>2040</ele>
        <time>2017-06-08T14:42:58Z</time>
      </trkpt>
      <trkpt lat="44.05188" lon="6.94353">
        <ele>2040</ele>
        <time>2017-06-08T14:42:58Z</time>
      </trkpt>
      <trkpt lat="44.0519" lon="6.9435">
        <ele>2040</ele>
        <time>2017-06-08T14:42:59Z</time>
      </trkpt>
      <trkpt lat="44.05196" lon="6.94344">
        <ele>2043</ele>
        <time>2017-06-08T14:42:59Z</time>
      </trkpt>
      <trkpt lat="44.05196" lon="6.94343">
        <ele>2043</ele>
        <time>2017-06-08T14:43:18Z</time>
      </trkpt>
      <trkpt lat="44.05197" lon="6.94339">
        <ele>2043</ele>
        <time>2017-06-08T14:43:18Z</time>
      </trkpt>
      <trkpt lat="44.05202" lon="6.94329">
        <ele>2043</ele>
        <time>2017-06-08T14:43:18Z</time>
      </trkpt>
      <trkpt lat="44.05207" lon="6.94324">
        <ele>2043</ele>
        <time>2017-06-08T14:43:19Z</time>
      </trkpt>
      <trkpt lat="44.05212" lon="6.94318">
        <ele>2034</ele>
        <time>2017-06-08T14:43:36Z</time>
      </trkpt>
      <trkpt lat="44.05216" lon="6.94318">
        <ele>2034</ele>
        <time>2017-06-08T14:43:36Z</time>
      </trkpt>
      <trkpt lat="44.0522" lon="6.94314">
        <ele>2034</ele>
        <time>2017-06-08T14:43:37Z</time>
      </trkpt>
      <trkpt lat="44.05223" lon="6.94314">
        <ele>2034</ele>
        <time>2017-06-08T14:43:37Z</time>
      </trkpt>
      <trkpt lat="44.05226" lon="6.94313">
        <ele>2034</ele>
        <time>2017-06-08T14:43:52Z</time>
      </trkpt>
      <trkpt lat="44.05231" lon="6.94313">
        <ele>2034</ele>
        <time>2017-06-08T14:43:52Z</time>
      </trkpt>
      <trkpt lat="44.05237" lon="6.94311">
        <ele>2030</ele>
        <time>2017-06-08T14:43:53Z</time>
      </trkpt>
      <trkpt lat="44.05239" lon="6.94311">
        <ele>2030</ele>
        <time>2017-06-08T14:43:53Z</time>
      </trkpt>
      <trkpt lat="44.0524" lon="6.94311">
        <ele>2030</ele>
        <time>2017-06-08T14:44:10Z</time>
      </trkpt>
      <trkpt lat="44.05247" lon="6.9431">
        <ele>2030</ele>
        <time>2017-06-08T14:44:10Z</time>
      </trkpt>
      <trkpt lat="44.05248" lon="6.94309">
        <ele>2030</ele>
        <time>2017-06-08T14:44:10Z</time>
      </trkpt>
      <trkpt lat="44.05254" lon="6.94312">
        <ele>2030</ele>
        <time>2017-06-08T14:44:10Z</time>
      </trkpt>
      <trkpt lat="44.05256" lon="6.94312">
        <ele>2030</ele>
        <time>2017-06-08T14:44:25Z</time>
      </trkpt>
      <trkpt lat="44.05262" lon="6.9431">
        <ele>2030</ele>
        <time>2017-06-08T14:44:26Z</time>
      </trkpt>
      <trkpt lat="44.05264" lon="6.9431">
        <ele>2030</ele>
        <time>2017-06-08T14:44:26Z</time>
      </trkpt>
      <trkpt lat="44.05269" lon="6.94309">
        <ele>2018</ele>
        <time>2017-06-08T14:44:26Z</time>
      </trkpt>
      <trkpt lat="44.05271" lon="6.94309">
        <ele>2018</ele>
        <time>2017-06-08T14:44:39Z</time>
      </trkpt>
      <trkpt lat="44.05281" lon="6.94308">
        <ele>2018</ele>
        <time>2017-06-08T14:44:39Z</time>
      </trkpt>
      <trkpt lat="44.05285" lon="6.94308">
        <ele>2018</ele>
        <time>2017-06-08T14:44:39Z</time>
      </trkpt>
      <trkpt lat="44.05288" lon="6.94308">
        <ele>2018</ele>
        <time>2017-06-08T14:44:39Z</time>
      </trkpt>
      <trkpt lat="44.05294" lon="6.94308">
        <ele>2015</ele>
        <time>2017-06-08T14:44:58Z</time>
      </trkpt>
      <trkpt lat="44.05299" lon="6.94311">
        <ele>2015</ele>
        <time>2017-06-08T14:44:58Z</time>
      </trkpt>
      <trkpt lat="44.05305" lon="6.94309">
        <ele>2015</ele>
        <time>2017-06-08T14:44:58Z</time>
      </trkpt>
      <trkpt lat="44.05306" lon="6.94308">
        <ele>2015</ele>
        <time>2017-06-08T14:44:58Z</time>
      </trkpt>
      <trkpt lat="44.05307" lon="6.94308">
        <ele>2015</ele>
        <time>2017-06-08T14:45:18Z</time>
      </trkpt>
      <trkpt lat="44.0531" lon="6.94308">
        <ele>2015</ele>
        <time>2017-06-08T14:45:18Z</time>
      </trkpt>
      <trkpt lat="44.05314" lon="6.94315">
        <ele>2015</ele>
        <time>2017-06-08T14:45:18Z</time>
      </trkpt>
      <trkpt lat="44.05321" lon="6.94316">
        <ele>2020</ele>
        <time>2017-06-08T14:45:18Z</time>
      </trkpt>
      <trkpt lat="44.05322" lon="6.94316">
        <ele>2020</ele>
        <time>2017-06-08T14:45:33Z</time>
      </trkpt>
      <trkpt lat="44.05325" lon="6.94319">
        <ele>2020</ele>
        <time>2017-06-08T14:45:33Z</time>
      </trkpt>
      <trkpt lat="44.05331" lon="6.94321">
        <ele>2019</ele>
        <time>2017-06-08T14:45:34Z</time>
      </trkpt>
      <trkpt lat="44.05338" lon="6.94324">
        <ele>2019</ele>
        <time>2017-06-08T14:45:34Z</time>
      </trkpt>
      <trkpt lat="44.05339" lon="6.94325">
        <ele>2019</ele>
        <time>2017-06-08T14:45:49Z</time>
      </trkpt>
      <trkpt lat="44.05346" lon="6.94328">
        <ele>2019</ele>
        <time>2017-06-08T14:45:49Z</time>
      </trkpt>
      <trkpt lat="44.05351" lon="6.94327">
        <ele>2018</ele>
        <time>2017-06-08T14:45:49Z</time>
      </trkpt>
      <trkpt lat="44.05354" lon="6.94327">
        <ele>2018</ele>
        <time>2017-06-08T14:45:49Z</time>
      </trkpt>
      <trkpt lat="44.05362" lon="6.94326">
        <ele>2018</ele>
        <time>2017-06-08T14:46:16Z</time>
      </trkpt>
      <trkpt lat="44.05367" lon="6.94325">
        <ele>2018</ele>
        <time>2017-06-08T14:46:16Z</time>
      </trkpt>
      <trkpt lat="44.05375" lon="6.9432">
        <ele>2018</ele>
        <time>2017-06-08T14:46:17Z</time>
      </trkpt>
      <trkpt lat="44.05377" lon="6.94318">
        <ele>2017</ele>
        <time>2017-06-08T14:46:17Z</time>
      </trkpt>
      <trkpt lat="44.05379" lon="6.94313">
        <ele>2017</ele>
        <time>2017-06-08T14:46:17Z</time>
      </trkpt>
      <trkpt lat="44.0538" lon="6.94313">
        <ele>2017</ele>
        <time>2017-06-08T14:46:33Z</time>
      </trkpt>
      <trkpt lat="44.05385" lon="6.94309">
        <ele>2017</ele>
        <time>2017-06-08T14:46:33Z</time>
      </trkpt>
      <trkpt lat="44.05389" lon="6.94304">
        <ele>2017</ele>
        <time>2017-06-08T14:46:33Z</time>
      </trkpt>
      <trkpt lat="44.05394" lon="6.94301">
        <ele>2017</ele>
        <time>2017-06-08T14:46:33Z</time>
      </trkpt>
      <trkpt lat="44.05395" lon="6.943">
        <ele>2017</ele>
        <time>2017-06-08T14:46:51Z</time>
      </trkpt>
      <trkpt lat="44.05399" lon="6.94297">
        <ele>2017</ele>
        <time>2017-06-08T14:46:51Z</time>
      </trkpt>
      <trkpt lat="44.05404" lon="6.94293">
        <ele>2016</ele>
        <time>2017-06-08T14:46:51Z</time>
      </trkpt>
      <trkpt lat="44.05411" lon="6.94294">
        <ele>2016</ele>
        <time>2017-06-08T14:46:51Z</time>
      </trkpt>
      <trkpt lat="44.05412" lon="6.94293">
        <ele>2016</ele>
        <time>2017-06-08T14:47:03Z</time>
      </trkpt>
      <trkpt lat="44.05417" lon="6.94295">
        <ele>2016</ele>
        <time>2017-06-08T14:47:03Z</time>
      </trkpt>
      <trkpt lat="44.05421" lon="6.94296">
        <ele>2016</ele>
        <time>2017-06-08T14:47:03Z</time>
      </trkpt>
      <trkpt lat="44.05425" lon="6.94298">
        <ele>2016</ele>
        <time>2017-06-08T14:47:03Z</time>
      </trkpt>
      <trkpt lat="44.05433" lon="6.943">
        <ele>2017</ele>
        <time>2017-06-08T14:47:20Z</time>
      </trkpt>
      <trkpt lat="44.05435" lon="6.943">
        <ele>2017</ele>
        <time>2017-06-08T14:47:21Z</time>
      </trkpt>
      <trkpt lat="44.05443" lon="6.943">
        <ele>2017</ele>
        <time>2017-06-08T14:47:21Z</time>
      </trkpt>
      <trkpt lat="44.05445" lon="6.94302">
        <ele>2017</ele>
        <time>2017-06-08T14:47:22Z</time>
      </trkpt>
      <trkpt lat="44.05446" lon="6.94301">
        <ele>2017</ele>
        <time>2017-06-08T14:47:38Z</time>
      </trkpt>
      <trkpt lat="44.05451" lon="6.94299">
        <ele>2017</ele>
        <time>2017-06-08T14:47:38Z</time>
      </trkpt>
      <trkpt lat="44.05453" lon="6.94298">
        <ele>2017</ele>
        <time>2017-06-08T14:47:39Z</time>
      </trkpt>
      <trkpt lat="44.05458" lon="6.94294">
        <ele>2017</ele>
        <time>2017-06-08T14:47:39Z</time>
      </trkpt>
      <trkpt lat="44.05459" lon="6.94294">
        <ele>2016</ele>
        <time>2017-06-08T14:47:51Z</time>
      </trkpt>
      <trkpt lat="44.05465" lon="6.94288">
        <ele>2018</ele>
        <time>2017-06-08T14:47:51Z</time>
      </trkpt>
      <trkpt lat="44.05471" lon="6.94281">
        <ele>2018</ele>
        <time>2017-06-08T14:47:51Z</time>
      </trkpt>
      <trkpt lat="44.05471" lon="6.9428">
        <ele>2018</ele>
        <time>2017-06-08T14:47:52Z</time>
      </trkpt>
      <trkpt lat="44.05474" lon="6.94279">
        <ele>2018</ele>
        <time>2017-06-08T14:48:09Z</time>
      </trkpt>
      <trkpt lat="44.05477" lon="6.94278">
        <ele>2018</ele>
        <time>2017-06-08T14:48:09Z</time>
      </trkpt>
      <trkpt lat="44.05479" lon="6.94277">
        <ele>2018</ele>
        <time>2017-06-08T14:48:09Z</time>
      </trkpt>
      <trkpt lat="44.05481" lon="6.9427">
        <ele>2018</ele>
        <time>2017-06-08T14:48:10Z</time>
      </trkpt>
      <trkpt lat="44.05483" lon="6.94257">
        <ele>2018</ele>
        <time>2017-06-08T14:48:35Z</time>
      </trkpt>
      <trkpt lat="44.05484" lon="6.94257">
        <ele>2018</ele>
        <time>2017-06-08T14:48:35Z</time>
      </trkpt>
      <trkpt lat="44.05485" lon="6.94249">
        <ele>2018</ele>
        <time>2017-06-08T14:48:35Z</time>
      </trkpt>
      <trkpt lat="44.05489" lon="6.94243">
        <ele>2018</ele>
        <time>2017-06-08T14:48:35Z</time>
      </trkpt>
      <trkpt lat="44.05489" lon="6.94243">
        <ele>2018</ele>
        <time>2017-06-08T14:48:50Z</time>
      </trkpt>
      <trkpt lat="44.05493" lon="6.94238">
        <ele>2018</ele>
        <time>2017-06-08T14:48:50Z</time>
      </trkpt>
      <trkpt lat="44.05493" lon="6.94236">
        <ele>2017</ele>
        <time>2017-06-08T14:48:51Z</time>
      </trkpt>
      <trkpt lat="44.055" lon="6.94225">
        <ele>2017</ele>
        <time>2017-06-08T14:48:51Z</time>
      </trkpt>
      <trkpt lat="44.05499" lon="6.94223">
        <ele>2017</ele>
        <time>2017-06-08T14:49:03Z</time>
      </trkpt>
      <trkpt lat="44.05505" lon="6.94212">
        <ele>2017</ele>
        <time>2017-06-08T14:49:03Z</time>
      </trkpt>
      <trkpt lat="44.05509" lon="6.9421">
        <ele>2017</ele>
        <time>2017-06-08T14:49:03Z</time>
      </trkpt>
      <trkpt lat="44.05512" lon="6.94206">
        <ele>2014</ele>
        <time>2017-06-08T14:49:03Z</time>
      </trkpt>
      <trkpt lat="44.05514" lon="6.94202">
        <ele>2016</ele>
        <time>2017-06-08T14:49:20Z</time>
      </trkpt>
      <trkpt lat="44.05516" lon="6.94195">
        <ele>2016</ele>
        <time>2017-06-08T14:49:20Z</time>
      </trkpt>
      <trkpt lat="44.05518" lon="6.9419">
        <ele>2016</ele>
        <time>2017-06-08T14:49:20Z</time>
      </trkpt>
      <trkpt lat="44.0552" lon="6.94186">
        <ele>2016</ele>
        <time>2017-06-08T14:49:20Z</time>
      </trkpt>
      <trkpt lat="44.05522" lon="6.94185">
        <ele>2016</ele>
        <time>2017-06-08T14:49:38Z</time>
      </trkpt>
      <trkpt lat="44.05526" lon="6.94181">
        <ele>2016</ele>
        <time>2017-06-08T14:49:38Z</time>
      </trkpt>
      <trkpt lat="44.05526" lon="6.9418">
        <ele>2015</ele>
        <time>2017-06-08T14:49:38Z</time>
      </trkpt>
      <trkpt lat="44.0553" lon="6.9417">
        <ele>2015</ele>
        <time>2017-06-08T14:49:39Z</time>
      </trkpt>
      <trkpt lat="44.0553" lon="6.94164">
        <ele>2015</ele>
        <time>2017-06-08T14:49:58Z</time>
      </trkpt>
      <trkpt lat="44.05536" lon="6.94152">
        <ele>2015</ele>
        <time>2017-06-08T14:49:58Z</time>
      </trkpt>
      <trkpt lat="44.05536" lon="6.94151">
        <ele>2015</ele>
        <time>2017-06-08T14:49:58Z</time>
      </trkpt>
      <trkpt lat="44.05538" lon="6.94142">
        <ele>2015</ele>
        <time>2017-06-08T14:49:58Z</time>
      </trkpt>
      <trkpt lat="44.05539" lon="6.9414">
        <ele>2015</ele>
        <time>2017-06-08T14:50:18Z</time>
      </trkpt>
      <trkpt lat="44.05542" lon="6.94139">
        <ele>2020</ele>
        <time>2017-06-08T14:50:18Z</time>
      </trkpt>
      <trkpt lat="44.05546" lon="6.94129">
        <ele>2020</ele>
        <time>2017-06-08T14:50:18Z</time>
      </trkpt>
      <trkpt lat="44.05552" lon="6.94116">
        <ele>2022</ele>
        <time>2017-06-08T14:50:19Z</time>
      </trkpt>
      <trkpt lat="44.05555" lon="6.94113">
        <ele>2022</ele>
        <time>2017-06-08T14:50:41Z</time>
      </trkpt>
      <trkpt lat="44.05557" lon="6.9411">
        <ele>2022</ele>
        <time>2017-06-08T14:50:41Z</time>
      </trkpt>
      <trkpt lat="44.05558" lon="6.94104">
        <ele>2022</ele>
        <time>2017-06-08T14:50:41Z</time>
      </trkpt>
      <trkpt lat="44.05558" lon="6.94102">
        <ele>2022</ele>
        <time>2017-06-08T14:50:41Z</time>
      </trkpt>
      <trkpt lat="44.05561" lon="6.94098">
        <ele>2022</ele>
        <time>2017-06-08T14:50:41Z</time>
      </trkpt>
      <trkpt lat="44.05563" lon="6.94089">
        <ele>2022</ele>
        <time>2017-06-08T14:51:03Z</time>
      </trkpt>
      <trkpt lat="44.05565" lon="6.94089">
        <ele>2022</ele>
        <time>2017-06-08T14:51:03Z</time>
      </trkpt>
      <trkpt lat="44.05567" lon="6.94085">
        <ele>2022</ele>
        <time>2017-06-08T14:51:03Z</time>
      </trkpt>
      <trkpt lat="44.0557" lon="6.94082">
        <ele>2025</ele>
        <time>2017-06-08T14:51:03Z</time>
      </trkpt>
      <trkpt lat="44.05572" lon="6.94079">
        <ele>2025</ele>
        <time>2017-06-08T14:51:03Z</time>
      </trkpt>
      <trkpt lat="44.05574" lon="6.94074">
        <ele>2025</ele>
        <time>2017-06-08T14:51:20Z</time>
      </trkpt>
      <trkpt lat="44.05574" lon="6.94071">
        <ele>2025</ele>
        <time>2017-06-08T14:51:20Z</time>
      </trkpt>
      <trkpt lat="44.05576" lon="6.94066">
        <ele>2026</ele>
        <time>2017-06-08T14:51:21Z</time>
      </trkpt>
      <trkpt lat="44.05578" lon="6.94062">
        <ele>2026</ele>
        <time>2017-06-08T14:51:21Z</time>
      </trkpt>
      <trkpt lat="44.05578" lon="6.94059">
        <ele>2026</ele>
        <time>2017-06-08T14:51:38Z</time>
      </trkpt>
      <trkpt lat="44.05584" lon="6.94051">
        <ele>2026</ele>
        <time>2017-06-08T14:51:38Z</time>
      </trkpt>
      <trkpt lat="44.05585" lon="6.94049">
        <ele>2026</ele>
        <time>2017-06-08T14:51:38Z</time>
      </trkpt>
      <trkpt lat="44.05589" lon="6.94045">
        <ele>2026</ele>
        <time>2017-06-08T14:51:38Z</time>
      </trkpt>
      <trkpt lat="44.05592" lon="6.94044">
        <ele>2026</ele>
        <time>2017-06-08T14:51:57Z</time>
      </trkpt>
      <trkpt lat="44.05596" lon="6.94039">
        <ele>2023</ele>
        <time>2017-06-08T14:51:57Z</time>
      </trkpt>
      <trkpt lat="44.05598" lon="6.94036">
        <ele>2026</ele>
        <time>2017-06-08T14:51:57Z</time>
      </trkpt>
      <trkpt lat="44.05602" lon="6.94032">
        <ele>2026</ele>
        <time>2017-06-08T14:51:57Z</time>
      </trkpt>
      <trkpt lat="44.05603" lon="6.94031">
        <ele>2026</ele>
        <time>2017-06-08T14:52:11Z</time>
      </trkpt>
      <trkpt lat="44.0561" lon="6.94028">
        <ele>2026</ele>
        <time>2017-06-08T14:52:11Z</time>
      </trkpt>
      <trkpt lat="44.05611" lon="6.94026">
        <ele>2026</ele>
        <time>2017-06-08T14:52:12Z</time>
      </trkpt>
      <trkpt lat="44.05612" lon="6.94025">
        <ele>2026</ele>
        <time>2017-06-08T14:52:12Z</time>
      </trkpt>
      <trkpt lat="44.05611" lon="6.94022">
        <ele>2026</ele>
        <time>2017-06-08T14:52:29Z</time>
      </trkpt>
      <trkpt lat="44.05613" lon="6.94018">
        <ele>2026</ele>
        <time>2017-06-08T14:52:30Z</time>
      </trkpt>
      <trkpt lat="44.05616" lon="6.94016">
        <ele>2026</ele>
        <time>2017-06-08T14:52:30Z</time>
      </trkpt>
      <trkpt lat="44.05618" lon="6.94014">
        <ele>2026</ele>
        <time>2017-06-08T14:52:30Z</time>
      </trkpt>
      <trkpt lat="44.05626" lon="6.94005">
        <ele>2026</ele>
        <time>2017-06-08T14:53:00Z</time>
      </trkpt>
      <trkpt lat="44.0563" lon="6.94001">
        <ele>2026</ele>
        <time>2017-06-08T14:53:00Z</time>
      </trkpt>
      <trkpt lat="44.05632" lon="6.93999">
        <ele>2026</ele>
        <time>2017-06-08T14:53:00Z</time>
      </trkpt>
      <trkpt lat="44.05637" lon="6.93994">
        <ele>2026</ele>
        <time>2017-06-08T14:53:00Z</time>
      </trkpt>
      <trkpt lat="44.05643" lon="6.9399">
        <ele>2026</ele>
        <time>2017-06-08T14:53:00Z</time>
      </trkpt>
      <trkpt lat="44.05644" lon="6.93987">
        <ele>2026</ele>
        <time>2017-06-08T14:53:16Z</time>
      </trkpt>
      <trkpt lat="44.05648" lon="6.93985">
        <ele>2027</ele>
        <time>2017-06-08T14:53:16Z</time>
      </trkpt>
      <trkpt lat="44.05651" lon="6.93983">
        <ele>2027</ele>
        <time>2017-06-08T14:53:16Z</time>
      </trkpt>
      <trkpt lat="44.05653" lon="6.93979">
        <ele>2024</ele>
        <time>2017-06-08T14:53:16Z</time>
      </trkpt>
      <trkpt lat="44.05654" lon="6.93977">
        <ele>2024</ele>
        <time>2017-06-08T14:53:34Z</time>
      </trkpt>
      <trkpt lat="44.05656" lon="6.93975">
        <ele>2024</ele>
        <time>2017-06-08T14:53:34Z</time>
      </trkpt>
      <trkpt lat="44.05656" lon="6.93972">
        <ele>2024</ele>
        <time>2017-06-08T14:53:34Z</time>
      </trkpt>
      <trkpt lat="44.05659" lon="6.93965">
        <ele>2024</ele>
        <time>2017-06-08T14:53:34Z</time>
      </trkpt>
      <trkpt lat="44.0566" lon="6.93964">
        <ele>2024</ele>
        <time>2017-06-08T14:53:48Z</time>
      </trkpt>
      <trkpt lat="44.0566" lon="6.93959">
        <ele>2024</ele>
        <time>2017-06-08T14:53:48Z</time>
      </trkpt>
      <trkpt lat="44.05661" lon="6.93957">
        <ele>2021</ele>
        <time>2017-06-08T14:53:48Z</time>
      </trkpt>
      <trkpt lat="44.05663" lon="6.93949">
        <ele>2021</ele>
        <time>2017-06-08T14:53:48Z</time>
      </trkpt>
      <trkpt lat="44.05663" lon="6.93946">
        <ele>2021</ele>
        <time>2017-06-08T14:54:03Z</time>
      </trkpt>
      <trkpt lat="44.05666" lon="6.93936">
        <ele>2021</ele>
        <time>2017-06-08T14:54:03Z</time>
      </trkpt>
      <trkpt lat="44.05667" lon="6.93932">
        <ele>2021</ele>
        <time>2017-06-08T14:54:03Z</time>
      </trkpt>
      <trkpt lat="44.05669" lon="6.9393">
        <ele>2016</ele>
        <time>2017-06-08T14:54:03Z</time>
      </trkpt>
      <trkpt lat="44.05675" lon="6.93926">
        <ele>2016</ele>
        <time>2017-06-08T14:54:21Z</time>
      </trkpt>
      <trkpt lat="44.05676" lon="6.93918">
        <ele>2016</ele>
        <time>2017-06-08T14:54:21Z</time>
      </trkpt>
      <trkpt lat="44.05677" lon="6.93917">
        <ele>2016</ele>
        <time>2017-06-08T14:54:21Z</time>
      </trkpt>
      <trkpt lat="44.0568" lon="6.93913">
        <ele>2016</ele>
        <time>2017-06-08T14:54:22Z</time>
      </trkpt>
      <trkpt lat="44.0568" lon="6.93913">
        <ele>2016</ele>
        <time>2017-06-08T14:54:37Z</time>
      </trkpt>
      <trkpt lat="44.05687" lon="6.93911">
        <ele>2017</ele>
        <time>2017-06-08T14:54:38Z</time>
      </trkpt>
      <trkpt lat="44.05692" lon="6.93909">
        <ele>2017</ele>
        <time>2017-06-08T14:54:38Z</time>
      </trkpt>
      <trkpt lat="44.05697" lon="6.93907">
        <ele>2017</ele>
        <time>2017-06-08T14:54:38Z</time>
      </trkpt>
      <trkpt lat="44.05698" lon="6.93906">
        <ele>2017</ele>
        <time>2017-06-08T14:54:53Z</time>
      </trkpt>
      <trkpt lat="44.05701" lon="6.93904">
        <ele>2017</ele>
        <time>2017-06-08T14:54:53Z</time>
      </trkpt>
      <trkpt lat="44.05707" lon="6.93897">
        <ele>2014</ele>
        <time>2017-06-08T14:54:53Z</time>
      </trkpt>
      <trkpt lat="44.05709" lon="6.93891">
        <ele>2014</ele>
        <time>2017-06-08T14:54:53Z</time>
      </trkpt>
      <trkpt lat="44.0571" lon="6.93889">
        <ele>2014</ele>
        <time>2017-06-08T14:55:10Z</time>
      </trkpt>
      <trkpt lat="44.05716" lon="6.93883">
        <ele>2014</ele>
        <time>2017-06-08T14:55:10Z</time>
      </trkpt>
      <trkpt lat="44.05719" lon="6.93882">
        <ele>2014</ele>
        <time>2017-06-08T14:55:10Z</time>
      </trkpt>
      <trkpt lat="44.0572" lon="6.9387">
        <ele>2008</ele>
        <time>2017-06-08T14:55:10Z</time>
      </trkpt>
      <trkpt lat="44.05721" lon="6.93869">
        <ele>2008</ele>
        <time>2017-06-08T14:55:25Z</time>
      </trkpt>
      <trkpt lat="44.05723" lon="6.93864">
        <ele>2008</ele>
        <time>2017-06-08T14:55:25Z</time>
      </trkpt>
      <trkpt lat="44.05725" lon="6.93859">
        <ele>2008</ele>
        <time>2017-06-08T14:55:25Z</time>
      </trkpt>
      <trkpt lat="44.05734" lon="6.93855">
        <ele>2008</ele>
        <time>2017-06-08T14:55:25Z</time>
      </trkpt>
      <trkpt lat="44.05735" lon="6.93854">
        <ele>2008</ele>
        <time>2017-06-08T14:55:41Z</time>
      </trkpt>
      <trkpt lat="44.05743" lon="6.93848">
        <ele>2006</ele>
        <time>2017-06-08T14:55:41Z</time>
      </trkpt>
      <trkpt lat="44.05744" lon="6.93846">
        <ele>2006</ele>
        <time>2017-06-08T14:55:41Z</time>
      </trkpt>
      <trkpt lat="44.05744" lon="6.93844">
        <ele>2006</ele>
        <time>2017-06-08T14:55:41Z</time>
      </trkpt>
      <trkpt lat="44.05747" lon="6.93844">
        <ele>2006</ele>
        <time>2017-06-08T14:55:55Z</time>
      </trkpt>
      <trkpt lat="44.05754" lon="6.93841">
        <ele>2006</ele>
        <time>2017-06-08T14:55:55Z</time>
      </trkpt>
      <trkpt lat="44.0576" lon="6.93839">
        <ele>2006</ele>
        <time>2017-06-08T14:55:55Z</time>
      </trkpt>
      <trkpt lat="44.05762" lon="6.93838">
        <ele>2006</ele>
        <time>2017-06-08T14:55:55Z</time>
      </trkpt>
      <trkpt lat="44.05767" lon="6.93837">
        <ele>2007</ele>
        <time>2017-06-08T14:56:13Z</time>
      </trkpt>
      <trkpt lat="44.05769" lon="6.93835">
        <ele>2007</ele>
        <time>2017-06-08T14:56:13Z</time>
      </trkpt>
      <trkpt lat="44.05773" lon="6.93833">
        <ele>2007</ele>
        <time>2017-06-08T14:56:14Z</time>
      </trkpt>
      <trkpt lat="44.05781" lon="6.93832">
        <ele>2007</ele>
        <time>2017-06-08T14:56:14Z</time>
      </trkpt>
      <trkpt lat="44.05785" lon="6.93831">
        <ele>2007</ele>
        <time>2017-06-08T14:56:32Z</time>
      </trkpt>
      <trkpt lat="44.05791" lon="6.93829">
        <ele>2007</ele>
        <time>2017-06-08T14:56:32Z</time>
      </trkpt>
      <trkpt lat="44.05796" lon="6.93827">
        <ele>2002</ele>
        <time>2017-06-08T14:56:33Z</time>
      </trkpt>
      <trkpt lat="44.05796" lon="6.93824">
        <ele>2002</ele>
        <time>2017-06-08T14:56:33Z</time>
      </trkpt>
      <trkpt lat="44.05797" lon="6.93823">
        <ele>2002</ele>
        <time>2017-06-08T14:56:47Z</time>
      </trkpt>
      <trkpt lat="44.05805" lon="6.93816">
        <ele>2008</ele>
        <time>2017-06-08T14:56:47Z</time>
      </trkpt>
      <trkpt lat="44.05806" lon="6.93815">
        <ele>2008</ele>
        <time>2017-06-08T14:56:47Z</time>
      </trkpt>
      <trkpt lat="44.05809" lon="6.93811">
        <ele>2008</ele>
        <time>2017-06-08T14:56:47Z</time>
      </trkpt>
      <trkpt lat="44.05815" lon="6.93804">
        <ele>2008</ele>
        <time>2017-06-08T14:57:04Z</time>
      </trkpt>
      <trkpt lat="44.05818" lon="6.938">
        <ele>2008</ele>
        <time>2017-06-08T14:57:04Z</time>
      </trkpt>
      <trkpt lat="44.05821" lon="6.93796">
        <ele>2007</ele>
        <time>2017-06-08T14:57:04Z</time>
      </trkpt>
      <trkpt lat="44.05824" lon="6.93794">
        <ele>2007</ele>
        <time>2017-06-08T14:57:04Z</time>
      </trkpt>
      <trkpt lat="44.05827" lon="6.93791">
        <ele>2013</ele>
        <time>2017-06-08T14:57:21Z</time>
      </trkpt>
      <trkpt lat="44.05831" lon="6.93788">
        <ele>2013</ele>
        <time>2017-06-08T14:57:21Z</time>
      </trkpt>
      <trkpt lat="44.05832" lon="6.93787">
        <ele>2013</ele>
        <time>2017-06-08T14:57:21Z</time>
      </trkpt>
      <trkpt lat="44.05837" lon="6.93785">
        <ele>2013</ele>
        <time>2017-06-08T14:57:21Z</time>
      </trkpt>
      <trkpt lat="44.05837" lon="6.93784">
        <ele>2013</ele>
        <time>2017-06-08T14:57:37Z</time>
      </trkpt>
      <trkpt lat="44.05845" lon="6.9378">
        <ele>2013</ele>
        <time>2017-06-08T14:57:37Z</time>
      </trkpt>
      <trkpt lat="44.05849" lon="6.9378">
        <ele>2009</ele>
        <time>2017-06-08T14:57:37Z</time>
      </trkpt>
      <trkpt lat="44.05853" lon="6.93779">
        <ele>2009</ele>
        <time>2017-06-08T14:57:37Z</time>
      </trkpt>
      <trkpt lat="44.05854" lon="6.93779">
        <ele>2009</ele>
        <time>2017-06-08T14:57:52Z</time>
      </trkpt>
      <trkpt lat="44.05862" lon="6.93777">
        <ele>2009</ele>
        <time>2017-06-08T14:57:53Z</time>
      </trkpt>
      <trkpt lat="44.05865" lon="6.93776">
        <ele>2009</ele>
        <time>2017-06-08T14:57:54Z</time>
      </trkpt>
      <trkpt lat="44.0587" lon="6.93775">
        <ele>2009</ele>
        <time>2017-06-08T14:57:54Z</time>
      </trkpt>
      <trkpt lat="44.05873" lon="6.93775">
        <ele>2009</ele>
        <time>2017-06-08T14:58:07Z</time>
      </trkpt>
      <trkpt lat="44.05878" lon="6.93771">
        <ele>2004</ele>
        <time>2017-06-08T14:58:07Z</time>
      </trkpt>
      <trkpt lat="44.05881" lon="6.9377">
        <ele>2004</ele>
        <time>2017-06-08T14:58:07Z</time>
      </trkpt>
      <trkpt lat="44.05883" lon="6.93771">
        <ele>2004</ele>
        <time>2017-06-08T14:58:07Z</time>
      </trkpt>
      <trkpt lat="44.05889" lon="6.93771">
        <ele>2004</ele>
        <time>2017-06-08T14:58:29Z</time>
      </trkpt>
      <trkpt lat="44.05891" lon="6.93773">
        <ele>2004</ele>
        <time>2017-06-08T14:58:30Z</time>
      </trkpt>
      <trkpt lat="44.05895" lon="6.93772">
        <ele>2004</ele>
        <time>2017-06-08T14:58:30Z</time>
      </trkpt>
      <trkpt lat="44.05898" lon="6.93774">
        <ele>2004</ele>
        <time>2017-06-08T14:58:30Z</time>
      </trkpt>
      <trkpt lat="44.05906" lon="6.93772">
        <ele>1999</ele>
        <time>2017-06-08T14:58:30Z</time>
      </trkpt>
      <trkpt lat="44.05907" lon="6.93771">
        <ele>1999</ele>
        <time>2017-06-08T14:58:49Z</time>
      </trkpt>
      <trkpt lat="44.05909" lon="6.93772">
        <ele>1999</ele>
        <time>2017-06-08T14:58:49Z</time>
      </trkpt>
      <trkpt lat="44.05913" lon="6.93773">
        <ele>1999</ele>
        <time>2017-06-08T14:58:49Z</time>
      </trkpt>
      <trkpt lat="44.05915" lon="6.93773">
        <ele>1999</ele>
        <time>2017-06-08T14:58:49Z</time>
      </trkpt>
      <trkpt lat="44.05923" lon="6.93774">
        <ele>1999</ele>
        <time>2017-06-08T14:58:50Z</time>
      </trkpt>
      <trkpt lat="44.0593" lon="6.93774">
        <ele>1999</ele>
        <time>2017-06-08T14:59:09Z</time>
      </trkpt>
      <trkpt lat="44.05936" lon="6.93773">
        <ele>1997</ele>
        <time>2017-06-08T14:59:09Z</time>
      </trkpt>
      <trkpt lat="44.05937" lon="6.93774">
        <ele>1997</ele>
        <time>2017-06-08T14:59:10Z</time>
      </trkpt>
      <trkpt lat="44.0594" lon="6.93774">
        <ele>1997</ele>
        <time>2017-06-08T14:59:10Z</time>
      </trkpt>
      <trkpt lat="44.05943" lon="6.93774">
        <ele>1997</ele>
        <time>2017-06-08T14:59:23Z</time>
      </trkpt>
      <trkpt lat="44.05949" lon="6.93774">
        <ele>1997</ele>
        <time>2017-06-08T14:59:23Z</time>
      </trkpt>
      <trkpt lat="44.05961" lon="6.93774">
        <ele>1995</ele>
        <time>2017-06-08T14:59:23Z</time>
      </trkpt>
      <trkpt lat="44.05961" lon="6.93774">
        <ele>1995</ele>
        <time>2017-06-08T14:59:23Z</time>
      </trkpt>
      <trkpt lat="44.05968" lon="6.93776">
        <ele>1995</ele>
        <time>2017-06-08T14:59:40Z</time>
      </trkpt>
      <trkpt lat="44.05972" lon="6.93778">
        <ele>1995</ele>
        <time>2017-06-08T14:59:40Z</time>
      </trkpt>
      <trkpt lat="44.05978" lon="6.9378">
        <ele>1995</ele>
        <time>2017-06-08T14:59:41Z</time>
      </trkpt>
      <trkpt lat="44.05981" lon="6.93781">
        <ele>1995</ele>
        <time>2017-06-08T14:59:41Z</time>
      </trkpt>
      <trkpt lat="44.05981" lon="6.93781">
        <ele>1995</ele>
        <time>2017-06-08T14:59:55Z</time>
      </trkpt>
      <trkpt lat="44.05991" lon="6.93784">
        <ele>1994</ele>
        <time>2017-06-08T14:59:55Z</time>
      </trkpt>
      <trkpt lat="44.05991" lon="6.93785">
        <ele>1994</ele>
        <time>2017-06-08T14:59:55Z</time>
      </trkpt>
      <trkpt lat="44.05996" lon="6.93787">
        <ele>1994</ele>
        <time>2017-06-08T14:59:55Z</time>
      </trkpt>
      <trkpt lat="44.05998" lon="6.93788">
        <ele>1994</ele>
        <time>2017-06-08T15:00:12Z</time>
      </trkpt>
      <trkpt lat="44.06005" lon="6.93791">
        <ele>1994</ele>
        <time>2017-06-08T15:00:13Z</time>
      </trkpt>
      <trkpt lat="44.06009" lon="6.93793">
        <ele>1996</ele>
        <time>2017-06-08T15:00:13Z</time>
      </trkpt>
      <trkpt lat="44.06012" lon="6.93795">
        <ele>1996</ele>
        <time>2017-06-08T15:00:13Z</time>
      </trkpt>
      <trkpt lat="44.06013" lon="6.93795">
        <ele>1996</ele>
        <time>2017-06-08T15:00:29Z</time>
      </trkpt>
      <trkpt lat="44.06024" lon="6.93803">
        <ele>1995</ele>
        <time>2017-06-08T15:00:29Z</time>
      </trkpt>
      <trkpt lat="44.06027" lon="6.93804">
        <ele>1995</ele>
        <time>2017-06-08T15:00:29Z</time>
      </trkpt>
      <trkpt lat="44.06034" lon="6.93806">
        <ele>1995</ele>
        <time>2017-06-08T15:00:29Z</time>
      </trkpt>
      <trkpt lat="44.06041" lon="6.93808">
        <ele>1995</ele>
        <time>2017-06-08T15:00:49Z</time>
      </trkpt>
      <trkpt lat="44.06046" lon="6.93812">
        <ele>1992</ele>
        <time>2017-06-08T15:00:49Z</time>
      </trkpt>
      <trkpt lat="44.06048" lon="6.93813">
        <ele>1992</ele>
        <time>2017-06-08T15:00:50Z</time>
      </trkpt>
      <trkpt lat="44.06053" lon="6.93817">
        <ele>1992</ele>
        <time>2017-06-08T15:00:50Z</time>
      </trkpt>
      <trkpt lat="44.06056" lon="6.93818">
        <ele>1992</ele>
        <time>2017-06-08T15:01:03Z</time>
      </trkpt>
      <trkpt lat="44.06062" lon="6.93822">
        <ele>1994</ele>
        <time>2017-06-08T15:01:03Z</time>
      </trkpt>
      <trkpt lat="44.06065" lon="6.93823">
        <ele>1994</ele>
        <time>2017-06-08T15:01:03Z</time>
      </trkpt>
      <trkpt lat="44.06067" lon="6.93824">
        <ele>1994</ele>
        <time>2017-06-08T15:01:03Z</time>
      </trkpt>
      <trkpt lat="44.06073" lon="6.93828">
        <ele>1989</ele>
        <time>2017-06-08T15:01:19Z</time>
      </trkpt>
      <trkpt lat="44.06076" lon="6.93829">
        <ele>1989</ele>
        <time>2017-06-08T15:01:19Z</time>
      </trkpt>
      <trkpt lat="44.06081" lon="6.93832">
        <ele>1989</ele>
        <time>2017-06-08T15:01:19Z</time>
      </trkpt>
      <trkpt lat="44.06084" lon="6.93832">
        <ele>1989</ele>
        <time>2017-06-08T15:01:19Z</time>
      </trkpt>
      <trkpt lat="44.06088" lon="6.93834">
        <ele>1989</ele>
        <time>2017-06-08T15:01:37Z</time>
      </trkpt>
      <trkpt lat="44.06091" lon="6.93837">
        <ele>1989</ele>
        <time>2017-06-08T15:01:37Z</time>
      </trkpt>
      <trkpt lat="44.06093" lon="6.93837">
        <ele>1989</ele>
        <time>2017-06-08T15:01:37Z</time>
      </trkpt>
      <trkpt lat="44.061" lon="6.93838">
        <ele>1984</ele>
        <time>2017-06-08T15:01:38Z</time>
      </trkpt>
      <trkpt lat="44.06104" lon="6.93842">
        <ele>1984</ele>
        <time>2017-06-08T15:01:57Z</time>
      </trkpt>
      <trkpt lat="44.0611" lon="6.93845">
        <ele>1984</ele>
        <time>2017-06-08T15:01:57Z</time>
      </trkpt>
      <trkpt lat="44.06114" lon="6.93846">
        <ele>1984</ele>
        <time>2017-06-08T15:01:57Z</time>
      </trkpt>
      <trkpt lat="44.06118" lon="6.93849">
        <ele>1985</ele>
        <time>2017-06-08T15:01:57Z</time>
      </trkpt>
      <trkpt lat="44.06125" lon="6.93856">
        <ele>1985</ele>
        <time>2017-06-08T15:02:18Z</time>
      </trkpt>
      <trkpt lat="44.06131" lon="6.93862">
        <ele>1983</ele>
        <time>2017-06-08T15:02:18Z</time>
      </trkpt>
      <trkpt lat="44.06132" lon="6.93863">
        <ele>1983</ele>
        <time>2017-06-08T15:02:19Z</time>
      </trkpt>
      <trkpt lat="44.06139" lon="6.93863">
        <ele>1983</ele>
        <time>2017-06-08T15:02:19Z</time>
      </trkpt>
      <trkpt lat="44.0614" lon="6.93864">
        <ele>1983</ele>
        <time>2017-06-08T15:02:38Z</time>
      </trkpt>
      <trkpt lat="44.06146" lon="6.93866">
        <ele>1983</ele>
        <time>2017-06-08T15:02:38Z</time>
      </trkpt>
      <trkpt lat="44.06153" lon="6.93867">
        <ele>1982</ele>
        <time>2017-06-08T15:02:38Z</time>
      </trkpt>
      <trkpt lat="44.06161" lon="6.93862">
        <ele>1982</ele>
        <time>2017-06-08T15:02:39Z</time>
      </trkpt>
      <trkpt lat="44.06169" lon="6.93859">
        <ele>1982</ele>
        <time>2017-06-08T15:02:56Z</time>
      </trkpt>
      <trkpt lat="44.0617" lon="6.93856">
        <ele>1982</ele>
        <time>2017-06-08T15:02:57Z</time>
      </trkpt>
      <trkpt lat="44.06173" lon="6.93852">
        <ele>1982</ele>
        <time>2017-06-08T15:02:57Z</time>
      </trkpt>
      <trkpt lat="44.06177" lon="6.93849">
        <ele>1982</ele>
        <time>2017-06-08T15:02:57Z</time>
      </trkpt>
      <trkpt lat="44.06178" lon="6.93848">
        <ele>1982</ele>
        <time>2017-06-08T15:03:13Z</time>
      </trkpt>
      <trkpt lat="44.06183" lon="6.93843">
        <ele>1981</ele>
        <time>2017-06-08T15:03:13Z</time>
      </trkpt>
      <trkpt lat="44.0619" lon="6.93841">
        <ele>1981</ele>
        <time>2017-06-08T15:03:13Z</time>
      </trkpt>
      <trkpt lat="44.06194" lon="6.93836">
        <ele>1981</ele>
        <time>2017-06-08T15:03:13Z</time>
      </trkpt>
      <trkpt lat="44.06194" lon="6.93834">
        <ele>1981</ele>
        <time>2017-06-08T15:03:28Z</time>
      </trkpt>
      <trkpt lat="44.06198" lon="6.9383">
        <ele>1981</ele>
        <time>2017-06-08T15:03:28Z</time>
      </trkpt>
      <trkpt lat="44.06204" lon="6.93825">
        <ele>1981</ele>
        <time>2017-06-08T15:03:28Z</time>
      </trkpt>
      <trkpt lat="44.06205" lon="6.93824">
        <ele>1981</ele>
        <time>2017-06-08T15:03:28Z</time>
      </trkpt>
      <trkpt lat="44.0621" lon="6.93822">
        <ele>1979</ele>
        <time>2017-06-08T15:03:46Z</time>
      </trkpt>
      <trkpt lat="44.06217" lon="6.93815">
        <ele>1977</ele>
        <time>2017-06-08T15:03:46Z</time>
      </trkpt>
      <trkpt lat="44.06218" lon="6.93815">
        <ele>1977</ele>
        <time>2017-06-08T15:03:47Z</time>
      </trkpt>
      <trkpt lat="44.06221" lon="6.93813">
        <ele>1977</ele>
        <time>2017-06-08T15:03:47Z</time>
      </trkpt>
      <trkpt lat="44.06225" lon="6.93811">
        <ele>1977</ele>
        <time>2017-06-08T15:04:03Z</time>
      </trkpt>
      <trkpt lat="44.06231" lon="6.9381">
        <ele>1977</ele>
        <time>2017-06-08T15:04:03Z</time>
      </trkpt>
      <trkpt lat="44.06237" lon="6.93807">
        <ele>1977</ele>
        <time>2017-06-08T15:04:03Z</time>
      </trkpt>
      <trkpt lat="44.06239" lon="6.93807">
        <ele>1977</ele>
        <time>2017-06-08T15:04:03Z</time>
      </trkpt>
      <trkpt lat="44.06244" lon="6.93805">
        <ele>1977</ele>
        <time>2017-06-08T15:04:20Z</time>
      </trkpt>
      <trkpt lat="44.06244" lon="6.93804">
        <ele>1977</ele>
        <time>2017-06-08T15:04:21Z</time>
      </trkpt>
      <trkpt lat="44.06248" lon="6.93802">
        <ele>1977</ele>
        <time>2017-06-08T15:04:21Z</time>
      </trkpt>
      <trkpt lat="44.06253" lon="6.93798">
        <ele>1977</ele>
        <time>2017-06-08T15:04:21Z</time>
      </trkpt>
      <trkpt lat="44.06255" lon="6.93797">
        <ele>1977</ele>
        <time>2017-06-08T15:04:38Z</time>
      </trkpt>
      <trkpt lat="44.06268" lon="6.9379">
        <ele>1978</ele>
        <time>2017-06-08T15:04:38Z</time>
      </trkpt>
      <trkpt lat="44.06269" lon="6.9379">
        <ele>1978</ele>
        <time>2017-06-08T15:04:38Z</time>
      </trkpt>
      <trkpt lat="44.06273" lon="6.93785">
        <ele>1978</ele>
        <time>2017-06-08T15:04:39Z</time>
      </trkpt>
      <trkpt lat="44.06273" lon="6.93781">
        <ele>1978</ele>
        <time>2017-06-08T15:04:53Z</time>
      </trkpt>
      <trkpt lat="44.06279" lon="6.93776">
        <ele>1978</ele>
        <time>2017-06-08T15:04:53Z</time>
      </trkpt>
      <trkpt lat="44.06282" lon="6.93772">
        <ele>1978</ele>
        <time>2017-06-08T15:04:53Z</time>
      </trkpt>
      <trkpt lat="44.06288" lon="6.93768">
        <ele>1978</ele>
        <time>2017-06-08T15:04:53Z</time>
      </trkpt>
      <trkpt lat="44.06293" lon="6.93762">
        <ele>1982</ele>
        <time>2017-06-08T15:05:13Z</time>
      </trkpt>
      <trkpt lat="44.06296" lon="6.93761">
        <ele>1982</ele>
        <time>2017-06-08T15:05:13Z</time>
      </trkpt>
      <trkpt lat="44.06302" lon="6.93759">
        <ele>1982</ele>
        <time>2017-06-08T15:05:13Z</time>
      </trkpt>
      <trkpt lat="44.06304" lon="6.93757">
        <ele>1982</ele>
        <time>2017-06-08T15:05:13Z</time>
      </trkpt>
      <trkpt lat="44.06305" lon="6.93757">
        <ele>1982</ele>
        <time>2017-06-08T15:05:29Z</time>
      </trkpt>
      <trkpt lat="44.06313" lon="6.9375">
        <ele>1982</ele>
        <time>2017-06-08T15:05:29Z</time>
      </trkpt>
      <trkpt lat="44.06317" lon="6.93749">
        <ele>1982</ele>
        <time>2017-06-08T15:05:29Z</time>
      </trkpt>
      <trkpt lat="44.06319" lon="6.93746">
        <ele>1982</ele>
        <time>2017-06-08T15:05:29Z</time>
      </trkpt>
      <trkpt lat="44.0632" lon="6.93745">
        <ele>1992</ele>
        <time>2017-06-08T15:05:46Z</time>
      </trkpt>
      <trkpt lat="44.06326" lon="6.9374">
        <ele>1992</ele>
        <time>2017-06-08T15:05:46Z</time>
      </trkpt>
      <trkpt lat="44.06328" lon="6.93738">
        <ele>1992</ele>
        <time>2017-06-08T15:05:47Z</time>
      </trkpt>
      <trkpt lat="44.06334" lon="6.93734">
        <ele>1987</ele>
        <time>2017-06-08T15:05:47Z</time>
      </trkpt>
      <trkpt lat="44.06337" lon="6.93728">
        <ele>1987</ele>
        <time>2017-06-08T15:06:03Z</time>
      </trkpt>
      <trkpt lat="44.0634" lon="6.93724">
        <ele>1987</ele>
        <time>2017-06-08T15:06:03Z</time>
      </trkpt>
      <trkpt lat="44.06342" lon="6.93722">
        <ele>1987</ele>
        <time>2017-06-08T15:06:03Z</time>
      </trkpt>
      <trkpt lat="44.06346" lon="6.9372">
        <ele>1987</ele>
        <time>2017-06-08T15:06:03Z</time>
      </trkpt>
      <trkpt lat="44.06349" lon="6.93715">
        <ele>1994</ele>
        <time>2017-06-08T15:06:20Z</time>
      </trkpt>
      <trkpt lat="44.06352" lon="6.93714">
        <ele>1994</ele>
        <time>2017-06-08T15:06:20Z</time>
      </trkpt>
      <trkpt lat="44.06356" lon="6.93712">
        <ele>1994</ele>
        <time>2017-06-08T15:06:20Z</time>
      </trkpt>
      <trkpt lat="44.06359" lon="6.93707">
        <ele>1991</ele>
        <time>2017-06-08T15:06:20Z</time>
      </trkpt>
      <trkpt lat="44.06362" lon="6.93704">
        <ele>1991</ele>
        <time>2017-06-08T15:06:39Z</time>
      </trkpt>
      <trkpt lat="44.06367" lon="6.93695">
        <ele>1991</ele>
        <time>2017-06-08T15:06:40Z</time>
      </trkpt>
      <trkpt lat="44.06371" lon="6.93687">
        <ele>1991</ele>
        <time>2017-06-08T15:06:42Z</time>
      </trkpt>
      <trkpt lat="44.06373" lon="6.93685">
        <ele>1991</ele>
        <time>2017-06-08T15:06:42Z</time>
      </trkpt>
      <trkpt lat="44.06375" lon="6.93681">
        <ele>1991</ele>
        <time>2017-06-08T15:06:56Z</time>
      </trkpt>
      <trkpt lat="44.06383" lon="6.9368">
        <ele>1992</ele>
        <time>2017-06-08T15:06:56Z</time>
      </trkpt>
      <trkpt lat="44.06387" lon="6.93679">
        <ele>1992</ele>
        <time>2017-06-08T15:06:56Z</time>
      </trkpt>
      <trkpt lat="44.0639" lon="6.93678">
        <ele>1992</ele>
        <time>2017-06-08T15:06:56Z</time>
      </trkpt>
      <trkpt lat="44.06392" lon="6.93676">
        <ele>1992</ele>
        <time>2017-06-08T15:09:23Z</time>
      </trkpt>
      <trkpt lat="44.06393" lon="6.93677">
        <ele>1992</ele>
        <time>2017-06-08T15:09:23Z</time>
      </trkpt>
      <trkpt lat="44.06397" lon="6.93677">
        <ele>1992</ele>
        <time>2017-06-08T15:09:23Z</time>
      </trkpt>
      <trkpt lat="44.06402" lon="6.9368">
        <ele>1992</ele>
        <time>2017-06-08T15:09:23Z</time>
      </trkpt>
      <trkpt lat="44.06404" lon="6.93683">
        <ele>1996</ele>
        <time>2017-06-08T15:09:23Z</time>
      </trkpt>
      <trkpt lat="44.0641" lon="6.93686">
        <ele>1996</ele>
        <time>2017-06-08T15:09:47Z</time>
      </trkpt>
      <trkpt lat="44.0641" lon="6.93686">
        <ele>1996</ele>
        <time>2017-06-08T15:09:47Z</time>
      </trkpt>
      <trkpt lat="44.0641" lon="6.93682">
        <ele>1996</ele>
        <time>2017-06-08T15:09:47Z</time>
      </trkpt>
      <trkpt lat="44.06412" lon="6.93677">
        <ele>1991</ele>
        <time>2017-06-08T15:09:47Z</time>
      </trkpt>
      <trkpt lat="44.06412" lon="6.93674">
        <ele>1991</ele>
        <time>2017-06-08T15:09:47Z</time>
      </trkpt>
      <trkpt lat="44.06414" lon="6.93667">
        <ele>1991</ele>
        <time>2017-06-08T15:10:03Z</time>
      </trkpt>
      <trkpt lat="44.06413" lon="6.93663">
        <ele>1991</ele>
        <time>2017-06-08T15:10:03Z</time>
      </trkpt>
      <trkpt lat="44.06412" lon="6.93658">
        <ele>1991</ele>
        <time>2017-06-08T15:10:03Z</time>
      </trkpt>
      <trkpt lat="44.06411" lon="6.93654">
        <ele>1991</ele>
        <time>2017-06-08T15:10:03Z</time>
      </trkpt>
      <trkpt lat="44.06409" lon="6.9365">
        <ele>1989</ele>
        <time>2017-06-08T15:10:19Z</time>
      </trkpt>
      <trkpt lat="44.06406" lon="6.93649">
        <ele>1989</ele>
        <time>2017-06-08T15:10:19Z</time>
      </trkpt>
      <trkpt lat="44.06403" lon="6.93644">
        <ele>1989</ele>
        <time>2017-06-08T15:10:19Z</time>
      </trkpt>
      <trkpt lat="44.06402" lon="6.93638">
        <ele>1988</ele>
        <time>2017-06-08T15:10:19Z</time>
      </trkpt>
      <trkpt lat="44.06397" lon="6.93629">
        <ele>1988</ele>
        <time>2017-06-08T15:11:11Z</time>
      </trkpt>
      <trkpt lat="44.064" lon="6.93625">
        <ele>1988</ele>
        <time>2017-06-08T15:11:11Z</time>
      </trkpt>
      <trkpt lat="44.06399" lon="6.93621">
        <ele>1984</ele>
        <time>2017-06-08T15:11:11Z</time>
      </trkpt>
      <trkpt lat="44.06399" lon="6.93619">
        <ele>1984</ele>
        <time>2017-06-08T15:11:11Z</time>
      </trkpt>
      <trkpt lat="44.06397" lon="6.93616">
        <ele>1984</ele>
        <time>2017-06-08T15:11:11Z</time>
      </trkpt>
      <trkpt lat="44.06399" lon="6.93612">
        <ele>1984</ele>
        <time>2017-06-08T15:11:29Z</time>
      </trkpt>
      <trkpt lat="44.06398" lon="6.936">
        <ele>1984</ele>
        <time>2017-06-08T15:11:29Z</time>
      </trkpt>
      <trkpt lat="44.06397" lon="6.93598">
        <ele>1984</ele>
        <time>2017-06-08T15:11:30Z</time>
      </trkpt>
      <trkpt lat="44.064" lon="6.93593">
        <ele>1976</ele>
        <time>2017-06-08T15:11:30Z</time>
      </trkpt>
      <trkpt lat="44.064" lon="6.93591">
        <ele>1976</ele>
        <time>2017-06-08T15:11:45Z</time>
      </trkpt>
      <trkpt lat="44.06404" lon="6.93586">
        <ele>1981</ele>
        <time>2017-06-08T15:11:46Z</time>
      </trkpt>
      <trkpt lat="44.06405" lon="6.93581">
        <ele>1981</ele>
        <time>2017-06-08T15:11:46Z</time>
      </trkpt>
      <trkpt lat="44.06407" lon="6.93577">
        <ele>1981</ele>
        <time>2017-06-08T15:11:46Z</time>
      </trkpt>
      <trkpt lat="44.06408" lon="6.93575">
        <ele>1981</ele>
        <time>2017-06-08T15:12:15Z</time>
      </trkpt>
      <trkpt lat="44.0641" lon="6.93572">
        <ele>1981</ele>
        <time>2017-06-08T15:12:15Z</time>
      </trkpt>
      <trkpt lat="44.06412" lon="6.93569">
        <ele>1972</ele>
        <time>2017-06-08T15:12:15Z</time>
      </trkpt>
      <trkpt lat="44.06412" lon="6.93567">
        <ele>1972</ele>
        <time>2017-06-08T15:12:15Z</time>
      </trkpt>
      <trkpt lat="44.06413" lon="6.93563">
        <ele>1972</ele>
        <time>2017-06-08T15:12:15Z</time>
      </trkpt>
      <trkpt lat="44.06413" lon="6.93552">
        <ele>1972</ele>
        <time>2017-06-08T15:12:49Z</time>
      </trkpt>
      <trkpt lat="44.06415" lon="6.93552">
        <ele>1972</ele>
        <time>2017-06-08T15:12:49Z</time>
      </trkpt>
      <trkpt lat="44.06414" lon="6.9355">
        <ele>1972</ele>
        <time>2017-06-08T15:12:49Z</time>
      </trkpt>
      <trkpt lat="44.06416" lon="6.9355">
        <ele>1972</ele>
        <time>2017-06-08T15:12:49Z</time>
      </trkpt>
      <trkpt lat="44.06416" lon="6.93547">
        <ele>1972</ele>
        <time>2017-06-08T15:12:49Z</time>
      </trkpt>
      <trkpt lat="44.06416" lon="6.93547">
        <ele>1972</ele>
        <time>2017-06-08T15:13:03Z</time>
      </trkpt>
      <trkpt lat="44.06417" lon="6.93531">
        <ele>1965</ele>
        <time>2017-06-08T15:13:03Z</time>
      </trkpt>
      <trkpt lat="44.06418" lon="6.93527">
        <ele>1965</ele>
        <time>2017-06-08T15:13:03Z</time>
      </trkpt>
      <trkpt lat="44.0642" lon="6.93525">
        <ele>1965</ele>
        <time>2017-06-08T15:13:03Z</time>
      </trkpt>
      <trkpt lat="44.06422" lon="6.93522">
        <ele>1965</ele>
        <time>2017-06-08T15:13:25Z</time>
      </trkpt>
      <trkpt lat="44.06423" lon="6.93522">
        <ele>1965</ele>
        <time>2017-06-08T15:13:25Z</time>
      </trkpt>
      <trkpt lat="44.06423" lon="6.93513">
        <ele>1958</ele>
        <time>2017-06-08T15:13:25Z</time>
      </trkpt>
      <trkpt lat="44.06424" lon="6.9351">
        <ele>1958</ele>
        <time>2017-06-08T15:13:25Z</time>
      </trkpt>
      <trkpt lat="44.06426" lon="6.93506">
        <ele>1958</ele>
        <time>2017-06-08T15:13:25Z</time>
      </trkpt>
      <trkpt lat="44.06426" lon="6.93504">
        <ele>1958</ele>
        <time>2017-06-08T15:13:41Z</time>
      </trkpt>
      <trkpt lat="44.06427" lon="6.935">
        <ele>1958</ele>
        <time>2017-06-08T15:13:41Z</time>
      </trkpt>
      <trkpt lat="44.06428" lon="6.93497">
        <ele>1958</ele>
        <time>2017-06-08T15:13:42Z</time>
      </trkpt>
      <trkpt lat="44.06432" lon="6.93489">
        <ele>1960</ele>
        <time>2017-06-08T15:13:42Z</time>
      </trkpt>
      <trkpt lat="44.06433" lon="6.93488">
        <ele>1960</ele>
        <time>2017-06-08T15:13:57Z</time>
      </trkpt>
      <trkpt lat="44.06436" lon="6.93483">
        <ele>1953</ele>
        <time>2017-06-08T15:13:57Z</time>
      </trkpt>
      <trkpt lat="44.06438" lon="6.93479">
        <ele>1953</ele>
        <time>2017-06-08T15:13:57Z</time>
      </trkpt>
      <trkpt lat="44.06443" lon="6.93474">
        <ele>1953</ele>
        <time>2017-06-08T15:13:57Z</time>
      </trkpt>
      <trkpt lat="44.06443" lon="6.93473">
        <ele>1953</ele>
        <time>2017-06-08T15:14:18Z</time>
      </trkpt>
      <trkpt lat="44.06443" lon="6.93464">
        <ele>1953</ele>
        <time>2017-06-08T15:14:18Z</time>
      </trkpt>
      <trkpt lat="44.06444" lon="6.93456">
        <ele>1944</ele>
        <time>2017-06-08T15:14:18Z</time>
      </trkpt>
      <trkpt lat="44.06448" lon="6.93454">
        <ele>1944</ele>
        <time>2017-06-08T15:14:18Z</time>
      </trkpt>
      <trkpt lat="44.06447" lon="6.93452">
        <ele>1944</ele>
        <time>2017-06-08T15:14:32Z</time>
      </trkpt>
      <trkpt lat="44.06447" lon="6.93444">
        <ele>1944</ele>
        <time>2017-06-08T15:14:32Z</time>
      </trkpt>
      <trkpt lat="44.06448" lon="6.93439">
        <ele>1944</ele>
        <time>2017-06-08T15:14:32Z</time>
      </trkpt>
      <trkpt lat="44.06447" lon="6.93439">
        <ele>1944</ele>
        <time>2017-06-08T15:14:32Z</time>
      </trkpt>
      <trkpt lat="44.06447" lon="6.93438">
        <ele>1944</ele>
        <time>2017-06-08T15:14:52Z</time>
      </trkpt>
      <trkpt lat="44.0645" lon="6.93435">
        <ele>1944</ele>
        <time>2017-06-08T15:14:52Z</time>
      </trkpt>
      <trkpt lat="44.0645" lon="6.93434">
        <ele>1944</ele>
        <time>2017-06-08T15:14:53Z</time>
      </trkpt>
      <trkpt lat="44.06454" lon="6.93431">
        <ele>1944</ele>
        <time>2017-06-08T15:14:53Z</time>
      </trkpt>
      <trkpt lat="44.06454" lon="6.93427">
        <ele>1934</ele>
        <time>2017-06-08T15:14:53Z</time>
      </trkpt>
      <trkpt lat="44.06454" lon="6.93426">
        <ele>1934</ele>
        <time>2017-06-08T15:15:08Z</time>
      </trkpt>
      <trkpt lat="44.06458" lon="6.93416">
        <ele>1934</ele>
        <time>2017-06-08T15:15:08Z</time>
      </trkpt>
      <trkpt lat="44.06458" lon="6.93414">
        <ele>1934</ele>
        <time>2017-06-08T15:15:08Z</time>
      </trkpt>
      <trkpt lat="44.0646" lon="6.93407">
        <ele>1937</ele>
        <time>2017-06-08T15:15:08Z</time>
      </trkpt>
      <trkpt lat="44.0646" lon="6.93406">
        <ele>1937</ele>
        <time>2017-06-08T15:15:26Z</time>
      </trkpt>
      <trkpt lat="44.06469" lon="6.93398">
        <ele>1929</ele>
        <time>2017-06-08T15:15:26Z</time>
      </trkpt>
      <trkpt lat="44.06469" lon="6.93398">
        <ele>1929</ele>
        <time>2017-06-08T15:15:26Z</time>
      </trkpt>
      <trkpt lat="44.06473" lon="6.93393">
        <ele>1929</ele>
        <time>2017-06-08T15:15:26Z</time>
      </trkpt>
      <trkpt lat="44.06476" lon="6.93388">
        <ele>1929</ele>
        <time>2017-06-08T15:15:49Z</time>
      </trkpt>
      <trkpt lat="44.06478" lon="6.93382">
        <ele>1929</ele>
        <time>2017-06-08T15:15:49Z</time>
      </trkpt>
      <trkpt lat="44.0648" lon="6.93378">
        <ele>1929</ele>
        <time>2017-06-08T15:15:49Z</time>
      </trkpt>
      <trkpt lat="44.06481" lon="6.93377">
        <ele>1929</ele>
        <time>2017-06-08T15:15:50Z</time>
      </trkpt>
      <trkpt lat="44.0648" lon="6.93371">
        <ele>1922</ele>
        <time>2017-06-08T15:15:50Z</time>
      </trkpt>
      <trkpt lat="44.06483" lon="6.93371">
        <ele>1922</ele>
        <time>2017-06-08T15:16:10Z</time>
      </trkpt>
      <trkpt lat="44.06484" lon="6.93367">
        <ele>1922</ele>
        <time>2017-06-08T15:16:10Z</time>
      </trkpt>
      <trkpt lat="44.06484" lon="6.93362">
        <ele>1922</ele>
        <time>2017-06-08T15:16:10Z</time>
      </trkpt>
      <trkpt lat="44.06486" lon="6.93355">
        <ele>1922</ele>
        <time>2017-06-08T15:16:10Z</time>
      </trkpt>
      <trkpt lat="44.06487" lon="6.93347">
        <ele>1917</ele>
        <time>2017-06-08T15:16:29Z</time>
      </trkpt>
      <trkpt lat="44.06487" lon="6.93346">
        <ele>1917</ele>
        <time>2017-06-08T15:16:29Z</time>
      </trkpt>
      <trkpt lat="44.06489" lon="6.93339">
        <ele>1917</ele>
        <time>2017-06-08T15:16:29Z</time>
      </trkpt>
      <trkpt lat="44.06489" lon="6.93329">
        <ele>1917</ele>
        <time>2017-06-08T15:16:29Z</time>
      </trkpt>
      <trkpt lat="44.06489" lon="6.93329">
        <ele>1917</ele>
        <time>2017-06-08T15:16:43Z</time>
      </trkpt>
      <trkpt lat="44.06489" lon="6.93313">
        <ele>1913</ele>
        <time>2017-06-08T15:16:44Z</time>
      </trkpt>
      <trkpt lat="44.06487" lon="6.93311">
        <ele>1913</ele>
        <time>2017-06-08T15:16:44Z</time>
      </trkpt>
      <trkpt lat="44.06488" lon="6.93305">
        <ele>1913</ele>
        <time>2017-06-08T15:16:44Z</time>
      </trkpt>
      <trkpt lat="44.06491" lon="6.93305">
        <ele>1913</ele>
        <time>2017-06-08T15:17:01Z</time>
      </trkpt>
      <trkpt lat="44.06495" lon="6.93297">
        <ele>1913</ele>
        <time>2017-06-08T15:17:01Z</time>
      </trkpt>
      <trkpt lat="44.06494" lon="6.93295">
        <ele>1913</ele>
        <time>2017-06-08T15:17:01Z</time>
      </trkpt>
      <trkpt lat="44.06497" lon="6.9329">
        <ele>1909</ele>
        <time>2017-06-08T15:17:01Z</time>
      </trkpt>
      <trkpt lat="44.065" lon="6.93289">
        <ele>1909</ele>
        <time>2017-06-08T15:17:18Z</time>
      </trkpt>
      <trkpt lat="44.06499" lon="6.93275">
        <ele>1909</ele>
        <time>2017-06-08T15:17:18Z</time>
      </trkpt>
      <trkpt lat="44.065" lon="6.93274">
        <ele>1909</ele>
        <time>2017-06-08T15:17:19Z</time>
      </trkpt>
      <trkpt lat="44.06499" lon="6.93268">
        <ele>1909</ele>
        <time>2017-06-08T15:17:19Z</time>
      </trkpt>
      <trkpt lat="44.06499" lon="6.93265">
        <ele>1909</ele>
        <time>2017-06-08T15:17:40Z</time>
      </trkpt>
      <trkpt lat="44.06502" lon="6.93264">
        <ele>1907</ele>
        <time>2017-06-08T15:17:40Z</time>
      </trkpt>
      <trkpt lat="44.06505" lon="6.93265">
        <ele>1909</ele>
        <time>2017-06-08T15:17:40Z</time>
      </trkpt>
      <trkpt lat="44.06507" lon="6.93262">
        <ele>1907</ele>
        <time>2017-06-08T15:17:40Z</time>
      </trkpt>
      <trkpt lat="44.06508" lon="6.93257">
        <ele>1907</ele>
        <time>2017-06-08T15:17:40Z</time>
      </trkpt>
      <trkpt lat="44.06509" lon="6.93256">
        <ele>1907</ele>
        <time>2017-06-08T15:17:58Z</time>
      </trkpt>
      <trkpt lat="44.06505" lon="6.93236">
        <ele>1904</ele>
        <time>2017-06-08T15:17:58Z</time>
      </trkpt>
      <trkpt lat="44.06506" lon="6.93234">
        <ele>1904</ele>
        <time>2017-06-08T15:17:58Z</time>
      </trkpt>
      <trkpt lat="44.06505" lon="6.93223">
        <ele>1904</ele>
        <time>2017-06-08T15:17:58Z</time>
      </trkpt>
      <trkpt lat="44.06504" lon="6.93205">
        <ele>1902</ele>
        <time>2017-06-08T15:19:27Z</time>
      </trkpt>
      <trkpt lat="44.06505" lon="6.93205">
        <ele>1902</ele>
        <time>2017-06-08T15:19:27Z</time>
      </trkpt>
      <trkpt lat="44.06505" lon="6.93204">
        <ele>1902</ele>
        <time>2017-06-08T15:19:27Z</time>
      </trkpt>
      <trkpt lat="44.06505" lon="6.93204">
        <ele>1902</ele>
        <time>2017-06-08T15:19:27Z</time>
      </trkpt>
      <trkpt lat="44.06505" lon="6.93204">
        <ele>1902</ele>
        <time>2017-06-08T15:19:27Z</time>
      </trkpt>
      <trkpt lat="44.06505" lon="6.93204">
        <ele>1902</ele>
        <time>2017-06-08T15:20:18Z</time>
      </trkpt>
      <trkpt lat="44.06506" lon="6.93203">
        <ele>1902</ele>
        <time>2017-06-08T15:20:18Z</time>
      </trkpt>
      <trkpt lat="44.06511" lon="6.93201">
        <ele>1902</ele>
        <time>2017-06-08T15:20:18Z</time>
      </trkpt>
      <trkpt lat="44.06513" lon="6.93201">
        <ele>1902</ele>
        <time>2017-06-08T15:20:18Z</time>
      </trkpt>
      <trkpt lat="44.06515" lon="6.932">
        <ele>1901</ele>
        <time>2017-06-08T15:20:19Z</time>
      </trkpt>
      <trkpt lat="44.06505" lon="6.93196">
        <ele>1902</ele>
        <time>2017-06-08T15:23:54Z</time>
      </trkpt>
      <trkpt lat="44.06507" lon="6.93192">
        <ele>1902</ele>
        <time>2017-06-08T15:23:54Z</time>
      </trkpt>
      <trkpt lat="44.06507" lon="6.9319">
        <ele>1902</ele>
        <time>2017-06-08T15:23:54Z</time>
      </trkpt>
      <trkpt lat="44.06508" lon="6.93184">
        <ele>1902</ele>
        <time>2017-06-08T15:23:54Z</time>
      </trkpt>
      <trkpt lat="44.06507" lon="6.93175">
        <ele>1903</ele>
        <time>2017-06-08T15:23:54Z</time>
      </trkpt>
      <trkpt lat="44.06507" lon="6.93174">
        <ele>1903</ele>
        <time>2017-06-08T15:24:10Z</time>
      </trkpt>
      <trkpt lat="44.06506" lon="6.93166">
        <ele>1903</ele>
        <time>2017-06-08T15:24:10Z</time>
      </trkpt>
      <trkpt lat="44.06507" lon="6.93157">
        <ele>1903</ele>
        <time>2017-06-08T15:24:10Z</time>
      </trkpt>
      <trkpt lat="44.06509" lon="6.93144">
        <ele>1902</ele>
        <time>2017-06-08T15:24:10Z</time>
      </trkpt>
      <trkpt lat="44.06513" lon="6.93142">
        <ele>1902</ele>
        <time>2017-06-08T15:24:29Z</time>
      </trkpt>
      <trkpt lat="44.06515" lon="6.93136">
        <ele>1902</ele>
        <time>2017-06-08T15:24:29Z</time>
      </trkpt>
      <trkpt lat="44.06516" lon="6.9313">
        <ele>1902</ele>
        <time>2017-06-08T15:24:29Z</time>
      </trkpt>
      <trkpt lat="44.06518" lon="6.93128">
        <ele>1902</ele>
        <time>2017-06-08T15:24:29Z</time>
      </trkpt>
      <trkpt lat="44.06518" lon="6.93127">
        <ele>1902</ele>
        <time>2017-06-08T15:24:45Z</time>
      </trkpt>
      <trkpt lat="44.06525" lon="6.93117">
        <ele>1901</ele>
        <time>2017-06-08T15:24:45Z</time>
      </trkpt>
      <trkpt lat="44.06527" lon="6.93114">
        <ele>1901</ele>
        <time>2017-06-08T15:24:45Z</time>
      </trkpt>
      <trkpt lat="44.06532" lon="6.93111">
        <ele>1901</ele>
        <time>2017-06-08T15:24:45Z</time>
      </trkpt>
      <trkpt lat="44.06534" lon="6.93109">
        <ele>1901</ele>
        <time>2017-06-08T15:24:59Z</time>
      </trkpt>
      <trkpt lat="44.06539" lon="6.93099">
        <ele>1901</ele>
        <time>2017-06-08T15:24:59Z</time>
      </trkpt>
      <trkpt lat="44.0654" lon="6.93098">
        <ele>1901</ele>
        <time>2017-06-08T15:24:59Z</time>
      </trkpt>
      <trkpt lat="44.06544" lon="6.93093">
        <ele>1899</ele>
        <time>2017-06-08T15:24:59Z</time>
      </trkpt>
      <trkpt lat="44.06544" lon="6.93094">
        <ele>1899</ele>
        <time>2017-06-08T15:25:42Z</time>
      </trkpt>
      <trkpt lat="44.06544" lon="6.93095">
        <ele>1899</ele>
        <time>2017-06-08T15:25:42Z</time>
      </trkpt>
      <trkpt lat="44.06544" lon="6.93101">
        <ele>1899</ele>
        <time>2017-06-08T15:25:42Z</time>
      </trkpt>
      <trkpt lat="44.06543" lon="6.93104">
        <ele>1899</ele>
        <time>2017-06-08T15:25:42Z</time>
      </trkpt>
      <trkpt lat="44.06541" lon="6.93112">
        <ele>1901</ele>
        <time>2017-06-08T15:25:42Z</time>
      </trkpt>
      <trkpt lat="44.0654" lon="6.93115">
        <ele>1901</ele>
        <time>2017-06-08T15:26:08Z</time>
      </trkpt>
      <trkpt lat="44.06541" lon="6.93122">
        <ele>1901</ele>
        <time>2017-06-08T15:26:08Z</time>
      </trkpt>
      <trkpt lat="44.06538" lon="6.93126">
        <ele>1902</ele>
        <time>2017-06-08T15:26:08Z</time>
      </trkpt>
      <trkpt lat="44.06539" lon="6.93128">
        <ele>1902</ele>
        <time>2017-06-08T15:26:08Z</time>
      </trkpt>
      <trkpt lat="44.06542" lon="6.93134">
        <ele>1902</ele>
        <time>2017-06-08T15:26:08Z</time>
      </trkpt>
      <trkpt lat="44.06542" lon="6.93136">
        <ele>1899</ele>
        <time>2017-06-08T15:26:24Z</time>
      </trkpt>
      <trkpt lat="44.06549" lon="6.9315">
        <ele>1899</ele>
        <time>2017-06-08T15:26:25Z</time>
      </trkpt>
      <trkpt lat="44.0655" lon="6.93151">
        <ele>1899</ele>
        <time>2017-06-08T15:26:25Z</time>
      </trkpt>
      <trkpt lat="44.06558" lon="6.93161">
        <ele>1898</ele>
        <time>2017-06-08T15:26:26Z</time>
      </trkpt>
      <trkpt lat="44.0656" lon="6.93163">
        <ele>1898</ele>
        <time>2017-06-08T15:26:41Z</time>
      </trkpt>
      <trkpt lat="44.06568" lon="6.93172">
        <ele>1898</ele>
        <time>2017-06-08T15:26:41Z</time>
      </trkpt>
      <trkpt lat="44.06571" lon="6.93173">
        <ele>1895</ele>
        <time>2017-06-08T15:26:41Z</time>
      </trkpt>
      <trkpt lat="44.06574" lon="6.9318">
        <ele>1895</ele>
        <time>2017-06-08T15:26:41Z</time>
      </trkpt>
      <trkpt lat="44.06587" lon="6.93186">
        <ele>1896</ele>
        <time>2017-06-08T15:27:30Z</time>
      </trkpt>
      <trkpt lat="44.06587" lon="6.93185">
        <ele>1896</ele>
        <time>2017-06-08T15:27:30Z</time>
      </trkpt>
      <trkpt lat="44.06587" lon="6.93185">
        <ele>1896</ele>
        <time>2017-06-08T15:27:30Z</time>
      </trkpt>
      <trkpt lat="44.06587" lon="6.93183">
        <ele>1896</ele>
        <time>2017-06-08T15:27:30Z</time>
      </trkpt>
      <trkpt lat="44.06596" lon="6.93185">
        <ele>1896</ele>
        <time>2017-06-08T15:27:31Z</time>
      </trkpt>
      <trkpt lat="44.06597" lon="6.93185">
        <ele>1890</ele>
        <time>2017-06-08T15:27:44Z</time>
      </trkpt>
      <trkpt lat="44.06602" lon="6.93185">
        <ele>1890</ele>
        <time>2017-06-08T15:27:44Z</time>
      </trkpt>
      <trkpt lat="44.06608" lon="6.93185">
        <ele>1890</ele>
        <time>2017-06-08T15:27:44Z</time>
      </trkpt>
      <trkpt lat="44.06609" lon="6.93186">
        <ele>1890</ele>
        <time>2017-06-08T15:27:45Z</time>
      </trkpt>
      <trkpt lat="44.06612" lon="6.93186">
        <ele>1890</ele>
        <time>2017-06-08T15:28:04Z</time>
      </trkpt>
      <trkpt lat="44.06616" lon="6.93187">
        <ele>1890</ele>
        <time>2017-06-08T15:28:04Z</time>
      </trkpt>
      <trkpt lat="44.06619" lon="6.93187">
        <ele>1890</ele>
        <time>2017-06-08T15:28:05Z</time>
      </trkpt>
      <trkpt lat="44.06621" lon="6.93187">
        <ele>1890</ele>
        <time>2017-06-08T15:28:05Z</time>
      </trkpt>
      <trkpt lat="44.06627" lon="6.93189">
        <ele>1883</ele>
        <time>2017-06-08T15:28:05Z</time>
      </trkpt>
      <trkpt lat="44.0663" lon="6.93189">
        <ele>1883</ele>
        <time>2017-06-08T15:28:20Z</time>
      </trkpt>
      <trkpt lat="44.0664" lon="6.93188">
        <ele>1883</ele>
        <time>2017-06-08T15:28:20Z</time>
      </trkpt>
      <trkpt lat="44.06641" lon="6.93189">
        <ele>1883</ele>
        <time>2017-06-08T15:28:20Z</time>
      </trkpt>
      <trkpt lat="44.06643" lon="6.93189">
        <ele>1883</ele>
        <time>2017-06-08T15:28:20Z</time>
      </trkpt>
      <trkpt lat="44.06646" lon="6.93189">
        <ele>1883</ele>
        <time>2017-06-08T15:28:41Z</time>
      </trkpt>
      <trkpt lat="44.06647" lon="6.93186">
        <ele>1883</ele>
        <time>2017-06-08T15:28:41Z</time>
      </trkpt>
      <trkpt lat="44.06649" lon="6.93185">
        <ele>1883</ele>
        <time>2017-06-08T15:28:41Z</time>
      </trkpt>
      <trkpt lat="44.06652" lon="6.93184">
        <ele>1883</ele>
        <time>2017-06-08T15:28:41Z</time>
      </trkpt>
      <trkpt lat="44.06658" lon="6.93181">
        <ele>1883</ele>
        <time>2017-06-08T15:28:41Z</time>
      </trkpt>
      <trkpt lat="44.06661" lon="6.9318">
        <ele>1880</ele>
        <time>2017-06-08T15:29:01Z</time>
      </trkpt>
      <trkpt lat="44.06666" lon="6.93183">
        <ele>1883</ele>
        <time>2017-06-08T15:29:01Z</time>
      </trkpt>
      <trkpt lat="44.06676" lon="6.93182">
        <ele>1883</ele>
        <time>2017-06-08T15:29:01Z</time>
      </trkpt>
      <trkpt lat="44.06677" lon="6.93179">
        <ele>1880</ele>
        <time>2017-06-08T15:29:01Z</time>
      </trkpt>
      <trkpt lat="44.06682" lon="6.93175">
        <ele>1878</ele>
        <time>2017-06-08T15:30:33Z</time>
      </trkpt>
      <trkpt lat="44.06683" lon="6.93174">
        <ele>1878</ele>
        <time>2017-06-08T15:30:33Z</time>
      </trkpt>
      <trkpt lat="44.06684" lon="6.93173">
        <ele>1878</ele>
        <time>2017-06-08T15:30:33Z</time>
      </trkpt>
      <trkpt lat="44.06684" lon="6.93172">
        <ele>1878</ele>
        <time>2017-06-08T15:30:33Z</time>
      </trkpt>
      <trkpt lat="44.06687" lon="6.9317">
        <ele>1878</ele>
        <time>2017-06-08T15:30:33Z</time>
      </trkpt>
      <trkpt lat="44.06701" lon="6.93168">
        <ele>1878</ele>
        <time>2017-06-08T15:31:00Z</time>
      </trkpt>
      <trkpt lat="44.06702" lon="6.93169">
        <ele>1878</ele>
        <time>2017-06-08T15:31:00Z</time>
      </trkpt>
      <trkpt lat="44.06703" lon="6.9317">
        <ele>1878</ele>
        <time>2017-06-08T15:31:00Z</time>
      </trkpt>
      <trkpt lat="44.06706" lon="6.93171">
        <ele>1878</ele>
        <time>2017-06-08T15:31:00Z</time>
      </trkpt>
      <trkpt lat="44.0671" lon="6.93171">
        <ele>1875</ele>
        <time>2017-06-08T15:31:00Z</time>
      </trkpt>
      <trkpt lat="44.06714" lon="6.9317">
        <ele>1875</ele>
        <time>2017-06-08T15:31:22Z</time>
      </trkpt>
      <trkpt lat="44.06715" lon="6.93173">
        <ele>1875</ele>
        <time>2017-06-08T15:31:22Z</time>
      </trkpt>
      <trkpt lat="44.06721" lon="6.93175">
        <ele>1875</ele>
        <time>2017-06-08T15:31:22Z</time>
      </trkpt>
      <trkpt lat="44.06722" lon="6.93176">
        <ele>1875</ele>
        <time>2017-06-08T15:31:22Z</time>
      </trkpt>
      <trkpt lat="44.06729" lon="6.93176">
        <ele>1875</ele>
        <time>2017-06-08T15:31:22Z</time>
      </trkpt>
      <trkpt lat="44.0673" lon="6.93175">
        <ele>1875</ele>
        <time>2017-06-08T15:31:35Z</time>
      </trkpt>
      <trkpt lat="44.06732" lon="6.93175">
        <ele>1875</ele>
        <time>2017-06-08T15:31:35Z</time>
      </trkpt>
      <trkpt lat="44.06741" lon="6.93173">
        <ele>1877</ele>
        <time>2017-06-08T15:31:35Z</time>
      </trkpt>
      <trkpt lat="44.06742" lon="6.93172">
        <ele>1877</ele>
        <time>2017-06-08T15:31:35Z</time>
      </trkpt>
      <trkpt lat="44.06749" lon="6.93175">
        <ele>1877</ele>
        <time>2017-06-08T15:31:55Z</time>
      </trkpt>
      <trkpt lat="44.0675" lon="6.93177">
        <ele>1877</ele>
        <time>2017-06-08T15:31:55Z</time>
      </trkpt>
      <trkpt lat="44.06754" lon="6.93175">
        <ele>1877</ele>
        <time>2017-06-08T15:31:55Z</time>
      </trkpt>
      <trkpt lat="44.06758" lon="6.93173">
        <ele>1877</ele>
        <time>2017-06-08T15:31:55Z</time>
      </trkpt>
      <trkpt lat="44.06763" lon="6.93169">
        <ele>1877</ele>
        <time>2017-06-08T15:31:55Z</time>
      </trkpt>
      <trkpt lat="44.06761" lon="6.93166">
        <ele>1877</ele>
        <time>2017-06-08T15:32:14Z</time>
      </trkpt>
      <trkpt lat="44.06766" lon="6.93164">
        <ele>1876</ele>
        <time>2017-06-08T15:32:14Z</time>
      </trkpt>
      <trkpt lat="44.0677" lon="6.9316">
        <ele>1876</ele>
        <time>2017-06-08T15:32:14Z</time>
      </trkpt>
      <trkpt lat="44.06775" lon="6.93158">
        <ele>1876</ele>
        <time>2017-06-08T15:32:14Z</time>
      </trkpt>
      <trkpt lat="44.06773" lon="6.93157">
        <ele>1876</ele>
        <time>2017-06-08T15:32:44Z</time>
      </trkpt>
      <trkpt lat="44.06776" lon="6.93158">
        <ele>1876</ele>
        <time>2017-06-08T15:32:44Z</time>
      </trkpt>
      <trkpt lat="44.06782" lon="6.93157">
        <ele>1876</ele>
        <time>2017-06-08T15:32:44Z</time>
      </trkpt>
      <trkpt lat="44.06784" lon="6.93157">
        <ele>1876</ele>
        <time>2017-06-08T15:32:44Z</time>
      </trkpt>
      <trkpt lat="44.06789" lon="6.9316">
        <ele>1876</ele>
        <time>2017-06-08T15:32:44Z</time>
      </trkpt>
      <trkpt lat="44.06797" lon="6.93146">
        <ele>1856</ele>
        <time>2017-06-08T15:33:54Z</time>
      </trkpt>
      <trkpt lat="44.06796" lon="6.93145">
        <ele>1856</ele>
        <time>2017-06-08T15:33:54Z</time>
      </trkpt>
      <trkpt lat="44.06798" lon="6.93144">
        <ele>1856</ele>
        <time>2017-06-08T15:33:55Z</time>
      </trkpt>
      <trkpt lat="44.06798" lon="6.93143">
        <ele>1856</ele>
        <time>2017-06-08T15:33:55Z</time>
      </trkpt>
      <trkpt lat="44.06798" lon="6.9314">
        <ele>1856</ele>
        <time>2017-06-08T15:33:55Z</time>
      </trkpt>
      <trkpt lat="44.06795" lon="6.93141">
        <ele>1856</ele>
        <time>2017-06-08T15:34:47Z</time>
      </trkpt>
      <trkpt lat="44.06796" lon="6.93144">
        <ele>1856</ele>
        <time>2017-06-08T15:34:47Z</time>
      </trkpt>
      <trkpt lat="44.06797" lon="6.93146">
        <ele>1856</ele>
        <time>2017-06-08T15:34:47Z</time>
      </trkpt>
      <trkpt lat="44.06798" lon="6.93148">
        <ele>1856</ele>
        <time>2017-06-08T15:34:47Z</time>
      </trkpt>
      <trkpt lat="44.06793" lon="6.9315">
        <ele>1856</ele>
        <time>2017-06-08T15:34:47Z</time>
      </trkpt>
      <trkpt lat="44.068" lon="6.93151">
        <ele>1856</ele>
        <time>2017-06-08T15:38:20Z</time>
      </trkpt>
      <trkpt lat="44.068" lon="6.93152">
        <ele>1856</ele>
        <time>2017-06-08T15:38:21Z</time>
      </trkpt>
      <trkpt lat="44.06802" lon="6.93153">
        <ele>1856</ele>
        <time>2017-06-08T15:38:21Z</time>
      </trkpt>
      <trkpt lat="44.06805" lon="6.93153">
        <ele>1856</ele>
        <time>2017-06-08T15:38:21Z</time>
      </trkpt>
      <trkpt lat="44.06805" lon="6.93156">
        <ele>1874</ele>
        <time>2017-06-08T15:38:21Z</time>
      </trkpt>
      <trkpt lat="44.06806" lon="6.93159">
        <ele>1874</ele>
        <time>2017-06-08T15:38:35Z</time>
      </trkpt>
      <trkpt lat="44.06805" lon="6.9317">
        <ele>1874</ele>
        <time>2017-06-08T15:38:35Z</time>
      </trkpt>
      <trkpt lat="44.06803" lon="6.93175">
        <ele>1874</ele>
        <time>2017-06-08T15:38:36Z</time>
      </trkpt>
      <trkpt lat="44.06804" lon="6.93175">
        <ele>1874</ele>
        <time>2017-06-08T15:38:36Z</time>
      </trkpt>
      <trkpt lat="44.06808" lon="6.93179">
        <ele>1874</ele>
        <time>2017-06-08T15:38:54Z</time>
      </trkpt>
      <trkpt lat="44.06816" lon="6.93182">
        <ele>1886</ele>
        <time>2017-06-08T15:38:54Z</time>
      </trkpt>
      <trkpt lat="44.06817" lon="6.93183">
        <ele>1886</ele>
        <time>2017-06-08T15:38:54Z</time>
      </trkpt>
      <trkpt lat="44.06824" lon="6.93187">
        <ele>1880</ele>
        <time>2017-06-08T15:38:55Z</time>
      </trkpt>
      <trkpt lat="44.06832" lon="6.93191">
        <ele>1880</ele>
        <time>2017-06-08T15:39:12Z</time>
      </trkpt>
      <trkpt lat="44.06835" lon="6.93192">
        <ele>1880</ele>
        <time>2017-06-08T15:39:12Z</time>
      </trkpt>
      <trkpt lat="44.06849" lon="6.93196">
        <ele>1871</ele>
        <time>2017-06-08T15:39:12Z</time>
      </trkpt>
      <trkpt lat="44.06851" lon="6.93198">
        <ele>1871</ele>
        <time>2017-06-08T15:39:12Z</time>
      </trkpt>
      <trkpt lat="44.06856" lon="6.932">
        <ele>1871</ele>
        <time>2017-06-08T15:39:29Z</time>
      </trkpt>
      <trkpt lat="44.06863" lon="6.93203">
        <ele>1871</ele>
        <time>2017-06-08T15:39:30Z</time>
      </trkpt>
      <trkpt lat="44.06864" lon="6.93204">
        <ele>1871</ele>
        <time>2017-06-08T15:39:30Z</time>
      </trkpt>
      <trkpt lat="44.0687" lon="6.93204">
        <ele>1871</ele>
        <time>2017-06-08T15:39:30Z</time>
      </trkpt>
      <trkpt lat="44.0687" lon="6.93203">
        <ele>1871</ele>
        <time>2017-06-08T15:39:44Z</time>
      </trkpt>
      <trkpt lat="44.06876" lon="6.93205">
        <ele>1867</ele>
        <time>2017-06-08T15:39:44Z</time>
      </trkpt>
      <trkpt lat="44.0688" lon="6.93205">
        <ele>1867</ele>
        <time>2017-06-08T15:39:44Z</time>
      </trkpt>
      <trkpt lat="44.06885" lon="6.93208">
        <ele>1867</ele>
        <time>2017-06-08T15:39:44Z</time>
      </trkpt>
      <trkpt lat="44.06886" lon="6.93209">
        <ele>1879</ele>
        <time>2017-06-08T15:40:01Z</time>
      </trkpt>
      <trkpt lat="44.06889" lon="6.93208">
        <ele>1867</ele>
        <time>2017-06-08T15:40:01Z</time>
      </trkpt>
      <trkpt lat="44.0689" lon="6.93208">
        <ele>1867</ele>
        <time>2017-06-08T15:40:01Z</time>
      </trkpt>
      <trkpt lat="44.06897" lon="6.93208">
        <ele>1867</ele>
        <time>2017-06-08T15:40:01Z</time>
      </trkpt>
      <trkpt lat="44.06907" lon="6.93206">
        <ele>1865</ele>
        <time>2017-06-08T15:40:45Z</time>
      </trkpt>
      <trkpt lat="44.06909" lon="6.93209">
        <ele>1878</ele>
        <time>2017-06-08T15:40:46Z</time>
      </trkpt>
      <trkpt lat="44.06913" lon="6.93208">
        <ele>1878</ele>
        <time>2017-06-08T15:40:46Z</time>
      </trkpt>
      <trkpt lat="44.06914" lon="6.9321">
        <ele>1878</ele>
        <time>2017-06-08T15:40:47Z</time>
      </trkpt>
      <trkpt lat="44.06914" lon="6.93209">
        <ele>1878</ele>
        <time>2017-06-08T15:40:47Z</time>
      </trkpt>
      <trkpt lat="44.06914" lon="6.93209">
        <ele>1878</ele>
        <time>2017-06-08T15:41:03Z</time>
      </trkpt>
      <trkpt lat="44.06915" lon="6.93209">
        <ele>1878</ele>
        <time>2017-06-08T15:41:03Z</time>
      </trkpt>
      <trkpt lat="44.06919" lon="6.93208">
        <ele>1865</ele>
        <time>2017-06-08T15:41:03Z</time>
      </trkpt>
      <trkpt lat="44.06922" lon="6.93207">
        <ele>1865</ele>
        <time>2017-06-08T15:41:03Z</time>
      </trkpt>
      <trkpt lat="44.06927" lon="6.93209">
        <ele>1878</ele>
        <time>2017-06-08T15:41:03Z</time>
      </trkpt>
      <trkpt lat="44.06934" lon="6.93207">
        <ele>1861</ele>
        <time>2017-06-08T15:41:23Z</time>
      </trkpt>
      <trkpt lat="44.06936" lon="6.93206">
        <ele>1861</ele>
        <time>2017-06-08T15:41:23Z</time>
      </trkpt>
      <trkpt lat="44.0694" lon="6.93207">
        <ele>1861</ele>
        <time>2017-06-08T15:41:23Z</time>
      </trkpt>
      <trkpt lat="44.06942" lon="6.9321">
        <ele>1873</ele>
        <time>2017-06-08T15:41:23Z</time>
      </trkpt>
      <trkpt lat="44.06943" lon="6.9321">
        <ele>1873</ele>
        <time>2017-06-08T15:41:23Z</time>
      </trkpt>
      <trkpt lat="44.06945" lon="6.93209">
        <ele>1873</ele>
        <time>2017-06-08T15:41:41Z</time>
      </trkpt>
      <trkpt lat="44.0695" lon="6.93208">
        <ele>1861</ele>
        <time>2017-06-08T15:41:41Z</time>
      </trkpt>
      <trkpt lat="44.06951" lon="6.93207">
        <ele>1861</ele>
        <time>2017-06-08T15:41:41Z</time>
      </trkpt>
      <trkpt lat="44.06954" lon="6.93207">
        <ele>1861</ele>
        <time>2017-06-08T15:41:41Z</time>
      </trkpt>
      <trkpt lat="44.06963" lon="6.93209">
        <ele>1871</ele>
        <time>2017-06-08T15:42:10Z</time>
      </trkpt>
      <trkpt lat="44.06969" lon="6.9321">
        <ele>1871</ele>
        <time>2017-06-08T15:42:10Z</time>
      </trkpt>
      <trkpt lat="44.0697" lon="6.9321">
        <ele>1871</ele>
        <time>2017-06-08T15:42:10Z</time>
      </trkpt>
      <trkpt lat="44.06974" lon="6.93213">
        <ele>1871</ele>
        <time>2017-06-08T15:42:10Z</time>
      </trkpt>
      <trkpt lat="44.06981" lon="6.93213">
        <ele>1871</ele>
        <time>2017-06-08T15:42:10Z</time>
      </trkpt>
      <trkpt lat="44.06983" lon="6.93213">
        <ele>1871</ele>
        <time>2017-06-08T15:42:23Z</time>
      </trkpt>
      <trkpt lat="44.06994" lon="6.93213">
        <ele>1870</ele>
        <time>2017-06-08T15:42:23Z</time>
      </trkpt>
      <trkpt lat="44.06998" lon="6.93213">
        <ele>1870</ele>
        <time>2017-06-08T15:42:23Z</time>
      </trkpt>
      <trkpt lat="44.07" lon="6.93213">
        <ele>1870</ele>
        <time>2017-06-08T15:42:23Z</time>
      </trkpt>
      <trkpt lat="44.07007" lon="6.93213">
        <ele>1870</ele>
        <time>2017-06-08T15:42:41Z</time>
      </trkpt>
      <trkpt lat="44.07016" lon="6.93212">
        <ele>1865</ele>
        <time>2017-06-08T15:42:41Z</time>
      </trkpt>
      <trkpt lat="44.07024" lon="6.93213">
        <ele>1865</ele>
        <time>2017-06-08T15:42:41Z</time>
      </trkpt>
      <trkpt lat="44.07026" lon="6.93216">
        <ele>1865</ele>
        <time>2017-06-08T15:42:41Z</time>
      </trkpt>
      <trkpt lat="44.07027" lon="6.93216">
        <ele>1865</ele>
        <time>2017-06-08T15:42:55Z</time>
      </trkpt>
      <trkpt lat="44.07038" lon="6.93222">
        <ele>1865</ele>
        <time>2017-06-08T15:42:55Z</time>
      </trkpt>
      <trkpt lat="44.07039" lon="6.93223">
        <ele>1865</ele>
        <time>2017-06-08T15:42:55Z</time>
      </trkpt>
      <trkpt lat="44.07045" lon="6.93227">
        <ele>1859</ele>
        <time>2017-06-08T15:42:55Z</time>
      </trkpt>
      <trkpt lat="44.07054" lon="6.93234">
        <ele>1859</ele>
        <time>2017-06-08T15:43:11Z</time>
      </trkpt>
      <trkpt lat="44.07061" lon="6.93237">
        <ele>1867</ele>
        <time>2017-06-08T15:43:11Z</time>
      </trkpt>
      <trkpt lat="44.07066" lon="6.93239">
        <ele>1867</ele>
        <time>2017-06-08T15:43:11Z</time>
      </trkpt>
      <trkpt lat="44.07071" lon="6.93242">
        <ele>1858</ele>
        <time>2017-06-08T15:43:11Z</time>
      </trkpt>
      <trkpt lat="44.07082" lon="6.93246">
        <ele>1858</ele>
        <time>2017-06-08T15:43:28Z</time>
      </trkpt>
      <trkpt lat="44.07088" lon="6.9325">
        <ele>1858</ele>
        <time>2017-06-08T15:43:28Z</time>
      </trkpt>
      <trkpt lat="44.07092" lon="6.93254">
        <ele>1858</ele>
        <time>2017-06-08T15:43:28Z</time>
      </trkpt>
      <trkpt lat="44.07092" lon="6.93259">
        <ele>1858</ele>
        <time>2017-06-08T15:43:28Z</time>
      </trkpt>
      <trkpt lat="44.07093" lon="6.93259">
        <ele>1858</ele>
        <time>2017-06-08T15:43:47Z</time>
      </trkpt>
      <trkpt lat="44.07098" lon="6.93271">
        <ele>1859</ele>
        <time>2017-06-08T15:43:47Z</time>
      </trkpt>
      <trkpt lat="44.07102" lon="6.93277">
        <ele>1859</ele>
        <time>2017-06-08T15:43:48Z</time>
      </trkpt>
      <trkpt lat="44.07101" lon="6.9328">
        <ele>1859</ele>
        <time>2017-06-08T15:43:48Z</time>
      </trkpt>
      <trkpt lat="44.07102" lon="6.93286">
        <ele>1859</ele>
        <time>2017-06-08T15:44:05Z</time>
      </trkpt>
      <trkpt lat="44.07105" lon="6.933">
        <ele>1863</ele>
        <time>2017-06-08T15:44:05Z</time>
      </trkpt>
      <trkpt lat="44.0711" lon="6.93299">
        <ele>1863</ele>
        <time>2017-06-08T15:44:05Z</time>
      </trkpt>
      <trkpt lat="44.07114" lon="6.93305">
        <ele>1863</ele>
        <time>2017-06-08T15:44:05Z</time>
      </trkpt>
      <trkpt lat="44.07129" lon="6.93303">
        <ele>1860</ele>
        <time>2017-06-08T15:45:03Z</time>
      </trkpt>
      <trkpt lat="44.07131" lon="6.933">
        <ele>1860</ele>
        <time>2017-06-08T15:45:03Z</time>
      </trkpt>
      <trkpt lat="44.07132" lon="6.93302">
        <ele>1860</ele>
        <time>2017-06-08T15:45:03Z</time>
      </trkpt>
      <trkpt lat="44.07136" lon="6.93305">
        <ele>1860</ele>
        <time>2017-06-08T15:45:03Z</time>
      </trkpt>
      <trkpt lat="44.07139" lon="6.93307">
        <ele>1860</ele>
        <time>2017-06-08T15:45:03Z</time>
      </trkpt>
      <trkpt lat="44.07144" lon="6.93309">
        <ele>1860</ele>
        <time>2017-06-08T15:45:20Z</time>
      </trkpt>
      <trkpt lat="44.07147" lon="6.9331">
        <ele>1860</ele>
        <time>2017-06-08T15:45:20Z</time>
      </trkpt>
      <trkpt lat="44.07153" lon="6.93309">
        <ele>1856</ele>
        <time>2017-06-08T15:45:21Z</time>
      </trkpt>
      <trkpt lat="44.07159" lon="6.93311">
        <ele>1856</ele>
        <time>2017-06-08T15:45:21Z</time>
      </trkpt>
      <trkpt lat="44.0716" lon="6.93311">
        <ele>1856</ele>
        <time>2017-06-08T15:45:36Z</time>
      </trkpt>
      <trkpt lat="44.07154" lon="6.93309">
        <ele>1856</ele>
        <time>2017-06-08T15:45:36Z</time>
      </trkpt>
      <trkpt lat="44.0715" lon="6.93307">
        <ele>1860</ele>
        <time>2017-06-08T15:45:37Z</time>
      </trkpt>
      <trkpt lat="44.0715" lon="6.93306">
        <ele>1860</ele>
        <time>2017-06-08T15:45:37Z</time>
      </trkpt>
      <trkpt lat="44.07149" lon="6.93309">
        <ele>1860</ele>
        <time>2017-06-08T15:47:46Z</time>
      </trkpt>
      <trkpt lat="44.07146" lon="6.93316">
        <ele>1860</ele>
        <time>2017-06-08T15:47:46Z</time>
      </trkpt>
      <trkpt lat="44.07148" lon="6.9332">
        <ele>1860</ele>
        <time>2017-06-08T15:47:46Z</time>
      </trkpt>
      <trkpt lat="44.07149" lon="6.93323">
        <ele>1860</ele>
        <time>2017-06-08T15:47:46Z</time>
      </trkpt>
      <trkpt lat="44.07153" lon="6.93329">
        <ele>1860</ele>
        <time>2017-06-08T15:47:46Z</time>
      </trkpt>
      <trkpt lat="44.07154" lon="6.9333">
        <ele>1860</ele>
        <time>2017-06-08T15:48:00Z</time>
      </trkpt>
      <trkpt lat="44.07159" lon="6.93337">
        <ele>1860</ele>
        <time>2017-06-08T15:48:00Z</time>
      </trkpt>
      <trkpt lat="44.07162" lon="6.93344">
        <ele>1860</ele>
        <time>2017-06-08T15:48:00Z</time>
      </trkpt>
      <trkpt lat="44.07162" lon="6.93347">
        <ele>1860</ele>
        <time>2017-06-08T15:48:00Z</time>
      </trkpt>
      <trkpt lat="44.07163" lon="6.93354">
        <ele>1862</ele>
        <time>2017-06-08T15:48:18Z</time>
      </trkpt>
      <trkpt lat="44.07165" lon="6.93363">
        <ele>1862</ele>
        <time>2017-06-08T15:48:18Z</time>
      </trkpt>
      <trkpt lat="44.07166" lon="6.93365">
        <ele>1862</ele>
        <time>2017-06-08T15:48:18Z</time>
      </trkpt>
      <trkpt lat="44.07168" lon="6.93375">
        <ele>1862</ele>
        <time>2017-06-08T15:48:18Z</time>
      </trkpt>
      <trkpt lat="44.07169" lon="6.93377">
        <ele>1862</ele>
        <time>2017-06-08T15:48:34Z</time>
      </trkpt>
      <trkpt lat="44.0717" lon="6.93381">
        <ele>1862</ele>
        <time>2017-06-08T15:48:34Z</time>
      </trkpt>
      <trkpt lat="44.07172" lon="6.93384">
        <ele>1862</ele>
        <time>2017-06-08T15:48:34Z</time>
      </trkpt>
      <trkpt lat="44.07173" lon="6.93389">
        <ele>1862</ele>
        <time>2017-06-08T15:48:34Z</time>
      </trkpt>
      <trkpt lat="44.07172" lon="6.93391">
        <ele>1862</ele>
        <time>2017-06-08T15:48:47Z</time>
      </trkpt>
      <trkpt lat="44.07176" lon="6.93399">
        <ele>1862</ele>
        <time>2017-06-08T15:48:48Z</time>
      </trkpt>
      <trkpt lat="44.07176" lon="6.93402">
        <ele>1862</ele>
        <time>2017-06-08T15:48:48Z</time>
      </trkpt>
      <trkpt lat="44.07177" lon="6.93408">
        <ele>1864</ele>
        <time>2017-06-08T15:48:48Z</time>
      </trkpt>
      <trkpt lat="44.07178" lon="6.93413">
        <ele>1864</ele>
        <time>2017-06-08T15:49:03Z</time>
      </trkpt>
      <trkpt lat="44.07177" lon="6.93417">
        <ele>1864</ele>
        <time>2017-06-08T15:49:03Z</time>
      </trkpt>
      <trkpt lat="44.07179" lon="6.9342">
        <ele>1864</ele>
        <time>2017-06-08T15:49:03Z</time>
      </trkpt>
      <trkpt lat="44.0718" lon="6.93428">
        <ele>1864</ele>
        <time>2017-06-08T15:49:03Z</time>
      </trkpt>
      <trkpt lat="44.07183" lon="6.93435">
        <ele>1867</ele>
        <time>2017-06-08T15:49:21Z</time>
      </trkpt>
      <trkpt lat="44.07185" lon="6.9344">
        <ele>1867</ele>
        <time>2017-06-08T15:49:21Z</time>
      </trkpt>
      <trkpt lat="44.07187" lon="6.93445">
        <ele>1867</ele>
        <time>2017-06-08T15:49:22Z</time>
      </trkpt>
      <trkpt lat="44.07189" lon="6.93448">
        <ele>1867</ele>
        <time>2017-06-08T15:49:22Z</time>
      </trkpt>
      <trkpt lat="44.07194" lon="6.9345">
        <ele>1867</ele>
        <time>2017-06-08T15:51:42Z</time>
      </trkpt>
      <trkpt lat="44.07197" lon="6.93454">
        <ele>1867</ele>
        <time>2017-06-08T15:51:42Z</time>
      </trkpt>
      <trkpt lat="44.07197" lon="6.93455">
        <ele>1867</ele>
        <time>2017-06-08T15:51:42Z</time>
      </trkpt>
      <trkpt lat="44.072" lon="6.93462">
        <ele>1868</ele>
        <time>2017-06-08T15:51:43Z</time>
      </trkpt>
      <trkpt lat="44.07203" lon="6.93469">
        <ele>1868</ele>
        <time>2017-06-08T15:51:43Z</time>
      </trkpt>
      <trkpt lat="44.07203" lon="6.9347">
        <ele>1868</ele>
        <time>2017-06-08T15:51:55Z</time>
      </trkpt>
      <trkpt lat="44.07201" lon="6.93473">
        <ele>1868</ele>
        <time>2017-06-08T15:51:55Z</time>
      </trkpt>
      <trkpt lat="44.07199" lon="6.93478">
        <ele>1868</ele>
        <time>2017-06-08T15:51:55Z</time>
      </trkpt>
      <trkpt lat="44.07198" lon="6.93483">
        <ele>1868</ele>
        <time>2017-06-08T15:51:55Z</time>
      </trkpt>
      <trkpt lat="44.07196" lon="6.93486">
        <ele>1870</ele>
        <time>2017-06-08T15:52:13Z</time>
      </trkpt>
      <trkpt lat="44.07194" lon="6.93492">
        <ele>1870</ele>
        <time>2017-06-08T15:52:13Z</time>
      </trkpt>
      <trkpt lat="44.07194" lon="6.93495">
        <ele>1870</ele>
        <time>2017-06-08T15:52:13Z</time>
      </trkpt>
      <trkpt lat="44.07197" lon="6.93499">
        <ele>1870</ele>
        <time>2017-06-08T15:52:13Z</time>
      </trkpt>
      <trkpt lat="44.07196" lon="6.935">
        <ele>1870</ele>
        <time>2017-06-08T15:52:30Z</time>
      </trkpt>
      <trkpt lat="44.07199" lon="6.93509">
        <ele>1870</ele>
        <time>2017-06-08T15:52:30Z</time>
      </trkpt>
      <trkpt lat="44.07199" lon="6.93511">
        <ele>1870</ele>
        <time>2017-06-08T15:52:30Z</time>
      </trkpt>
      <trkpt lat="44.07201" lon="6.93515">
        <ele>1873</ele>
        <time>2017-06-08T15:52:30Z</time>
      </trkpt>
      <trkpt lat="44.07202" lon="6.93516">
        <ele>1873</ele>
        <time>2017-06-08T15:52:44Z</time>
      </trkpt>
      <trkpt lat="44.07205" lon="6.93519">
        <ele>1873</ele>
        <time>2017-06-08T15:52:44Z</time>
      </trkpt>
      <trkpt lat="44.07206" lon="6.93522">
        <ele>1873</ele>
        <time>2017-06-08T15:52:44Z</time>
      </trkpt>
      <trkpt lat="44.07209" lon="6.93526">
        <ele>1870</ele>
        <time>2017-06-08T15:52:44Z</time>
      </trkpt>
      <trkpt lat="44.07208" lon="6.93527">
        <ele>1873</ele>
        <time>2017-06-08T15:53:01Z</time>
      </trkpt>
      <trkpt lat="44.07206" lon="6.93535">
        <ele>1873</ele>
        <time>2017-06-08T15:53:01Z</time>
      </trkpt>
      <trkpt lat="44.07205" lon="6.93537">
        <ele>1873</ele>
        <time>2017-06-08T15:53:01Z</time>
      </trkpt>
      <trkpt lat="44.07204" lon="6.93547">
        <ele>1875</ele>
        <time>2017-06-08T15:53:01Z</time>
      </trkpt>
      <trkpt lat="44.07205" lon="6.93549">
        <ele>1875</ele>
        <time>2017-06-08T15:53:18Z</time>
      </trkpt>
      <trkpt lat="44.07205" lon="6.93566">
        <ele>1875</ele>
        <time>2017-06-08T15:53:18Z</time>
      </trkpt>
      <trkpt lat="44.07204" lon="6.93568">
        <ele>1875</ele>
        <time>2017-06-08T15:53:18Z</time>
      </trkpt>
      <trkpt lat="44.07203" lon="6.93577">
        <ele>1876</ele>
        <time>2017-06-08T15:53:18Z</time>
      </trkpt>
      <trkpt lat="44.07202" lon="6.93579">
        <ele>1876</ele>
        <time>2017-06-08T15:53:33Z</time>
      </trkpt>
      <trkpt lat="44.07202" lon="6.93585">
        <ele>1876</ele>
        <time>2017-06-08T15:53:33Z</time>
      </trkpt>
      <trkpt lat="44.07203" lon="6.93589">
        <ele>1876</ele>
        <time>2017-06-08T15:53:34Z</time>
      </trkpt>
      <trkpt lat="44.07201" lon="6.93595">
        <ele>1876</ele>
        <time>2017-06-08T15:53:34Z</time>
      </trkpt>
      <trkpt lat="44.07201" lon="6.93597">
        <ele>1876</ele>
        <time>2017-06-08T15:53:47Z</time>
      </trkpt>
      <trkpt lat="44.07196" lon="6.93608">
        <ele>1878</ele>
        <time>2017-06-08T15:53:47Z</time>
      </trkpt>
      <trkpt lat="44.07198" lon="6.93614">
        <ele>1878</ele>
        <time>2017-06-08T15:53:47Z</time>
      </trkpt>
      <trkpt lat="44.07197" lon="6.93616">
        <ele>1878</ele>
        <time>2017-06-08T15:53:47Z</time>
      </trkpt>
      <trkpt lat="44.07202" lon="6.93627">
        <ele>1880</ele>
        <time>2017-06-08T15:54:14Z</time>
      </trkpt>
      <trkpt lat="44.07203" lon="6.93629">
        <ele>1880</ele>
        <time>2017-06-08T15:54:14Z</time>
      </trkpt>
      <trkpt lat="44.07204" lon="6.93631">
        <ele>1880</ele>
        <time>2017-06-08T15:54:14Z</time>
      </trkpt>
      <trkpt lat="44.07205" lon="6.93633">
        <ele>1880</ele>
        <time>2017-06-08T15:54:14Z</time>
      </trkpt>
      <trkpt lat="44.07204" lon="6.93639">
        <ele>1880</ele>
        <time>2017-06-08T15:54:14Z</time>
      </trkpt>
      <trkpt lat="44.07206" lon="6.93648">
        <ele>1880</ele>
        <time>2017-06-08T15:54:53Z</time>
      </trkpt>
      <trkpt lat="44.07207" lon="6.93652">
        <ele>1880</ele>
        <time>2017-06-08T15:54:53Z</time>
      </trkpt>
      <trkpt lat="44.07208" lon="6.93655">
        <ele>1882</ele>
        <time>2017-06-08T15:54:53Z</time>
      </trkpt>
      <trkpt lat="44.07209" lon="6.93658">
        <ele>1881</ele>
        <time>2017-06-08T15:54:53Z</time>
      </trkpt>
      <trkpt lat="44.07206" lon="6.93665">
        <ele>1882</ele>
        <time>2017-06-08T15:54:53Z</time>
      </trkpt>
      <trkpt lat="44.07206" lon="6.93667">
        <ele>1882</ele>
        <time>2017-06-08T15:55:14Z</time>
      </trkpt>
      <trkpt lat="44.07207" lon="6.9367">
        <ele>1882</ele>
        <time>2017-06-08T15:55:14Z</time>
      </trkpt>
      <trkpt lat="44.07207" lon="6.93674">
        <ele>1882</ele>
        <time>2017-06-08T15:55:14Z</time>
      </trkpt>
      <trkpt lat="44.07209" lon="6.93677">
        <ele>1881</ele>
        <time>2017-06-08T15:55:14Z</time>
      </trkpt>
      <trkpt lat="44.07212" lon="6.93682">
        <ele>1882</ele>
        <time>2017-06-08T15:55:14Z</time>
      </trkpt>
      <trkpt lat="44.07213" lon="6.93687">
        <ele>1882</ele>
        <time>2017-06-08T15:56:19Z</time>
      </trkpt>
      <trkpt lat="44.07214" lon="6.93688">
        <ele>1882</ele>
        <time>2017-06-08T15:56:19Z</time>
      </trkpt>
      <trkpt lat="44.07214" lon="6.93689">
        <ele>1882</ele>
        <time>2017-06-08T15:56:19Z</time>
      </trkpt>
      <trkpt lat="44.07215" lon="6.93689">
        <ele>1882</ele>
        <time>2017-06-08T15:56:19Z</time>
      </trkpt>
      <trkpt lat="44.07217" lon="6.93694">
        <ele>1882</ele>
        <time>2017-06-08T15:56:19Z</time>
      </trkpt>
      <trkpt lat="44.07217" lon="6.93695">
        <ele>1882</ele>
        <time>2017-06-08T15:56:31Z</time>
      </trkpt>
      <trkpt lat="44.0722" lon="6.93697">
        <ele>1882</ele>
        <time>2017-06-08T15:56:31Z</time>
      </trkpt>
      <trkpt lat="44.07224" lon="6.93704">
        <ele>1882</ele>
        <time>2017-06-08T15:56:32Z</time>
      </trkpt>
      <trkpt lat="44.07226" lon="6.93706">
        <ele>1882</ele>
        <time>2017-06-08T15:56:32Z</time>
      </trkpt>
      <trkpt lat="44.07227" lon="6.9371">
        <ele>1881</ele>
        <time>2017-06-08T15:56:53Z</time>
      </trkpt>
      <trkpt lat="44.07228" lon="6.93713">
        <ele>1881</ele>
        <time>2017-06-08T15:56:53Z</time>
      </trkpt>
      <trkpt lat="44.07229" lon="6.93714">
        <ele>1881</ele>
        <time>2017-06-08T15:56:53Z</time>
      </trkpt>
      <trkpt lat="44.07228" lon="6.93716">
        <ele>1881</ele>
        <time>2017-06-08T15:56:53Z</time>
      </trkpt>
      <trkpt lat="44.0723" lon="6.93723">
        <ele>1881</ele>
        <time>2017-06-08T15:56:53Z</time>
      </trkpt>
      <trkpt lat="44.0723" lon="6.93723">
        <ele>1881</ele>
        <time>2017-06-08T15:57:10Z</time>
      </trkpt>
      <trkpt lat="44.07233" lon="6.9373">
        <ele>1881</ele>
        <time>2017-06-08T15:57:10Z</time>
      </trkpt>
      <trkpt lat="44.07234" lon="6.93732">
        <ele>1881</ele>
        <time>2017-06-08T15:57:10Z</time>
      </trkpt>
      <trkpt lat="44.07237" lon="6.93737">
        <ele>1877</ele>
        <time>2017-06-08T15:57:10Z</time>
      </trkpt>
      <trkpt lat="44.07244" lon="6.93741">
        <ele>1877</ele>
        <time>2017-06-08T16:00:46Z</time>
      </trkpt>
      <trkpt lat="44.07244" lon="6.93745">
        <ele>1877</ele>
        <time>2017-06-08T16:00:46Z</time>
      </trkpt>
      <trkpt lat="44.0725" lon="6.93745">
        <ele>1877</ele>
        <time>2017-06-08T16:00:46Z</time>
      </trkpt>
      <trkpt lat="44.07255" lon="6.93745">
        <ele>1877</ele>
        <time>2017-06-08T16:00:46Z</time>
      </trkpt>
      <trkpt lat="44.07264" lon="6.93751">
        <ele>1877</ele>
        <time>2017-06-08T16:00:47Z</time>
      </trkpt>
      <trkpt lat="44.07264" lon="6.93752">
        <ele>1875</ele>
        <time>2017-06-08T16:01:00Z</time>
      </trkpt>
      <trkpt lat="44.07269" lon="6.93755">
        <ele>1875</ele>
        <time>2017-06-08T16:01:00Z</time>
      </trkpt>
      <trkpt lat="44.07277" lon="6.9376">
        <ele>1875</ele>
        <time>2017-06-08T16:01:00Z</time>
      </trkpt>
      <trkpt lat="44.07279" lon="6.9376">
        <ele>1875</ele>
        <time>2017-06-08T16:01:00Z</time>
      </trkpt>
      <trkpt lat="44.07283" lon="6.9376">
        <ele>1875</ele>
        <time>2017-06-08T16:01:18Z</time>
      </trkpt>
      <trkpt lat="44.07293" lon="6.93764">
        <ele>1871</ele>
        <time>2017-06-08T16:01:19Z</time>
      </trkpt>
      <trkpt lat="44.07295" lon="6.93765">
        <ele>1872</ele>
        <time>2017-06-08T16:01:19Z</time>
      </trkpt>
      <trkpt lat="44.07304" lon="6.9377">
        <ele>1872</ele>
        <time>2017-06-08T16:01:20Z</time>
      </trkpt>
      <trkpt lat="44.07306" lon="6.9377">
        <ele>1872</ele>
        <time>2017-06-08T16:01:32Z</time>
      </trkpt>
      <trkpt lat="44.07312" lon="6.93771">
        <ele>1872</ele>
        <time>2017-06-08T16:01:32Z</time>
      </trkpt>
      <trkpt lat="44.07319" lon="6.93772">
        <ele>1872</ele>
        <time>2017-06-08T16:01:32Z</time>
      </trkpt>
      <trkpt lat="44.07321" lon="6.93774">
        <ele>1869</ele>
        <time>2017-06-08T16:01:32Z</time>
      </trkpt>
      <trkpt lat="44.07321" lon="6.93777">
        <ele>1869</ele>
        <time>2017-06-08T16:01:53Z</time>
      </trkpt>
      <trkpt lat="44.07326" lon="6.93781">
        <ele>1869</ele>
        <time>2017-06-08T16:01:53Z</time>
      </trkpt>
      <trkpt lat="44.07327" lon="6.93782">
        <ele>1869</ele>
        <time>2017-06-08T16:01:53Z</time>
      </trkpt>
      <trkpt lat="44.07329" lon="6.9378">
        <ele>1869</ele>
        <time>2017-06-08T16:01:53Z</time>
      </trkpt>
      <trkpt lat="44.07334" lon="6.93779">
        <ele>1869</ele>
        <time>2017-06-08T16:01:53Z</time>
      </trkpt>
      <trkpt lat="44.07334" lon="6.9378">
        <ele>1869</ele>
        <time>2017-06-08T16:02:10Z</time>
      </trkpt>
      <trkpt lat="44.0734" lon="6.93781">
        <ele>1869</ele>
        <time>2017-06-08T16:02:10Z</time>
      </trkpt>
      <trkpt lat="44.07343" lon="6.93784">
        <ele>1869</ele>
        <time>2017-06-08T16:02:10Z</time>
      </trkpt>
      <trkpt lat="44.07353" lon="6.93788">
        <ele>1867</ele>
        <time>2017-06-08T16:02:10Z</time>
      </trkpt>
      <trkpt lat="44.07354" lon="6.93788">
        <ele>1867</ele>
        <time>2017-06-08T16:02:23Z</time>
      </trkpt>
      <trkpt lat="44.07362" lon="6.93789">
        <ele>1867</ele>
        <time>2017-06-08T16:02:23Z</time>
      </trkpt>
      <trkpt lat="44.07364" lon="6.93788">
        <ele>1867</ele>
        <time>2017-06-08T16:02:23Z</time>
      </trkpt>
      <trkpt lat="44.07365" lon="6.93786">
        <ele>1867</ele>
        <time>2017-06-08T16:02:23Z</time>
      </trkpt>
      <trkpt lat="44.07369" lon="6.93784">
        <ele>1867</ele>
        <time>2017-06-08T16:02:45Z</time>
      </trkpt>
      <trkpt lat="44.07374" lon="6.93784">
        <ele>1867</ele>
        <time>2017-06-08T16:02:45Z</time>
      </trkpt>
      <trkpt lat="44.07374" lon="6.93784">
        <ele>1867</ele>
        <time>2017-06-08T16:02:45Z</time>
      </trkpt>
      <trkpt lat="44.07377" lon="6.93784">
        <ele>1865</ele>
        <time>2017-06-08T16:02:45Z</time>
      </trkpt>
      <trkpt lat="44.07379" lon="6.93782">
        <ele>1865</ele>
        <time>2017-06-08T16:02:45Z</time>
      </trkpt>
      <trkpt lat="44.07379" lon="6.93784">
        <ele>1865</ele>
        <time>2017-06-08T16:03:06Z</time>
      </trkpt>
      <trkpt lat="44.07385" lon="6.93786">
        <ele>1865</ele>
        <time>2017-06-08T16:03:06Z</time>
      </trkpt>
      <trkpt lat="44.07391" lon="6.93788">
        <ele>1865</ele>
        <time>2017-06-08T16:03:07Z</time>
      </trkpt>
      <trkpt lat="44.07399" lon="6.93787">
        <ele>1865</ele>
        <time>2017-06-08T16:03:07Z</time>
      </trkpt>
      <trkpt lat="44.07401" lon="6.93786">
        <ele>1865</ele>
        <time>2017-06-08T16:03:27Z</time>
      </trkpt>
      <trkpt lat="44.07402" lon="6.93783">
        <ele>1865</ele>
        <time>2017-06-08T16:03:27Z</time>
      </trkpt>
      <trkpt lat="44.07405" lon="6.93783">
        <ele>1860</ele>
        <time>2017-06-08T16:03:27Z</time>
      </trkpt>
      <trkpt lat="44.07407" lon="6.93783">
        <ele>1860</ele>
        <time>2017-06-08T16:03:27Z</time>
      </trkpt>
      <trkpt lat="44.07417" lon="6.93784">
        <ele>1860</ele>
        <time>2017-06-08T16:03:27Z</time>
      </trkpt>
      <trkpt lat="44.07418" lon="6.93781">
        <ele>1860</ele>
        <time>2017-06-08T16:03:48Z</time>
      </trkpt>
      <trkpt lat="44.07424" lon="6.93779">
        <ele>1860</ele>
        <time>2017-06-08T16:03:48Z</time>
      </trkpt>
      <trkpt lat="44.07425" lon="6.93781">
        <ele>1860</ele>
        <time>2017-06-08T16:03:48Z</time>
      </trkpt>
      <trkpt lat="44.07426" lon="6.9378">
        <ele>1860</ele>
        <time>2017-06-08T16:03:48Z</time>
      </trkpt>
      <trkpt lat="44.07427" lon="6.9378">
        <ele>1860</ele>
        <time>2017-06-08T16:03:48Z</time>
      </trkpt>
      <trkpt lat="44.07444" lon="6.93775">
        <ele>1853</ele>
        <time>2017-06-08T16:05:20Z</time>
      </trkpt>
      <trkpt lat="44.07452" lon="6.93773">
        <ele>1853</ele>
        <time>2017-06-08T16:05:21Z</time>
      </trkpt>
      <trkpt lat="44.07455" lon="6.93773">
        <ele>1853</ele>
        <time>2017-06-08T16:05:21Z</time>
      </trkpt>
      <trkpt lat="44.07458" lon="6.93774">
        <ele>1845</ele>
        <time>2017-06-08T16:05:21Z</time>
      </trkpt>
      <trkpt lat="44.07468" lon="6.93773">
        <ele>1845</ele>
        <time>2017-06-08T16:05:21Z</time>
      </trkpt>
      <trkpt lat="44.07465" lon="6.93755">
        <ele>1842</ele>
        <time>2017-06-08T16:06:15Z</time>
      </trkpt>
      <trkpt lat="44.07467" lon="6.93754">
        <ele>1842</ele>
        <time>2017-06-08T16:06:15Z</time>
      </trkpt>
      <trkpt lat="44.07472" lon="6.93751">
        <ele>1842</ele>
        <time>2017-06-08T16:06:15Z</time>
      </trkpt>
      <trkpt lat="44.07479" lon="6.93749">
        <ele>1842</ele>
        <time>2017-06-08T16:06:15Z</time>
      </trkpt>
      <trkpt lat="44.07483" lon="6.93748">
        <ele>1842</ele>
        <time>2017-06-08T16:06:15Z</time>
      </trkpt>
      <trkpt lat="44.07489" lon="6.93745">
        <ele>1838</ele>
        <time>2017-06-08T16:06:34Z</time>
      </trkpt>
      <trkpt lat="44.07496" lon="6.93745">
        <ele>1838</ele>
        <time>2017-06-08T16:06:34Z</time>
      </trkpt>
      <trkpt lat="44.07496" lon="6.93744">
        <ele>1838</ele>
        <time>2017-06-08T16:06:34Z</time>
      </trkpt>
      <trkpt lat="44.07504" lon="6.93734">
        <ele>1832</ele>
        <time>2017-06-08T16:06:34Z</time>
      </trkpt>
      <trkpt lat="44.07504" lon="6.93735">
        <ele>1832</ele>
        <time>2017-06-08T16:06:49Z</time>
      </trkpt>
      <trkpt lat="44.07514" lon="6.93731">
        <ele>1831</ele>
        <time>2017-06-08T16:06:49Z</time>
      </trkpt>
      <trkpt lat="44.07518" lon="6.93728">
        <ele>1831</ele>
        <time>2017-06-08T16:06:50Z</time>
      </trkpt>
      <trkpt lat="44.07522" lon="6.93727">
        <ele>1831</ele>
        <time>2017-06-08T16:06:50Z</time>
      </trkpt>
      <trkpt lat="44.07522" lon="6.93727">
        <ele>1831</ele>
        <time>2017-06-08T16:07:03Z</time>
      </trkpt>
      <trkpt lat="44.07526" lon="6.93724">
        <ele>1831</ele>
        <time>2017-06-08T16:07:03Z</time>
      </trkpt>
      <trkpt lat="44.07535" lon="6.93716">
        <ele>1831</ele>
        <time>2017-06-08T16:07:04Z</time>
      </trkpt>
      <trkpt lat="44.07536" lon="6.93716">
        <ele>1831</ele>
        <time>2017-06-08T16:07:04Z</time>
      </trkpt>
      <trkpt lat="44.07539" lon="6.93714">
        <ele>1831</ele>
        <time>2017-06-08T16:07:20Z</time>
      </trkpt>
      <trkpt lat="44.07545" lon="6.9371">
        <ele>1828</ele>
        <time>2017-06-08T16:07:20Z</time>
      </trkpt>
      <trkpt lat="44.07549" lon="6.93709">
        <ele>1828</ele>
        <time>2017-06-08T16:07:20Z</time>
      </trkpt>
      <trkpt lat="44.07553" lon="6.93707">
        <ele>1825</ele>
        <time>2017-06-08T16:07:20Z</time>
      </trkpt>
      <trkpt lat="44.07557" lon="6.93702">
        <ele>1825</ele>
        <time>2017-06-08T16:07:38Z</time>
      </trkpt>
      <trkpt lat="44.07564" lon="6.93701">
        <ele>1825</ele>
        <time>2017-06-08T16:07:38Z</time>
      </trkpt>
      <trkpt lat="44.07568" lon="6.93701">
        <ele>1825</ele>
        <time>2017-06-08T16:07:38Z</time>
      </trkpt>
      <trkpt lat="44.0758" lon="6.93697">
        <ele>1825</ele>
        <time>2017-06-08T16:07:38Z</time>
      </trkpt>
      <trkpt lat="44.07582" lon="6.93694">
        <ele>1825</ele>
        <time>2017-06-08T16:07:53Z</time>
      </trkpt>
      <trkpt lat="44.07586" lon="6.93687">
        <ele>1825</ele>
        <time>2017-06-08T16:07:54Z</time>
      </trkpt>
      <trkpt lat="44.07596" lon="6.93684">
        <ele>1825</ele>
        <time>2017-06-08T16:07:54Z</time>
      </trkpt>
      <trkpt lat="44.076" lon="6.93684">
        <ele>1824</ele>
        <time>2017-06-08T16:07:54Z</time>
      </trkpt>
      <trkpt lat="44.07601" lon="6.93683">
        <ele>1824</ele>
        <time>2017-06-08T16:08:09Z</time>
      </trkpt>
      <trkpt lat="44.07602" lon="6.93681">
        <ele>1824</ele>
        <time>2017-06-08T16:08:09Z</time>
      </trkpt>
      <trkpt lat="44.07605" lon="6.93678">
        <ele>1821</ele>
        <time>2017-06-08T16:08:09Z</time>
      </trkpt>
      <trkpt lat="44.07615" lon="6.93672">
        <ele>1821</ele>
        <time>2017-06-08T16:08:09Z</time>
      </trkpt>
      <trkpt lat="44.07616" lon="6.93671">
        <ele>1821</ele>
        <time>2017-06-08T16:08:23Z</time>
      </trkpt>
      <trkpt lat="44.07626" lon="6.93662">
        <ele>1819</ele>
        <time>2017-06-08T16:08:23Z</time>
      </trkpt>
      <trkpt lat="44.07628" lon="6.93661">
        <ele>1819</ele>
        <time>2017-06-08T16:08:23Z</time>
      </trkpt>
      <trkpt lat="44.07631" lon="6.9366">
        <ele>1819</ele>
        <time>2017-06-08T16:08:24Z</time>
      </trkpt>
      <trkpt lat="44.07637" lon="6.93658">
        <ele>1819</ele>
        <time>2017-06-08T16:08:42Z</time>
      </trkpt>
      <trkpt lat="44.07641" lon="6.93654">
        <ele>1819</ele>
        <time>2017-06-08T16:08:42Z</time>
      </trkpt>
      <trkpt lat="44.07642" lon="6.93655">
        <ele>1819</ele>
        <time>2017-06-08T16:08:42Z</time>
      </trkpt>
      <trkpt lat="44.07644" lon="6.93651">
        <ele>1812</ele>
        <time>2017-06-08T16:08:42Z</time>
      </trkpt>
      <trkpt lat="44.07649" lon="6.93647">
        <ele>1812</ele>
        <time>2017-06-08T16:09:08Z</time>
      </trkpt>
      <trkpt lat="44.07652" lon="6.93646">
        <ele>1812</ele>
        <time>2017-06-08T16:09:09Z</time>
      </trkpt>
      <trkpt lat="44.07653" lon="6.93644">
        <ele>1812</ele>
        <time>2017-06-08T16:09:09Z</time>
      </trkpt>
      <trkpt lat="44.07653" lon="6.93645">
        <ele>1815</ele>
        <time>2017-06-08T16:09:09Z</time>
      </trkpt>
      <trkpt lat="44.07658" lon="6.93645">
        <ele>1815</ele>
        <time>2017-06-08T16:09:09Z</time>
      </trkpt>
      <trkpt lat="44.07658" lon="6.93648">
        <ele>1815</ele>
        <time>2017-06-08T16:10:20Z</time>
      </trkpt>
      <trkpt lat="44.07664" lon="6.93644">
        <ele>1815</ele>
        <time>2017-06-08T16:10:20Z</time>
      </trkpt>
      <trkpt lat="44.07668" lon="6.93644">
        <ele>1815</ele>
        <time>2017-06-08T16:10:20Z</time>
      </trkpt>
      <trkpt lat="44.07673" lon="6.9364">
        <ele>1815</ele>
        <time>2017-06-08T16:10:20Z</time>
      </trkpt>
      <trkpt lat="44.07678" lon="6.93638">
        <ele>1815</ele>
        <time>2017-06-08T16:10:20Z</time>
      </trkpt>
      <trkpt lat="44.07679" lon="6.93637">
        <ele>1815</ele>
        <time>2017-06-08T16:10:37Z</time>
      </trkpt>
      <trkpt lat="44.07684" lon="6.93633">
        <ele>1818</ele>
        <time>2017-06-08T16:10:37Z</time>
      </trkpt>
      <trkpt lat="44.07686" lon="6.93634">
        <ele>1818</ele>
        <time>2017-06-08T16:10:37Z</time>
      </trkpt>
      <trkpt lat="44.0769" lon="6.9363">
        <ele>1818</ele>
        <time>2017-06-08T16:10:37Z</time>
      </trkpt>
      <trkpt lat="44.07691" lon="6.93629">
        <ele>1818</ele>
        <time>2017-06-08T16:10:51Z</time>
      </trkpt>
      <trkpt lat="44.07697" lon="6.93621">
        <ele>1813</ele>
        <time>2017-06-08T16:10:51Z</time>
      </trkpt>
      <trkpt lat="44.07699" lon="6.9362">
        <ele>1813</ele>
        <time>2017-06-08T16:10:51Z</time>
      </trkpt>
      <trkpt lat="44.07703" lon="6.93618">
        <ele>1813</ele>
        <time>2017-06-08T16:10:51Z</time>
      </trkpt>
      <trkpt lat="44.07709" lon="6.93614">
        <ele>1812</ele>
        <time>2017-06-08T16:11:09Z</time>
      </trkpt>
      <trkpt lat="44.07711" lon="6.93612">
        <ele>1812</ele>
        <time>2017-06-08T16:11:09Z</time>
      </trkpt>
      <trkpt lat="44.07716" lon="6.93609">
        <ele>1812</ele>
        <time>2017-06-08T16:11:09Z</time>
      </trkpt>
      <trkpt lat="44.07721" lon="6.93606">
        <ele>1812</ele>
        <time>2017-06-08T16:11:09Z</time>
      </trkpt>
      <trkpt lat="44.07723" lon="6.93605">
        <ele>1812</ele>
        <time>2017-06-08T16:11:24Z</time>
      </trkpt>
      <trkpt lat="44.07729" lon="6.93598">
        <ele>1812</ele>
        <time>2017-06-08T16:11:24Z</time>
      </trkpt>
      <trkpt lat="44.07733" lon="6.93595">
        <ele>1805</ele>
        <time>2017-06-08T16:11:24Z</time>
      </trkpt>
      <trkpt lat="44.07737" lon="6.93591">
        <ele>1805</ele>
        <time>2017-06-08T16:11:24Z</time>
      </trkpt>
      <trkpt lat="44.07742" lon="6.93582">
        <ele>1805</ele>
        <time>2017-06-08T16:11:41Z</time>
      </trkpt>
      <trkpt lat="44.07746" lon="6.93579">
        <ele>1805</ele>
        <time>2017-06-08T16:11:41Z</time>
      </trkpt>
      <trkpt lat="44.07749" lon="6.93579">
        <ele>1805</ele>
        <time>2017-06-08T16:11:41Z</time>
      </trkpt>
      <trkpt lat="44.07754" lon="6.93575">
        <ele>1805</ele>
        <time>2017-06-08T16:11:41Z</time>
      </trkpt>
      <trkpt lat="44.07755" lon="6.93574">
        <ele>1805</ele>
        <time>2017-06-08T16:11:57Z</time>
      </trkpt>
      <trkpt lat="44.07764" lon="6.93568">
        <ele>1799</ele>
        <time>2017-06-08T16:11:57Z</time>
      </trkpt>
      <trkpt lat="44.07768" lon="6.93567">
        <ele>1804</ele>
        <time>2017-06-08T16:11:57Z</time>
      </trkpt>
      <trkpt lat="44.07775" lon="6.93563">
        <ele>1804</ele>
        <time>2017-06-08T16:11:57Z</time>
      </trkpt>
      <trkpt lat="44.07776" lon="6.93562">
        <ele>1804</ele>
        <time>2017-06-08T16:12:11Z</time>
      </trkpt>
      <trkpt lat="44.07782" lon="6.93559">
        <ele>1804</ele>
        <time>2017-06-08T16:12:11Z</time>
      </trkpt>
      <trkpt lat="44.07789" lon="6.93552">
        <ele>1804</ele>
        <time>2017-06-08T16:12:11Z</time>
      </trkpt>
      <trkpt lat="44.07789" lon="6.93551">
        <ele>1804</ele>
        <time>2017-06-08T16:12:11Z</time>
      </trkpt>
      <trkpt lat="44.07794" lon="6.93545">
        <ele>1808</ele>
        <time>2017-06-08T16:12:28Z</time>
      </trkpt>
      <trkpt lat="44.07798" lon="6.9354">
        <ele>1802</ele>
        <time>2017-06-08T16:12:28Z</time>
      </trkpt>
      <trkpt lat="44.07802" lon="6.93535">
        <ele>1802</ele>
        <time>2017-06-08T16:12:28Z</time>
      </trkpt>
      <trkpt lat="44.07804" lon="6.93531">
        <ele>1802</ele>
        <time>2017-06-08T16:12:28Z</time>
      </trkpt>
      <trkpt lat="44.07806" lon="6.93526">
        <ele>1802</ele>
        <time>2017-06-08T16:12:45Z</time>
      </trkpt>
      <trkpt lat="44.07812" lon="6.93516">
        <ele>1802</ele>
        <time>2017-06-08T16:12:45Z</time>
      </trkpt>
      <trkpt lat="44.07813" lon="6.93514">
        <ele>1802</ele>
        <time>2017-06-08T16:12:46Z</time>
      </trkpt>
      <trkpt lat="44.07817" lon="6.93499">
        <ele>1797</ele>
        <time>2017-06-08T16:12:46Z</time>
      </trkpt>
      <trkpt lat="44.07823" lon="6.93489">
        <ele>1807</ele>
        <time>2017-06-08T16:13:29Z</time>
      </trkpt>
      <trkpt lat="44.07824" lon="6.9349">
        <ele>1807</ele>
        <time>2017-06-08T16:13:29Z</time>
      </trkpt>
      <trkpt lat="44.07827" lon="6.93488">
        <ele>1807</ele>
        <time>2017-06-08T16:13:29Z</time>
      </trkpt>
      <trkpt lat="44.07829" lon="6.93485">
        <ele>1801</ele>
        <time>2017-06-08T16:13:29Z</time>
      </trkpt>
      <trkpt lat="44.07835" lon="6.93483">
        <ele>1801</ele>
        <time>2017-06-08T16:13:30Z</time>
      </trkpt>
      <trkpt lat="44.07835" lon="6.93482">
        <ele>1801</ele>
        <time>2017-06-08T16:13:45Z</time>
      </trkpt>
      <trkpt lat="44.07841" lon="6.93475">
        <ele>1801</ele>
        <time>2017-06-08T16:13:45Z</time>
      </trkpt>
      <trkpt lat="44.07844" lon="6.93467">
        <ele>1801</ele>
        <time>2017-06-08T16:13:45Z</time>
      </trkpt>
      <trkpt lat="44.07846" lon="6.93457">
        <ele>1793</ele>
        <time>2017-06-08T16:13:45Z</time>
      </trkpt>
      <trkpt lat="44.07847" lon="6.93456">
        <ele>1793</ele>
        <time>2017-06-08T16:14:00Z</time>
      </trkpt>
      <trkpt lat="44.07854" lon="6.93444">
        <ele>1803</ele>
        <time>2017-06-08T16:14:00Z</time>
      </trkpt>
      <trkpt lat="44.07855" lon="6.93439">
        <ele>1803</ele>
        <time>2017-06-08T16:14:00Z</time>
      </trkpt>
      <trkpt lat="44.07858" lon="6.93433">
        <ele>1803</ele>
        <time>2017-06-08T16:14:00Z</time>
      </trkpt>
      <trkpt lat="44.0786" lon="6.9343">
        <ele>1795</ele>
        <time>2017-06-08T16:14:16Z</time>
      </trkpt>
      <trkpt lat="44.07864" lon="6.93424">
        <ele>1795</ele>
        <time>2017-06-08T16:14:16Z</time>
      </trkpt>
      <trkpt lat="44.07867" lon="6.93413">
        <ele>1795</ele>
        <time>2017-06-08T16:14:16Z</time>
      </trkpt>
      <trkpt lat="44.07869" lon="6.93412">
        <ele>1795</ele>
        <time>2017-06-08T16:14:16Z</time>
      </trkpt>
      <trkpt lat="44.07876" lon="6.93407">
        <ele>1804</ele>
        <time>2017-06-08T16:15:00Z</time>
      </trkpt>
      <trkpt lat="44.07876" lon="6.93407">
        <ele>1804</ele>
        <time>2017-06-08T16:15:00Z</time>
      </trkpt>
      <trkpt lat="44.07878" lon="6.93401">
        <ele>1800</ele>
        <time>2017-06-08T16:15:00Z</time>
      </trkpt>
      <trkpt lat="44.07882" lon="6.93399">
        <ele>1800</ele>
        <time>2017-06-08T16:15:00Z</time>
      </trkpt>
      <trkpt lat="44.07884" lon="6.93392">
        <ele>1800</ele>
        <time>2017-06-08T16:15:00Z</time>
      </trkpt>
      <trkpt lat="44.07889" lon="6.93391">
        <ele>1800</ele>
        <time>2017-06-08T16:15:32Z</time>
      </trkpt>
      <trkpt lat="44.07892" lon="6.93387">
        <ele>1800</ele>
        <time>2017-06-08T16:15:32Z</time>
      </trkpt>
      <trkpt lat="44.07895" lon="6.93376">
        <ele>1800</ele>
        <time>2017-06-08T16:15:32Z</time>
      </trkpt>
      <trkpt lat="44.07898" lon="6.93373">
        <ele>1794</ele>
        <time>2017-06-08T16:15:32Z</time>
      </trkpt>
      <trkpt lat="44.07899" lon="6.9337">
        <ele>1794</ele>
        <time>2017-06-08T16:15:32Z</time>
      </trkpt>
      <trkpt lat="44.079" lon="6.9337">
        <ele>1794</ele>
        <time>2017-06-08T16:15:49Z</time>
      </trkpt>
      <trkpt lat="44.07902" lon="6.93361">
        <ele>1794</ele>
        <time>2017-06-08T16:15:49Z</time>
      </trkpt>
      <trkpt lat="44.07903" lon="6.93361">
        <ele>1801</ele>
        <time>2017-06-08T16:15:49Z</time>
      </trkpt>
      <trkpt lat="44.07907" lon="6.93355">
        <ele>1801</ele>
        <time>2017-06-08T16:15:49Z</time>
      </trkpt>
      <trkpt lat="44.07911" lon="6.93353">
        <ele>1801</ele>
        <time>2017-06-08T16:16:27Z</time>
      </trkpt>
      <trkpt lat="44.07914" lon="6.93351">
        <ele>1801</ele>
        <time>2017-06-08T16:16:27Z</time>
      </trkpt>
      <trkpt lat="44.07916" lon="6.93351">
        <ele>1801</ele>
        <time>2017-06-08T16:16:27Z</time>
      </trkpt>
      <trkpt lat="44.07916" lon="6.93351">
        <ele>1801</ele>
        <time>2017-06-08T16:16:27Z</time>
      </trkpt>
      <trkpt lat="44.07917" lon="6.9335">
        <ele>1801</ele>
        <time>2017-06-08T16:16:27Z</time>
      </trkpt>
      <trkpt lat="44.07918" lon="6.93349">
        <ele>1801</ele>
        <time>2017-06-08T16:16:47Z</time>
      </trkpt>
      <trkpt lat="44.07921" lon="6.93349">
        <ele>1801</ele>
        <time>2017-06-08T16:16:47Z</time>
      </trkpt>
      <trkpt lat="44.07921" lon="6.93348">
        <ele>1801</ele>
        <time>2017-06-08T16:16:48Z</time>
      </trkpt>
      <trkpt lat="44.07922" lon="6.93343">
        <ele>1798</ele>
        <time>2017-06-08T16:16:48Z</time>
      </trkpt>
      <trkpt lat="44.07924" lon="6.93339">
        <ele>1798</ele>
        <time>2017-06-08T16:16:48Z</time>
      </trkpt>
      <trkpt lat="44.07927" lon="6.93335">
        <ele>1798</ele>
        <time>2017-06-08T16:17:03Z</time>
      </trkpt>
      <trkpt lat="44.0793" lon="6.93337">
        <ele>1798</ele>
        <time>2017-06-08T16:17:03Z</time>
      </trkpt>
      <trkpt lat="44.07932" lon="6.93332">
        <ele>1806</ele>
        <time>2017-06-08T16:17:03Z</time>
      </trkpt>
      <trkpt lat="44.07936" lon="6.93327">
        <ele>1806</ele>
        <time>2017-06-08T16:17:03Z</time>
      </trkpt>
      <trkpt lat="44.07938" lon="6.93325">
        <ele>1806</ele>
        <time>2017-06-08T16:17:23Z</time>
      </trkpt>
      <trkpt lat="44.07941" lon="6.93322">
        <ele>1806</ele>
        <time>2017-06-08T16:17:23Z</time>
      </trkpt>
      <trkpt lat="44.07943" lon="6.93316">
        <ele>1805</ele>
        <time>2017-06-08T16:17:23Z</time>
      </trkpt>
      <trkpt lat="44.07944" lon="6.93315">
        <ele>1805</ele>
        <time>2017-06-08T16:17:23Z</time>
      </trkpt>
      <trkpt lat="44.07945" lon="6.93315">
        <ele>1805</ele>
        <time>2017-06-08T16:17:23Z</time>
      </trkpt>
      <trkpt lat="44.07947" lon="6.93311">
        <ele>1805</ele>
        <time>2017-06-08T16:17:42Z</time>
      </trkpt>
      <trkpt lat="44.07952" lon="6.93303">
        <ele>1805</ele>
        <time>2017-06-08T16:17:42Z</time>
      </trkpt>
      <trkpt lat="44.07953" lon="6.93302">
        <ele>1805</ele>
        <time>2017-06-08T16:17:42Z</time>
      </trkpt>
      <trkpt lat="44.07957" lon="6.93296">
        <ele>1805</ele>
        <time>2017-06-08T16:17:42Z</time>
      </trkpt>
      <trkpt lat="44.07957" lon="6.93294">
        <ele>1805</ele>
        <time>2017-06-08T16:17:56Z</time>
      </trkpt>
      <trkpt lat="44.0796" lon="6.93288">
        <ele>1814</ele>
        <time>2017-06-08T16:17:57Z</time>
      </trkpt>
      <trkpt lat="44.07964" lon="6.93285">
        <ele>1814</ele>
        <time>2017-06-08T16:17:57Z</time>
      </trkpt>
      <trkpt lat="44.07968" lon="6.93284">
        <ele>1814</ele>
        <time>2017-06-08T16:17:58Z</time>
      </trkpt>
      <trkpt lat="44.0797" lon="6.93282">
        <ele>1814</ele>
        <time>2017-06-08T16:18:12Z</time>
      </trkpt>
      <trkpt lat="44.07974" lon="6.93278">
        <ele>1814</ele>
        <time>2017-06-08T16:18:12Z</time>
      </trkpt>
      <trkpt lat="44.07978" lon="6.93276">
        <ele>1814</ele>
        <time>2017-06-08T16:18:12Z</time>
      </trkpt>
      <trkpt lat="44.07981" lon="6.93276">
        <ele>1814</ele>
        <time>2017-06-08T16:18:12Z</time>
      </trkpt>
      <trkpt lat="44.07985" lon="6.93273">
        <ele>1814</ele>
        <time>2017-06-08T16:18:28Z</time>
      </trkpt>
      <trkpt lat="44.0799" lon="6.93272">
        <ele>1819</ele>
        <time>2017-06-08T16:18:28Z</time>
      </trkpt>
      <trkpt lat="44.07991" lon="6.93269">
        <ele>1819</ele>
        <time>2017-06-08T16:18:28Z</time>
      </trkpt>
      <trkpt lat="44.07995" lon="6.93266">
        <ele>1819</ele>
        <time>2017-06-08T16:18:28Z</time>
      </trkpt>
      <trkpt lat="44.08003" lon="6.93257">
        <ele>1815</ele>
        <time>2017-06-08T16:20:25Z</time>
      </trkpt>
      <trkpt lat="44.08003" lon="6.93257">
        <ele>1815</ele>
        <time>2017-06-08T16:20:25Z</time>
      </trkpt>
      <trkpt lat="44.08004" lon="6.93257">
        <ele>1815</ele>
        <time>2017-06-08T16:20:25Z</time>
      </trkpt>
      <trkpt lat="44.08006" lon="6.93255">
        <ele>1815</ele>
        <time>2017-06-08T16:20:26Z</time>
      </trkpt>
      <trkpt lat="44.08009" lon="6.93249">
        <ele>1815</ele>
        <time>2017-06-08T16:20:26Z</time>
      </trkpt>
      <trkpt lat="44.08009" lon="6.93248">
        <ele>1815</ele>
        <time>2017-06-08T16:20:40Z</time>
      </trkpt>
      <trkpt lat="44.08009" lon="6.93244">
        <ele>1815</ele>
        <time>2017-06-08T16:20:40Z</time>
      </trkpt>
      <trkpt lat="44.08013" lon="6.93238">
        <ele>1815</ele>
        <time>2017-06-08T16:20:40Z</time>
      </trkpt>
      <trkpt lat="44.08015" lon="6.93238">
        <ele>1819</ele>
        <time>2017-06-08T16:20:40Z</time>
      </trkpt>
      <trkpt lat="44.0802" lon="6.93234">
        <ele>1817</ele>
        <time>2017-06-08T16:20:56Z</time>
      </trkpt>
      <trkpt lat="44.08023" lon="6.93227">
        <ele>1817</ele>
        <time>2017-06-08T16:20:56Z</time>
      </trkpt>
      <trkpt lat="44.08024" lon="6.93225">
        <ele>1817</ele>
        <time>2017-06-08T16:20:56Z</time>
      </trkpt>
      <trkpt lat="44.08026" lon="6.93221">
        <ele>1817</ele>
        <time>2017-06-08T16:20:56Z</time>
      </trkpt>
      <trkpt lat="44.08032" lon="6.93216">
        <ele>1817</ele>
        <time>2017-06-08T16:21:12Z</time>
      </trkpt>
      <trkpt lat="44.08033" lon="6.93212">
        <ele>1817</ele>
        <time>2017-06-08T16:21:12Z</time>
      </trkpt>
      <trkpt lat="44.08037" lon="6.93208">
        <ele>1814</ele>
        <time>2017-06-08T16:21:12Z</time>
      </trkpt>
      <trkpt lat="44.08039" lon="6.93203">
        <ele>1814</ele>
        <time>2017-06-08T16:21:12Z</time>
      </trkpt>
      <trkpt lat="44.0804" lon="6.93199">
        <ele>1814</ele>
        <time>2017-06-08T16:21:28Z</time>
      </trkpt>
      <trkpt lat="44.08046" lon="6.9319">
        <ele>1815</ele>
        <time>2017-06-08T16:21:28Z</time>
      </trkpt>
      <trkpt lat="44.08049" lon="6.93188">
        <ele>1815</ele>
        <time>2017-06-08T16:21:28Z</time>
      </trkpt>
      <trkpt lat="44.08053" lon="6.93183">
        <ele>1815</ele>
        <time>2017-06-08T16:21:28Z</time>
      </trkpt>
      <trkpt lat="44.08055" lon="6.93181">
        <ele>1815</ele>
        <time>2017-06-08T16:21:43Z</time>
      </trkpt>
      <trkpt lat="44.08061" lon="6.93175">
        <ele>1808</ele>
        <time>2017-06-08T16:21:43Z</time>
      </trkpt>
      <trkpt lat="44.08065" lon="6.93171">
        <ele>1808</ele>
        <time>2017-06-08T16:21:43Z</time>
      </trkpt>
      <trkpt lat="44.08066" lon="6.93167">
        <ele>1808</ele>
        <time>2017-06-08T16:21:43Z</time>
      </trkpt>
      <trkpt lat="44.08068" lon="6.93167">
        <ele>1808</ele>
        <time>2017-06-08T16:22:00Z</time>
      </trkpt>
      <trkpt lat="44.08072" lon="6.9315">
        <ele>1801</ele>
        <time>2017-06-08T16:22:00Z</time>
      </trkpt>
      <trkpt lat="44.08073" lon="6.93149">
        <ele>1801</ele>
        <time>2017-06-08T16:22:00Z</time>
      </trkpt>
      <trkpt lat="44.08075" lon="6.93146">
        <ele>1801</ele>
        <time>2017-06-08T16:22:00Z</time>
      </trkpt>
      <trkpt lat="44.08078" lon="6.93143">
        <ele>1801</ele>
        <time>2017-06-08T16:22:17Z</time>
      </trkpt>
      <trkpt lat="44.0808" lon="6.93142">
        <ele>1801</ele>
        <time>2017-06-08T16:22:17Z</time>
      </trkpt>
      <trkpt lat="44.08084" lon="6.9314">
        <ele>1801</ele>
        <time>2017-06-08T16:22:17Z</time>
      </trkpt>
      <trkpt lat="44.08088" lon="6.93133">
        <ele>1801</ele>
        <time>2017-06-08T16:22:17Z</time>
      </trkpt>
      <trkpt lat="44.08088" lon="6.93131">
        <ele>1801</ele>
        <time>2017-06-08T16:22:31Z</time>
      </trkpt>
      <trkpt lat="44.08093" lon="6.93114">
        <ele>1789</ele>
        <time>2017-06-08T16:22:31Z</time>
      </trkpt>
      <trkpt lat="44.08094" lon="6.9311">
        <ele>1789</ele>
        <time>2017-06-08T16:22:31Z</time>
      </trkpt>
      <trkpt lat="44.08095" lon="6.93101">
        <ele>1789</ele>
        <time>2017-06-08T16:22:31Z</time>
      </trkpt>
      <trkpt lat="44.08097" lon="6.93096">
        <ele>1789</ele>
        <time>2017-06-08T16:22:48Z</time>
      </trkpt>
      <trkpt lat="44.08099" lon="6.93087">
        <ele>1789</ele>
        <time>2017-06-08T16:22:48Z</time>
      </trkpt>
      <trkpt lat="44.081" lon="6.93083">
        <ele>1789</ele>
        <time>2017-06-08T16:22:48Z</time>
      </trkpt>
      <trkpt lat="44.08103" lon="6.93078">
        <ele>1789</ele>
        <time>2017-06-08T16:22:48Z</time>
      </trkpt>
      <trkpt lat="44.08104" lon="6.93075">
        <ele>1789</ele>
        <time>2017-06-08T16:23:03Z</time>
      </trkpt>
      <trkpt lat="44.08107" lon="6.9306">
        <ele>1782</ele>
        <time>2017-06-08T16:23:03Z</time>
      </trkpt>
      <trkpt lat="44.08109" lon="6.93053">
        <ele>1782</ele>
        <time>2017-06-08T16:23:03Z</time>
      </trkpt>
      <trkpt lat="44.08111" lon="6.93049">
        <ele>1782</ele>
        <time>2017-06-08T16:23:03Z</time>
      </trkpt>
      <trkpt lat="44.08113" lon="6.93042">
        <ele>1776</ele>
        <time>2017-06-08T16:23:20Z</time>
      </trkpt>
      <trkpt lat="44.08117" lon="6.93038">
        <ele>1776</ele>
        <time>2017-06-08T16:23:20Z</time>
      </trkpt>
      <trkpt lat="44.08119" lon="6.93028">
        <ele>1776</ele>
        <time>2017-06-08T16:23:20Z</time>
      </trkpt>
      <trkpt lat="44.08121" lon="6.93025">
        <ele>1776</ele>
        <time>2017-06-08T16:23:20Z</time>
      </trkpt>
      <trkpt lat="44.08121" lon="6.93025">
        <ele>1776</ele>
        <time>2017-06-08T16:23:36Z</time>
      </trkpt>
      <trkpt lat="44.08126" lon="6.93015">
        <ele>1789</ele>
        <time>2017-06-08T16:23:36Z</time>
      </trkpt>
      <trkpt lat="44.08126" lon="6.93013">
        <ele>1783</ele>
        <time>2017-06-08T16:23:36Z</time>
      </trkpt>
      <trkpt lat="44.08128" lon="6.93007">
        <ele>1783</ele>
        <time>2017-06-08T16:23:36Z</time>
      </trkpt>
      <trkpt lat="44.08129" lon="6.93007">
        <ele>1783</ele>
        <time>2017-06-08T16:25:51Z</time>
      </trkpt>
      <trkpt lat="44.08132" lon="6.93002">
        <ele>1783</ele>
        <time>2017-06-08T16:25:51Z</time>
      </trkpt>
      <trkpt lat="44.08133" lon="6.92999">
        <ele>1783</ele>
        <time>2017-06-08T16:25:51Z</time>
      </trkpt>
      <trkpt lat="44.08135" lon="6.92995">
        <ele>1783</ele>
        <time>2017-06-08T16:25:51Z</time>
      </trkpt>
      <trkpt lat="44.08136" lon="6.92992">
        <ele>1783</ele>
        <time>2017-06-08T16:25:51Z</time>
      </trkpt>
      <trkpt lat="44.08139" lon="6.92986">
        <ele>1775</ele>
        <time>2017-06-08T16:26:08Z</time>
      </trkpt>
      <trkpt lat="44.08141" lon="6.92979">
        <ele>1775</ele>
        <time>2017-06-08T16:26:08Z</time>
      </trkpt>
      <trkpt lat="44.08145" lon="6.92969">
        <ele>1775</ele>
        <time>2017-06-08T16:26:09Z</time>
      </trkpt>
      <trkpt lat="44.08148" lon="6.92963">
        <ele>1775</ele>
        <time>2017-06-08T16:26:09Z</time>
      </trkpt>
      <trkpt lat="44.08149" lon="6.92961">
        <ele>1775</ele>
        <time>2017-06-08T16:26:25Z</time>
      </trkpt>
      <trkpt lat="44.08154" lon="6.92956">
        <ele>1782</ele>
        <time>2017-06-08T16:26:25Z</time>
      </trkpt>
      <trkpt lat="44.08156" lon="6.92953">
        <ele>1782</ele>
        <time>2017-06-08T16:26:25Z</time>
      </trkpt>
      <trkpt lat="44.0816" lon="6.92946">
        <ele>1782</ele>
        <time>2017-06-08T16:26:25Z</time>
      </trkpt>
      <trkpt lat="44.08161" lon="6.92944">
        <ele>1782</ele>
        <time>2017-06-08T16:26:41Z</time>
      </trkpt>
      <trkpt lat="44.08165" lon="6.92933">
        <ele>1782</ele>
        <time>2017-06-08T16:26:41Z</time>
      </trkpt>
      <trkpt lat="44.08168" lon="6.92928">
        <ele>1776</ele>
        <time>2017-06-08T16:26:41Z</time>
      </trkpt>
      <trkpt lat="44.08172" lon="6.92923">
        <ele>1776</ele>
        <time>2017-06-08T16:26:42Z</time>
      </trkpt>
      <trkpt lat="44.08173" lon="6.92921">
        <ele>1776</ele>
        <time>2017-06-08T16:26:57Z</time>
      </trkpt>
      <trkpt lat="44.0818" lon="6.92914">
        <ele>1776</ele>
        <time>2017-06-08T16:26:57Z</time>
      </trkpt>
      <trkpt lat="44.08182" lon="6.92908">
        <ele>1787</ele>
        <time>2017-06-08T16:26:57Z</time>
      </trkpt>
      <trkpt lat="44.08187" lon="6.92904">
        <ele>1787</ele>
        <time>2017-06-08T16:26:57Z</time>
      </trkpt>
      <trkpt lat="44.08187" lon="6.92904">
        <ele>1787</ele>
        <time>2017-06-08T16:27:12Z</time>
      </trkpt>
      <trkpt lat="44.0819" lon="6.92897">
        <ele>1780</ele>
        <time>2017-06-08T16:27:12Z</time>
      </trkpt>
      <trkpt lat="44.08195" lon="6.92891">
        <ele>1780</ele>
        <time>2017-06-08T16:27:13Z</time>
      </trkpt>
      <trkpt lat="44.08197" lon="6.92889">
        <ele>1780</ele>
        <time>2017-06-08T16:27:13Z</time>
      </trkpt>
      <trkpt lat="44.08198" lon="6.92887">
        <ele>1780</ele>
        <time>2017-06-08T16:27:28Z</time>
      </trkpt>
      <trkpt lat="44.08202" lon="6.92878">
        <ele>1780</ele>
        <time>2017-06-08T16:27:28Z</time>
      </trkpt>
      <trkpt lat="44.08205" lon="6.92872">
        <ele>1770</ele>
        <time>2017-06-08T16:27:28Z</time>
      </trkpt>
      <trkpt lat="44.08208" lon="6.92868">
        <ele>1770</ele>
        <time>2017-06-08T16:27:28Z</time>
      </trkpt>
      <trkpt lat="44.08209" lon="6.92866">
        <ele>1784</ele>
        <time>2017-06-08T16:27:43Z</time>
      </trkpt>
      <trkpt lat="44.08213" lon="6.92856">
        <ele>1784</ele>
        <time>2017-06-08T16:27:43Z</time>
      </trkpt>
      <trkpt lat="44.08218" lon="6.92848">
        <ele>1784</ele>
        <time>2017-06-08T16:27:43Z</time>
      </trkpt>
      <trkpt lat="44.08218" lon="6.92846">
        <ele>1778</ele>
        <time>2017-06-08T16:27:43Z</time>
      </trkpt>
      <trkpt lat="44.08222" lon="6.92843">
        <ele>1778</ele>
        <time>2017-06-08T16:28:00Z</time>
      </trkpt>
      <trkpt lat="44.08224" lon="6.92835">
        <ele>1778</ele>
        <time>2017-06-08T16:28:00Z</time>
      </trkpt>
      <trkpt lat="44.08226" lon="6.92829">
        <ele>1778</ele>
        <time>2017-06-08T16:28:00Z</time>
      </trkpt>
      <trkpt lat="44.08227" lon="6.92823">
        <ele>1778</ele>
        <time>2017-06-08T16:28:00Z</time>
      </trkpt>
      <trkpt lat="44.08229" lon="6.92818">
        <ele>1774</ele>
        <time>2017-06-08T16:28:17Z</time>
      </trkpt>
      <trkpt lat="44.08233" lon="6.92812">
        <ele>1774</ele>
        <time>2017-06-08T16:28:17Z</time>
      </trkpt>
      <trkpt lat="44.08233" lon="6.92811">
        <ele>1774</ele>
        <time>2017-06-08T16:28:18Z</time>
      </trkpt>
      <trkpt lat="44.08239" lon="6.92802">
        <ele>1786</ele>
        <time>2017-06-08T16:28:18Z</time>
      </trkpt>
      <trkpt lat="44.08242" lon="6.92792">
        <ele>1786</ele>
        <time>2017-06-08T16:28:35Z</time>
      </trkpt>
      <trkpt lat="44.08243" lon="6.92784">
        <ele>1781</ele>
        <time>2017-06-08T16:28:35Z</time>
      </trkpt>
      <trkpt lat="44.08243" lon="6.92778">
        <ele>1781</ele>
        <time>2017-06-08T16:28:35Z</time>
      </trkpt>
      <trkpt lat="44.08244" lon="6.9277">
        <ele>1781</ele>
        <time>2017-06-08T16:28:35Z</time>
      </trkpt>
      <trkpt lat="44.08246" lon="6.92762">
        <ele>1775</ele>
        <time>2017-06-08T16:28:51Z</time>
      </trkpt>
      <trkpt lat="44.08247" lon="6.92754">
        <ele>1775</ele>
        <time>2017-06-08T16:28:51Z</time>
      </trkpt>
      <trkpt lat="44.08249" lon="6.92743">
        <ele>1775</ele>
        <time>2017-06-08T16:28:51Z</time>
      </trkpt>
      <trkpt lat="44.0825" lon="6.92738">
        <ele>1775</ele>
        <time>2017-06-08T16:28:51Z</time>
      </trkpt>
      <trkpt lat="44.08251" lon="6.92733">
        <ele>1768</ele>
        <time>2017-06-08T16:29:08Z</time>
      </trkpt>
      <trkpt lat="44.08254" lon="6.92722">
        <ele>1768</ele>
        <time>2017-06-08T16:29:08Z</time>
      </trkpt>
      <trkpt lat="44.08256" lon="6.92719">
        <ele>1768</ele>
        <time>2017-06-08T16:29:08Z</time>
      </trkpt>
      <trkpt lat="44.08259" lon="6.92712">
        <ele>1768</ele>
        <time>2017-06-08T16:29:08Z</time>
      </trkpt>
      <trkpt lat="44.0826" lon="6.92711">
        <ele>1768</ele>
        <time>2017-06-08T16:29:24Z</time>
      </trkpt>
      <trkpt lat="44.08265" lon="6.92706">
        <ele>1771</ele>
        <time>2017-06-08T16:29:24Z</time>
      </trkpt>
      <trkpt lat="44.08269" lon="6.92696">
        <ele>1771</ele>
        <time>2017-06-08T16:29:25Z</time>
      </trkpt>
      <trkpt lat="44.08271" lon="6.92692">
        <ele>1771</ele>
        <time>2017-06-08T16:29:25Z</time>
      </trkpt>
      <trkpt lat="44.08272" lon="6.92689">
        <ele>1771</ele>
        <time>2017-06-08T16:29:41Z</time>
      </trkpt>
      <trkpt lat="44.08276" lon="6.92681">
        <ele>1771</ele>
        <time>2017-06-08T16:29:41Z</time>
      </trkpt>
      <trkpt lat="44.08279" lon="6.92678">
        <ele>1764</ele>
        <time>2017-06-08T16:29:41Z</time>
      </trkpt>
      <trkpt lat="44.08285" lon="6.92675">
        <ele>1764</ele>
        <time>2017-06-08T16:29:42Z</time>
      </trkpt>
      <trkpt lat="44.08291" lon="6.92668">
        <ele>1764</ele>
        <time>2017-06-08T16:29:59Z</time>
      </trkpt>
      <trkpt lat="44.08295" lon="6.92665">
        <ele>1773</ele>
        <time>2017-06-08T16:29:59Z</time>
      </trkpt>
      <trkpt lat="44.083" lon="6.92656">
        <ele>1773</ele>
        <time>2017-06-08T16:29:59Z</time>
      </trkpt>
      <trkpt lat="44.08302" lon="6.92654">
        <ele>1773</ele>
        <time>2017-06-08T16:29:59Z</time>
      </trkpt>
      <trkpt lat="44.08304" lon="6.9265">
        <ele>1765</ele>
        <time>2017-06-08T16:30:17Z</time>
      </trkpt>
      <trkpt lat="44.08308" lon="6.92642">
        <ele>1765</ele>
        <time>2017-06-08T16:30:17Z</time>
      </trkpt>
      <trkpt lat="44.0831" lon="6.92641">
        <ele>1765</ele>
        <time>2017-06-08T16:30:17Z</time>
      </trkpt>
      <trkpt lat="44.08316" lon="6.92634">
        <ele>1765</ele>
        <time>2017-06-08T16:30:17Z</time>
      </trkpt>
      <trkpt lat="44.08316" lon="6.92634">
        <ele>1765</ele>
        <time>2017-06-08T16:30:32Z</time>
      </trkpt>
      <trkpt lat="44.08319" lon="6.92633">
        <ele>1765</ele>
        <time>2017-06-08T16:30:32Z</time>
      </trkpt>
      <trkpt lat="44.08326" lon="6.92628">
        <ele>1773</ele>
        <time>2017-06-08T16:30:32Z</time>
      </trkpt>
      <trkpt lat="44.08328" lon="6.92624">
        <ele>1765</ele>
        <time>2017-06-08T16:30:32Z</time>
      </trkpt>
      <trkpt lat="44.08329" lon="6.92622">
        <ele>1765</ele>
        <time>2017-06-08T16:30:48Z</time>
      </trkpt>
      <trkpt lat="44.08338" lon="6.92615">
        <ele>1765</ele>
        <time>2017-06-08T16:30:48Z</time>
      </trkpt>
      <trkpt lat="44.08341" lon="6.92611">
        <ele>1765</ele>
        <time>2017-06-08T16:30:48Z</time>
      </trkpt>
      <trkpt lat="44.08343" lon="6.92609">
        <ele>1765</ele>
        <time>2017-06-08T16:30:48Z</time>
      </trkpt>
      <trkpt lat="44.08344" lon="6.92608">
        <ele>1765</ele>
        <time>2017-06-08T16:31:03Z</time>
      </trkpt>
      <trkpt lat="44.08351" lon="6.92602">
        <ele>1771</ele>
        <time>2017-06-08T16:31:03Z</time>
      </trkpt>
      <trkpt lat="44.08353" lon="6.92598">
        <ele>1771</ele>
        <time>2017-06-08T16:31:03Z</time>
      </trkpt>
      <trkpt lat="44.08356" lon="6.92596">
        <ele>1766</ele>
        <time>2017-06-08T16:31:03Z</time>
      </trkpt>
      <trkpt lat="44.08357" lon="6.92588">
        <ele>1766</ele>
        <time>2017-06-08T16:31:20Z</time>
      </trkpt>
      <trkpt lat="44.08362" lon="6.92579">
        <ele>1766</ele>
        <time>2017-06-08T16:31:20Z</time>
      </trkpt>
      <trkpt lat="44.08362" lon="6.92576">
        <ele>1766</ele>
        <time>2017-06-08T16:31:21Z</time>
      </trkpt>
      <trkpt lat="44.08363" lon="6.92573">
        <ele>1766</ele>
        <time>2017-06-08T16:31:21Z</time>
      </trkpt>
      <trkpt lat="44.08364" lon="6.9257">
        <ele>1766</ele>
        <time>2017-06-08T16:31:37Z</time>
      </trkpt>
      <trkpt lat="44.0837" lon="6.92556">
        <ele>1758</ele>
        <time>2017-06-08T16:31:37Z</time>
      </trkpt>
      <trkpt lat="44.08371" lon="6.92556">
        <ele>1758</ele>
        <time>2017-06-08T16:31:37Z</time>
      </trkpt>
      <trkpt lat="44.08373" lon="6.9255">
        <ele>1758</ele>
        <time>2017-06-08T16:31:37Z</time>
      </trkpt>
      <trkpt lat="44.08377" lon="6.92536">
        <ele>1760</ele>
        <time>2017-06-08T16:31:55Z</time>
      </trkpt>
      <trkpt lat="44.08378" lon="6.92533">
        <ele>1760</ele>
        <time>2017-06-08T16:31:55Z</time>
      </trkpt>
      <trkpt lat="44.08382" lon="6.92528">
        <ele>1760</ele>
        <time>2017-06-08T16:31:55Z</time>
      </trkpt>
      <trkpt lat="44.08383" lon="6.92522">
        <ele>1760</ele>
        <time>2017-06-08T16:31:55Z</time>
      </trkpt>
      <trkpt lat="44.08384" lon="6.92516">
        <ele>1760</ele>
        <time>2017-06-08T16:32:11Z</time>
      </trkpt>
      <trkpt lat="44.08387" lon="6.92503">
        <ele>1756</ele>
        <time>2017-06-08T16:32:11Z</time>
      </trkpt>
      <trkpt lat="44.08389" lon="6.925">
        <ele>1756</ele>
        <time>2017-06-08T16:32:11Z</time>
      </trkpt>
      <trkpt lat="44.08392" lon="6.92493">
        <ele>1756</ele>
        <time>2017-06-08T16:32:11Z</time>
      </trkpt>
      <trkpt lat="44.08395" lon="6.92493">
        <ele>1756</ele>
        <time>2017-06-08T16:32:29Z</time>
      </trkpt>
      <trkpt lat="44.084" lon="6.92485">
        <ele>1753</ele>
        <time>2017-06-08T16:32:29Z</time>
      </trkpt>
      <trkpt lat="44.08404" lon="6.92483">
        <ele>1761</ele>
        <time>2017-06-08T16:32:29Z</time>
      </trkpt>
      <trkpt lat="44.08409" lon="6.92479">
        <ele>1761</ele>
        <time>2017-06-08T16:32:29Z</time>
      </trkpt>
      <trkpt lat="44.0841" lon="6.92479">
        <ele>1761</ele>
        <time>2017-06-08T16:32:47Z</time>
      </trkpt>
      <trkpt lat="44.08415" lon="6.92478">
        <ele>1761</ele>
        <time>2017-06-08T16:32:47Z</time>
      </trkpt>
      <trkpt lat="44.08417" lon="6.92478">
        <ele>1761</ele>
        <time>2017-06-08T16:32:47Z</time>
      </trkpt>
      <trkpt lat="44.08418" lon="6.92476">
        <ele>1761</ele>
        <time>2017-06-08T16:32:47Z</time>
      </trkpt>
      <trkpt lat="44.08424" lon="6.92471">
        <ele>1761</ele>
        <time>2017-06-08T16:32:47Z</time>
      </trkpt>
      <trkpt lat="44.08437" lon="6.92459">
        <ele>1765</ele>
        <time>2017-06-08T16:33:21Z</time>
      </trkpt>
      <trkpt lat="44.08439" lon="6.92459">
        <ele>1765</ele>
        <time>2017-06-08T16:33:21Z</time>
      </trkpt>
      <trkpt lat="44.08441" lon="6.92459">
        <ele>1765</ele>
        <time>2017-06-08T16:33:21Z</time>
      </trkpt>
      <trkpt lat="44.08442" lon="6.92456">
        <ele>1759</ele>
        <time>2017-06-08T16:33:22Z</time>
      </trkpt>
      <trkpt lat="44.08446" lon="6.92462">
        <ele>1765</ele>
        <time>2017-06-08T16:33:22Z</time>
      </trkpt>
      <trkpt lat="44.08456" lon="6.92462">
        <ele>1765</ele>
        <time>2017-06-08T16:33:52Z</time>
      </trkpt>
      <trkpt lat="44.08461" lon="6.92464">
        <ele>1767</ele>
        <time>2017-06-08T16:33:52Z</time>
      </trkpt>
      <trkpt lat="44.08463" lon="6.92464">
        <ele>1767</ele>
        <time>2017-06-08T16:33:52Z</time>
      </trkpt>
      <trkpt lat="44.08466" lon="6.92465">
        <ele>1767</ele>
        <time>2017-06-08T16:33:53Z</time>
      </trkpt>
      <trkpt lat="44.0847" lon="6.92464">
        <ele>1767</ele>
        <time>2017-06-08T16:33:53Z</time>
      </trkpt>
      <trkpt lat="44.08471" lon="6.92465">
        <ele>1767</ele>
        <time>2017-06-08T16:34:08Z</time>
      </trkpt>
      <trkpt lat="44.08476" lon="6.92461">
        <ele>1767</ele>
        <time>2017-06-08T16:34:08Z</time>
      </trkpt>
      <trkpt lat="44.08479" lon="6.92451">
        <ele>1760</ele>
        <time>2017-06-08T16:34:08Z</time>
      </trkpt>
      <trkpt lat="44.08483" lon="6.92447">
        <ele>1760</ele>
        <time>2017-06-08T16:34:08Z</time>
      </trkpt>
      <trkpt lat="44.08483" lon="6.92446">
        <ele>1760</ele>
        <time>2017-06-08T16:34:24Z</time>
      </trkpt>
      <trkpt lat="44.08486" lon="6.92443">
        <ele>1758</ele>
        <time>2017-06-08T16:34:24Z</time>
      </trkpt>
      <trkpt lat="44.08492" lon="6.92437">
        <ele>1758</ele>
        <time>2017-06-08T16:34:24Z</time>
      </trkpt>
      <trkpt lat="44.08496" lon="6.92434">
        <ele>1758</ele>
        <time>2017-06-08T16:34:24Z</time>
      </trkpt>
      <trkpt lat="44.08496" lon="6.92433">
        <ele>1758</ele>
        <time>2017-06-08T16:34:41Z</time>
      </trkpt>
      <trkpt lat="44.08506" lon="6.92424">
        <ele>1749</ele>
        <time>2017-06-08T16:34:41Z</time>
      </trkpt>
      <trkpt lat="44.08506" lon="6.92424">
        <ele>1749</ele>
        <time>2017-06-08T16:34:41Z</time>
      </trkpt>
      <trkpt lat="44.08508" lon="6.92422">
        <ele>1749</ele>
        <time>2017-06-08T16:34:42Z</time>
      </trkpt>
      <trkpt lat="44.0851" lon="6.92424">
        <ele>1749</ele>
        <time>2017-06-08T16:35:05Z</time>
      </trkpt>
      <trkpt lat="44.08511" lon="6.92423">
        <ele>1749</ele>
        <time>2017-06-08T16:35:05Z</time>
      </trkpt>
      <trkpt lat="44.08512" lon="6.92422">
        <ele>1749</ele>
        <time>2017-06-08T16:35:05Z</time>
      </trkpt>
      <trkpt lat="44.08514" lon="6.92419">
        <ele>1749</ele>
        <time>2017-06-08T16:35:05Z</time>
      </trkpt>
      <trkpt lat="44.08518" lon="6.92419">
        <ele>1749</ele>
        <time>2017-06-08T16:35:05Z</time>
      </trkpt>
      <trkpt lat="44.08519" lon="6.92419">
        <ele>1749</ele>
        <time>2017-06-08T16:35:21Z</time>
      </trkpt>
      <trkpt lat="44.08523" lon="6.92416">
        <ele>1749</ele>
        <time>2017-06-08T16:35:21Z</time>
      </trkpt>
      <trkpt lat="44.08527" lon="6.92415">
        <ele>1749</ele>
        <time>2017-06-08T16:35:21Z</time>
      </trkpt>
      <trkpt lat="44.08528" lon="6.92415">
        <ele>1749</ele>
        <time>2017-06-08T16:35:21Z</time>
      </trkpt>
      <trkpt lat="44.08528" lon="6.92416">
        <ele>1749</ele>
        <time>2017-06-08T16:35:36Z</time>
      </trkpt>
      <trkpt lat="44.08533" lon="6.92411">
        <ele>1749</ele>
        <time>2017-06-08T16:35:36Z</time>
      </trkpt>
      <trkpt lat="44.08535" lon="6.92409">
        <ele>1749</ele>
        <time>2017-06-08T16:35:37Z</time>
      </trkpt>
      <trkpt lat="44.08539" lon="6.92407">
        <ele>1749</ele>
        <time>2017-06-08T16:35:37Z</time>
      </trkpt>
      <trkpt lat="44.08539" lon="6.92406">
        <ele>1749</ele>
        <time>2017-06-08T16:35:52Z</time>
      </trkpt>
      <trkpt lat="44.08549" lon="6.924">
        <ele>1747</ele>
        <time>2017-06-08T16:35:52Z</time>
      </trkpt>
      <trkpt lat="44.08552" lon="6.92398">
        <ele>1747</ele>
        <time>2017-06-08T16:35:52Z</time>
      </trkpt>
      <trkpt lat="44.08559" lon="6.92395">
        <ele>1747</ele>
        <time>2017-06-08T16:35:52Z</time>
      </trkpt>
      <trkpt lat="44.0856" lon="6.92394">
        <ele>1747</ele>
        <time>2017-06-08T16:36:08Z</time>
      </trkpt>
      <trkpt lat="44.08566" lon="6.92387">
        <ele>1747</ele>
        <time>2017-06-08T16:36:08Z</time>
      </trkpt>
      <trkpt lat="44.08571" lon="6.92386">
        <ele>1754</ele>
        <time>2017-06-08T16:36:08Z</time>
      </trkpt>
      <trkpt lat="44.08575" lon="6.92387">
        <ele>1754</ele>
        <time>2017-06-08T16:36:08Z</time>
      </trkpt>
      <trkpt lat="44.08581" lon="6.92384">
        <ele>1754</ele>
        <time>2017-06-08T16:36:36Z</time>
      </trkpt>
      <trkpt lat="44.08583" lon="6.9238">
        <ele>1754</ele>
        <time>2017-06-08T16:36:36Z</time>
      </trkpt>
      <trkpt lat="44.0859" lon="6.92374">
        <ele>1754</ele>
        <time>2017-06-08T16:36:36Z</time>
      </trkpt>
      <trkpt lat="44.08597" lon="6.92368">
        <ele>1754</ele>
        <time>2017-06-08T16:36:36Z</time>
      </trkpt>
      <trkpt lat="44.086" lon="6.92365">
        <ele>1758</ele>
        <time>2017-06-08T16:36:36Z</time>
      </trkpt>
      <trkpt lat="44.08603" lon="6.92364">
        <ele>1758</ele>
        <time>2017-06-08T16:36:51Z</time>
      </trkpt>
      <trkpt lat="44.08609" lon="6.9236">
        <ele>1758</ele>
        <time>2017-06-08T16:36:52Z</time>
      </trkpt>
      <trkpt lat="44.0861" lon="6.9236">
        <ele>1758</ele>
        <time>2017-06-08T16:36:52Z</time>
      </trkpt>
      <trkpt lat="44.08612" lon="6.92358">
        <ele>1758</ele>
        <time>2017-06-08T16:36:52Z</time>
      </trkpt>
      <trkpt lat="44.08615" lon="6.92358">
        <ele>1758</ele>
        <time>2017-06-08T16:37:09Z</time>
      </trkpt>
      <trkpt lat="44.08622" lon="6.92352">
        <ele>1758</ele>
        <time>2017-06-08T16:37:09Z</time>
      </trkpt>
      <trkpt lat="44.08627" lon="6.92351">
        <ele>1759</ele>
        <time>2017-06-08T16:37:09Z</time>
      </trkpt>
      <trkpt lat="44.0863" lon="6.92348">
        <ele>1759</ele>
        <time>2017-06-08T16:37:09Z</time>
      </trkpt>
      <trkpt lat="44.08634" lon="6.92338">
        <ele>1758</ele>
        <time>2017-06-08T16:41:08Z</time>
      </trkpt>
      <trkpt lat="44.08634" lon="6.92338">
        <ele>1758</ele>
        <time>2017-06-08T16:41:08Z</time>
      </trkpt>
      <trkpt lat="44.08634" lon="6.92338">
        <ele>1758</ele>
        <time>2017-06-08T16:41:08Z</time>
      </trkpt>
      <trkpt lat="44.08634" lon="6.92338">
        <ele>1758</ele>
        <time>2017-06-08T16:41:08Z</time>
      </trkpt>
      <trkpt lat="44.08635" lon="6.92336">
        <ele>1758</ele>
        <time>2017-06-08T16:41:08Z</time>
      </trkpt>
      <trkpt lat="44.08639" lon="6.92331">
        <ele>1758</ele>
        <time>2017-06-08T16:41:49Z</time>
      </trkpt>
      <trkpt lat="44.08637" lon="6.9233">
        <ele>1758</ele>
        <time>2017-06-08T16:41:49Z</time>
      </trkpt>
      <trkpt lat="44.08637" lon="6.92328">
        <ele>1758</ele>
        <time>2017-06-08T16:41:49Z</time>
      </trkpt>
      <trkpt lat="44.08632" lon="6.92326">
        <ele>1758</ele>
        <time>2017-06-08T16:41:50Z</time>
      </trkpt>
      <trkpt lat="44.08632" lon="6.92325">
        <ele>1758</ele>
        <time>2017-06-08T16:41:50Z</time>
      </trkpt>
      <trkpt lat="44.08632" lon="6.92322">
        <ele>1758</ele>
        <time>2017-06-08T16:42:20Z</time>
      </trkpt>
      <trkpt lat="44.08634" lon="6.92316">
        <ele>1752</ele>
        <time>2017-06-08T16:42:21Z</time>
      </trkpt>
      <trkpt lat="44.08634" lon="6.92316">
        <ele>1752</ele>
        <time>2017-06-08T16:42:21Z</time>
      </trkpt>
      <trkpt lat="44.08636" lon="6.92308">
        <ele>1752</ele>
        <time>2017-06-08T16:42:22Z</time>
      </trkpt>
      <trkpt lat="44.08637" lon="6.92304">
        <ele>1752</ele>
        <time>2017-06-08T16:42:22Z</time>
      </trkpt>
      <trkpt lat="44.08638" lon="6.92304">
        <ele>1752</ele>
        <time>2017-06-08T16:42:36Z</time>
      </trkpt>
      <trkpt lat="44.08644" lon="6.92299">
        <ele>1752</ele>
        <time>2017-06-08T16:42:36Z</time>
      </trkpt>
      <trkpt lat="44.08644" lon="6.92292">
        <ele>1752</ele>
        <time>2017-06-08T16:42:36Z</time>
      </trkpt>
      <trkpt lat="44.08645" lon="6.92287">
        <ele>1744</ele>
        <time>2017-06-08T16:42:36Z</time>
      </trkpt>
      <trkpt lat="44.08646" lon="6.92286">
        <ele>1744</ele>
        <time>2017-06-08T16:42:56Z</time>
      </trkpt>
      <trkpt lat="44.08645" lon="6.9228">
        <ele>1744</ele>
        <time>2017-06-08T16:42:56Z</time>
      </trkpt>
      <trkpt lat="44.08647" lon="6.9228">
        <ele>1744</ele>
        <time>2017-06-08T16:42:56Z</time>
      </trkpt>
      <trkpt lat="44.08649" lon="6.92279">
        <ele>1744</ele>
        <time>2017-06-08T16:42:56Z</time>
      </trkpt>
      <trkpt lat="44.08655" lon="6.92277">
        <ele>1745</ele>
        <time>2017-06-08T16:42:57Z</time>
      </trkpt>
      <trkpt lat="44.08656" lon="6.92273">
        <ele>1745</ele>
        <time>2017-06-08T16:43:41Z</time>
      </trkpt>
      <trkpt lat="44.08656" lon="6.92272">
        <ele>1745</ele>
        <time>2017-06-08T16:43:41Z</time>
      </trkpt>
      <trkpt lat="44.08658" lon="6.92274">
        <ele>1745</ele>
        <time>2017-06-08T16:43:41Z</time>
      </trkpt>
      <trkpt lat="44.0866" lon="6.92273">
        <ele>1745</ele>
        <time>2017-06-08T16:43:41Z</time>
      </trkpt>
      <trkpt lat="44.08667" lon="6.92274">
        <ele>1745</ele>
        <time>2017-06-08T16:43:41Z</time>
      </trkpt>
      <trkpt lat="44.08667" lon="6.92273">
        <ele>1745</ele>
        <time>2017-06-08T16:43:56Z</time>
      </trkpt>
      <trkpt lat="44.08674" lon="6.92276">
        <ele>1745</ele>
        <time>2017-06-08T16:43:57Z</time>
      </trkpt>
      <trkpt lat="44.08683" lon="6.92276">
        <ele>1742</ele>
        <time>2017-06-08T16:43:58Z</time>
      </trkpt>
      <trkpt lat="44.08688" lon="6.92277">
        <ele>1742</ele>
        <time>2017-06-08T16:43:58Z</time>
      </trkpt>
      <trkpt lat="44.08692" lon="6.92278">
        <ele>1742</ele>
        <time>2017-06-08T16:44:11Z</time>
      </trkpt>
      <trkpt lat="44.08697" lon="6.92275">
        <ele>1742</ele>
        <time>2017-06-08T16:44:11Z</time>
      </trkpt>
      <trkpt lat="44.08701" lon="6.92277">
        <ele>1742</ele>
        <time>2017-06-08T16:44:11Z</time>
      </trkpt>
      <trkpt lat="44.08702" lon="6.92278">
        <ele>1742</ele>
        <time>2017-06-08T16:44:11Z</time>
      </trkpt>
      <trkpt lat="44.08706" lon="6.92281">
        <ele>1742</ele>
        <time>2017-06-08T16:44:32Z</time>
      </trkpt>
      <trkpt lat="44.08708" lon="6.92282">
        <ele>1742</ele>
        <time>2017-06-08T16:44:32Z</time>
      </trkpt>
      <trkpt lat="44.08711" lon="6.92282">
        <ele>1738</ele>
        <time>2017-06-08T16:44:32Z</time>
      </trkpt>
      <trkpt lat="44.08713" lon="6.92284">
        <ele>1738</ele>
        <time>2017-06-08T16:44:32Z</time>
      </trkpt>
      <trkpt lat="44.08719" lon="6.92286">
        <ele>1738</ele>
        <time>2017-06-08T16:44:32Z</time>
      </trkpt>
      <trkpt lat="44.08718" lon="6.92287">
        <ele>1738</ele>
        <time>2017-06-08T16:44:49Z</time>
      </trkpt>
      <trkpt lat="44.08728" lon="6.92292">
        <ele>1738</ele>
        <time>2017-06-08T16:44:49Z</time>
      </trkpt>
      <trkpt lat="44.08732" lon="6.92294">
        <ele>1746</ele>
        <time>2017-06-08T16:44:49Z</time>
      </trkpt>
      <trkpt lat="44.08738" lon="6.92299">
        <ele>1747</ele>
        <time>2017-06-08T16:44:49Z</time>
      </trkpt>
      <trkpt lat="44.08739" lon="6.923">
        <ele>1747</ele>
        <time>2017-06-08T16:45:03Z</time>
      </trkpt>
      <trkpt lat="44.08747" lon="6.92302">
        <ele>1747</ele>
        <time>2017-06-08T16:45:03Z</time>
      </trkpt>
      <trkpt lat="44.08749" lon="6.92305">
        <ele>1747</ele>
        <time>2017-06-08T16:45:03Z</time>
      </trkpt>
      <trkpt lat="44.08753" lon="6.92306">
        <ele>1747</ele>
        <time>2017-06-08T16:45:03Z</time>
      </trkpt>
      <trkpt lat="44.08764" lon="6.92311">
        <ele>1745</ele>
        <time>2017-06-08T16:45:25Z</time>
      </trkpt>
      <trkpt lat="44.08768" lon="6.92313">
        <ele>1745</ele>
        <time>2017-06-08T16:45:25Z</time>
      </trkpt>
      <trkpt lat="44.08772" lon="6.92313">
        <ele>1745</ele>
        <time>2017-06-08T16:45:25Z</time>
      </trkpt>
      <trkpt lat="44.08773" lon="6.92313">
        <ele>1745</ele>
        <time>2017-06-08T16:45:25Z</time>
      </trkpt>
      <trkpt lat="44.08776" lon="6.92314">
        <ele>1745</ele>
        <time>2017-06-08T16:45:25Z</time>
      </trkpt>
      <trkpt lat="44.08781" lon="6.9231">
        <ele>1745</ele>
        <time>2017-06-08T16:46:20Z</time>
      </trkpt>
      <trkpt lat="44.08783" lon="6.9231">
        <ele>1745</ele>
        <time>2017-06-08T16:46:20Z</time>
      </trkpt>
      <trkpt lat="44.08783" lon="6.92309">
        <ele>1745</ele>
        <time>2017-06-08T16:46:20Z</time>
      </trkpt>
      <trkpt lat="44.08789" lon="6.92312">
        <ele>1745</ele>
        <time>2017-06-08T16:46:21Z</time>
      </trkpt>
      <trkpt lat="44.08793" lon="6.92313">
        <ele>1741</ele>
        <time>2017-06-08T16:46:21Z</time>
      </trkpt>
      <trkpt lat="44.08795" lon="6.92314">
        <ele>1741</ele>
        <time>2017-06-08T16:46:37Z</time>
      </trkpt>
      <trkpt lat="44.088" lon="6.92321">
        <ele>1746</ele>
        <time>2017-06-08T16:46:37Z</time>
      </trkpt>
      <trkpt lat="44.08802" lon="6.9232">
        <ele>1746</ele>
        <time>2017-06-08T16:46:37Z</time>
      </trkpt>
      <trkpt lat="44.08804" lon="6.9232">
        <ele>1746</ele>
        <time>2017-06-08T16:46:37Z</time>
      </trkpt>
      <trkpt lat="44.08807" lon="6.9232">
        <ele>1746</ele>
        <time>2017-06-08T16:46:53Z</time>
      </trkpt>
      <trkpt lat="44.08816" lon="6.92318">
        <ele>1741</ele>
        <time>2017-06-08T16:46:53Z</time>
      </trkpt>
      <trkpt lat="44.08819" lon="6.92319">
        <ele>1741</ele>
        <time>2017-06-08T16:46:53Z</time>
      </trkpt>
      <trkpt lat="44.08829" lon="6.92319">
        <ele>1737</ele>
        <time>2017-06-08T16:46:53Z</time>
      </trkpt>
      <trkpt lat="44.0883" lon="6.92317">
        <ele>1737</ele>
        <time>2017-06-08T16:47:07Z</time>
      </trkpt>
      <trkpt lat="44.08833" lon="6.92314">
        <ele>1737</ele>
        <time>2017-06-08T16:47:07Z</time>
      </trkpt>
      <trkpt lat="44.08839" lon="6.92312">
        <ele>1737</ele>
        <time>2017-06-08T16:47:07Z</time>
      </trkpt>
      <trkpt lat="44.08846" lon="6.92309">
        <ele>1737</ele>
        <time>2017-06-08T16:47:07Z</time>
      </trkpt>
      <trkpt lat="44.08854" lon="6.92305">
        <ele>1729</ele>
        <time>2017-06-08T16:47:25Z</time>
      </trkpt>
      <trkpt lat="44.08861" lon="6.92308">
        <ele>1729</ele>
        <time>2017-06-08T16:47:25Z</time>
      </trkpt>
      <trkpt lat="44.08863" lon="6.92309">
        <ele>1729</ele>
        <time>2017-06-08T16:47:26Z</time>
      </trkpt>
      <trkpt lat="44.08864" lon="6.92313">
        <ele>1729</ele>
        <time>2017-06-08T16:47:26Z</time>
      </trkpt>
      <trkpt lat="44.08863" lon="6.92313">
        <ele>1729</ele>
        <time>2017-06-08T16:47:40Z</time>
      </trkpt>
      <trkpt lat="44.08866" lon="6.92313">
        <ele>1729</ele>
        <time>2017-06-08T16:47:40Z</time>
      </trkpt>
      <trkpt lat="44.08869" lon="6.92316">
        <ele>1729</ele>
        <time>2017-06-08T16:47:40Z</time>
      </trkpt>
      <trkpt lat="44.08872" lon="6.92317">
        <ele>1729</ele>
        <time>2017-06-08T16:47:40Z</time>
      </trkpt>
      <trkpt lat="44.08873" lon="6.92318">
        <ele>1729</ele>
        <time>2017-06-08T16:47:57Z</time>
      </trkpt>
      <trkpt lat="44.08879" lon="6.92319">
        <ele>1726</ele>
        <time>2017-06-08T16:47:57Z</time>
      </trkpt>
      <trkpt lat="44.08881" lon="6.92318">
        <ele>1726</ele>
        <time>2017-06-08T16:47:57Z</time>
      </trkpt>
      <trkpt lat="44.0889" lon="6.92315">
        <ele>1726</ele>
        <time>2017-06-08T16:47:57Z</time>
      </trkpt>
      <trkpt lat="44.08891" lon="6.92314">
        <ele>1726</ele>
        <time>2017-06-08T16:48:12Z</time>
      </trkpt>
      <trkpt lat="44.08897" lon="6.92311">
        <ele>1726</ele>
        <time>2017-06-08T16:48:12Z</time>
      </trkpt>
      <trkpt lat="44.08902" lon="6.92308">
        <ele>1726</ele>
        <time>2017-06-08T16:48:12Z</time>
      </trkpt>
      <trkpt lat="44.08904" lon="6.92306">
        <ele>1725</ele>
        <time>2017-06-08T16:48:13Z</time>
      </trkpt>
      <trkpt lat="44.08908" lon="6.92305">
        <ele>1725</ele>
        <time>2017-06-08T16:48:29Z</time>
      </trkpt>
      <trkpt lat="44.0892" lon="6.92306">
        <ele>1725</ele>
        <time>2017-06-08T16:48:29Z</time>
      </trkpt>
      <trkpt lat="44.0892" lon="6.92308">
        <ele>1725</ele>
        <time>2017-06-08T16:48:29Z</time>
      </trkpt>
      <trkpt lat="44.08926" lon="6.92312">
        <ele>1725</ele>
        <time>2017-06-08T16:48:29Z</time>
      </trkpt>
      <trkpt lat="44.08932" lon="6.92314">
        <ele>1723</ele>
        <time>2017-06-08T16:48:53Z</time>
      </trkpt>
      <trkpt lat="44.08934" lon="6.92313">
        <ele>1723</ele>
        <time>2017-06-08T16:48:53Z</time>
      </trkpt>
      <trkpt lat="44.08936" lon="6.92313">
        <ele>1723</ele>
        <time>2017-06-08T16:48:53Z</time>
      </trkpt>
      <trkpt lat="44.08938" lon="6.92313">
        <ele>1723</ele>
        <time>2017-06-08T16:48:53Z</time>
      </trkpt>
      <trkpt lat="44.08942" lon="6.92311">
        <ele>1723</ele>
        <time>2017-06-08T16:48:53Z</time>
      </trkpt>
      <trkpt lat="44.08947" lon="6.92314">
        <ele>1723</ele>
        <time>2017-06-08T16:49:23Z</time>
      </trkpt>
      <trkpt lat="44.08947" lon="6.92315">
        <ele>1723</ele>
        <time>2017-06-08T16:49:23Z</time>
      </trkpt>
      <trkpt lat="44.08948" lon="6.92317">
        <ele>1723</ele>
        <time>2017-06-08T16:49:23Z</time>
      </trkpt>
      <trkpt lat="44.0895" lon="6.92317">
        <ele>1723</ele>
        <time>2017-06-08T16:49:23Z</time>
      </trkpt>
      <trkpt lat="44.08953" lon="6.92319">
        <ele>1723</ele>
        <time>2017-06-08T16:49:23Z</time>
      </trkpt>
      <trkpt lat="44.08958" lon="6.92322">
        <ele>1723</ele>
        <time>2017-06-08T16:49:41Z</time>
      </trkpt>
      <trkpt lat="44.08963" lon="6.92322">
        <ele>1723</ele>
        <time>2017-06-08T16:49:41Z</time>
      </trkpt>
      <trkpt lat="44.08967" lon="6.92323">
        <ele>1723</ele>
        <time>2017-06-08T16:49:41Z</time>
      </trkpt>
      <trkpt lat="44.0897" lon="6.92326">
        <ele>1723</ele>
        <time>2017-06-08T16:49:41Z</time>
      </trkpt>
      <trkpt lat="44.08972" lon="6.92326">
        <ele>1723</ele>
        <time>2017-06-08T16:49:57Z</time>
      </trkpt>
      <trkpt lat="44.08977" lon="6.92331">
        <ele>1723</ele>
        <time>2017-06-08T16:49:57Z</time>
      </trkpt>
      <trkpt lat="44.08983" lon="6.92332">
        <ele>1723</ele>
        <time>2017-06-08T16:49:57Z</time>
      </trkpt>
      <trkpt lat="44.08991" lon="6.92338">
        <ele>1716</ele>
        <time>2017-06-08T16:49:57Z</time>
      </trkpt>
      <trkpt lat="44.08993" lon="6.92339">
        <ele>1716</ele>
        <time>2017-06-08T16:50:12Z</time>
      </trkpt>
      <trkpt lat="44.09001" lon="6.92342">
        <ele>1716</ele>
        <time>2017-06-08T16:50:12Z</time>
      </trkpt>
      <trkpt lat="44.09007" lon="6.92344">
        <ele>1716</ele>
        <time>2017-06-08T16:50:12Z</time>
      </trkpt>
      <trkpt lat="44.09009" lon="6.92346">
        <ele>1716</ele>
        <time>2017-06-08T16:50:12Z</time>
      </trkpt>
      <trkpt lat="44.09009" lon="6.92347">
        <ele>1716</ele>
        <time>2017-06-08T16:50:29Z</time>
      </trkpt>
      <trkpt lat="44.09012" lon="6.92352">
        <ele>1719</ele>
        <time>2017-06-08T16:50:29Z</time>
      </trkpt>
      <trkpt lat="44.09014" lon="6.92354">
        <ele>1710</ele>
        <time>2017-06-08T16:50:29Z</time>
      </trkpt>
      <trkpt lat="44.09018" lon="6.92362">
        <ele>1710</ele>
        <time>2017-06-08T16:50:29Z</time>
      </trkpt>
      <trkpt lat="44.09022" lon="6.92366">
        <ele>1710</ele>
        <time>2017-06-08T16:50:45Z</time>
      </trkpt>
      <trkpt lat="44.09025" lon="6.92374">
        <ele>1710</ele>
        <time>2017-06-08T16:50:45Z</time>
      </trkpt>
      <trkpt lat="44.09027" lon="6.92378">
        <ele>1713</ele>
        <time>2017-06-08T16:50:45Z</time>
      </trkpt>
      <trkpt lat="44.09026" lon="6.92385">
        <ele>1713</ele>
        <time>2017-06-08T16:50:45Z</time>
      </trkpt>
      <trkpt lat="44.09027" lon="6.92386">
        <ele>1713</ele>
        <time>2017-06-08T16:51:00Z</time>
      </trkpt>
      <trkpt lat="44.09031" lon="6.92396">
        <ele>1713</ele>
        <time>2017-06-08T16:51:00Z</time>
      </trkpt>
      <trkpt lat="44.09035" lon="6.92397">
        <ele>1713</ele>
        <time>2017-06-08T16:51:00Z</time>
      </trkpt>
      <trkpt lat="44.09039" lon="6.92403">
        <ele>1713</ele>
        <time>2017-06-08T16:51:00Z</time>
      </trkpt>
      <trkpt lat="44.09036" lon="6.92405">
        <ele>1716</ele>
        <time>2017-06-08T16:51:17Z</time>
      </trkpt>
      <trkpt lat="44.09036" lon="6.92414">
        <ele>1716</ele>
        <time>2017-06-08T16:51:17Z</time>
      </trkpt>
      <trkpt lat="44.09036" lon="6.92421">
        <ele>1716</ele>
        <time>2017-06-08T16:51:17Z</time>
      </trkpt>
      <trkpt lat="44.09036" lon="6.92425">
        <ele>1716</ele>
        <time>2017-06-08T16:51:17Z</time>
      </trkpt>
      <trkpt lat="44.09036" lon="6.92427">
        <ele>1716</ele>
        <time>2017-06-08T16:51:33Z</time>
      </trkpt>
      <trkpt lat="44.09044" lon="6.92435">
        <ele>1706</ele>
        <time>2017-06-08T16:51:33Z</time>
      </trkpt>
      <trkpt lat="44.09048" lon="6.9244">
        <ele>1706</ele>
        <time>2017-06-08T16:51:33Z</time>
      </trkpt>
      <trkpt lat="44.09053" lon="6.92446">
        <ele>1706</ele>
        <time>2017-06-08T16:51:33Z</time>
      </trkpt>
      <trkpt lat="44.09052" lon="6.92447">
        <ele>1706</ele>
        <time>2017-06-08T16:51:48Z</time>
      </trkpt>
      <trkpt lat="44.09056" lon="6.92456">
        <ele>1706</ele>
        <time>2017-06-08T16:51:48Z</time>
      </trkpt>
      <trkpt lat="44.09055" lon="6.92462">
        <ele>1707</ele>
        <time>2017-06-08T16:51:49Z</time>
      </trkpt>
      <trkpt lat="44.09056" lon="6.92467">
        <ele>1707</ele>
        <time>2017-06-08T16:51:49Z</time>
      </trkpt>
      <trkpt lat="44.09057" lon="6.92468">
        <ele>1707</ele>
        <time>2017-06-08T16:52:04Z</time>
      </trkpt>
      <trkpt lat="44.09056" lon="6.92475">
        <ele>1707</ele>
        <time>2017-06-08T16:52:04Z</time>
      </trkpt>
      <trkpt lat="44.09057" lon="6.92481">
        <ele>1707</ele>
        <time>2017-06-08T16:52:04Z</time>
      </trkpt>
      <trkpt lat="44.0906" lon="6.92485">
        <ele>1707</ele>
        <time>2017-06-08T16:52:05Z</time>
      </trkpt>
      <trkpt lat="44.09061" lon="6.92485">
        <ele>1707</ele>
        <time>2017-06-08T16:52:24Z</time>
      </trkpt>
      <trkpt lat="44.09059" lon="6.92487">
        <ele>1711</ele>
        <time>2017-06-08T16:52:24Z</time>
      </trkpt>
      <trkpt lat="44.0906" lon="6.92489">
        <ele>1711</ele>
        <time>2017-06-08T16:52:24Z</time>
      </trkpt>
      <trkpt lat="44.09064" lon="6.92496">
        <ele>1711</ele>
        <time>2017-06-08T16:52:24Z</time>
      </trkpt>
      <trkpt lat="44.09063" lon="6.92499">
        <ele>1711</ele>
        <time>2017-06-08T16:52:24Z</time>
      </trkpt>
      <trkpt lat="44.09063" lon="6.92501">
        <ele>1711</ele>
        <time>2017-06-08T16:52:40Z</time>
      </trkpt>
      <trkpt lat="44.09075" lon="6.9251">
        <ele>1698</ele>
        <time>2017-06-08T16:52:40Z</time>
      </trkpt>
      <trkpt lat="44.09078" lon="6.92511">
        <ele>1698</ele>
        <time>2017-06-08T16:52:40Z</time>
      </trkpt>
      <trkpt lat="44.09081" lon="6.92511">
        <ele>1698</ele>
        <time>2017-06-08T16:52:41Z</time>
      </trkpt>
      <trkpt lat="44.09083" lon="6.92511">
        <ele>1698</ele>
        <time>2017-06-08T16:52:58Z</time>
      </trkpt>
      <trkpt lat="44.09089" lon="6.92519">
        <ele>1702</ele>
        <time>2017-06-08T16:52:58Z</time>
      </trkpt>
      <trkpt lat="44.09091" lon="6.9252">
        <ele>1702</ele>
        <time>2017-06-08T16:52:58Z</time>
      </trkpt>
      <trkpt lat="44.09095" lon="6.92521">
        <ele>1702</ele>
        <time>2017-06-08T16:52:58Z</time>
      </trkpt>
      <trkpt lat="44.09098" lon="6.92522">
        <ele>1700</ele>
        <time>2017-06-08T16:53:11Z</time>
      </trkpt>
      <trkpt lat="44.09097" lon="6.92528">
        <ele>1702</ele>
        <time>2017-06-08T16:53:11Z</time>
      </trkpt>
      <trkpt lat="44.09097" lon="6.92532">
        <ele>1702</ele>
        <time>2017-06-08T16:53:11Z</time>
      </trkpt>
      <trkpt lat="44.09105" lon="6.92535">
        <ele>1700</ele>
        <time>2017-06-08T16:53:11Z</time>
      </trkpt>
      <trkpt lat="44.09101" lon="6.92539">
        <ele>1700</ele>
        <time>2017-06-08T16:53:29Z</time>
      </trkpt>
      <trkpt lat="44.09102" lon="6.92545">
        <ele>1701</ele>
        <time>2017-06-08T16:53:29Z</time>
      </trkpt>
      <trkpt lat="44.09103" lon="6.92548">
        <ele>1701</ele>
        <time>2017-06-08T16:53:30Z</time>
      </trkpt>
      <trkpt lat="44.09104" lon="6.92553">
        <ele>1701</ele>
        <time>2017-06-08T16:53:30Z</time>
      </trkpt>
      <trkpt lat="44.09104" lon="6.92556">
        <ele>1701</ele>
        <time>2017-06-08T16:53:45Z</time>
      </trkpt>
      <trkpt lat="44.09107" lon="6.92561">
        <ele>1701</ele>
        <time>2017-06-08T16:53:45Z</time>
      </trkpt>
      <trkpt lat="44.09109" lon="6.92566">
        <ele>1701</ele>
        <time>2017-06-08T16:53:45Z</time>
      </trkpt>
      <trkpt lat="44.09112" lon="6.9257">
        <ele>1701</ele>
        <time>2017-06-08T16:53:45Z</time>
      </trkpt>
      <trkpt lat="44.09114" lon="6.92571">
        <ele>1701</ele>
        <time>2017-06-08T16:54:03Z</time>
      </trkpt>
      <trkpt lat="44.09117" lon="6.9258">
        <ele>1701</ele>
        <time>2017-06-08T16:54:03Z</time>
      </trkpt>
      <trkpt lat="44.09116" lon="6.92582">
        <ele>1701</ele>
        <time>2017-06-08T16:54:03Z</time>
      </trkpt>
      <trkpt lat="44.09117" lon="6.92592">
        <ele>1701</ele>
        <time>2017-06-08T16:54:03Z</time>
      </trkpt>
      <trkpt lat="44.09116" lon="6.92596">
        <ele>1701</ele>
        <time>2017-06-08T16:54:20Z</time>
      </trkpt>
      <trkpt lat="44.09117" lon="6.92604">
        <ele>1702</ele>
        <time>2017-06-08T16:54:20Z</time>
      </trkpt>
      <trkpt lat="44.09118" lon="6.92607">
        <ele>1702</ele>
        <time>2017-06-08T16:54:20Z</time>
      </trkpt>
      <trkpt lat="44.09118" lon="6.92613">
        <ele>1702</ele>
        <time>2017-06-08T16:54:20Z</time>
      </trkpt>
      <trkpt lat="44.09117" lon="6.92617">
        <ele>1702</ele>
        <time>2017-06-08T16:54:37Z</time>
      </trkpt>
      <trkpt lat="44.09121" lon="6.92624">
        <ele>1702</ele>
        <time>2017-06-08T16:54:37Z</time>
      </trkpt>
      <trkpt lat="44.09123" lon="6.92624">
        <ele>1702</ele>
        <time>2017-06-08T16:54:37Z</time>
      </trkpt>
      <trkpt lat="44.09124" lon="6.92627">
        <ele>1703</ele>
        <time>2017-06-08T16:54:37Z</time>
      </trkpt>
      <trkpt lat="44.09124" lon="6.92628">
        <ele>1703</ele>
        <time>2017-06-08T16:54:53Z</time>
      </trkpt>
      <trkpt lat="44.09127" lon="6.92641">
        <ele>1693</ele>
        <time>2017-06-08T16:54:53Z</time>
      </trkpt>
      <trkpt lat="44.09128" lon="6.92649">
        <ele>1693</ele>
        <time>2017-06-08T16:54:53Z</time>
      </trkpt>
      <trkpt lat="44.0913" lon="6.92659">
        <ele>1693</ele>
        <time>2017-06-08T16:54:53Z</time>
      </trkpt>
      <trkpt lat="44.09131" lon="6.92661">
        <ele>1693</ele>
        <time>2017-06-08T16:55:09Z</time>
      </trkpt>
      <trkpt lat="44.09135" lon="6.92673">
        <ele>1693</ele>
        <time>2017-06-08T16:55:09Z</time>
      </trkpt>
      <trkpt lat="44.09135" lon="6.92676">
        <ele>1693</ele>
        <time>2017-06-08T16:55:10Z</time>
      </trkpt>
      <trkpt lat="44.09138" lon="6.92683">
        <ele>1696</ele>
        <time>2017-06-08T16:55:10Z</time>
      </trkpt>
      <trkpt lat="44.09138" lon="6.92685">
        <ele>1696</ele>
        <time>2017-06-08T16:55:25Z</time>
      </trkpt>
      <trkpt lat="44.09139" lon="6.9269">
        <ele>1696</ele>
        <time>2017-06-08T16:55:25Z</time>
      </trkpt>
      <trkpt lat="44.09139" lon="6.92693">
        <ele>1696</ele>
        <time>2017-06-08T16:55:25Z</time>
      </trkpt>
      <trkpt lat="44.0914" lon="6.927">
        <ele>1696</ele>
        <time>2017-06-08T16:55:25Z</time>
      </trkpt>
      <trkpt lat="44.09141" lon="6.927">
        <ele>1696</ele>
        <time>2017-06-08T16:55:41Z</time>
      </trkpt>
      <trkpt lat="44.09147" lon="6.92708">
        <ele>1696</ele>
        <time>2017-06-08T16:55:41Z</time>
      </trkpt>
      <trkpt lat="44.09149" lon="6.9271">
        <ele>1700</ele>
        <time>2017-06-08T16:55:42Z</time>
      </trkpt>
      <trkpt lat="44.09151" lon="6.92715">
        <ele>1700</ele>
        <time>2017-06-08T16:55:42Z</time>
      </trkpt>
      <trkpt lat="44.09153" lon="6.92716">
        <ele>1697</ele>
        <time>2017-06-08T16:55:56Z</time>
      </trkpt>
      <trkpt lat="44.09154" lon="6.92723">
        <ele>1697</ele>
        <time>2017-06-08T16:55:56Z</time>
      </trkpt>
      <trkpt lat="44.0916" lon="6.92731">
        <ele>1697</ele>
        <time>2017-06-08T16:55:56Z</time>
      </trkpt>
      <trkpt lat="44.09162" lon="6.92735">
        <ele>1697</ele>
        <time>2017-06-08T16:55:56Z</time>
      </trkpt>
      <trkpt lat="44.09163" lon="6.92733">
        <ele>1697</ele>
        <time>2017-06-08T16:56:11Z</time>
      </trkpt>
      <trkpt lat="44.09166" lon="6.92736">
        <ele>1697</ele>
        <time>2017-06-08T16:56:11Z</time>
      </trkpt>
      <trkpt lat="44.0917" lon="6.92749">
        <ele>1700</ele>
        <time>2017-06-08T16:56:11Z</time>
      </trkpt>
      <trkpt lat="44.09171" lon="6.92749">
        <ele>1700</ele>
        <time>2017-06-08T16:56:11Z</time>
      </trkpt>
      <trkpt lat="44.09172" lon="6.92751">
        <ele>1700</ele>
        <time>2017-06-08T16:56:29Z</time>
      </trkpt>
      <trkpt lat="44.09179" lon="6.92755">
        <ele>1700</ele>
        <time>2017-06-08T16:56:29Z</time>
      </trkpt>
      <trkpt lat="44.09181" lon="6.92759">
        <ele>1699</ele>
        <time>2017-06-08T16:56:29Z</time>
      </trkpt>
      <trkpt lat="44.09184" lon="6.92763">
        <ele>1699</ele>
        <time>2017-06-08T16:56:29Z</time>
      </trkpt>
      <trkpt lat="44.09185" lon="6.92763">
        <ele>1699</ele>
        <time>2017-06-08T16:56:45Z</time>
      </trkpt>
      <trkpt lat="44.09196" lon="6.92764">
        <ele>1703</ele>
        <time>2017-06-08T16:56:45Z</time>
      </trkpt>
      <trkpt lat="44.09197" lon="6.92764">
        <ele>1703</ele>
        <time>2017-06-08T16:56:45Z</time>
      </trkpt>
      <trkpt lat="44.09202" lon="6.92763">
        <ele>1699</ele>
        <time>2017-06-08T16:56:46Z</time>
      </trkpt>
      <trkpt lat="44.09203" lon="6.92764">
        <ele>1699</ele>
        <time>2017-06-08T16:57:00Z</time>
      </trkpt>
      <trkpt lat="44.09218" lon="6.92761">
        <ele>1697</ele>
        <time>2017-06-08T16:57:00Z</time>
      </trkpt>
      <trkpt lat="44.0922" lon="6.92762">
        <ele>1697</ele>
        <time>2017-06-08T16:57:00Z</time>
      </trkpt>
      <trkpt lat="44.09221" lon="6.92761">
        <ele>1697</ele>
        <time>2017-06-08T16:57:00Z</time>
      </trkpt>
      <trkpt lat="44.09221" lon="6.92762">
        <ele>1697</ele>
        <time>2017-06-08T16:57:16Z</time>
      </trkpt>
      <trkpt lat="44.09224" lon="6.92766">
        <ele>1702</ele>
        <time>2017-06-08T16:57:16Z</time>
      </trkpt>
      <trkpt lat="44.09226" lon="6.92766">
        <ele>1702</ele>
        <time>2017-06-08T16:57:16Z</time>
      </trkpt>
      <trkpt lat="44.09229" lon="6.9277">
        <ele>1702</ele>
        <time>2017-06-08T16:57:16Z</time>
      </trkpt>
      <trkpt lat="44.09229" lon="6.9277">
        <ele>1702</ele>
        <time>2017-06-08T16:57:31Z</time>
      </trkpt>
      <trkpt lat="44.09232" lon="6.92772">
        <ele>1702</ele>
        <time>2017-06-08T16:57:31Z</time>
      </trkpt>
      <trkpt lat="44.09235" lon="6.92773">
        <ele>1702</ele>
        <time>2017-06-08T16:57:31Z</time>
      </trkpt>
      <trkpt lat="44.09238" lon="6.92773">
        <ele>1701</ele>
        <time>2017-06-08T16:57:31Z</time>
      </trkpt>
      <trkpt lat="44.0924" lon="6.92781">
        <ele>1701</ele>
        <time>2017-06-08T16:57:48Z</time>
      </trkpt>
      <trkpt lat="44.09245" lon="6.92783">
        <ele>1701</ele>
        <time>2017-06-08T16:57:48Z</time>
      </trkpt>
      <trkpt lat="44.09246" lon="6.92785">
        <ele>1701</ele>
        <time>2017-06-08T16:57:48Z</time>
      </trkpt>
      <trkpt lat="44.09255" lon="6.92791">
        <ele>1701</ele>
        <time>2017-06-08T16:57:49Z</time>
      </trkpt>
      <trkpt lat="44.0926" lon="6.92793">
        <ele>1705</ele>
        <time>2017-06-08T16:58:03Z</time>
      </trkpt>
      <trkpt lat="44.09268" lon="6.92796">
        <ele>1705</ele>
        <time>2017-06-08T16:58:03Z</time>
      </trkpt>
      <trkpt lat="44.0927" lon="6.92798">
        <ele>1705</ele>
        <time>2017-06-08T16:58:03Z</time>
      </trkpt>
      <trkpt lat="44.09274" lon="6.92799">
        <ele>1705</ele>
        <time>2017-06-08T16:58:03Z</time>
      </trkpt>
      <trkpt lat="44.09278" lon="6.92801">
        <ele>1705</ele>
        <time>2017-06-08T16:58:20Z</time>
      </trkpt>
      <trkpt lat="44.09283" lon="6.92802">
        <ele>1705</ele>
        <time>2017-06-08T16:58:20Z</time>
      </trkpt>
      <trkpt lat="44.09285" lon="6.92804">
        <ele>1705</ele>
        <time>2017-06-08T16:58:20Z</time>
      </trkpt>
      <trkpt lat="44.09287" lon="6.92808">
        <ele>1705</ele>
        <time>2017-06-08T16:58:20Z</time>
      </trkpt>
      <trkpt lat="44.09289" lon="6.92808">
        <ele>1705</ele>
        <time>2017-06-08T16:58:36Z</time>
      </trkpt>
      <trkpt lat="44.09299" lon="6.92815">
        <ele>1700</ele>
        <time>2017-06-08T16:58:36Z</time>
      </trkpt>
      <trkpt lat="44.09301" lon="6.92817">
        <ele>1700</ele>
        <time>2017-06-08T16:58:37Z</time>
      </trkpt>
      <trkpt lat="44.0931" lon="6.92818">
        <ele>1700</ele>
        <time>2017-06-08T16:58:37Z</time>
      </trkpt>
      <trkpt lat="44.09312" lon="6.9282">
        <ele>1704</ele>
        <time>2017-06-08T16:58:52Z</time>
      </trkpt>
      <trkpt lat="44.0932" lon="6.92825">
        <ele>1698</ele>
        <time>2017-06-08T16:58:52Z</time>
      </trkpt>
      <trkpt lat="44.09328" lon="6.9283">
        <ele>1698</ele>
        <time>2017-06-08T16:58:52Z</time>
      </trkpt>
      <trkpt lat="44.09329" lon="6.9283">
        <ele>1698</ele>
        <time>2017-06-08T16:58:52Z</time>
      </trkpt>
      <trkpt lat="44.09326" lon="6.92822">
        <ele>1698</ele>
        <time>2017-06-08T16:59:48Z</time>
      </trkpt>
      <trkpt lat="44.09337" lon="6.92824">
        <ele>1698</ele>
        <time>2017-06-08T16:59:48Z</time>
      </trkpt>
      <trkpt lat="44.0934" lon="6.92826">
        <ele>1698</ele>
        <time>2017-06-08T16:59:48Z</time>
      </trkpt>
      <trkpt lat="44.09341" lon="6.92835">
        <ele>1698</ele>
        <time>2017-06-08T16:59:48Z</time>
      </trkpt>
      <trkpt lat="44.09345" lon="6.9284">
        <ele>1698</ele>
        <time>2017-06-08T16:59:48Z</time>
      </trkpt>
      <trkpt lat="44.0935" lon="6.92846">
        <ele>1692</ele>
        <time>2017-06-08T17:01:12Z</time>
      </trkpt>
      <trkpt lat="44.0935" lon="6.92847">
        <ele>1692</ele>
        <time>2017-06-08T17:01:12Z</time>
      </trkpt>
      <trkpt lat="44.09356" lon="6.92847">
        <ele>1692</ele>
        <time>2017-06-08T17:01:12Z</time>
      </trkpt>
      <trkpt lat="44.09364" lon="6.9285">
        <ele>1698</ele>
        <time>2017-06-08T17:01:13Z</time>
      </trkpt>
      <trkpt lat="44.09366" lon="6.9285">
        <ele>1698</ele>
        <time>2017-06-08T17:01:13Z</time>
      </trkpt>
      <trkpt lat="44.0937" lon="6.9285">
        <ele>1698</ele>
        <time>2017-06-08T17:01:37Z</time>
      </trkpt>
      <trkpt lat="44.09372" lon="6.92848">
        <ele>1698</ele>
        <time>2017-06-08T17:01:37Z</time>
      </trkpt>
      <trkpt lat="44.09374" lon="6.92846">
        <ele>1692</ele>
        <time>2017-06-08T17:01:38Z</time>
      </trkpt>
      <trkpt lat="44.09374" lon="6.92846">
        <ele>1692</ele>
        <time>2017-06-08T17:01:38Z</time>
      </trkpt>
      <trkpt lat="44.0938" lon="6.92845">
        <ele>1695</ele>
        <time>2017-06-08T17:01:38Z</time>
      </trkpt>
      <trkpt lat="44.09395" lon="6.92842">
        <ele>1695</ele>
        <time>2017-06-08T17:02:20Z</time>
      </trkpt>
      <trkpt lat="44.09398" lon="6.92839">
        <ele>1695</ele>
        <time>2017-06-08T17:02:20Z</time>
      </trkpt>
      <trkpt lat="44.09399" lon="6.92837">
        <ele>1695</ele>
        <time>2017-06-08T17:02:20Z</time>
      </trkpt>
      <trkpt lat="44.09402" lon="6.92831">
        <ele>1695</ele>
        <time>2017-06-08T17:02:20Z</time>
      </trkpt>
      <trkpt lat="44.09404" lon="6.92828">
        <ele>1697</ele>
        <time>2017-06-08T17:02:20Z</time>
      </trkpt>
      <trkpt lat="44.09406" lon="6.92828">
        <ele>1697</ele>
        <time>2017-06-08T17:02:36Z</time>
      </trkpt>
      <trkpt lat="44.09411" lon="6.9282">
        <ele>1697</ele>
        <time>2017-06-08T17:02:36Z</time>
      </trkpt>
      <trkpt lat="44.09412" lon="6.92819">
        <ele>1694</ele>
        <time>2017-06-08T17:02:36Z</time>
      </trkpt>
      <trkpt lat="44.09416" lon="6.92817">
        <ele>1694</ele>
        <time>2017-06-08T17:02:36Z</time>
      </trkpt>
      <trkpt lat="44.09417" lon="6.92817">
        <ele>1694</ele>
        <time>2017-06-08T17:02:51Z</time>
      </trkpt>
      <trkpt lat="44.09424" lon="6.92812">
        <ele>1694</ele>
        <time>2017-06-08T17:02:51Z</time>
      </trkpt>
      <trkpt lat="44.09425" lon="6.92808">
        <ele>1694</ele>
        <time>2017-06-08T17:02:51Z</time>
      </trkpt>
      <trkpt lat="44.09427" lon="6.92801">
        <ele>1694</ele>
        <time>2017-06-08T17:02:51Z</time>
      </trkpt>
      <trkpt lat="44.09428" lon="6.92798">
        <ele>1694</ele>
        <time>2017-06-08T17:03:07Z</time>
      </trkpt>
      <trkpt lat="44.09433" lon="6.92799">
        <ele>1695</ele>
        <time>2017-06-08T17:03:07Z</time>
      </trkpt>
      <trkpt lat="44.09438" lon="6.92799">
        <ele>1695</ele>
        <time>2017-06-08T17:03:07Z</time>
      </trkpt>
      <trkpt lat="44.09443" lon="6.92802">
        <ele>1695</ele>
        <time>2017-06-08T17:03:08Z</time>
      </trkpt>
      <trkpt lat="44.09449" lon="6.92804">
        <ele>1695</ele>
        <time>2017-06-08T17:03:25Z</time>
      </trkpt>
      <trkpt lat="44.09454" lon="6.92804">
        <ele>1695</ele>
        <time>2017-06-08T17:03:25Z</time>
      </trkpt>
      <trkpt lat="44.09457" lon="6.92806">
        <ele>1695</ele>
        <time>2017-06-08T17:03:25Z</time>
      </trkpt>
      <trkpt lat="44.09462" lon="6.9281">
        <ele>1693</ele>
        <time>2017-06-08T17:03:25Z</time>
      </trkpt>
      <trkpt lat="44.09464" lon="6.92811">
        <ele>1693</ele>
        <time>2017-06-08T17:03:39Z</time>
      </trkpt>
      <trkpt lat="44.09471" lon="6.92816">
        <ele>1693</ele>
        <time>2017-06-08T17:03:40Z</time>
      </trkpt>
      <trkpt lat="44.09474" lon="6.9282">
        <ele>1693</ele>
        <time>2017-06-08T17:03:40Z</time>
      </trkpt>
      <trkpt lat="44.09478" lon="6.92823">
        <ele>1693</ele>
        <time>2017-06-08T17:03:40Z</time>
      </trkpt>
      <trkpt lat="44.09482" lon="6.92826">
        <ele>1693</ele>
        <time>2017-06-08T17:03:56Z</time>
      </trkpt>
      <trkpt lat="44.09486" lon="6.92829">
        <ele>1693</ele>
        <time>2017-06-08T17:03:56Z</time>
      </trkpt>
      <trkpt lat="44.09491" lon="6.9283">
        <ele>1684</ele>
        <time>2017-06-08T17:03:56Z</time>
      </trkpt>
      <trkpt lat="44.09496" lon="6.92832">
        <ele>1684</ele>
        <time>2017-06-08T17:03:56Z</time>
      </trkpt>
      <trkpt lat="44.09509" lon="6.92842">
        <ele>1684</ele>
        <time>2017-06-08T17:04:32Z</time>
      </trkpt>
      <trkpt lat="44.09509" lon="6.92844">
        <ele>1684</ele>
        <time>2017-06-08T17:04:32Z</time>
      </trkpt>
      <trkpt lat="44.09515" lon="6.92848">
        <ele>1678</ele>
        <time>2017-06-08T17:04:32Z</time>
      </trkpt>
      <trkpt lat="44.09518" lon="6.92851">
        <ele>1678</ele>
        <time>2017-06-08T17:04:33Z</time>
      </trkpt>
      <trkpt lat="44.0952" lon="6.92857">
        <ele>1678</ele>
        <time>2017-06-08T17:04:33Z</time>
      </trkpt>
    </trkseg>
  </trk>
</gpx>